<?xml version="1.0" encoding="UTF-8" standalone="no" ?>
<gpx xmlns="http://www.topografix.com/GPX/1/1" xmlns:xsi="http://www.w3.org/2001/XMLSchema-instance" xsi:schemaLocation="http://www.topografix.com/GPX/1/1 http://www.topografix.com/GPX/1/1/gpx.xsd" version="1.1" creator="VisuGPX - https://www.visugpx.com">
  <metadata>
    <name>131214ROBSebastienQuinisAdrechs</name>
    <desc><![CDATA[25 km - 600 m]]></desc>
  </metadata>
  <trk>
    <name><![CDATA[131214ROBSebastienQuinisAdrechs]]></name>
    <trkseg>
      <trkpt lat="43.40407" lon="6.06534">
        <ele>150.80000305176</ele>
        <time>2013-12-14T13:04:22Z</time>
      </trkpt>
      <trkpt lat="43.40408" lon="6.06534">
        <ele>150.80000305176</ele>
        <time>2013-12-14T13:04:23Z</time>
      </trkpt>
      <trkpt lat="43.40408" lon="6.06534">
        <ele>150.80000305176</ele>
        <time>2013-12-14T13:04:25Z</time>
      </trkpt>
      <trkpt lat="43.40408" lon="6.06533">
        <ele>153.19999694824</ele>
        <time>2013-12-14T13:04:26Z</time>
      </trkpt>
      <trkpt lat="43.40406" lon="6.06529">
        <ele>161.80000305176</ele>
        <time>2013-12-14T13:04:30Z</time>
      </trkpt>
      <trkpt lat="43.40406" lon="6.06524">
        <ele>161.80000305176</ele>
        <time>2013-12-14T13:04:34Z</time>
      </trkpt>
      <trkpt lat="43.40405" lon="6.0652">
        <ele>161.80000305176</ele>
        <time>2013-12-14T13:04:37Z</time>
      </trkpt>
      <trkpt lat="43.40404" lon="6.06508">
        <ele>161.80000305176</ele>
        <time>2013-12-14T13:04:43Z</time>
      </trkpt>
      <trkpt lat="43.40405" lon="6.06493">
        <ele>161.80000305176</ele>
        <time>2013-12-14T13:04:51Z</time>
      </trkpt>
      <trkpt lat="43.40402" lon="6.06486">
        <ele>161.80000305176</ele>
        <time>2013-12-14T13:04:56Z</time>
      </trkpt>
      <trkpt lat="43.40401" lon="6.06485">
        <ele>161.80000305176</ele>
        <time>2013-12-14T13:04:57Z</time>
      </trkpt>
      <trkpt lat="43.4038" lon="6.06497">
        <ele>161.80000305176</ele>
        <time>2013-12-14T13:05:08Z</time>
      </trkpt>
      <trkpt lat="43.40365" lon="6.06507">
        <ele>161.80000305176</ele>
        <time>2013-12-14T13:05:14Z</time>
      </trkpt>
      <trkpt lat="43.40348" lon="6.06518">
        <ele>161.80000305176</ele>
        <time>2013-12-14T13:05:20Z</time>
      </trkpt>
      <trkpt lat="43.40327" lon="6.06531">
        <ele>161.80000305176</ele>
        <time>2013-12-14T13:05:27Z</time>
      </trkpt>
      <trkpt lat="43.40303" lon="6.06547">
        <ele>161.80000305176</ele>
        <time>2013-12-14T13:05:35Z</time>
      </trkpt>
      <trkpt lat="43.4028" lon="6.06551">
        <ele>161.80000305176</ele>
        <time>2013-12-14T13:05:42Z</time>
      </trkpt>
      <trkpt lat="43.40255" lon="6.06563">
        <ele>161.80000305176</ele>
        <time>2013-12-14T13:05:50Z</time>
      </trkpt>
      <trkpt lat="43.40236" lon="6.0658">
        <ele>161.80000305176</ele>
        <time>2013-12-14T13:05:57Z</time>
      </trkpt>
      <trkpt lat="43.40234" lon="6.06596">
        <ele>161.80000305176</ele>
        <time>2013-12-14T13:06:01Z</time>
      </trkpt>
      <trkpt lat="43.40226" lon="6.06613">
        <ele>161.80000305176</ele>
        <time>2013-12-14T13:06:06Z</time>
      </trkpt>
      <trkpt lat="43.40208" lon="6.06637">
        <ele>161.80000305176</ele>
        <time>2013-12-14T13:06:13Z</time>
      </trkpt>
      <trkpt lat="43.40198" lon="6.06666">
        <ele>161.80000305176</ele>
        <time>2013-12-14T13:06:20Z</time>
      </trkpt>
      <trkpt lat="43.40184" lon="6.06698">
        <ele>161.80000305176</ele>
        <time>2013-12-14T13:06:29Z</time>
      </trkpt>
      <trkpt lat="43.40169" lon="6.06729">
        <ele>161.80000305176</ele>
        <time>2013-12-14T13:06:38Z</time>
      </trkpt>
      <trkpt lat="43.40162" lon="6.06747">
        <ele>160</ele>
        <time>2013-12-14T13:06:43Z</time>
      </trkpt>
      <trkpt lat="43.40157" lon="6.06756">
        <ele>154.19999694824</ele>
        <time>2013-12-14T13:06:46Z</time>
      </trkpt>
      <trkpt lat="43.40149" lon="6.06776">
        <ele>152.39999389648</ele>
        <time>2013-12-14T13:06:52Z</time>
      </trkpt>
      <trkpt lat="43.40138" lon="6.06805">
        <ele>152.80000305176</ele>
        <time>2013-12-14T13:07:00Z</time>
      </trkpt>
      <trkpt lat="43.40136" lon="6.06813">
        <ele>153.60000610352</ele>
        <time>2013-12-14T13:07:02Z</time>
      </trkpt>
      <trkpt lat="43.40129" lon="6.06835">
        <ele>154.39999389648</ele>
        <time>2013-12-14T13:07:08Z</time>
      </trkpt>
      <trkpt lat="43.40118" lon="6.06864">
        <ele>155.39999389648</ele>
        <time>2013-12-14T13:07:16Z</time>
      </trkpt>
      <trkpt lat="43.40117" lon="6.06867">
        <ele>155.80000305176</ele>
        <time>2013-12-14T13:07:17Z</time>
      </trkpt>
      <trkpt lat="43.40115" lon="6.06874">
        <ele>156.60000610352</ele>
        <time>2013-12-14T13:07:19Z</time>
      </trkpt>
      <trkpt lat="43.40111" lon="6.06888">
        <ele>156.60000610352</ele>
        <time>2013-12-14T13:07:23Z</time>
      </trkpt>
      <trkpt lat="43.4011" lon="6.06918">
        <ele>156.60000610352</ele>
        <time>2013-12-14T13:07:29Z</time>
      </trkpt>
      <trkpt lat="43.40112" lon="6.06934">
        <ele>156.60000610352</ele>
        <time>2013-12-14T13:07:32Z</time>
      </trkpt>
      <trkpt lat="43.40117" lon="6.06957">
        <ele>156.60000610352</ele>
        <time>2013-12-14T13:07:36Z</time>
      </trkpt>
      <trkpt lat="43.40118" lon="6.06962">
        <ele>156.60000610352</ele>
        <time>2013-12-14T13:07:37Z</time>
      </trkpt>
      <trkpt lat="43.4012" lon="6.06986">
        <ele>156.60000610352</ele>
        <time>2013-12-14T13:07:41Z</time>
      </trkpt>
      <trkpt lat="43.40121" lon="6.07008">
        <ele>156.60000610352</ele>
        <time>2013-12-14T13:07:45Z</time>
      </trkpt>
      <trkpt lat="43.40121" lon="6.07057">
        <ele>156.60000610352</ele>
        <time>2013-12-14T13:07:54Z</time>
      </trkpt>
      <trkpt lat="43.40121" lon="6.07062">
        <ele>156.60000610352</ele>
        <time>2013-12-14T13:07:55Z</time>
      </trkpt>
      <trkpt lat="43.40122" lon="6.07093">
        <ele>156.60000610352</ele>
        <time>2013-12-14T13:08:01Z</time>
      </trkpt>
      <trkpt lat="43.40131" lon="6.07143">
        <ele>154.60000610352</ele>
        <time>2013-12-14T13:08:10Z</time>
      </trkpt>
      <trkpt lat="43.40136" lon="6.07181">
        <ele>154.60000610352</ele>
        <time>2013-12-14T13:08:17Z</time>
      </trkpt>
      <trkpt lat="43.40144" lon="6.0724">
        <ele>154.60000610352</ele>
        <time>2013-12-14T13:08:28Z</time>
      </trkpt>
      <trkpt lat="43.40146" lon="6.07278">
        <ele>154.60000610352</ele>
        <time>2013-12-14T13:08:35Z</time>
      </trkpt>
      <trkpt lat="43.40145" lon="6.073">
        <ele>154.60000610352</ele>
        <time>2013-12-14T13:08:39Z</time>
      </trkpt>
      <trkpt lat="43.40144" lon="6.0732">
        <ele>154.60000610352</ele>
        <time>2013-12-14T13:08:43Z</time>
      </trkpt>
      <trkpt lat="43.4014" lon="6.07357">
        <ele>154.60000610352</ele>
        <time>2013-12-14T13:08:50Z</time>
      </trkpt>
      <trkpt lat="43.40138" lon="6.07376">
        <ele>154.60000610352</ele>
        <time>2013-12-14T13:08:54Z</time>
      </trkpt>
      <trkpt lat="43.40137" lon="6.07386">
        <ele>154.60000610352</ele>
        <time>2013-12-14T13:08:56Z</time>
      </trkpt>
      <trkpt lat="43.40144" lon="6.07421">
        <ele>154.60000610352</ele>
        <time>2013-12-14T13:09:03Z</time>
      </trkpt>
      <trkpt lat="43.40147" lon="6.07445">
        <ele>155</ele>
        <time>2013-12-14T13:09:08Z</time>
      </trkpt>
      <trkpt lat="43.40146" lon="6.07455">
        <ele>155.80000305176</ele>
        <time>2013-12-14T13:09:10Z</time>
      </trkpt>
      <trkpt lat="43.40146" lon="6.07466">
        <ele>156.60000610352</ele>
        <time>2013-12-14T13:09:12Z</time>
      </trkpt>
      <trkpt lat="43.40143" lon="6.07489">
        <ele>156.60000610352</ele>
        <time>2013-12-14T13:09:17Z</time>
      </trkpt>
      <trkpt lat="43.40138" lon="6.07506">
        <ele>157.60000610352</ele>
        <time>2013-12-14T13:09:21Z</time>
      </trkpt>
      <trkpt lat="43.40136" lon="6.07514">
        <ele>158.39999389648</ele>
        <time>2013-12-14T13:09:23Z</time>
      </trkpt>
      <trkpt lat="43.40135" lon="6.07518">
        <ele>158.80000305176</ele>
        <time>2013-12-14T13:09:24Z</time>
      </trkpt>
      <trkpt lat="43.40128" lon="6.07532">
        <ele>158.80000305176</ele>
        <time>2013-12-14T13:09:28Z</time>
      </trkpt>
      <trkpt lat="43.40117" lon="6.07555">
        <ele>159.19999694824</ele>
        <time>2013-12-14T13:09:34Z</time>
      </trkpt>
      <trkpt lat="43.40114" lon="6.07558">
        <ele>159.60000610352</ele>
        <time>2013-12-14T13:09:35Z</time>
      </trkpt>
      <trkpt lat="43.40108" lon="6.07568">
        <ele>160.80000305176</ele>
        <time>2013-12-14T13:09:38Z</time>
      </trkpt>
      <trkpt lat="43.40096" lon="6.07589">
        <ele>160.80000305176</ele>
        <time>2013-12-14T13:09:44Z</time>
      </trkpt>
      <trkpt lat="43.40094" lon="6.07597">
        <ele>160.80000305176</ele>
        <time>2013-12-14T13:09:46Z</time>
      </trkpt>
      <trkpt lat="43.4009" lon="6.0765">
        <ele>163</ele>
        <time>2013-12-14T13:10:00Z</time>
      </trkpt>
      <trkpt lat="43.40085" lon="6.07667">
        <ele>163.80000305176</ele>
        <time>2013-12-14T13:10:05Z</time>
      </trkpt>
      <trkpt lat="43.40081" lon="6.07675">
        <ele>165.19999694824</ele>
        <time>2013-12-14T13:10:08Z</time>
      </trkpt>
      <trkpt lat="43.40073" lon="6.07691">
        <ele>165.60000610352</ele>
        <time>2013-12-14T13:10:14Z</time>
      </trkpt>
      <trkpt lat="43.40069" lon="6.07696">
        <ele>166.39999389648</ele>
        <time>2013-12-14T13:10:16Z</time>
      </trkpt>
      <trkpt lat="43.40068" lon="6.07699">
        <ele>166.80000305176</ele>
        <time>2013-12-14T13:10:17Z</time>
      </trkpt>
      <trkpt lat="43.40066" lon="6.07702">
        <ele>167.19999694824</ele>
        <time>2013-12-14T13:10:18Z</time>
      </trkpt>
      <trkpt lat="43.40054" lon="6.07718">
        <ele>167.19999694824</ele>
        <time>2013-12-14T13:10:24Z</time>
      </trkpt>
      <trkpt lat="43.40044" lon="6.07732">
        <ele>167.19999694824</ele>
        <time>2013-12-14T13:10:29Z</time>
      </trkpt>
      <trkpt lat="43.40038" lon="6.07742">
        <ele>167.19999694824</ele>
        <time>2013-12-14T13:10:32Z</time>
      </trkpt>
      <trkpt lat="43.40028" lon="6.07767">
        <ele>167.19999694824</ele>
        <time>2013-12-14T13:10:39Z</time>
      </trkpt>
      <trkpt lat="43.40015" lon="6.07809">
        <ele>167.19999694824</ele>
        <time>2013-12-14T13:10:50Z</time>
      </trkpt>
      <trkpt lat="43.39997" lon="6.07876">
        <ele>169.39999389648</ele>
        <time>2013-12-14T13:11:07Z</time>
      </trkpt>
      <trkpt lat="43.39989" lon="6.07912">
        <ele>169.39999389648</ele>
        <time>2013-12-14T13:11:16Z</time>
      </trkpt>
      <trkpt lat="43.39986" lon="6.07928">
        <ele>170.60000610352</ele>
        <time>2013-12-14T13:11:20Z</time>
      </trkpt>
      <trkpt lat="43.39982" lon="6.07939">
        <ele>171.60000610352</ele>
        <time>2013-12-14T13:11:21Z</time>
      </trkpt>
      <trkpt lat="43.39982" lon="6.07939">
        <ele>171.60000610352</ele>
        <time>2013-12-14T13:11:23Z</time>
      </trkpt>
      <trkpt lat="43.39978" lon="6.07961">
        <ele>171.60000610352</ele>
        <time>2013-12-14T13:11:29Z</time>
      </trkpt>
      <trkpt lat="43.39975" lon="6.07967">
        <ele>172</ele>
        <time>2013-12-14T13:11:31Z</time>
      </trkpt>
      <trkpt lat="43.39974" lon="6.07969">
        <ele>172.39999389648</ele>
        <time>2013-12-14T13:11:32Z</time>
      </trkpt>
      <trkpt lat="43.39972" lon="6.07972">
        <ele>172.80000305176</ele>
        <time>2013-12-14T13:11:33Z</time>
      </trkpt>
      <trkpt lat="43.39968" lon="6.07975">
        <ele>173.80000305176</ele>
        <time>2013-12-14T13:11:35Z</time>
      </trkpt>
      <trkpt lat="43.39956" lon="6.07983">
        <ele>173.80000305176</ele>
        <time>2013-12-14T13:11:40Z</time>
      </trkpt>
      <trkpt lat="43.39936" lon="6.07994">
        <ele>175.80000305176</ele>
        <time>2013-12-14T13:11:47Z</time>
      </trkpt>
      <trkpt lat="43.39923" lon="6.08001">
        <ele>175.80000305176</ele>
        <time>2013-12-14T13:11:52Z</time>
      </trkpt>
      <trkpt lat="43.39909" lon="6.08018">
        <ele>175.80000305176</ele>
        <time>2013-12-14T13:11:57Z</time>
      </trkpt>
      <trkpt lat="43.39901" lon="6.08029">
        <ele>175.80000305176</ele>
        <time>2013-12-14T13:12:00Z</time>
      </trkpt>
      <trkpt lat="43.39891" lon="6.08034">
        <ele>175.80000305176</ele>
        <time>2013-12-14T13:12:03Z</time>
      </trkpt>
      <trkpt lat="43.39879" lon="6.08034">
        <ele>175.80000305176</ele>
        <time>2013-12-14T13:12:06Z</time>
      </trkpt>
      <trkpt lat="43.3987" lon="6.08032">
        <ele>175.80000305176</ele>
        <time>2013-12-14T13:12:08Z</time>
      </trkpt>
      <trkpt lat="43.39866" lon="6.08029">
        <ele>175.80000305176</ele>
        <time>2013-12-14T13:12:09Z</time>
      </trkpt>
      <trkpt lat="43.39854" lon="6.08021">
        <ele>175.80000305176</ele>
        <time>2013-12-14T13:12:12Z</time>
      </trkpt>
      <trkpt lat="43.39845" lon="6.08015">
        <ele>175.80000305176</ele>
        <time>2013-12-14T13:12:14Z</time>
      </trkpt>
      <trkpt lat="43.3983" lon="6.08003">
        <ele>175.80000305176</ele>
        <time>2013-12-14T13:12:18Z</time>
      </trkpt>
      <trkpt lat="43.39825" lon="6.08">
        <ele>175.39999389648</ele>
        <time>2013-12-14T13:12:19Z</time>
      </trkpt>
      <trkpt lat="43.39821" lon="6.07999">
        <ele>175</ele>
        <time>2013-12-14T13:12:20Z</time>
      </trkpt>
      <trkpt lat="43.39817" lon="6.07997">
        <ele>174.60000610352</ele>
        <time>2013-12-14T13:12:21Z</time>
      </trkpt>
      <trkpt lat="43.39809" lon="6.07993">
        <ele>173.80000305176</ele>
        <time>2013-12-14T13:12:23Z</time>
      </trkpt>
      <trkpt lat="43.39787" lon="6.07984">
        <ele>173.80000305176</ele>
        <time>2013-12-14T13:12:29Z</time>
      </trkpt>
      <trkpt lat="43.39777" lon="6.07978">
        <ele>173.80000305176</ele>
        <time>2013-12-14T13:12:33Z</time>
      </trkpt>
      <trkpt lat="43.39769" lon="6.07974">
        <ele>174.19999694824</ele>
        <time>2013-12-14T13:12:36Z</time>
      </trkpt>
      <trkpt lat="43.39761" lon="6.07968">
        <ele>175.39999389648</ele>
        <time>2013-12-14T13:12:39Z</time>
      </trkpt>
      <trkpt lat="43.39743" lon="6.0796">
        <ele>175.80000305176</ele>
        <time>2013-12-14T13:12:45Z</time>
      </trkpt>
      <trkpt lat="43.39738" lon="6.07955">
        <ele>176.19999694824</ele>
        <time>2013-12-14T13:12:47Z</time>
      </trkpt>
      <trkpt lat="43.39733" lon="6.07951">
        <ele>177</ele>
        <time>2013-12-14T13:12:49Z</time>
      </trkpt>
      <trkpt lat="43.39731" lon="6.07948">
        <ele>177.39999389648</ele>
        <time>2013-12-14T13:12:50Z</time>
      </trkpt>
      <trkpt lat="43.39729" lon="6.07947">
        <ele>177.80000305176</ele>
        <time>2013-12-14T13:12:51Z</time>
      </trkpt>
      <trkpt lat="43.39725" lon="6.07942">
        <ele>177.80000305176</ele>
        <time>2013-12-14T13:12:53Z</time>
      </trkpt>
      <trkpt lat="43.39712" lon="6.07922">
        <ele>178.19999694824</ele>
        <time>2013-12-14T13:13:02Z</time>
      </trkpt>
      <trkpt lat="43.3971" lon="6.07919">
        <ele>179.19999694824</ele>
        <time>2013-12-14T13:13:04Z</time>
      </trkpt>
      <trkpt lat="43.39705" lon="6.07914">
        <ele>180</ele>
        <time>2013-12-14T13:13:07Z</time>
      </trkpt>
      <trkpt lat="43.39701" lon="6.07909">
        <ele>180.39999389648</ele>
        <time>2013-12-14T13:13:10Z</time>
      </trkpt>
      <trkpt lat="43.39698" lon="6.07906">
        <ele>181.19999694824</ele>
        <time>2013-12-14T13:13:12Z</time>
      </trkpt>
      <trkpt lat="43.39688" lon="6.07896">
        <ele>182.39999389648</ele>
        <time>2013-12-14T13:13:19Z</time>
      </trkpt>
      <trkpt lat="43.39669" lon="6.07889">
        <ele>184.19999694824</ele>
        <time>2013-12-14T13:13:28Z</time>
      </trkpt>
      <trkpt lat="43.39653" lon="6.0789">
        <ele>184.19999694824</ele>
        <time>2013-12-14T13:13:36Z</time>
      </trkpt>
      <trkpt lat="43.39642" lon="6.07892">
        <ele>184.60000610352</ele>
        <time>2013-12-14T13:13:41Z</time>
      </trkpt>
      <trkpt lat="43.39636" lon="6.07894">
        <ele>186.19999694824</ele>
        <time>2013-12-14T13:13:44Z</time>
      </trkpt>
      <trkpt lat="43.39622" lon="6.07897">
        <ele>186.19999694824</ele>
        <time>2013-12-14T13:13:50Z</time>
      </trkpt>
      <trkpt lat="43.39614" lon="6.07901">
        <ele>186.19999694824</ele>
        <time>2013-12-14T13:13:54Z</time>
      </trkpt>
      <trkpt lat="43.39599" lon="6.07906">
        <ele>186.19999694824</ele>
        <time>2013-12-14T13:14:03Z</time>
      </trkpt>
      <trkpt lat="43.39597" lon="6.07906">
        <ele>186.60000610352</ele>
        <time>2013-12-14T13:14:04Z</time>
      </trkpt>
      <trkpt lat="43.39593" lon="6.07907">
        <ele>187.60000610352</ele>
        <time>2013-12-14T13:14:06Z</time>
      </trkpt>
      <trkpt lat="43.39588" lon="6.07907">
        <ele>188.80000305176</ele>
        <time>2013-12-14T13:14:10Z</time>
      </trkpt>
      <trkpt lat="43.39581" lon="6.07911">
        <ele>190.60000610352</ele>
        <time>2013-12-14T13:14:14Z</time>
      </trkpt>
      <trkpt lat="43.39578" lon="6.07918">
        <ele>190.60000610352</ele>
        <time>2013-12-14T13:14:17Z</time>
      </trkpt>
      <trkpt lat="43.39573" lon="6.07932">
        <ele>190.60000610352</ele>
        <time>2013-12-14T13:14:23Z</time>
      </trkpt>
      <trkpt lat="43.3957" lon="6.07934">
        <ele>191</ele>
        <time>2013-12-14T13:14:25Z</time>
      </trkpt>
      <trkpt lat="43.39565" lon="6.07935">
        <ele>192.19999694824</ele>
        <time>2013-12-14T13:14:28Z</time>
      </trkpt>
      <trkpt lat="43.39557" lon="6.07936">
        <ele>193.39999389648</ele>
        <time>2013-12-14T13:14:33Z</time>
      </trkpt>
      <trkpt lat="43.39555" lon="6.07937">
        <ele>193.80000305176</ele>
        <time>2013-12-14T13:14:34Z</time>
      </trkpt>
      <trkpt lat="43.39552" lon="6.07938">
        <ele>194.60000610352</ele>
        <time>2013-12-14T13:14:36Z</time>
      </trkpt>
      <trkpt lat="43.39543" lon="6.07942">
        <ele>194.60000610352</ele>
        <time>2013-12-14T13:14:41Z</time>
      </trkpt>
      <trkpt lat="43.39536" lon="6.07948">
        <ele>195.39999389648</ele>
        <time>2013-12-14T13:14:47Z</time>
      </trkpt>
      <trkpt lat="43.39531" lon="6.07949">
        <ele>196.80000305176</ele>
        <time>2013-12-14T13:14:50Z</time>
      </trkpt>
      <trkpt lat="43.39527" lon="6.07951">
        <ele>196.80000305176</ele>
        <time>2013-12-14T13:14:53Z</time>
      </trkpt>
      <trkpt lat="43.39519" lon="6.07955">
        <ele>197.19999694824</ele>
        <time>2013-12-14T13:14:59Z</time>
      </trkpt>
      <trkpt lat="43.39517" lon="6.07955">
        <ele>197.60000610352</ele>
        <time>2013-12-14T13:15:00Z</time>
      </trkpt>
      <trkpt lat="43.39513" lon="6.07956">
        <ele>198.80000305176</ele>
        <time>2013-12-14T13:15:03Z</time>
      </trkpt>
      <trkpt lat="43.39508" lon="6.07958">
        <ele>198.80000305176</ele>
        <time>2013-12-14T13:15:06Z</time>
      </trkpt>
      <trkpt lat="43.39497" lon="6.07962">
        <ele>198.80000305176</ele>
        <time>2013-12-14T13:15:13Z</time>
      </trkpt>
      <trkpt lat="43.39491" lon="6.07964">
        <ele>198.80000305176</ele>
        <time>2013-12-14T13:15:17Z</time>
      </trkpt>
      <trkpt lat="43.39489" lon="6.07964">
        <ele>198.80000305176</ele>
        <time>2013-12-14T13:15:19Z</time>
      </trkpt>
      <trkpt lat="43.39487" lon="6.07965">
        <ele>198.80000305176</ele>
        <time>2013-12-14T13:15:23Z</time>
      </trkpt>
      <trkpt lat="43.39486" lon="6.07962">
        <ele>198.80000305176</ele>
        <time>2013-12-14T13:15:26Z</time>
      </trkpt>
      <trkpt lat="43.39482" lon="6.07957">
        <ele>199.19999694824</ele>
        <time>2013-12-14T13:15:30Z</time>
      </trkpt>
      <trkpt lat="43.39478" lon="6.07955">
        <ele>200</ele>
        <time>2013-12-14T13:15:32Z</time>
      </trkpt>
      <trkpt lat="43.39476" lon="6.07952">
        <ele>200.39999389648</ele>
        <time>2013-12-14T13:15:33Z</time>
      </trkpt>
      <trkpt lat="43.39475" lon="6.0795">
        <ele>200.80000305176</ele>
        <time>2013-12-14T13:15:34Z</time>
      </trkpt>
      <trkpt lat="43.39471" lon="6.07942">
        <ele>200.80000305176</ele>
        <time>2013-12-14T13:15:38Z</time>
      </trkpt>
      <trkpt lat="43.39468" lon="6.07933">
        <ele>200.80000305176</ele>
        <time>2013-12-14T13:15:42Z</time>
      </trkpt>
      <trkpt lat="43.39465" lon="6.07928">
        <ele>200.80000305176</ele>
        <time>2013-12-14T13:15:45Z</time>
      </trkpt>
      <trkpt lat="43.39461" lon="6.07928">
        <ele>200.80000305176</ele>
        <time>2013-12-14T13:15:47Z</time>
      </trkpt>
      <trkpt lat="43.39457" lon="6.07934">
        <ele>200.80000305176</ele>
        <time>2013-12-14T13:15:50Z</time>
      </trkpt>
      <trkpt lat="43.39454" lon="6.07936">
        <ele>200.80000305176</ele>
        <time>2013-12-14T13:15:52Z</time>
      </trkpt>
      <trkpt lat="43.3945" lon="6.07934">
        <ele>200.80000305176</ele>
        <time>2013-12-14T13:15:55Z</time>
      </trkpt>
      <trkpt lat="43.39448" lon="6.07928">
        <ele>202.19999694824</ele>
        <time>2013-12-14T13:15:59Z</time>
      </trkpt>
      <trkpt lat="43.39447" lon="6.07927">
        <ele>202.80000305176</ele>
        <time>2013-12-14T13:16:00Z</time>
      </trkpt>
      <trkpt lat="43.39446" lon="6.07927">
        <ele>203.19999694824</ele>
        <time>2013-12-14T13:16:01Z</time>
      </trkpt>
      <trkpt lat="43.39445" lon="6.07929">
        <ele>203.19999694824</ele>
        <time>2013-12-14T13:16:02Z</time>
      </trkpt>
      <trkpt lat="43.39439" lon="6.07946">
        <ele>203.19999694824</ele>
        <time>2013-12-14T13:16:11Z</time>
      </trkpt>
      <trkpt lat="43.39434" lon="6.07955">
        <ele>203.19999694824</ele>
        <time>2013-12-14T13:16:16Z</time>
      </trkpt>
      <trkpt lat="43.39429" lon="6.07968">
        <ele>203.19999694824</ele>
        <time>2013-12-14T13:16:21Z</time>
      </trkpt>
      <trkpt lat="43.39425" lon="6.0797">
        <ele>203.19999694824</ele>
        <time>2013-12-14T13:16:23Z</time>
      </trkpt>
      <trkpt lat="43.39416" lon="6.07971">
        <ele>203.19999694824</ele>
        <time>2013-12-14T13:16:27Z</time>
      </trkpt>
      <trkpt lat="43.39411" lon="6.07974">
        <ele>203.19999694824</ele>
        <time>2013-12-14T13:16:29Z</time>
      </trkpt>
      <trkpt lat="43.39404" lon="6.07977">
        <ele>204</ele>
        <time>2013-12-14T13:16:32Z</time>
      </trkpt>
      <trkpt lat="43.39397" lon="6.07976">
        <ele>205.39999389648</ele>
        <time>2013-12-14T13:16:35Z</time>
      </trkpt>
      <trkpt lat="43.39394" lon="6.07978">
        <ele>205.39999389648</ele>
        <time>2013-12-14T13:16:37Z</time>
      </trkpt>
      <trkpt lat="43.39384" lon="6.07995">
        <ele>205.39999389648</ele>
        <time>2013-12-14T13:16:44Z</time>
      </trkpt>
      <trkpt lat="43.39374" lon="6.08005">
        <ele>205.39999389648</ele>
        <time>2013-12-14T13:16:50Z</time>
      </trkpt>
      <trkpt lat="43.39362" lon="6.08017">
        <ele>207</ele>
        <time>2013-12-14T13:16:58Z</time>
      </trkpt>
      <trkpt lat="43.3936" lon="6.08019">
        <ele>207.39999389648</ele>
        <time>2013-12-14T13:16:59Z</time>
      </trkpt>
      <trkpt lat="43.39358" lon="6.08023">
        <ele>207.39999389648</ele>
        <time>2013-12-14T13:17:02Z</time>
      </trkpt>
      <trkpt lat="43.39354" lon="6.08029">
        <ele>207.39999389648</ele>
        <time>2013-12-14T13:17:06Z</time>
      </trkpt>
      <trkpt lat="43.39343" lon="6.08038">
        <ele>207.80000305176</ele>
        <time>2013-12-14T13:17:12Z</time>
      </trkpt>
      <trkpt lat="43.39342" lon="6.08039">
        <ele>208.39999389648</ele>
        <time>2013-12-14T13:17:13Z</time>
      </trkpt>
      <trkpt lat="43.39338" lon="6.08045">
        <ele>209.80000305176</ele>
        <time>2013-12-14T13:17:16Z</time>
      </trkpt>
      <trkpt lat="43.3933" lon="6.08058">
        <ele>209.80000305176</ele>
        <time>2013-12-14T13:17:22Z</time>
      </trkpt>
      <trkpt lat="43.39322" lon="6.08072">
        <ele>209.80000305176</ele>
        <time>2013-12-14T13:17:29Z</time>
      </trkpt>
      <trkpt lat="43.39312" lon="6.08083">
        <ele>210.19999694824</ele>
        <time>2013-12-14T13:17:36Z</time>
      </trkpt>
      <trkpt lat="43.39309" lon="6.08091">
        <ele>211.80000305176</ele>
        <time>2013-12-14T13:17:40Z</time>
      </trkpt>
      <trkpt lat="43.39302" lon="6.08103">
        <ele>211.80000305176</ele>
        <time>2013-12-14T13:17:46Z</time>
      </trkpt>
      <trkpt lat="43.39294" lon="6.0812">
        <ele>211.80000305176</ele>
        <time>2013-12-14T13:17:54Z</time>
      </trkpt>
      <trkpt lat="43.39287" lon="6.08136">
        <ele>213.39999389648</ele>
        <time>2013-12-14T13:18:01Z</time>
      </trkpt>
      <trkpt lat="43.39286" lon="6.08151">
        <ele>213.80000305176</ele>
        <time>2013-12-14T13:18:09Z</time>
      </trkpt>
      <trkpt lat="43.39282" lon="6.0816">
        <ele>214.19999694824</ele>
        <time>2013-12-14T13:18:14Z</time>
      </trkpt>
      <trkpt lat="43.3928" lon="6.08164">
        <ele>215.80000305176</ele>
        <time>2013-12-14T13:18:17Z</time>
      </trkpt>
      <trkpt lat="43.39279" lon="6.08167">
        <ele>215.80000305176</ele>
        <time>2013-12-14T13:18:19Z</time>
      </trkpt>
      <trkpt lat="43.39278" lon="6.08168">
        <ele>215.80000305176</ele>
        <time>2013-12-14T13:18:20Z</time>
      </trkpt>
      <trkpt lat="43.39278" lon="6.08177">
        <ele>215.80000305176</ele>
        <time>2013-12-14T13:18:24Z</time>
      </trkpt>
      <trkpt lat="43.39276" lon="6.08183">
        <ele>215.80000305176</ele>
        <time>2013-12-14T13:18:27Z</time>
      </trkpt>
      <trkpt lat="43.39275" lon="6.08183">
        <ele>215.80000305176</ele>
        <time>2013-12-14T13:18:28Z</time>
      </trkpt>
      <trkpt lat="43.39275" lon="6.08183">
        <ele>216.60000610352</ele>
        <time>2013-12-14T13:18:30Z</time>
      </trkpt>
      <trkpt lat="43.39275" lon="6.08183">
        <ele>217</ele>
        <time>2013-12-14T13:18:31Z</time>
      </trkpt>
      <trkpt lat="43.39274" lon="6.08184">
        <ele>217.39999389648</ele>
        <time>2013-12-14T13:18:32Z</time>
      </trkpt>
      <trkpt lat="43.39274" lon="6.08184">
        <ele>217.80000305176</ele>
        <time>2013-12-14T13:18:33Z</time>
      </trkpt>
      <trkpt lat="43.39274" lon="6.08184">
        <ele>217.80000305176</ele>
        <time>2013-12-14T13:18:34Z</time>
      </trkpt>
      <trkpt lat="43.39273" lon="6.08189">
        <ele>217.80000305176</ele>
        <time>2013-12-14T13:18:38Z</time>
      </trkpt>
      <trkpt lat="43.39273" lon="6.08189">
        <ele>217.80000305176</ele>
        <time>2013-12-14T13:18:40Z</time>
      </trkpt>
      <trkpt lat="43.39274" lon="6.0819">
        <ele>217.80000305176</ele>
        <time>2013-12-14T13:18:45Z</time>
      </trkpt>
      <trkpt lat="43.39274" lon="6.0819">
        <ele>217.80000305176</ele>
        <time>2013-12-14T13:18:53Z</time>
      </trkpt>
      <trkpt lat="43.39274" lon="6.082">
        <ele>217.80000305176</ele>
        <time>2013-12-14T13:18:58Z</time>
      </trkpt>
      <trkpt lat="43.39271" lon="6.08216">
        <ele>217.80000305176</ele>
        <time>2013-12-14T13:19:04Z</time>
      </trkpt>
      <trkpt lat="43.39269" lon="6.08229">
        <ele>218.19999694824</ele>
        <time>2013-12-14T13:19:09Z</time>
      </trkpt>
      <trkpt lat="43.39268" lon="6.08231">
        <ele>218.60000610352</ele>
        <time>2013-12-14T13:19:10Z</time>
      </trkpt>
      <trkpt lat="43.39267" lon="6.08239">
        <ele>219.80000305176</ele>
        <time>2013-12-14T13:19:14Z</time>
      </trkpt>
      <trkpt lat="43.39264" lon="6.08255">
        <ele>220.39999389648</ele>
        <time>2013-12-14T13:19:22Z</time>
      </trkpt>
      <trkpt lat="43.39257" lon="6.08264">
        <ele>222</ele>
        <time>2013-12-14T13:19:28Z</time>
      </trkpt>
      <trkpt lat="43.3925" lon="6.08271">
        <ele>222</ele>
        <time>2013-12-14T13:19:34Z</time>
      </trkpt>
      <trkpt lat="43.39245" lon="6.08278">
        <ele>222.39999389648</ele>
        <time>2013-12-14T13:19:38Z</time>
      </trkpt>
      <trkpt lat="43.39243" lon="6.08283">
        <ele>223.60000610352</ele>
        <time>2013-12-14T13:19:41Z</time>
      </trkpt>
      <trkpt lat="43.39241" lon="6.08287">
        <ele>224</ele>
        <time>2013-12-14T13:19:43Z</time>
      </trkpt>
      <trkpt lat="43.3924" lon="6.0829">
        <ele>224</ele>
        <time>2013-12-14T13:19:45Z</time>
      </trkpt>
      <trkpt lat="43.39239" lon="6.08293">
        <ele>224</ele>
        <time>2013-12-14T13:19:49Z</time>
      </trkpt>
      <trkpt lat="43.39239" lon="6.08293">
        <ele>224</ele>
        <time>2013-12-14T13:20:03Z</time>
      </trkpt>
      <trkpt lat="43.39239" lon="6.08293">
        <ele>224</ele>
        <time>2013-12-14T13:20:37Z</time>
      </trkpt>
      <trkpt lat="43.39239" lon="6.08293">
        <ele>224</ele>
        <time>2013-12-14T13:20:49Z</time>
      </trkpt>
      <trkpt lat="43.39239" lon="6.08293">
        <ele>224</ele>
        <time>2013-12-14T13:20:56Z</time>
      </trkpt>
      <trkpt lat="43.39235" lon="6.08301">
        <ele>224</ele>
        <time>2013-12-14T13:21:00Z</time>
      </trkpt>
      <trkpt lat="43.39233" lon="6.08308">
        <ele>224</ele>
        <time>2013-12-14T13:21:02Z</time>
      </trkpt>
      <trkpt lat="43.39231" lon="6.0831">
        <ele>225</ele>
        <time>2013-12-14T13:21:04Z</time>
      </trkpt>
      <trkpt lat="43.39231" lon="6.08312">
        <ele>225.80000305176</ele>
        <time>2013-12-14T13:21:06Z</time>
      </trkpt>
      <trkpt lat="43.39231" lon="6.08313">
        <ele>226.19999694824</ele>
        <time>2013-12-14T13:21:08Z</time>
      </trkpt>
      <trkpt lat="43.39231" lon="6.08313">
        <ele>226.19999694824</ele>
        <time>2013-12-14T13:21:11Z</time>
      </trkpt>
      <trkpt lat="43.3923" lon="6.08319">
        <ele>226.19999694824</ele>
        <time>2013-12-14T13:21:14Z</time>
      </trkpt>
      <trkpt lat="43.39229" lon="6.08324">
        <ele>226.19999694824</ele>
        <time>2013-12-14T13:21:16Z</time>
      </trkpt>
      <trkpt lat="43.39222" lon="6.08328">
        <ele>227.19999694824</ele>
        <time>2013-12-14T13:21:21Z</time>
      </trkpt>
      <trkpt lat="43.39221" lon="6.08332">
        <ele>228.19999694824</ele>
        <time>2013-12-14T13:21:23Z</time>
      </trkpt>
      <trkpt lat="43.3922" lon="6.08341">
        <ele>228.60000610352</ele>
        <time>2013-12-14T13:21:28Z</time>
      </trkpt>
      <trkpt lat="43.39219" lon="6.08345">
        <ele>228.60000610352</ele>
        <time>2013-12-14T13:21:30Z</time>
      </trkpt>
      <trkpt lat="43.39217" lon="6.08356">
        <ele>229</ele>
        <time>2013-12-14T13:21:36Z</time>
      </trkpt>
      <trkpt lat="43.39217" lon="6.08363">
        <ele>230.60000610352</ele>
        <time>2013-12-14T13:21:40Z</time>
      </trkpt>
      <trkpt lat="43.39216" lon="6.08368">
        <ele>230.60000610352</ele>
        <time>2013-12-14T13:21:43Z</time>
      </trkpt>
      <trkpt lat="43.39214" lon="6.08374">
        <ele>230.60000610352</ele>
        <time>2013-12-14T13:21:46Z</time>
      </trkpt>
      <trkpt lat="43.39212" lon="6.08378">
        <ele>230.60000610352</ele>
        <time>2013-12-14T13:21:48Z</time>
      </trkpt>
      <trkpt lat="43.39212" lon="6.08383">
        <ele>231.60000610352</ele>
        <time>2013-12-14T13:21:51Z</time>
      </trkpt>
      <trkpt lat="43.39212" lon="6.08385">
        <ele>232</ele>
        <time>2013-12-14T13:21:52Z</time>
      </trkpt>
      <trkpt lat="43.39211" lon="6.08385">
        <ele>232.39999389648</ele>
        <time>2013-12-14T13:21:53Z</time>
      </trkpt>
      <trkpt lat="43.39212" lon="6.08385">
        <ele>232.80000305176</ele>
        <time>2013-12-14T13:21:54Z</time>
      </trkpt>
      <trkpt lat="43.39212" lon="6.08385">
        <ele>232.80000305176</ele>
        <time>2013-12-14T13:22:03Z</time>
      </trkpt>
      <trkpt lat="43.39211" lon="6.08386">
        <ele>232.80000305176</ele>
        <time>2013-12-14T13:22:11Z</time>
      </trkpt>
      <trkpt lat="43.39211" lon="6.08386">
        <ele>232.80000305176</ele>
        <time>2013-12-14T13:22:18Z</time>
      </trkpt>
      <trkpt lat="43.39211" lon="6.08386">
        <ele>232.80000305176</ele>
        <time>2013-12-14T13:22:35Z</time>
      </trkpt>
      <trkpt lat="43.39211" lon="6.08386">
        <ele>232.80000305176</ele>
        <time>2013-12-14T13:22:48Z</time>
      </trkpt>
      <trkpt lat="43.39211" lon="6.08386">
        <ele>232.80000305176</ele>
        <time>2013-12-14T13:22:53Z</time>
      </trkpt>
      <trkpt lat="43.39212" lon="6.08387">
        <ele>232.80000305176</ele>
        <time>2013-12-14T13:22:59Z</time>
      </trkpt>
      <trkpt lat="43.39212" lon="6.08389">
        <ele>232.80000305176</ele>
        <time>2013-12-14T13:23:02Z</time>
      </trkpt>
      <trkpt lat="43.39212" lon="6.08392">
        <ele>232.80000305176</ele>
        <time>2013-12-14T13:23:03Z</time>
      </trkpt>
      <trkpt lat="43.39212" lon="6.08401">
        <ele>232.80000305176</ele>
        <time>2013-12-14T13:23:06Z</time>
      </trkpt>
      <trkpt lat="43.39211" lon="6.08406">
        <ele>232.80000305176</ele>
        <time>2013-12-14T13:23:08Z</time>
      </trkpt>
      <trkpt lat="43.39209" lon="6.08408">
        <ele>232.80000305176</ele>
        <time>2013-12-14T13:23:09Z</time>
      </trkpt>
      <trkpt lat="43.39208" lon="6.08411">
        <ele>233.19999694824</ele>
        <time>2013-12-14T13:23:11Z</time>
      </trkpt>
      <trkpt lat="43.39206" lon="6.08415">
        <ele>234</ele>
        <time>2013-12-14T13:23:13Z</time>
      </trkpt>
      <trkpt lat="43.39206" lon="6.08416">
        <ele>234.39999389648</ele>
        <time>2013-12-14T13:23:14Z</time>
      </trkpt>
      <trkpt lat="43.39205" lon="6.08417">
        <ele>234.80000305176</ele>
        <time>2013-12-14T13:23:15Z</time>
      </trkpt>
      <trkpt lat="43.39204" lon="6.08422">
        <ele>234.80000305176</ele>
        <time>2013-12-14T13:23:19Z</time>
      </trkpt>
      <trkpt lat="43.39204" lon="6.0843">
        <ele>234.80000305176</ele>
        <time>2013-12-14T13:23:23Z</time>
      </trkpt>
      <trkpt lat="43.39204" lon="6.0843">
        <ele>235.19999694824</ele>
        <time>2013-12-14T13:23:24Z</time>
      </trkpt>
      <trkpt lat="43.39204" lon="6.08435">
        <ele>236</ele>
        <time>2013-12-14T13:23:26Z</time>
      </trkpt>
      <trkpt lat="43.39204" lon="6.08436">
        <ele>236.39999389648</ele>
        <time>2013-12-14T13:23:27Z</time>
      </trkpt>
      <trkpt lat="43.39204" lon="6.08438">
        <ele>236.80000305176</ele>
        <time>2013-12-14T13:23:28Z</time>
      </trkpt>
      <trkpt lat="43.39204" lon="6.0844">
        <ele>236.80000305176</ele>
        <time>2013-12-14T13:23:31Z</time>
      </trkpt>
      <trkpt lat="43.39204" lon="6.0844">
        <ele>236.80000305176</ele>
        <time>2013-12-14T13:23:38Z</time>
      </trkpt>
      <trkpt lat="43.39204" lon="6.08443">
        <ele>236.80000305176</ele>
        <time>2013-12-14T13:23:44Z</time>
      </trkpt>
      <trkpt lat="43.39202" lon="6.08451">
        <ele>236.80000305176</ele>
        <time>2013-12-14T13:23:48Z</time>
      </trkpt>
      <trkpt lat="43.39201" lon="6.08457">
        <ele>236.80000305176</ele>
        <time>2013-12-14T13:23:51Z</time>
      </trkpt>
      <trkpt lat="43.39201" lon="6.0846">
        <ele>236.80000305176</ele>
        <time>2013-12-14T13:23:52Z</time>
      </trkpt>
      <trkpt lat="43.39198" lon="6.08467">
        <ele>236.80000305176</ele>
        <time>2013-12-14T13:23:56Z</time>
      </trkpt>
      <trkpt lat="43.39198" lon="6.08471">
        <ele>237.80000305176</ele>
        <time>2013-12-14T13:23:58Z</time>
      </trkpt>
      <trkpt lat="43.39198" lon="6.08478">
        <ele>239</ele>
        <time>2013-12-14T13:24:02Z</time>
      </trkpt>
      <trkpt lat="43.39198" lon="6.08493">
        <ele>239</ele>
        <time>2013-12-14T13:24:08Z</time>
      </trkpt>
      <trkpt lat="43.39194" lon="6.08501">
        <ele>239</ele>
        <time>2013-12-14T13:24:12Z</time>
      </trkpt>
      <trkpt lat="43.3919" lon="6.08509">
        <ele>239</ele>
        <time>2013-12-14T13:24:16Z</time>
      </trkpt>
      <trkpt lat="43.39189" lon="6.08515">
        <ele>239</ele>
        <time>2013-12-14T13:24:18Z</time>
      </trkpt>
      <trkpt lat="43.39182" lon="6.08537">
        <ele>239</ele>
        <time>2013-12-14T13:24:26Z</time>
      </trkpt>
      <trkpt lat="43.39174" lon="6.0856">
        <ele>239</ele>
        <time>2013-12-14T13:24:34Z</time>
      </trkpt>
      <trkpt lat="43.39171" lon="6.08572">
        <ele>239</ele>
        <time>2013-12-14T13:24:38Z</time>
      </trkpt>
      <trkpt lat="43.39169" lon="6.08583">
        <ele>239</ele>
        <time>2013-12-14T13:24:41Z</time>
      </trkpt>
      <trkpt lat="43.39168" lon="6.08593">
        <ele>239</ele>
        <time>2013-12-14T13:24:44Z</time>
      </trkpt>
      <trkpt lat="43.39165" lon="6.08603">
        <ele>239</ele>
        <time>2013-12-14T13:24:47Z</time>
      </trkpt>
      <trkpt lat="43.39164" lon="6.08617">
        <ele>239</ele>
        <time>2013-12-14T13:24:51Z</time>
      </trkpt>
      <trkpt lat="43.39161" lon="6.08624">
        <ele>239</ele>
        <time>2013-12-14T13:24:53Z</time>
      </trkpt>
      <trkpt lat="43.39156" lon="6.08643">
        <ele>239</ele>
        <time>2013-12-14T13:24:59Z</time>
      </trkpt>
      <trkpt lat="43.39155" lon="6.08656">
        <ele>239</ele>
        <time>2013-12-14T13:25:04Z</time>
      </trkpt>
      <trkpt lat="43.3915" lon="6.08672">
        <ele>239</ele>
        <time>2013-12-14T13:25:09Z</time>
      </trkpt>
      <trkpt lat="43.39149" lon="6.0869">
        <ele>239</ele>
        <time>2013-12-14T13:25:14Z</time>
      </trkpt>
      <trkpt lat="43.39145" lon="6.08719">
        <ele>239</ele>
        <time>2013-12-14T13:25:23Z</time>
      </trkpt>
      <trkpt lat="43.3914" lon="6.08742">
        <ele>239</ele>
        <time>2013-12-14T13:25:30Z</time>
      </trkpt>
      <trkpt lat="43.39136" lon="6.08761">
        <ele>239</ele>
        <time>2013-12-14T13:25:35Z</time>
      </trkpt>
      <trkpt lat="43.39131" lon="6.08781">
        <ele>239</ele>
        <time>2013-12-14T13:25:40Z</time>
      </trkpt>
      <trkpt lat="43.39129" lon="6.08787">
        <ele>239</ele>
        <time>2013-12-14T13:25:42Z</time>
      </trkpt>
      <trkpt lat="43.39117" lon="6.08833">
        <ele>239</ele>
        <time>2013-12-14T13:25:54Z</time>
      </trkpt>
      <trkpt lat="43.39114" lon="6.08854">
        <ele>239</ele>
        <time>2013-12-14T13:26:00Z</time>
      </trkpt>
      <trkpt lat="43.39111" lon="6.08872">
        <ele>239</ele>
        <time>2013-12-14T13:26:05Z</time>
      </trkpt>
      <trkpt lat="43.39106" lon="6.08892">
        <ele>240.19999694824</ele>
        <time>2013-12-14T13:26:11Z</time>
      </trkpt>
      <trkpt lat="43.39102" lon="6.08914">
        <ele>241</ele>
        <time>2013-12-14T13:26:17Z</time>
      </trkpt>
      <trkpt lat="43.39096" lon="6.08932">
        <ele>241</ele>
        <time>2013-12-14T13:26:22Z</time>
      </trkpt>
      <trkpt lat="43.39091" lon="6.08956">
        <ele>241</ele>
        <time>2013-12-14T13:26:28Z</time>
      </trkpt>
      <trkpt lat="43.39085" lon="6.08974">
        <ele>241</ele>
        <time>2013-12-14T13:26:34Z</time>
      </trkpt>
      <trkpt lat="43.39079" lon="6.0899">
        <ele>241</ele>
        <time>2013-12-14T13:26:39Z</time>
      </trkpt>
      <trkpt lat="43.3907" lon="6.09009">
        <ele>241</ele>
        <time>2013-12-14T13:26:45Z</time>
      </trkpt>
      <trkpt lat="43.39064" lon="6.09024">
        <ele>241</ele>
        <time>2013-12-14T13:26:50Z</time>
      </trkpt>
      <trkpt lat="43.39056" lon="6.09039">
        <ele>242.60000610352</ele>
        <time>2013-12-14T13:26:55Z</time>
      </trkpt>
      <trkpt lat="43.39046" lon="6.09064">
        <ele>243</ele>
        <time>2013-12-14T13:27:03Z</time>
      </trkpt>
      <trkpt lat="43.39038" lon="6.09083">
        <ele>243</ele>
        <time>2013-12-14T13:27:09Z</time>
      </trkpt>
      <trkpt lat="43.39031" lon="6.09102">
        <ele>243</ele>
        <time>2013-12-14T13:27:15Z</time>
      </trkpt>
      <trkpt lat="43.39026" lon="6.0912">
        <ele>243</ele>
        <time>2013-12-14T13:27:20Z</time>
      </trkpt>
      <trkpt lat="43.39022" lon="6.09135">
        <ele>243.39999389648</ele>
        <time>2013-12-14T13:27:24Z</time>
      </trkpt>
      <trkpt lat="43.39021" lon="6.09143">
        <ele>244.19999694824</ele>
        <time>2013-12-14T13:27:26Z</time>
      </trkpt>
      <trkpt lat="43.39019" lon="6.09146">
        <ele>244.60000610352</ele>
        <time>2013-12-14T13:27:27Z</time>
      </trkpt>
      <trkpt lat="43.39016" lon="6.09158">
        <ele>245</ele>
        <time>2013-12-14T13:27:31Z</time>
      </trkpt>
      <trkpt lat="43.3901" lon="6.09173">
        <ele>245</ele>
        <time>2013-12-14T13:27:37Z</time>
      </trkpt>
      <trkpt lat="43.39008" lon="6.09191">
        <ele>245</ele>
        <time>2013-12-14T13:27:42Z</time>
      </trkpt>
      <trkpt lat="43.39005" lon="6.09213">
        <ele>245</ele>
        <time>2013-12-14T13:27:47Z</time>
      </trkpt>
      <trkpt lat="43.38997" lon="6.09249">
        <ele>245</ele>
        <time>2013-12-14T13:27:54Z</time>
      </trkpt>
      <trkpt lat="43.38992" lon="6.09264">
        <ele>245</ele>
        <time>2013-12-14T13:27:58Z</time>
      </trkpt>
      <trkpt lat="43.38987" lon="6.09279">
        <ele>245.80000305176</ele>
        <time>2013-12-14T13:28:02Z</time>
      </trkpt>
      <trkpt lat="43.38986" lon="6.0928">
        <ele>246.39999389648</ele>
        <time>2013-12-14T13:28:03Z</time>
      </trkpt>
      <trkpt lat="43.38983" lon="6.09285">
        <ele>247.19999694824</ele>
        <time>2013-12-14T13:28:05Z</time>
      </trkpt>
      <trkpt lat="43.38976" lon="6.09295">
        <ele>247.19999694824</ele>
        <time>2013-12-14T13:28:09Z</time>
      </trkpt>
      <trkpt lat="43.38964" lon="6.09319">
        <ele>249.19999694824</ele>
        <time>2013-12-14T13:28:18Z</time>
      </trkpt>
      <trkpt lat="43.38959" lon="6.09329">
        <ele>249.19999694824</ele>
        <time>2013-12-14T13:28:22Z</time>
      </trkpt>
      <trkpt lat="43.38956" lon="6.09334">
        <ele>249.19999694824</ele>
        <time>2013-12-14T13:28:24Z</time>
      </trkpt>
      <trkpt lat="43.38948" lon="6.09341">
        <ele>249.19999694824</ele>
        <time>2013-12-14T13:28:28Z</time>
      </trkpt>
      <trkpt lat="43.38939" lon="6.09354">
        <ele>249.19999694824</ele>
        <time>2013-12-14T13:28:33Z</time>
      </trkpt>
      <trkpt lat="43.38933" lon="6.09363">
        <ele>249.19999694824</ele>
        <time>2013-12-14T13:28:37Z</time>
      </trkpt>
      <trkpt lat="43.38914" lon="6.09382">
        <ele>251</ele>
        <time>2013-12-14T13:28:48Z</time>
      </trkpt>
      <trkpt lat="43.38903" lon="6.09399">
        <ele>251.80000305176</ele>
        <time>2013-12-14T13:28:58Z</time>
      </trkpt>
      <trkpt lat="43.38898" lon="6.094">
        <ele>253.39999389648</ele>
        <time>2013-12-14T13:29:02Z</time>
      </trkpt>
      <trkpt lat="43.38897" lon="6.09403">
        <ele>253.39999389648</ele>
        <time>2013-12-14T13:29:04Z</time>
      </trkpt>
      <trkpt lat="43.38895" lon="6.09406">
        <ele>253.39999389648</ele>
        <time>2013-12-14T13:29:06Z</time>
      </trkpt>
      <trkpt lat="43.38894" lon="6.09414">
        <ele>253.39999389648</ele>
        <time>2013-12-14T13:29:10Z</time>
      </trkpt>
      <trkpt lat="43.38892" lon="6.09418">
        <ele>253.80000305176</ele>
        <time>2013-12-14T13:29:12Z</time>
      </trkpt>
      <trkpt lat="43.38892" lon="6.09419">
        <ele>254.19999694824</ele>
        <time>2013-12-14T13:29:13Z</time>
      </trkpt>
      <trkpt lat="43.38889" lon="6.09421">
        <ele>255</ele>
        <time>2013-12-14T13:29:15Z</time>
      </trkpt>
      <trkpt lat="43.38888" lon="6.0942">
        <ele>255.39999389648</ele>
        <time>2013-12-14T13:29:16Z</time>
      </trkpt>
      <trkpt lat="43.38888" lon="6.0942">
        <ele>255.39999389648</ele>
        <time>2013-12-14T13:29:21Z</time>
      </trkpt>
      <trkpt lat="43.38887" lon="6.0942">
        <ele>255.39999389648</ele>
        <time>2013-12-14T13:29:26Z</time>
      </trkpt>
      <trkpt lat="43.38885" lon="6.09423">
        <ele>255.39999389648</ele>
        <time>2013-12-14T13:29:32Z</time>
      </trkpt>
      <trkpt lat="43.38885" lon="6.09424">
        <ele>255.39999389648</ele>
        <time>2013-12-14T13:29:33Z</time>
      </trkpt>
      <trkpt lat="43.38884" lon="6.09425">
        <ele>256.60000610352</ele>
        <time>2013-12-14T13:29:36Z</time>
      </trkpt>
      <trkpt lat="43.38884" lon="6.09425">
        <ele>257</ele>
        <time>2013-12-14T13:29:37Z</time>
      </trkpt>
      <trkpt lat="43.38884" lon="6.09425">
        <ele>257.39999389648</ele>
        <time>2013-12-14T13:29:39Z</time>
      </trkpt>
      <trkpt lat="43.38882" lon="6.09428">
        <ele>257.39999389648</ele>
        <time>2013-12-14T13:29:45Z</time>
      </trkpt>
      <trkpt lat="43.3888" lon="6.09431">
        <ele>257.39999389648</ele>
        <time>2013-12-14T13:29:51Z</time>
      </trkpt>
      <trkpt lat="43.38879" lon="6.0943">
        <ele>257.39999389648</ele>
        <time>2013-12-14T13:29:57Z</time>
      </trkpt>
      <trkpt lat="43.38879" lon="6.0943">
        <ele>257.39999389648</ele>
        <time>2013-12-14T13:30:05Z</time>
      </trkpt>
      <trkpt lat="43.38879" lon="6.0943">
        <ele>257.39999389648</ele>
        <time>2013-12-14T13:30:08Z</time>
      </trkpt>
      <trkpt lat="43.38877" lon="6.09431">
        <ele>257.39999389648</ele>
        <time>2013-12-14T13:30:13Z</time>
      </trkpt>
      <trkpt lat="43.38874" lon="6.09431">
        <ele>257.39999389648</ele>
        <time>2013-12-14T13:30:14Z</time>
      </trkpt>
      <trkpt lat="43.3887" lon="6.09428">
        <ele>257.39999389648</ele>
        <time>2013-12-14T13:30:17Z</time>
      </trkpt>
      <trkpt lat="43.3887" lon="6.09427">
        <ele>257.39999389648</ele>
        <time>2013-12-14T13:30:18Z</time>
      </trkpt>
      <trkpt lat="43.38869" lon="6.09427">
        <ele>257.39999389648</ele>
        <time>2013-12-14T13:30:22Z</time>
      </trkpt>
      <trkpt lat="43.38869" lon="6.09427">
        <ele>257.39999389648</ele>
        <time>2013-12-14T13:30:43Z</time>
      </trkpt>
      <trkpt lat="43.38869" lon="6.09427">
        <ele>257.39999389648</ele>
        <time>2013-12-14T13:31:12Z</time>
      </trkpt>
      <trkpt lat="43.38869" lon="6.09427">
        <ele>257.39999389648</ele>
        <time>2013-12-14T13:31:27Z</time>
      </trkpt>
      <trkpt lat="43.38869" lon="6.09428">
        <ele>257.39999389648</ele>
        <time>2013-12-14T13:31:35Z</time>
      </trkpt>
      <trkpt lat="43.38867" lon="6.09427">
        <ele>257.39999389648</ele>
        <time>2013-12-14T13:31:38Z</time>
      </trkpt>
      <trkpt lat="43.38862" lon="6.09422">
        <ele>257.39999389648</ele>
        <time>2013-12-14T13:31:41Z</time>
      </trkpt>
      <trkpt lat="43.38857" lon="6.09415">
        <ele>257</ele>
        <time>2013-12-14T13:31:44Z</time>
      </trkpt>
      <trkpt lat="43.38855" lon="6.09413">
        <ele>256.60000610352</ele>
        <time>2013-12-14T13:31:45Z</time>
      </trkpt>
      <trkpt lat="43.38853" lon="6.0941">
        <ele>256.20001220703</ele>
        <time>2013-12-14T13:31:46Z</time>
      </trkpt>
      <trkpt lat="43.38852" lon="6.09408">
        <ele>255.60000610352</ele>
        <time>2013-12-14T13:31:47Z</time>
      </trkpt>
      <trkpt lat="43.38849" lon="6.09405">
        <ele>255.19999694824</ele>
        <time>2013-12-14T13:31:48Z</time>
      </trkpt>
      <trkpt lat="43.38846" lon="6.09399">
        <ele>254.80000305176</ele>
        <time>2013-12-14T13:31:50Z</time>
      </trkpt>
      <trkpt lat="43.38845" lon="6.09395">
        <ele>254.39999389648</ele>
        <time>2013-12-14T13:31:51Z</time>
      </trkpt>
      <trkpt lat="43.38843" lon="6.09391">
        <ele>253.60000610352</ele>
        <time>2013-12-14T13:31:53Z</time>
      </trkpt>
      <trkpt lat="43.38842" lon="6.09389">
        <ele>253.19999694824</ele>
        <time>2013-12-14T13:31:54Z</time>
      </trkpt>
      <trkpt lat="43.38839" lon="6.09391">
        <ele>252.80000305176</ele>
        <time>2013-12-14T13:31:56Z</time>
      </trkpt>
      <trkpt lat="43.38839" lon="6.09393">
        <ele>252.39999389648</ele>
        <time>2013-12-14T13:31:57Z</time>
      </trkpt>
      <trkpt lat="43.38839" lon="6.09397">
        <ele>251.60000610352</ele>
        <time>2013-12-14T13:31:59Z</time>
      </trkpt>
      <trkpt lat="43.38837" lon="6.094">
        <ele>251.19999694824</ele>
        <time>2013-12-14T13:32:00Z</time>
      </trkpt>
      <trkpt lat="43.38836" lon="6.09409">
        <ele>250</ele>
        <time>2013-12-14T13:32:03Z</time>
      </trkpt>
      <trkpt lat="43.38835" lon="6.09414">
        <ele>249.19999694824</ele>
        <time>2013-12-14T13:32:05Z</time>
      </trkpt>
      <trkpt lat="43.38834" lon="6.09419">
        <ele>249.19999694824</ele>
        <time>2013-12-14T13:32:08Z</time>
      </trkpt>
      <trkpt lat="43.38834" lon="6.0942">
        <ele>248.60000610352</ele>
        <time>2013-12-14T13:32:09Z</time>
      </trkpt>
      <trkpt lat="43.38834" lon="6.0942">
        <ele>248.19999694824</ele>
        <time>2013-12-14T13:32:10Z</time>
      </trkpt>
      <trkpt lat="43.38834" lon="6.0942">
        <ele>247</ele>
        <time>2013-12-14T13:32:16Z</time>
      </trkpt>
      <trkpt lat="43.38832" lon="6.09424">
        <ele>247</ele>
        <time>2013-12-14T13:32:19Z</time>
      </trkpt>
      <trkpt lat="43.38831" lon="6.09425">
        <ele>247</ele>
        <time>2013-12-14T13:32:20Z</time>
      </trkpt>
      <trkpt lat="43.38831" lon="6.09425">
        <ele>247</ele>
        <time>2013-12-14T13:32:24Z</time>
      </trkpt>
      <trkpt lat="43.38831" lon="6.09425">
        <ele>247</ele>
        <time>2013-12-14T13:32:25Z</time>
      </trkpt>
      <trkpt lat="43.38829" lon="6.09423">
        <ele>246.60000610352</ele>
        <time>2013-12-14T13:32:28Z</time>
      </trkpt>
      <trkpt lat="43.38827" lon="6.0942">
        <ele>246.19999694824</ele>
        <time>2013-12-14T13:32:29Z</time>
      </trkpt>
      <trkpt lat="43.38824" lon="6.09415">
        <ele>245.80000305176</ele>
        <time>2013-12-14T13:32:30Z</time>
      </trkpt>
      <trkpt lat="43.3882" lon="6.09408">
        <ele>245.39999389648</ele>
        <time>2013-12-14T13:32:31Z</time>
      </trkpt>
      <trkpt lat="43.38816" lon="6.094">
        <ele>245</ele>
        <time>2013-12-14T13:32:32Z</time>
      </trkpt>
      <trkpt lat="43.38811" lon="6.09393">
        <ele>244.39999389648</ele>
        <time>2013-12-14T13:32:33Z</time>
      </trkpt>
      <trkpt lat="43.38807" lon="6.09384">
        <ele>243.80000305176</ele>
        <time>2013-12-14T13:32:34Z</time>
      </trkpt>
      <trkpt lat="43.38802" lon="6.09375">
        <ele>243.19999694824</ele>
        <time>2013-12-14T13:32:35Z</time>
      </trkpt>
      <trkpt lat="43.38795" lon="6.09369">
        <ele>242.80000305176</ele>
        <time>2013-12-14T13:32:36Z</time>
      </trkpt>
      <trkpt lat="43.38789" lon="6.09364">
        <ele>242</ele>
        <time>2013-12-14T13:32:37Z</time>
      </trkpt>
      <trkpt lat="43.38784" lon="6.09359">
        <ele>240.39999389648</ele>
        <time>2013-12-14T13:32:38Z</time>
      </trkpt>
      <trkpt lat="43.3878" lon="6.09355">
        <ele>239.39999389648</ele>
        <time>2013-12-14T13:32:39Z</time>
      </trkpt>
      <trkpt lat="43.38776" lon="6.09352">
        <ele>238.39999389648</ele>
        <time>2013-12-14T13:32:40Z</time>
      </trkpt>
      <trkpt lat="43.38771" lon="6.09349">
        <ele>237.39999389648</ele>
        <time>2013-12-14T13:32:41Z</time>
      </trkpt>
      <trkpt lat="43.38761" lon="6.09345">
        <ele>235.19999694824</ele>
        <time>2013-12-14T13:32:43Z</time>
      </trkpt>
      <trkpt lat="43.38755" lon="6.09342">
        <ele>234.19999694824</ele>
        <time>2013-12-14T13:32:44Z</time>
      </trkpt>
      <trkpt lat="43.38749" lon="6.0934">
        <ele>233</ele>
        <time>2013-12-14T13:32:45Z</time>
      </trkpt>
      <trkpt lat="43.38733" lon="6.09338">
        <ele>229.39999389648</ele>
        <time>2013-12-14T13:32:48Z</time>
      </trkpt>
      <trkpt lat="43.38729" lon="6.09336">
        <ele>228.19999694824</ele>
        <time>2013-12-14T13:32:49Z</time>
      </trkpt>
      <trkpt lat="43.38724" lon="6.09334">
        <ele>227</ele>
        <time>2013-12-14T13:32:50Z</time>
      </trkpt>
      <trkpt lat="43.38718" lon="6.0933">
        <ele>225.80000305176</ele>
        <time>2013-12-14T13:32:51Z</time>
      </trkpt>
      <trkpt lat="43.38712" lon="6.09325">
        <ele>224.80000305176</ele>
        <time>2013-12-14T13:32:52Z</time>
      </trkpt>
      <trkpt lat="43.38694" lon="6.09311">
        <ele>221.60000610352</ele>
        <time>2013-12-14T13:32:55Z</time>
      </trkpt>
      <trkpt lat="43.3869" lon="6.09307">
        <ele>220.60000610352</ele>
        <time>2013-12-14T13:32:56Z</time>
      </trkpt>
      <trkpt lat="43.38686" lon="6.09303">
        <ele>219.60000610352</ele>
        <time>2013-12-14T13:32:57Z</time>
      </trkpt>
      <trkpt lat="43.38683" lon="6.093">
        <ele>218.39999389648</ele>
        <time>2013-12-14T13:32:58Z</time>
      </trkpt>
      <trkpt lat="43.3868" lon="6.093">
        <ele>217.39999389648</ele>
        <time>2013-12-14T13:32:59Z</time>
      </trkpt>
      <trkpt lat="43.38677" lon="6.09303">
        <ele>216.39999389648</ele>
        <time>2013-12-14T13:33:00Z</time>
      </trkpt>
      <trkpt lat="43.38675" lon="6.09306">
        <ele>215.19999694824</ele>
        <time>2013-12-14T13:33:01Z</time>
      </trkpt>
      <trkpt lat="43.38672" lon="6.0931">
        <ele>214.19999694824</ele>
        <time>2013-12-14T13:33:02Z</time>
      </trkpt>
      <trkpt lat="43.38671" lon="6.09314">
        <ele>212.39999389648</ele>
        <time>2013-12-14T13:33:03Z</time>
      </trkpt>
      <trkpt lat="43.3867" lon="6.09318">
        <ele>211.39999389648</ele>
        <time>2013-12-14T13:33:04Z</time>
      </trkpt>
      <trkpt lat="43.38671" lon="6.09323">
        <ele>210.60000610352</ele>
        <time>2013-12-14T13:33:05Z</time>
      </trkpt>
      <trkpt lat="43.38671" lon="6.09327">
        <ele>209.60000610352</ele>
        <time>2013-12-14T13:33:06Z</time>
      </trkpt>
      <trkpt lat="43.38673" lon="6.09346">
        <ele>209.60000610352</ele>
        <time>2013-12-14T13:33:12Z</time>
      </trkpt>
      <trkpt lat="43.38675" lon="6.09376">
        <ele>209.60000610352</ele>
        <time>2013-12-14T13:33:18Z</time>
      </trkpt>
      <trkpt lat="43.38674" lon="6.09389">
        <ele>209.60000610352</ele>
        <time>2013-12-14T13:33:20Z</time>
      </trkpt>
      <trkpt lat="43.38674" lon="6.09404">
        <ele>209.19999694824</ele>
        <time>2013-12-14T13:33:22Z</time>
      </trkpt>
      <trkpt lat="43.38673" lon="6.09412">
        <ele>208.80000305176</ele>
        <time>2013-12-14T13:33:23Z</time>
      </trkpt>
      <trkpt lat="43.38675" lon="6.09419">
        <ele>208.19999694824</ele>
        <time>2013-12-14T13:33:24Z</time>
      </trkpt>
      <trkpt lat="43.38676" lon="6.09433">
        <ele>207.39999389648</ele>
        <time>2013-12-14T13:33:26Z</time>
      </trkpt>
      <trkpt lat="43.38677" lon="6.09439">
        <ele>207.39999389648</ele>
        <time>2013-12-14T13:33:27Z</time>
      </trkpt>
      <trkpt lat="43.38678" lon="6.0945">
        <ele>207.39999389648</ele>
        <time>2013-12-14T13:33:29Z</time>
      </trkpt>
      <trkpt lat="43.38677" lon="6.09469">
        <ele>207.39999389648</ele>
        <time>2013-12-14T13:33:32Z</time>
      </trkpt>
      <trkpt lat="43.38671" lon="6.09508">
        <ele>207.39999389648</ele>
        <time>2013-12-14T13:33:38Z</time>
      </trkpt>
      <trkpt lat="43.38671" lon="6.0954">
        <ele>207.39999389648</ele>
        <time>2013-12-14T13:33:43Z</time>
      </trkpt>
      <trkpt lat="43.38671" lon="6.09586">
        <ele>207.39999389648</ele>
        <time>2013-12-14T13:33:50Z</time>
      </trkpt>
      <trkpt lat="43.38669" lon="6.09605">
        <ele>206.39999389648</ele>
        <time>2013-12-14T13:33:53Z</time>
      </trkpt>
      <trkpt lat="43.38665" lon="6.09629">
        <ele>205.19999694824</ele>
        <time>2013-12-14T13:33:57Z</time>
      </trkpt>
      <trkpt lat="43.3866" lon="6.09645">
        <ele>205.19999694824</ele>
        <time>2013-12-14T13:34:00Z</time>
      </trkpt>
      <trkpt lat="43.38656" lon="6.09653">
        <ele>205.19999694824</ele>
        <time>2013-12-14T13:34:02Z</time>
      </trkpt>
      <trkpt lat="43.38649" lon="6.09667">
        <ele>205.19999694824</ele>
        <time>2013-12-14T13:34:05Z</time>
      </trkpt>
      <trkpt lat="43.38643" lon="6.0968">
        <ele>204.80000305176</ele>
        <time>2013-12-14T13:34:07Z</time>
      </trkpt>
      <trkpt lat="43.38635" lon="6.09693">
        <ele>203.80000305176</ele>
        <time>2013-12-14T13:34:09Z</time>
      </trkpt>
      <trkpt lat="43.38628" lon="6.09708">
        <ele>203</ele>
        <time>2013-12-14T13:34:11Z</time>
      </trkpt>
      <trkpt lat="43.38617" lon="6.09732">
        <ele>202.39999389648</ele>
        <time>2013-12-14T13:34:14Z</time>
      </trkpt>
      <trkpt lat="43.38614" lon="6.09739">
        <ele>202</ele>
        <time>2013-12-14T13:34:15Z</time>
      </trkpt>
      <trkpt lat="43.3861" lon="6.09747">
        <ele>201</ele>
        <time>2013-12-14T13:34:16Z</time>
      </trkpt>
      <trkpt lat="43.38607" lon="6.09754">
        <ele>200.60000610352</ele>
        <time>2013-12-14T13:34:17Z</time>
      </trkpt>
      <trkpt lat="43.38601" lon="6.09769">
        <ele>200.60000610352</ele>
        <time>2013-12-14T13:34:19Z</time>
      </trkpt>
      <trkpt lat="43.38597" lon="6.09784">
        <ele>200.60000610352</ele>
        <time>2013-12-14T13:34:21Z</time>
      </trkpt>
      <trkpt lat="43.38594" lon="6.09798">
        <ele>200.60000610352</ele>
        <time>2013-12-14T13:34:23Z</time>
      </trkpt>
      <trkpt lat="43.38594" lon="6.09816">
        <ele>200.60000610352</ele>
        <time>2013-12-14T13:34:26Z</time>
      </trkpt>
      <trkpt lat="43.38594" lon="6.0983">
        <ele>200.60000610352</ele>
        <time>2013-12-14T13:34:29Z</time>
      </trkpt>
      <trkpt lat="43.38594" lon="6.0984">
        <ele>200.60000610352</ele>
        <time>2013-12-14T13:34:31Z</time>
      </trkpt>
      <trkpt lat="43.38594" lon="6.09849">
        <ele>200.60000610352</ele>
        <time>2013-12-14T13:34:33Z</time>
      </trkpt>
      <trkpt lat="43.38595" lon="6.09858">
        <ele>200.60000610352</ele>
        <time>2013-12-14T13:34:35Z</time>
      </trkpt>
      <trkpt lat="43.38596" lon="6.09867">
        <ele>201</ele>
        <time>2013-12-14T13:34:37Z</time>
      </trkpt>
      <trkpt lat="43.38596" lon="6.09871">
        <ele>201.39999389648</ele>
        <time>2013-12-14T13:34:38Z</time>
      </trkpt>
      <trkpt lat="43.38597" lon="6.09908">
        <ele>203.60000610352</ele>
        <time>2013-12-14T13:34:47Z</time>
      </trkpt>
      <trkpt lat="43.38599" lon="6.09915">
        <ele>204.60000610352</ele>
        <time>2013-12-14T13:34:49Z</time>
      </trkpt>
      <trkpt lat="43.38606" lon="6.09927">
        <ele>205</ele>
        <time>2013-12-14T13:34:53Z</time>
      </trkpt>
      <trkpt lat="43.38616" lon="6.0994">
        <ele>206.19999694824</ele>
        <time>2013-12-14T13:34:58Z</time>
      </trkpt>
      <trkpt lat="43.3862" lon="6.09945">
        <ele>207</ele>
        <time>2013-12-14T13:35:00Z</time>
      </trkpt>
      <trkpt lat="43.38638" lon="6.09963">
        <ele>207</ele>
        <time>2013-12-14T13:35:09Z</time>
      </trkpt>
      <trkpt lat="43.38644" lon="6.09969">
        <ele>207.39999389648</ele>
        <time>2013-12-14T13:35:12Z</time>
      </trkpt>
      <trkpt lat="43.38651" lon="6.09975">
        <ele>208.60000610352</ele>
        <time>2013-12-14T13:35:15Z</time>
      </trkpt>
      <trkpt lat="43.38656" lon="6.0998">
        <ele>209</ele>
        <time>2013-12-14T13:35:18Z</time>
      </trkpt>
      <trkpt lat="43.3867" lon="6.0999">
        <ele>209</ele>
        <time>2013-12-14T13:35:24Z</time>
      </trkpt>
      <trkpt lat="43.38683" lon="6.1">
        <ele>209</ele>
        <time>2013-12-14T13:35:30Z</time>
      </trkpt>
      <trkpt lat="43.38694" lon="6.10011">
        <ele>209</ele>
        <time>2013-12-14T13:35:36Z</time>
      </trkpt>
      <trkpt lat="43.38698" lon="6.10016">
        <ele>209.39999389648</ele>
        <time>2013-12-14T13:35:38Z</time>
      </trkpt>
      <trkpt lat="43.38699" lon="6.10018">
        <ele>209.80000305176</ele>
        <time>2013-12-14T13:35:39Z</time>
      </trkpt>
      <trkpt lat="43.38712" lon="6.10048">
        <ele>211</ele>
        <time>2013-12-14T13:35:49Z</time>
      </trkpt>
      <trkpt lat="43.38721" lon="6.10065">
        <ele>211</ele>
        <time>2013-12-14T13:35:55Z</time>
      </trkpt>
      <trkpt lat="43.38732" lon="6.10086">
        <ele>211</ele>
        <time>2013-12-14T13:36:02Z</time>
      </trkpt>
      <trkpt lat="43.38735" lon="6.10092">
        <ele>211</ele>
        <time>2013-12-14T13:36:04Z</time>
      </trkpt>
      <trkpt lat="43.38743" lon="6.10106">
        <ele>211.39999389648</ele>
        <time>2013-12-14T13:36:09Z</time>
      </trkpt>
      <trkpt lat="43.38748" lon="6.10115">
        <ele>213.19999694824</ele>
        <time>2013-12-14T13:36:13Z</time>
      </trkpt>
      <trkpt lat="43.38755" lon="6.10122">
        <ele>213.19999694824</ele>
        <time>2013-12-14T13:36:17Z</time>
      </trkpt>
      <trkpt lat="43.38776" lon="6.10145">
        <ele>215.19999694824</ele>
        <time>2013-12-14T13:36:29Z</time>
      </trkpt>
      <trkpt lat="43.38781" lon="6.1015">
        <ele>215.60000610352</ele>
        <time>2013-12-14T13:36:32Z</time>
      </trkpt>
      <trkpt lat="43.38784" lon="6.10153">
        <ele>216.39999389648</ele>
        <time>2013-12-14T13:36:34Z</time>
      </trkpt>
      <trkpt lat="43.38788" lon="6.10157">
        <ele>217.39999389648</ele>
        <time>2013-12-14T13:36:36Z</time>
      </trkpt>
      <trkpt lat="43.38791" lon="6.10161">
        <ele>217.39999389648</ele>
        <time>2013-12-14T13:36:38Z</time>
      </trkpt>
      <trkpt lat="43.38793" lon="6.10164">
        <ele>217.39999389648</ele>
        <time>2013-12-14T13:36:40Z</time>
      </trkpt>
      <trkpt lat="43.38795" lon="6.10165">
        <ele>217.39999389648</ele>
        <time>2013-12-14T13:36:42Z</time>
      </trkpt>
      <trkpt lat="43.38795" lon="6.10165">
        <ele>217.39999389648</ele>
        <time>2013-12-14T13:36:47Z</time>
      </trkpt>
      <trkpt lat="43.38797" lon="6.10169">
        <ele>217.39999389648</ele>
        <time>2013-12-14T13:36:54Z</time>
      </trkpt>
      <trkpt lat="43.38802" lon="6.10171">
        <ele>217.39999389648</ele>
        <time>2013-12-14T13:37:02Z</time>
      </trkpt>
      <trkpt lat="43.38807" lon="6.1017">
        <ele>217.39999389648</ele>
        <time>2013-12-14T13:37:08Z</time>
      </trkpt>
      <trkpt lat="43.38813" lon="6.10168">
        <ele>217.39999389648</ele>
        <time>2013-12-14T13:37:13Z</time>
      </trkpt>
      <trkpt lat="43.3882" lon="6.10166">
        <ele>217.80000305176</ele>
        <time>2013-12-14T13:37:16Z</time>
      </trkpt>
      <trkpt lat="43.38824" lon="6.10169">
        <ele>218.60000610352</ele>
        <time>2013-12-14T13:37:18Z</time>
      </trkpt>
      <trkpt lat="43.38826" lon="6.10171">
        <ele>219</ele>
        <time>2013-12-14T13:37:19Z</time>
      </trkpt>
      <trkpt lat="43.38827" lon="6.10173">
        <ele>219.39999389648</ele>
        <time>2013-12-14T13:37:20Z</time>
      </trkpt>
      <trkpt lat="43.38828" lon="6.10176">
        <ele>219.39999389648</ele>
        <time>2013-12-14T13:37:22Z</time>
      </trkpt>
      <trkpt lat="43.38827" lon="6.10181">
        <ele>219.39999389648</ele>
        <time>2013-12-14T13:37:28Z</time>
      </trkpt>
      <trkpt lat="43.38824" lon="6.10187">
        <ele>219.39999389648</ele>
        <time>2013-12-14T13:37:32Z</time>
      </trkpt>
      <trkpt lat="43.3882" lon="6.10195">
        <ele>219.39999389648</ele>
        <time>2013-12-14T13:37:36Z</time>
      </trkpt>
      <trkpt lat="43.38819" lon="6.10201">
        <ele>219.39999389648</ele>
        <time>2013-12-14T13:37:39Z</time>
      </trkpt>
      <trkpt lat="43.38819" lon="6.10206">
        <ele>219.39999389648</ele>
        <time>2013-12-14T13:37:41Z</time>
      </trkpt>
      <trkpt lat="43.38819" lon="6.10213">
        <ele>219.80000305176</ele>
        <time>2013-12-14T13:37:44Z</time>
      </trkpt>
      <trkpt lat="43.38819" lon="6.10218">
        <ele>220.60000610352</ele>
        <time>2013-12-14T13:37:46Z</time>
      </trkpt>
      <trkpt lat="43.38819" lon="6.10221">
        <ele>221</ele>
        <time>2013-12-14T13:37:47Z</time>
      </trkpt>
      <trkpt lat="43.38821" lon="6.10228">
        <ele>221.39999389648</ele>
        <time>2013-12-14T13:37:50Z</time>
      </trkpt>
      <trkpt lat="43.38823" lon="6.10231">
        <ele>221.39999389648</ele>
        <time>2013-12-14T13:37:51Z</time>
      </trkpt>
      <trkpt lat="43.38826" lon="6.10251">
        <ele>221.39999389648</ele>
        <time>2013-12-14T13:37:55Z</time>
      </trkpt>
      <trkpt lat="43.38829" lon="6.1027">
        <ele>220.60000610352</ele>
        <time>2013-12-14T13:37:58Z</time>
      </trkpt>
      <trkpt lat="43.3883" lon="6.10276">
        <ele>220.19999694824</ele>
        <time>2013-12-14T13:37:59Z</time>
      </trkpt>
      <trkpt lat="43.38831" lon="6.10283">
        <ele>219.60000610352</ele>
        <time>2013-12-14T13:38:00Z</time>
      </trkpt>
      <trkpt lat="43.38831" lon="6.1029">
        <ele>219.19999694824</ele>
        <time>2013-12-14T13:38:01Z</time>
      </trkpt>
      <trkpt lat="43.38832" lon="6.10297">
        <ele>219.19999694824</ele>
        <time>2013-12-14T13:38:02Z</time>
      </trkpt>
      <trkpt lat="43.38832" lon="6.10305">
        <ele>219.19999694824</ele>
        <time>2013-12-14T13:38:03Z</time>
      </trkpt>
      <trkpt lat="43.38832" lon="6.10319">
        <ele>218.80000305176</ele>
        <time>2013-12-14T13:38:05Z</time>
      </trkpt>
      <trkpt lat="43.38832" lon="6.10332">
        <ele>218</ele>
        <time>2013-12-14T13:38:07Z</time>
      </trkpt>
      <trkpt lat="43.38832" lon="6.10356">
        <ele>217.19999694824</ele>
        <time>2013-12-14T13:38:11Z</time>
      </trkpt>
      <trkpt lat="43.38833" lon="6.10383">
        <ele>217.19999694824</ele>
        <time>2013-12-14T13:38:15Z</time>
      </trkpt>
      <trkpt lat="43.38833" lon="6.10404">
        <ele>216.80000305176</ele>
        <time>2013-12-14T13:38:18Z</time>
      </trkpt>
      <trkpt lat="43.38829" lon="6.10432">
        <ele>215.19999694824</ele>
        <time>2013-12-14T13:38:22Z</time>
      </trkpt>
      <trkpt lat="43.38827" lon="6.10455">
        <ele>214.80000305176</ele>
        <time>2013-12-14T13:38:25Z</time>
      </trkpt>
      <trkpt lat="43.38827" lon="6.10463">
        <ele>214.19999694824</ele>
        <time>2013-12-14T13:38:26Z</time>
      </trkpt>
      <trkpt lat="43.38826" lon="6.10479">
        <ele>213.39999389648</ele>
        <time>2013-12-14T13:38:28Z</time>
      </trkpt>
      <trkpt lat="43.38824" lon="6.10487">
        <ele>213</ele>
        <time>2013-12-14T13:38:29Z</time>
      </trkpt>
      <trkpt lat="43.38821" lon="6.10501">
        <ele>212.60000610352</ele>
        <time>2013-12-14T13:38:31Z</time>
      </trkpt>
      <trkpt lat="43.38818" lon="6.10508">
        <ele>212.19999694824</ele>
        <time>2013-12-14T13:38:32Z</time>
      </trkpt>
      <trkpt lat="43.38816" lon="6.10515">
        <ele>211.80000305176</ele>
        <time>2013-12-14T13:38:33Z</time>
      </trkpt>
      <trkpt lat="43.38815" lon="6.10521">
        <ele>211.39999389648</ele>
        <time>2013-12-14T13:38:34Z</time>
      </trkpt>
      <trkpt lat="43.38813" lon="6.10534">
        <ele>211</ele>
        <time>2013-12-14T13:38:36Z</time>
      </trkpt>
      <trkpt lat="43.38813" lon="6.1054">
        <ele>211</ele>
        <time>2013-12-14T13:38:37Z</time>
      </trkpt>
      <trkpt lat="43.38813" lon="6.10546">
        <ele>211</ele>
        <time>2013-12-14T13:38:38Z</time>
      </trkpt>
      <trkpt lat="43.3881" lon="6.10555">
        <ele>211</ele>
        <time>2013-12-14T13:38:40Z</time>
      </trkpt>
      <trkpt lat="43.38807" lon="6.10566">
        <ele>211</ele>
        <time>2013-12-14T13:38:43Z</time>
      </trkpt>
      <trkpt lat="43.38804" lon="6.10583">
        <ele>210.60000610352</ele>
        <time>2013-12-14T13:38:46Z</time>
      </trkpt>
      <trkpt lat="43.38802" lon="6.10596">
        <ele>209.19999694824</ele>
        <time>2013-12-14T13:38:48Z</time>
      </trkpt>
      <trkpt lat="43.38796" lon="6.10623">
        <ele>208.39999389648</ele>
        <time>2013-12-14T13:38:52Z</time>
      </trkpt>
      <trkpt lat="43.38795" lon="6.10637">
        <ele>207.60000610352</ele>
        <time>2013-12-14T13:38:54Z</time>
      </trkpt>
      <trkpt lat="43.38794" lon="6.10642">
        <ele>207.19999694824</ele>
        <time>2013-12-14T13:38:55Z</time>
      </trkpt>
      <trkpt lat="43.38792" lon="6.10648">
        <ele>206.80000305176</ele>
        <time>2013-12-14T13:38:56Z</time>
      </trkpt>
      <trkpt lat="43.38783" lon="6.10686">
        <ele>205</ele>
        <time>2013-12-14T13:39:03Z</time>
      </trkpt>
      <trkpt lat="43.38781" lon="6.10692">
        <ele>204.60000610352</ele>
        <time>2013-12-14T13:39:04Z</time>
      </trkpt>
      <trkpt lat="43.3878" lon="6.10697">
        <ele>204.60000610352</ele>
        <time>2013-12-14T13:39:05Z</time>
      </trkpt>
      <trkpt lat="43.38779" lon="6.10703">
        <ele>204.60000610352</ele>
        <time>2013-12-14T13:39:06Z</time>
      </trkpt>
      <trkpt lat="43.38776" lon="6.10722">
        <ele>204.60000610352</ele>
        <time>2013-12-14T13:39:09Z</time>
      </trkpt>
      <trkpt lat="43.38775" lon="6.10728">
        <ele>204.60000610352</ele>
        <time>2013-12-14T13:39:10Z</time>
      </trkpt>
      <trkpt lat="43.38773" lon="6.10744">
        <ele>204.19999694824</ele>
        <time>2013-12-14T13:39:14Z</time>
      </trkpt>
      <trkpt lat="43.38772" lon="6.10748">
        <ele>203.39999389648</ele>
        <time>2013-12-14T13:39:16Z</time>
      </trkpt>
      <trkpt lat="43.38771" lon="6.10749">
        <ele>203</ele>
        <time>2013-12-14T13:39:17Z</time>
      </trkpt>
      <trkpt lat="43.38771" lon="6.1075">
        <ele>202.60000610352</ele>
        <time>2013-12-14T13:39:18Z</time>
      </trkpt>
      <trkpt lat="43.38771" lon="6.1075">
        <ele>202.60000610352</ele>
        <time>2013-12-14T13:39:43Z</time>
      </trkpt>
      <trkpt lat="43.38771" lon="6.1075">
        <ele>202.60000610352</ele>
        <time>2013-12-14T13:39:55Z</time>
      </trkpt>
      <trkpt lat="43.38769" lon="6.10754">
        <ele>202.60000610352</ele>
        <time>2013-12-14T13:39:58Z</time>
      </trkpt>
      <trkpt lat="43.38767" lon="6.10755">
        <ele>202.60000610352</ele>
        <time>2013-12-14T13:39:59Z</time>
      </trkpt>
      <trkpt lat="43.38765" lon="6.10757">
        <ele>202.60000610352</ele>
        <time>2013-12-14T13:40:00Z</time>
      </trkpt>
      <trkpt lat="43.38758" lon="6.10762">
        <ele>202.60000610352</ele>
        <time>2013-12-14T13:40:04Z</time>
      </trkpt>
      <trkpt lat="43.38757" lon="6.10763">
        <ele>202.60000610352</ele>
        <time>2013-12-14T13:40:05Z</time>
      </trkpt>
      <trkpt lat="43.38746" lon="6.10767">
        <ele>202.60000610352</ele>
        <time>2013-12-14T13:40:09Z</time>
      </trkpt>
      <trkpt lat="43.3874" lon="6.1077">
        <ele>202.60000610352</ele>
        <time>2013-12-14T13:40:12Z</time>
      </trkpt>
      <trkpt lat="43.38739" lon="6.10772">
        <ele>202.60000610352</ele>
        <time>2013-12-14T13:40:13Z</time>
      </trkpt>
      <trkpt lat="43.38733" lon="6.10787">
        <ele>202.60000610352</ele>
        <time>2013-12-14T13:40:17Z</time>
      </trkpt>
      <trkpt lat="43.38731" lon="6.1079">
        <ele>202.60000610352</ele>
        <time>2013-12-14T13:40:18Z</time>
      </trkpt>
      <trkpt lat="43.38723" lon="6.10797">
        <ele>202.60000610352</ele>
        <time>2013-12-14T13:40:21Z</time>
      </trkpt>
      <trkpt lat="43.38711" lon="6.10804">
        <ele>203</ele>
        <time>2013-12-14T13:40:26Z</time>
      </trkpt>
      <trkpt lat="43.38708" lon="6.10806">
        <ele>203.39999389648</ele>
        <time>2013-12-14T13:40:27Z</time>
      </trkpt>
      <trkpt lat="43.38703" lon="6.10811">
        <ele>204.60000610352</ele>
        <time>2013-12-14T13:40:30Z</time>
      </trkpt>
      <trkpt lat="43.38698" lon="6.10818">
        <ele>204.60000610352</ele>
        <time>2013-12-14T13:40:33Z</time>
      </trkpt>
      <trkpt lat="43.38693" lon="6.10833">
        <ele>204.60000610352</ele>
        <time>2013-12-14T13:40:38Z</time>
      </trkpt>
      <trkpt lat="43.38689" lon="6.10853">
        <ele>204.60000610352</ele>
        <time>2013-12-14T13:40:43Z</time>
      </trkpt>
      <trkpt lat="43.38685" lon="6.10877">
        <ele>204.60000610352</ele>
        <time>2013-12-14T13:40:48Z</time>
      </trkpt>
      <trkpt lat="43.38684" lon="6.10881">
        <ele>204.60000610352</ele>
        <time>2013-12-14T13:40:49Z</time>
      </trkpt>
      <trkpt lat="43.3868" lon="6.10893">
        <ele>204.60000610352</ele>
        <time>2013-12-14T13:40:52Z</time>
      </trkpt>
      <trkpt lat="43.38673" lon="6.10912">
        <ele>204.60000610352</ele>
        <time>2013-12-14T13:40:57Z</time>
      </trkpt>
      <trkpt lat="43.38672" lon="6.1092">
        <ele>204.60000610352</ele>
        <time>2013-12-14T13:40:59Z</time>
      </trkpt>
      <trkpt lat="43.38669" lon="6.10932">
        <ele>204.60000610352</ele>
        <time>2013-12-14T13:41:02Z</time>
      </trkpt>
      <trkpt lat="43.38664" lon="6.10967">
        <ele>204.60000610352</ele>
        <time>2013-12-14T13:41:12Z</time>
      </trkpt>
      <trkpt lat="43.38663" lon="6.10974">
        <ele>204.60000610352</ele>
        <time>2013-12-14T13:41:14Z</time>
      </trkpt>
      <trkpt lat="43.38662" lon="6.10992">
        <ele>204.60000610352</ele>
        <time>2013-12-14T13:41:20Z</time>
      </trkpt>
      <trkpt lat="43.38659" lon="6.11003">
        <ele>204.60000610352</ele>
        <time>2013-12-14T13:41:26Z</time>
      </trkpt>
      <trkpt lat="43.38655" lon="6.11003">
        <ele>204.60000610352</ele>
        <time>2013-12-14T13:41:28Z</time>
      </trkpt>
      <trkpt lat="43.38647" lon="6.11002">
        <ele>204.60000610352</ele>
        <time>2013-12-14T13:41:33Z</time>
      </trkpt>
      <trkpt lat="43.38639" lon="6.11006">
        <ele>206.60000610352</ele>
        <time>2013-12-14T13:41:40Z</time>
      </trkpt>
      <trkpt lat="43.38634" lon="6.11007">
        <ele>206.60000610352</ele>
        <time>2013-12-14T13:41:44Z</time>
      </trkpt>
      <trkpt lat="43.38627" lon="6.11002">
        <ele>207</ele>
        <time>2013-12-14T13:41:49Z</time>
      </trkpt>
      <trkpt lat="43.38625" lon="6.10999">
        <ele>208</ele>
        <time>2013-12-14T13:41:51Z</time>
      </trkpt>
      <trkpt lat="43.38625" lon="6.10998">
        <ele>208.39999389648</ele>
        <time>2013-12-14T13:41:52Z</time>
      </trkpt>
      <trkpt lat="43.3862" lon="6.10995">
        <ele>208.80000305176</ele>
        <time>2013-12-14T13:41:56Z</time>
      </trkpt>
      <trkpt lat="43.38614" lon="6.10991">
        <ele>208.80000305176</ele>
        <time>2013-12-14T13:42:00Z</time>
      </trkpt>
      <trkpt lat="43.38609" lon="6.10989">
        <ele>208.80000305176</ele>
        <time>2013-12-14T13:42:02Z</time>
      </trkpt>
      <trkpt lat="43.38601" lon="6.10987">
        <ele>208.80000305176</ele>
        <time>2013-12-14T13:42:06Z</time>
      </trkpt>
      <trkpt lat="43.38598" lon="6.10986">
        <ele>208.80000305176</ele>
        <time>2013-12-14T13:42:08Z</time>
      </trkpt>
      <trkpt lat="43.38591" lon="6.10987">
        <ele>208.80000305176</ele>
        <time>2013-12-14T13:42:14Z</time>
      </trkpt>
      <trkpt lat="43.38588" lon="6.10987">
        <ele>208.80000305176</ele>
        <time>2013-12-14T13:42:16Z</time>
      </trkpt>
      <trkpt lat="43.38586" lon="6.10987">
        <ele>208.80000305176</ele>
        <time>2013-12-14T13:42:17Z</time>
      </trkpt>
      <trkpt lat="43.3858" lon="6.10987">
        <ele>208.80000305176</ele>
        <time>2013-12-14T13:42:21Z</time>
      </trkpt>
      <trkpt lat="43.38575" lon="6.10986">
        <ele>208.80000305176</ele>
        <time>2013-12-14T13:42:24Z</time>
      </trkpt>
      <trkpt lat="43.3856" lon="6.10987">
        <ele>207.39999389648</ele>
        <time>2013-12-14T13:42:31Z</time>
      </trkpt>
      <trkpt lat="43.38541" lon="6.10978">
        <ele>206.60000610352</ele>
        <time>2013-12-14T13:42:38Z</time>
      </trkpt>
      <trkpt lat="43.38522" lon="6.10969">
        <ele>206.19999694824</ele>
        <time>2013-12-14T13:42:44Z</time>
      </trkpt>
      <trkpt lat="43.38517" lon="6.10968">
        <ele>205.80000305176</ele>
        <time>2013-12-14T13:42:45Z</time>
      </trkpt>
      <trkpt lat="43.38512" lon="6.10967">
        <ele>205.19999694824</ele>
        <time>2013-12-14T13:42:46Z</time>
      </trkpt>
      <trkpt lat="43.38506" lon="6.10965">
        <ele>204.80000305176</ele>
        <time>2013-12-14T13:42:47Z</time>
      </trkpt>
      <trkpt lat="43.38485" lon="6.1096">
        <ele>202.80000305176</ele>
        <time>2013-12-14T13:42:51Z</time>
      </trkpt>
      <trkpt lat="43.38481" lon="6.10959">
        <ele>202.39999389648</ele>
        <time>2013-12-14T13:42:52Z</time>
      </trkpt>
      <trkpt lat="43.38478" lon="6.10958">
        <ele>201.80000305176</ele>
        <time>2013-12-14T13:42:53Z</time>
      </trkpt>
      <trkpt lat="43.38475" lon="6.10958">
        <ele>201.19999694824</ele>
        <time>2013-12-14T13:42:54Z</time>
      </trkpt>
      <trkpt lat="43.38473" lon="6.10957">
        <ele>200.19999694824</ele>
        <time>2013-12-14T13:42:55Z</time>
      </trkpt>
      <trkpt lat="43.38459" lon="6.10956">
        <ele>200.19999694824</ele>
        <time>2013-12-14T13:42:59Z</time>
      </trkpt>
      <trkpt lat="43.38433" lon="6.10953">
        <ele>200.19999694824</ele>
        <time>2013-12-14T13:43:06Z</time>
      </trkpt>
      <trkpt lat="43.38425" lon="6.10952">
        <ele>199.80000305176</ele>
        <time>2013-12-14T13:43:08Z</time>
      </trkpt>
      <trkpt lat="43.38421" lon="6.10951">
        <ele>199.39999389648</ele>
        <time>2013-12-14T13:43:09Z</time>
      </trkpt>
      <trkpt lat="43.38417" lon="6.1095">
        <ele>199</ele>
        <time>2013-12-14T13:43:10Z</time>
      </trkpt>
      <trkpt lat="43.38408" lon="6.10948">
        <ele>198.19999694824</ele>
        <time>2013-12-14T13:43:12Z</time>
      </trkpt>
      <trkpt lat="43.38398" lon="6.10946">
        <ele>198.19999694824</ele>
        <time>2013-12-14T13:43:14Z</time>
      </trkpt>
      <trkpt lat="43.38371" lon="6.10938">
        <ele>198.19999694824</ele>
        <time>2013-12-14T13:43:20Z</time>
      </trkpt>
      <trkpt lat="43.38362" lon="6.10937">
        <ele>197.80000305176</ele>
        <time>2013-12-14T13:43:22Z</time>
      </trkpt>
      <trkpt lat="43.38346" lon="6.10932">
        <ele>196.19999694824</ele>
        <time>2013-12-14T13:43:26Z</time>
      </trkpt>
      <trkpt lat="43.38328" lon="6.10926">
        <ele>196.19999694824</ele>
        <time>2013-12-14T13:43:31Z</time>
      </trkpt>
      <trkpt lat="43.38316" lon="6.10921">
        <ele>196.19999694824</ele>
        <time>2013-12-14T13:43:34Z</time>
      </trkpt>
      <trkpt lat="43.383" lon="6.10915">
        <ele>196.19999694824</ele>
        <time>2013-12-14T13:43:38Z</time>
      </trkpt>
      <trkpt lat="43.38284" lon="6.10911">
        <ele>196.19999694824</ele>
        <time>2013-12-14T13:43:42Z</time>
      </trkpt>
      <trkpt lat="43.38255" lon="6.10902">
        <ele>196.19999694824</ele>
        <time>2013-12-14T13:43:49Z</time>
      </trkpt>
      <trkpt lat="43.38228" lon="6.10895">
        <ele>196.19999694824</ele>
        <time>2013-12-14T13:43:56Z</time>
      </trkpt>
      <trkpt lat="43.38203" lon="6.10886">
        <ele>196.19999694824</ele>
        <time>2013-12-14T13:44:04Z</time>
      </trkpt>
      <trkpt lat="43.38198" lon="6.10888">
        <ele>196.19999694824</ele>
        <time>2013-12-14T13:44:06Z</time>
      </trkpt>
      <trkpt lat="43.38197" lon="6.10891">
        <ele>196.19999694824</ele>
        <time>2013-12-14T13:44:07Z</time>
      </trkpt>
      <trkpt lat="43.38195" lon="6.10908">
        <ele>196.19999694824</ele>
        <time>2013-12-14T13:44:11Z</time>
      </trkpt>
      <trkpt lat="43.38193" lon="6.10921">
        <ele>196.19999694824</ele>
        <time>2013-12-14T13:44:14Z</time>
      </trkpt>
      <trkpt lat="43.3819" lon="6.10937">
        <ele>196.19999694824</ele>
        <time>2013-12-14T13:44:18Z</time>
      </trkpt>
      <trkpt lat="43.38184" lon="6.10963">
        <ele>196.19999694824</ele>
        <time>2013-12-14T13:44:24Z</time>
      </trkpt>
      <trkpt lat="43.38182" lon="6.10972">
        <ele>196.19999694824</ele>
        <time>2013-12-14T13:44:26Z</time>
      </trkpt>
      <trkpt lat="43.38174" lon="6.11019">
        <ele>197</ele>
        <time>2013-12-14T13:44:38Z</time>
      </trkpt>
      <trkpt lat="43.38171" lon="6.11034">
        <ele>198.39999389648</ele>
        <time>2013-12-14T13:44:42Z</time>
      </trkpt>
      <trkpt lat="43.38165" lon="6.11064">
        <ele>198.39999389648</ele>
        <time>2013-12-14T13:44:50Z</time>
      </trkpt>
      <trkpt lat="43.38157" lon="6.11089">
        <ele>198.80000305176</ele>
        <time>2013-12-14T13:44:57Z</time>
      </trkpt>
      <trkpt lat="43.38152" lon="6.11099">
        <ele>200.39999389648</ele>
        <time>2013-12-14T13:45:00Z</time>
      </trkpt>
      <trkpt lat="43.38141" lon="6.11118">
        <ele>200.39999389648</ele>
        <time>2013-12-14T13:45:06Z</time>
      </trkpt>
      <trkpt lat="43.38122" lon="6.11139">
        <ele>200.39999389648</ele>
        <time>2013-12-14T13:45:14Z</time>
      </trkpt>
      <trkpt lat="43.38113" lon="6.11149">
        <ele>201.19999694824</ele>
        <time>2013-12-14T13:45:18Z</time>
      </trkpt>
      <trkpt lat="43.38111" lon="6.11152">
        <ele>201.60000610352</ele>
        <time>2013-12-14T13:45:19Z</time>
      </trkpt>
      <trkpt lat="43.38093" lon="6.11172">
        <ele>202.80000305176</ele>
        <time>2013-12-14T13:45:28Z</time>
      </trkpt>
      <trkpt lat="43.38085" lon="6.11179">
        <ele>204.60000610352</ele>
        <time>2013-12-14T13:45:32Z</time>
      </trkpt>
      <trkpt lat="43.38079" lon="6.11185">
        <ele>204.60000610352</ele>
        <time>2013-12-14T13:45:35Z</time>
      </trkpt>
      <trkpt lat="43.38066" lon="6.11199">
        <ele>204.60000610352</ele>
        <time>2013-12-14T13:45:42Z</time>
      </trkpt>
      <trkpt lat="43.38055" lon="6.1121">
        <ele>204.60000610352</ele>
        <time>2013-12-14T13:45:47Z</time>
      </trkpt>
      <trkpt lat="43.3805" lon="6.11219">
        <ele>204.60000610352</ele>
        <time>2013-12-14T13:45:50Z</time>
      </trkpt>
      <trkpt lat="43.38039" lon="6.11244">
        <ele>204.60000610352</ele>
        <time>2013-12-14T13:45:56Z</time>
      </trkpt>
      <trkpt lat="43.38028" lon="6.11267">
        <ele>204.60000610352</ele>
        <time>2013-12-14T13:46:02Z</time>
      </trkpt>
      <trkpt lat="43.38015" lon="6.11294">
        <ele>204.60000610352</ele>
        <time>2013-12-14T13:46:09Z</time>
      </trkpt>
      <trkpt lat="43.38003" lon="6.11321">
        <ele>204.60000610352</ele>
        <time>2013-12-14T13:46:16Z</time>
      </trkpt>
      <trkpt lat="43.37993" lon="6.11342">
        <ele>204.60000610352</ele>
        <time>2013-12-14T13:46:21Z</time>
      </trkpt>
      <trkpt lat="43.37976" lon="6.11365">
        <ele>204.60000610352</ele>
        <time>2013-12-14T13:46:27Z</time>
      </trkpt>
      <trkpt lat="43.37958" lon="6.11388">
        <ele>204.60000610352</ele>
        <time>2013-12-14T13:46:34Z</time>
      </trkpt>
      <trkpt lat="43.37944" lon="6.11404">
        <ele>204.60000610352</ele>
        <time>2013-12-14T13:46:39Z</time>
      </trkpt>
      <trkpt lat="43.3794" lon="6.1141">
        <ele>204.60000610352</ele>
        <time>2013-12-14T13:46:41Z</time>
      </trkpt>
      <trkpt lat="43.37926" lon="6.11429">
        <ele>204.60000610352</ele>
        <time>2013-12-14T13:46:47Z</time>
      </trkpt>
      <trkpt lat="43.37907" lon="6.11453">
        <ele>204.60000610352</ele>
        <time>2013-12-14T13:46:54Z</time>
      </trkpt>
      <trkpt lat="43.37888" lon="6.11467">
        <ele>204.60000610352</ele>
        <time>2013-12-14T13:47:00Z</time>
      </trkpt>
      <trkpt lat="43.37885" lon="6.11468">
        <ele>204.60000610352</ele>
        <time>2013-12-14T13:47:01Z</time>
      </trkpt>
      <trkpt lat="43.37867" lon="6.11473">
        <ele>204.60000610352</ele>
        <time>2013-12-14T13:47:07Z</time>
      </trkpt>
      <trkpt lat="43.37856" lon="6.1148">
        <ele>204.60000610352</ele>
        <time>2013-12-14T13:47:12Z</time>
      </trkpt>
      <trkpt lat="43.37855" lon="6.11482">
        <ele>205</ele>
        <time>2013-12-14T13:47:13Z</time>
      </trkpt>
      <trkpt lat="43.37853" lon="6.11485">
        <ele>205.80000305176</ele>
        <time>2013-12-14T13:47:15Z</time>
      </trkpt>
      <trkpt lat="43.37852" lon="6.11487">
        <ele>206.19999694824</ele>
        <time>2013-12-14T13:47:16Z</time>
      </trkpt>
      <trkpt lat="43.3785" lon="6.11492">
        <ele>206.60000610352</ele>
        <time>2013-12-14T13:47:18Z</time>
      </trkpt>
      <trkpt lat="43.37842" lon="6.11507">
        <ele>206.60000610352</ele>
        <time>2013-12-14T13:47:24Z</time>
      </trkpt>
      <trkpt lat="43.37839" lon="6.11517">
        <ele>207</ele>
        <time>2013-12-14T13:47:27Z</time>
      </trkpt>
      <trkpt lat="43.37835" lon="6.11524">
        <ele>208.19999694824</ele>
        <time>2013-12-14T13:47:30Z</time>
      </trkpt>
      <trkpt lat="43.37834" lon="6.11527">
        <ele>208.60000610352</ele>
        <time>2013-12-14T13:47:31Z</time>
      </trkpt>
      <trkpt lat="43.37828" lon="6.11544">
        <ele>208.60000610352</ele>
        <time>2013-12-14T13:47:37Z</time>
      </trkpt>
      <trkpt lat="43.3782" lon="6.11563">
        <ele>209</ele>
        <time>2013-12-14T13:47:45Z</time>
      </trkpt>
      <trkpt lat="43.37817" lon="6.11568">
        <ele>209.80000305176</ele>
        <time>2013-12-14T13:47:47Z</time>
      </trkpt>
      <trkpt lat="43.37814" lon="6.11572">
        <ele>210.60000610352</ele>
        <time>2013-12-14T13:47:49Z</time>
      </trkpt>
      <trkpt lat="43.37803" lon="6.11583">
        <ele>210.60000610352</ele>
        <time>2013-12-14T13:47:55Z</time>
      </trkpt>
      <trkpt lat="43.37795" lon="6.11593">
        <ele>210.60000610352</ele>
        <time>2013-12-14T13:48:00Z</time>
      </trkpt>
      <trkpt lat="43.37783" lon="6.11609">
        <ele>210.60000610352</ele>
        <time>2013-12-14T13:48:06Z</time>
      </trkpt>
      <trkpt lat="43.37778" lon="6.11615">
        <ele>211.19999694824</ele>
        <time>2013-12-14T13:48:09Z</time>
      </trkpt>
      <trkpt lat="43.37776" lon="6.1162">
        <ele>212</ele>
        <time>2013-12-14T13:48:11Z</time>
      </trkpt>
      <trkpt lat="43.37766" lon="6.11636">
        <ele>212.80000305176</ele>
        <time>2013-12-14T13:48:18Z</time>
      </trkpt>
      <trkpt lat="43.37759" lon="6.11651">
        <ele>212.80000305176</ele>
        <time>2013-12-14T13:48:24Z</time>
      </trkpt>
      <trkpt lat="43.37756" lon="6.11657">
        <ele>214</ele>
        <time>2013-12-14T13:48:27Z</time>
      </trkpt>
      <trkpt lat="43.37755" lon="6.11664">
        <ele>215</ele>
        <time>2013-12-14T13:48:30Z</time>
      </trkpt>
      <trkpt lat="43.37749" lon="6.11677">
        <ele>215</ele>
        <time>2013-12-14T13:48:35Z</time>
      </trkpt>
      <trkpt lat="43.3774" lon="6.11695">
        <ele>215</ele>
        <time>2013-12-14T13:48:42Z</time>
      </trkpt>
      <trkpt lat="43.3773" lon="6.11713">
        <ele>215.80000305176</ele>
        <time>2013-12-14T13:48:48Z</time>
      </trkpt>
      <trkpt lat="43.37727" lon="6.1172">
        <ele>217</ele>
        <time>2013-12-14T13:48:51Z</time>
      </trkpt>
      <trkpt lat="43.37722" lon="6.11729">
        <ele>217</ele>
        <time>2013-12-14T13:48:55Z</time>
      </trkpt>
      <trkpt lat="43.37713" lon="6.11744">
        <ele>217</ele>
        <time>2013-12-14T13:49:02Z</time>
      </trkpt>
      <trkpt lat="43.37704" lon="6.11759">
        <ele>219</ele>
        <time>2013-12-14T13:49:10Z</time>
      </trkpt>
      <trkpt lat="43.37702" lon="6.11766">
        <ele>219</ele>
        <time>2013-12-14T13:49:13Z</time>
      </trkpt>
      <trkpt lat="43.37695" lon="6.11781">
        <ele>219</ele>
        <time>2013-12-14T13:49:20Z</time>
      </trkpt>
      <trkpt lat="43.3769" lon="6.11794">
        <ele>219.39999389648</ele>
        <time>2013-12-14T13:49:25Z</time>
      </trkpt>
      <trkpt lat="43.37686" lon="6.11804">
        <ele>221.19999694824</ele>
        <time>2013-12-14T13:49:29Z</time>
      </trkpt>
      <trkpt lat="43.37683" lon="6.1181">
        <ele>221.19999694824</ele>
        <time>2013-12-14T13:49:33Z</time>
      </trkpt>
      <trkpt lat="43.37681" lon="6.11819">
        <ele>222</ele>
        <time>2013-12-14T13:49:37Z</time>
      </trkpt>
      <trkpt lat="43.3768" lon="6.11823">
        <ele>222.80000305176</ele>
        <time>2013-12-14T13:49:39Z</time>
      </trkpt>
      <trkpt lat="43.37675" lon="6.11833">
        <ele>223.19999694824</ele>
        <time>2013-12-14T13:49:44Z</time>
      </trkpt>
      <trkpt lat="43.37666" lon="6.11844">
        <ele>225.39999389648</ele>
        <time>2013-12-14T13:49:51Z</time>
      </trkpt>
      <trkpt lat="43.37661" lon="6.1185">
        <ele>225.39999389648</ele>
        <time>2013-12-14T13:49:55Z</time>
      </trkpt>
      <trkpt lat="43.37655" lon="6.11858">
        <ele>225.39999389648</ele>
        <time>2013-12-14T13:50:01Z</time>
      </trkpt>
      <trkpt lat="43.37648" lon="6.1187">
        <ele>227.39999389648</ele>
        <time>2013-12-14T13:50:07Z</time>
      </trkpt>
      <trkpt lat="43.37641" lon="6.11882">
        <ele>227.39999389648</ele>
        <time>2013-12-14T13:50:13Z</time>
      </trkpt>
      <trkpt lat="43.37634" lon="6.11893">
        <ele>227.39999389648</ele>
        <time>2013-12-14T13:50:19Z</time>
      </trkpt>
      <trkpt lat="43.37631" lon="6.11899">
        <ele>229.60000610352</ele>
        <time>2013-12-14T13:50:23Z</time>
      </trkpt>
      <trkpt lat="43.37629" lon="6.11902">
        <ele>229.60000610352</ele>
        <time>2013-12-14T13:50:25Z</time>
      </trkpt>
      <trkpt lat="43.37621" lon="6.11912">
        <ele>231.80000305176</ele>
        <time>2013-12-14T13:50:34Z</time>
      </trkpt>
      <trkpt lat="43.37614" lon="6.11928">
        <ele>232.19999694824</ele>
        <time>2013-12-14T13:50:43Z</time>
      </trkpt>
      <trkpt lat="43.37613" lon="6.1193">
        <ele>233</ele>
        <time>2013-12-14T13:50:44Z</time>
      </trkpt>
      <trkpt lat="43.37611" lon="6.11933">
        <ele>233.80000305176</ele>
        <time>2013-12-14T13:50:46Z</time>
      </trkpt>
      <trkpt lat="43.37606" lon="6.11939">
        <ele>233.80000305176</ele>
        <time>2013-12-14T13:50:50Z</time>
      </trkpt>
      <trkpt lat="43.37601" lon="6.11947">
        <ele>236</ele>
        <time>2013-12-14T13:50:56Z</time>
      </trkpt>
      <trkpt lat="43.37594" lon="6.11955">
        <ele>236</ele>
        <time>2013-12-14T13:51:02Z</time>
      </trkpt>
      <trkpt lat="43.37589" lon="6.11959">
        <ele>237</ele>
        <time>2013-12-14T13:51:06Z</time>
      </trkpt>
      <trkpt lat="43.37585" lon="6.11963">
        <ele>238.19999694824</ele>
        <time>2013-12-14T13:51:09Z</time>
      </trkpt>
      <trkpt lat="43.37571" lon="6.11976">
        <ele>239.80000305176</ele>
        <time>2013-12-14T13:51:22Z</time>
      </trkpt>
      <trkpt lat="43.37565" lon="6.11978">
        <ele>240.19999694824</ele>
        <time>2013-12-14T13:51:26Z</time>
      </trkpt>
      <trkpt lat="43.37558" lon="6.11984">
        <ele>240.80000305176</ele>
        <time>2013-12-14T13:51:33Z</time>
      </trkpt>
      <trkpt lat="43.37551" lon="6.11989">
        <ele>242.39999389648</ele>
        <time>2013-12-14T13:51:38Z</time>
      </trkpt>
      <trkpt lat="43.37546" lon="6.11997">
        <ele>242.80000305176</ele>
        <time>2013-12-14T13:51:43Z</time>
      </trkpt>
      <trkpt lat="43.37542" lon="6.12002">
        <ele>244</ele>
        <time>2013-12-14T13:51:46Z</time>
      </trkpt>
      <trkpt lat="43.37534" lon="6.12009">
        <ele>244.39999389648</ele>
        <time>2013-12-14T13:51:53Z</time>
      </trkpt>
      <trkpt lat="43.37532" lon="6.12014">
        <ele>246.60000610352</ele>
        <time>2013-12-14T13:51:58Z</time>
      </trkpt>
      <trkpt lat="43.37529" lon="6.12017">
        <ele>246.60000610352</ele>
        <time>2013-12-14T13:52:00Z</time>
      </trkpt>
      <trkpt lat="43.37521" lon="6.12025">
        <ele>248.80000305176</ele>
        <time>2013-12-14T13:52:08Z</time>
      </trkpt>
      <trkpt lat="43.37511" lon="6.12038">
        <ele>250.39999389648</ele>
        <time>2013-12-14T13:52:19Z</time>
      </trkpt>
      <trkpt lat="43.37505" lon="6.12042">
        <ele>250.80000305176</ele>
        <time>2013-12-14T13:52:25Z</time>
      </trkpt>
      <trkpt lat="43.37494" lon="6.12054">
        <ele>252.80000305176</ele>
        <time>2013-12-14T13:52:37Z</time>
      </trkpt>
      <trkpt lat="43.37492" lon="6.12055">
        <ele>253.19999694824</ele>
        <time>2013-12-14T13:52:39Z</time>
      </trkpt>
      <trkpt lat="43.37488" lon="6.12059">
        <ele>255</ele>
        <time>2013-12-14T13:52:43Z</time>
      </trkpt>
      <trkpt lat="43.37474" lon="6.1207">
        <ele>257</ele>
        <time>2013-12-14T13:52:56Z</time>
      </trkpt>
      <trkpt lat="43.37466" lon="6.12075">
        <ele>258.20001220703</ele>
        <time>2013-12-14T13:53:04Z</time>
      </trkpt>
      <trkpt lat="43.37464" lon="6.12078">
        <ele>259</ele>
        <time>2013-12-14T13:53:07Z</time>
      </trkpt>
      <trkpt lat="43.37463" lon="6.12078">
        <ele>259</ele>
        <time>2013-12-14T13:53:08Z</time>
      </trkpt>
      <trkpt lat="43.37456" lon="6.12082">
        <ele>259</ele>
        <time>2013-12-14T13:53:15Z</time>
      </trkpt>
      <trkpt lat="43.37448" lon="6.12083">
        <ele>261.20001220703</ele>
        <time>2013-12-14T13:53:22Z</time>
      </trkpt>
      <trkpt lat="43.37441" lon="6.12083">
        <ele>261.20001220703</ele>
        <time>2013-12-14T13:53:29Z</time>
      </trkpt>
      <trkpt lat="43.37439" lon="6.12083">
        <ele>261.60000610352</ele>
        <time>2013-12-14T13:53:31Z</time>
      </trkpt>
      <trkpt lat="43.37437" lon="6.12083">
        <ele>262</ele>
        <time>2013-12-14T13:53:32Z</time>
      </trkpt>
      <trkpt lat="43.37436" lon="6.12082">
        <ele>262.79998779297</ele>
        <time>2013-12-14T13:53:34Z</time>
      </trkpt>
      <trkpt lat="43.37433" lon="6.12083">
        <ele>263.20001220703</ele>
        <time>2013-12-14T13:53:36Z</time>
      </trkpt>
      <trkpt lat="43.37432" lon="6.12084">
        <ele>263.20001220703</ele>
        <time>2013-12-14T13:53:40Z</time>
      </trkpt>
      <trkpt lat="43.37432" lon="6.12084">
        <ele>263.20001220703</ele>
        <time>2013-12-14T13:53:55Z</time>
      </trkpt>
      <trkpt lat="43.37432" lon="6.12084">
        <ele>263.20001220703</ele>
        <time>2013-12-14T13:54:17Z</time>
      </trkpt>
      <trkpt lat="43.37432" lon="6.12084">
        <ele>263.20001220703</ele>
        <time>2013-12-14T13:54:18Z</time>
      </trkpt>
      <trkpt lat="43.37432" lon="6.12084">
        <ele>263.20001220703</ele>
        <time>2013-12-14T13:54:44Z</time>
      </trkpt>
      <trkpt lat="43.37432" lon="6.12084">
        <ele>263.20001220703</ele>
        <time>2013-12-14T13:54:53Z</time>
      </trkpt>
      <trkpt lat="43.37432" lon="6.12084">
        <ele>263.20001220703</ele>
        <time>2013-12-14T13:54:58Z</time>
      </trkpt>
      <trkpt lat="43.37432" lon="6.12084">
        <ele>263.20001220703</ele>
        <time>2013-12-14T13:55:30Z</time>
      </trkpt>
      <trkpt lat="43.37432" lon="6.12084">
        <ele>263.20001220703</ele>
        <time>2013-12-14T13:56:42Z</time>
      </trkpt>
      <trkpt lat="43.37432" lon="6.12084">
        <ele>263.20001220703</ele>
        <time>2013-12-14T13:56:56Z</time>
      </trkpt>
      <trkpt lat="43.37432" lon="6.12083">
        <ele>263.20001220703</ele>
        <time>2013-12-14T13:57:03Z</time>
      </trkpt>
      <trkpt lat="43.37432" lon="6.12083">
        <ele>263.20001220703</ele>
        <time>2013-12-14T13:57:17Z</time>
      </trkpt>
      <trkpt lat="43.37429" lon="6.12083">
        <ele>263.20001220703</ele>
        <time>2013-12-14T13:57:22Z</time>
      </trkpt>
      <trkpt lat="43.37428" lon="6.12083">
        <ele>263.20001220703</ele>
        <time>2013-12-14T13:57:24Z</time>
      </trkpt>
      <trkpt lat="43.37428" lon="6.12083">
        <ele>263.20001220703</ele>
        <time>2013-12-14T13:57:31Z</time>
      </trkpt>
      <trkpt lat="43.37422" lon="6.12085">
        <ele>263.20001220703</ele>
        <time>2013-12-14T13:57:38Z</time>
      </trkpt>
      <trkpt lat="43.37406" lon="6.12088">
        <ele>263.20001220703</ele>
        <time>2013-12-14T13:57:43Z</time>
      </trkpt>
      <trkpt lat="43.37402" lon="6.12089">
        <ele>263.20001220703</ele>
        <time>2013-12-14T13:57:44Z</time>
      </trkpt>
      <trkpt lat="43.37379" lon="6.1209">
        <ele>261.39999389648</ele>
        <time>2013-12-14T13:57:49Z</time>
      </trkpt>
      <trkpt lat="43.37374" lon="6.1209">
        <ele>261</ele>
        <time>2013-12-14T13:57:50Z</time>
      </trkpt>
      <trkpt lat="43.37369" lon="6.12093">
        <ele>261</ele>
        <time>2013-12-14T13:57:51Z</time>
      </trkpt>
      <trkpt lat="43.37359" lon="6.12099">
        <ele>260.60000610352</ele>
        <time>2013-12-14T13:57:53Z</time>
      </trkpt>
      <trkpt lat="43.37354" lon="6.12102">
        <ele>260</ele>
        <time>2013-12-14T13:57:54Z</time>
      </trkpt>
      <trkpt lat="43.37349" lon="6.12106">
        <ele>259.60000610352</ele>
        <time>2013-12-14T13:57:55Z</time>
      </trkpt>
      <trkpt lat="43.37324" lon="6.12124">
        <ele>257.39999389648</ele>
        <time>2013-12-14T13:57:59Z</time>
      </trkpt>
      <trkpt lat="43.37318" lon="6.12128">
        <ele>256.79998779297</ele>
        <time>2013-12-14T13:58:00Z</time>
      </trkpt>
      <trkpt lat="43.37305" lon="6.12136">
        <ele>255.60000610352</ele>
        <time>2013-12-14T13:58:02Z</time>
      </trkpt>
      <trkpt lat="43.37299" lon="6.12141">
        <ele>254.80000305176</ele>
        <time>2013-12-14T13:58:03Z</time>
      </trkpt>
      <trkpt lat="43.37292" lon="6.12145">
        <ele>254.19999694824</ele>
        <time>2013-12-14T13:58:04Z</time>
      </trkpt>
      <trkpt lat="43.37286" lon="6.12151">
        <ele>253.39999389648</ele>
        <time>2013-12-14T13:58:05Z</time>
      </trkpt>
      <trkpt lat="43.37281" lon="6.12158">
        <ele>252.39999389648</ele>
        <time>2013-12-14T13:58:06Z</time>
      </trkpt>
      <trkpt lat="43.37275" lon="6.12166">
        <ele>251.60000610352</ele>
        <time>2013-12-14T13:58:07Z</time>
      </trkpt>
      <trkpt lat="43.3727" lon="6.12174">
        <ele>250.60000610352</ele>
        <time>2013-12-14T13:58:08Z</time>
      </trkpt>
      <trkpt lat="43.37265" lon="6.12182">
        <ele>249.39999389648</ele>
        <time>2013-12-14T13:58:09Z</time>
      </trkpt>
      <trkpt lat="43.3726" lon="6.12191">
        <ele>247.39999389648</ele>
        <time>2013-12-14T13:58:10Z</time>
      </trkpt>
      <trkpt lat="43.37257" lon="6.12199">
        <ele>246.60000610352</ele>
        <time>2013-12-14T13:58:11Z</time>
      </trkpt>
      <trkpt lat="43.37252" lon="6.12207">
        <ele>246</ele>
        <time>2013-12-14T13:58:12Z</time>
      </trkpt>
      <trkpt lat="43.37249" lon="6.12214">
        <ele>245.19999694824</ele>
        <time>2013-12-14T13:58:13Z</time>
      </trkpt>
      <trkpt lat="43.3724" lon="6.12235">
        <ele>243.39999389648</ele>
        <time>2013-12-14T13:58:16Z</time>
      </trkpt>
      <trkpt lat="43.37234" lon="6.1225">
        <ele>242.19999694824</ele>
        <time>2013-12-14T13:58:19Z</time>
      </trkpt>
      <trkpt lat="43.37234" lon="6.12252">
        <ele>241.80000305176</ele>
        <time>2013-12-14T13:58:20Z</time>
      </trkpt>
      <trkpt lat="43.37233" lon="6.1226">
        <ele>241.80000305176</ele>
        <time>2013-12-14T13:58:23Z</time>
      </trkpt>
      <trkpt lat="43.37231" lon="6.12263">
        <ele>241.39999389648</ele>
        <time>2013-12-14T13:58:24Z</time>
      </trkpt>
      <trkpt lat="43.3723" lon="6.12267">
        <ele>241</ele>
        <time>2013-12-14T13:58:25Z</time>
      </trkpt>
      <trkpt lat="43.37228" lon="6.12272">
        <ele>240.60000610352</ele>
        <time>2013-12-14T13:58:26Z</time>
      </trkpt>
      <trkpt lat="43.37226" lon="6.12277">
        <ele>240.19999694824</ele>
        <time>2013-12-14T13:58:27Z</time>
      </trkpt>
      <trkpt lat="43.37212" lon="6.12312">
        <ele>239.80000305176</ele>
        <time>2013-12-14T13:58:32Z</time>
      </trkpt>
      <trkpt lat="43.37207" lon="6.12321">
        <ele>239.39999389648</ele>
        <time>2013-12-14T13:58:33Z</time>
      </trkpt>
      <trkpt lat="43.37203" lon="6.12329">
        <ele>239</ele>
        <time>2013-12-14T13:58:34Z</time>
      </trkpt>
      <trkpt lat="43.37198" lon="6.12338">
        <ele>238</ele>
        <time>2013-12-14T13:58:35Z</time>
      </trkpt>
      <trkpt lat="43.37193" lon="6.12347">
        <ele>237.39999389648</ele>
        <time>2013-12-14T13:58:36Z</time>
      </trkpt>
      <trkpt lat="43.37186" lon="6.12355">
        <ele>236.80000305176</ele>
        <time>2013-12-14T13:58:37Z</time>
      </trkpt>
      <trkpt lat="43.3718" lon="6.12363">
        <ele>236.39999389648</ele>
        <time>2013-12-14T13:58:38Z</time>
      </trkpt>
      <trkpt lat="43.37173" lon="6.12372">
        <ele>235.60000610352</ele>
        <time>2013-12-14T13:58:39Z</time>
      </trkpt>
      <trkpt lat="43.37166" lon="6.1238">
        <ele>235</ele>
        <time>2013-12-14T13:58:40Z</time>
      </trkpt>
      <trkpt lat="43.3716" lon="6.12389">
        <ele>234.39999389648</ele>
        <time>2013-12-14T13:58:41Z</time>
      </trkpt>
      <trkpt lat="43.37154" lon="6.12398">
        <ele>233.80000305176</ele>
        <time>2013-12-14T13:58:42Z</time>
      </trkpt>
      <trkpt lat="43.37149" lon="6.12408">
        <ele>233.19999694824</ele>
        <time>2013-12-14T13:58:43Z</time>
      </trkpt>
      <trkpt lat="43.37135" lon="6.12435">
        <ele>233.19999694824</ele>
        <time>2013-12-14T13:58:46Z</time>
      </trkpt>
      <trkpt lat="43.37132" lon="6.12444">
        <ele>233.19999694824</ele>
        <time>2013-12-14T13:58:47Z</time>
      </trkpt>
      <trkpt lat="43.37117" lon="6.12478">
        <ele>233.19999694824</ele>
        <time>2013-12-14T13:58:51Z</time>
      </trkpt>
      <trkpt lat="43.37106" lon="6.12499">
        <ele>233.19999694824</ele>
        <time>2013-12-14T13:58:54Z</time>
      </trkpt>
      <trkpt lat="43.37081" lon="6.12526">
        <ele>233.19999694824</ele>
        <time>2013-12-14T13:58:59Z</time>
      </trkpt>
      <trkpt lat="43.37056" lon="6.12548">
        <ele>233.19999694824</ele>
        <time>2013-12-14T13:59:05Z</time>
      </trkpt>
      <trkpt lat="43.37037" lon="6.12571">
        <ele>233.19999694824</ele>
        <time>2013-12-14T13:59:12Z</time>
      </trkpt>
      <trkpt lat="43.37032" lon="6.12579">
        <ele>233.60000610352</ele>
        <time>2013-12-14T13:59:14Z</time>
      </trkpt>
      <trkpt lat="43.3703" lon="6.12583">
        <ele>234</ele>
        <time>2013-12-14T13:59:15Z</time>
      </trkpt>
      <trkpt lat="43.37028" lon="6.12587">
        <ele>234.39999389648</ele>
        <time>2013-12-14T13:59:16Z</time>
      </trkpt>
      <trkpt lat="43.37024" lon="6.12595">
        <ele>235.19999694824</ele>
        <time>2013-12-14T13:59:18Z</time>
      </trkpt>
      <trkpt lat="43.37022" lon="6.12599">
        <ele>235.19999694824</ele>
        <time>2013-12-14T13:59:19Z</time>
      </trkpt>
      <trkpt lat="43.37007" lon="6.12629">
        <ele>235.19999694824</ele>
        <time>2013-12-14T13:59:27Z</time>
      </trkpt>
      <trkpt lat="43.36996" lon="6.12652">
        <ele>236</ele>
        <time>2013-12-14T13:59:33Z</time>
      </trkpt>
      <trkpt lat="43.3698" lon="6.12685">
        <ele>237.19999694824</ele>
        <time>2013-12-14T13:59:41Z</time>
      </trkpt>
      <trkpt lat="43.36967" lon="6.12716">
        <ele>237.19999694824</ele>
        <time>2013-12-14T13:59:48Z</time>
      </trkpt>
      <trkpt lat="43.3695" lon="6.12752">
        <ele>237.19999694824</ele>
        <time>2013-12-14T13:59:57Z</time>
      </trkpt>
      <trkpt lat="43.36938" lon="6.12773">
        <ele>237.19999694824</ele>
        <time>2013-12-14T14:00:03Z</time>
      </trkpt>
      <trkpt lat="43.36931" lon="6.12791">
        <ele>237.19999694824</ele>
        <time>2013-12-14T14:00:08Z</time>
      </trkpt>
      <trkpt lat="43.3692" lon="6.12813">
        <ele>239.39999389648</ele>
        <time>2013-12-14T14:00:15Z</time>
      </trkpt>
      <trkpt lat="43.3691" lon="6.12831">
        <ele>239.39999389648</ele>
        <time>2013-12-14T14:00:22Z</time>
      </trkpt>
      <trkpt lat="43.36902" lon="6.12847">
        <ele>240.19999694824</ele>
        <time>2013-12-14T14:00:28Z</time>
      </trkpt>
      <trkpt lat="43.36883" lon="6.12866">
        <ele>241.39999389648</ele>
        <time>2013-12-14T14:00:38Z</time>
      </trkpt>
      <trkpt lat="43.36871" lon="6.12877">
        <ele>241.39999389648</ele>
        <time>2013-12-14T14:00:45Z</time>
      </trkpt>
      <trkpt lat="43.36858" lon="6.1289">
        <ele>243.39999389648</ele>
        <time>2013-12-14T14:00:52Z</time>
      </trkpt>
      <trkpt lat="43.36848" lon="6.129">
        <ele>243.39999389648</ele>
        <time>2013-12-14T14:00:57Z</time>
      </trkpt>
      <trkpt lat="43.36837" lon="6.12909">
        <ele>245.60000610352</ele>
        <time>2013-12-14T14:01:03Z</time>
      </trkpt>
      <trkpt lat="43.36832" lon="6.12914">
        <ele>245.60000610352</ele>
        <time>2013-12-14T14:01:06Z</time>
      </trkpt>
      <trkpt lat="43.36823" lon="6.12925">
        <ele>246</ele>
        <time>2013-12-14T14:01:12Z</time>
      </trkpt>
      <trkpt lat="43.36817" lon="6.12929">
        <ele>247.19999694824</ele>
        <time>2013-12-14T14:01:15Z</time>
      </trkpt>
      <trkpt lat="43.36791" lon="6.12959">
        <ele>247.60000610352</ele>
        <time>2013-12-14T14:01:31Z</time>
      </trkpt>
      <trkpt lat="43.36787" lon="6.12962">
        <ele>248</ele>
        <time>2013-12-14T14:01:33Z</time>
      </trkpt>
      <trkpt lat="43.36763" lon="6.12987">
        <ele>249.60000610352</ele>
        <time>2013-12-14T14:01:48Z</time>
      </trkpt>
      <trkpt lat="43.36751" lon="6.13003">
        <ele>251.39999389648</ele>
        <time>2013-12-14T14:01:56Z</time>
      </trkpt>
      <trkpt lat="43.36745" lon="6.13015">
        <ele>252</ele>
        <time>2013-12-14T14:02:01Z</time>
      </trkpt>
      <trkpt lat="43.36739" lon="6.13026">
        <ele>252.39999389648</ele>
        <time>2013-12-14T14:02:06Z</time>
      </trkpt>
      <trkpt lat="43.36735" lon="6.13034">
        <ele>254.19999694824</ele>
        <time>2013-12-14T14:02:10Z</time>
      </trkpt>
      <trkpt lat="43.36732" lon="6.1304">
        <ele>254.19999694824</ele>
        <time>2013-12-14T14:02:12Z</time>
      </trkpt>
      <trkpt lat="43.36722" lon="6.13057">
        <ele>254.19999694824</ele>
        <time>2013-12-14T14:02:19Z</time>
      </trkpt>
      <trkpt lat="43.36716" lon="6.13068">
        <ele>254.60000610352</ele>
        <time>2013-12-14T14:02:24Z</time>
      </trkpt>
      <trkpt lat="43.36714" lon="6.13072">
        <ele>255.39999389648</ele>
        <time>2013-12-14T14:02:26Z</time>
      </trkpt>
      <trkpt lat="43.36709" lon="6.13094">
        <ele>256.39999389648</ele>
        <time>2013-12-14T14:02:34Z</time>
      </trkpt>
      <trkpt lat="43.36707" lon="6.13105">
        <ele>256.39999389648</ele>
        <time>2013-12-14T14:02:38Z</time>
      </trkpt>
      <trkpt lat="43.36699" lon="6.13125">
        <ele>258</ele>
        <time>2013-12-14T14:02:46Z</time>
      </trkpt>
      <trkpt lat="43.36699" lon="6.13127">
        <ele>258.39999389648</ele>
        <time>2013-12-14T14:02:47Z</time>
      </trkpt>
      <trkpt lat="43.3669" lon="6.13142">
        <ele>258.39999389648</ele>
        <time>2013-12-14T14:02:54Z</time>
      </trkpt>
      <trkpt lat="43.36687" lon="6.13144">
        <ele>259.20001220703</ele>
        <time>2013-12-14T14:02:56Z</time>
      </trkpt>
      <trkpt lat="43.36671" lon="6.13151">
        <ele>260.60000610352</ele>
        <time>2013-12-14T14:03:06Z</time>
      </trkpt>
      <trkpt lat="43.36668" lon="6.13153">
        <ele>261</ele>
        <time>2013-12-14T14:03:08Z</time>
      </trkpt>
      <trkpt lat="43.36665" lon="6.13159">
        <ele>262.79998779297</ele>
        <time>2013-12-14T14:03:12Z</time>
      </trkpt>
      <trkpt lat="43.36663" lon="6.13161">
        <ele>262.79998779297</ele>
        <time>2013-12-14T14:03:13Z</time>
      </trkpt>
      <trkpt lat="43.36662" lon="6.13175">
        <ele>262.79998779297</ele>
        <time>2013-12-14T14:03:19Z</time>
      </trkpt>
      <trkpt lat="43.3666" lon="6.13207">
        <ele>265</ele>
        <time>2013-12-14T14:03:33Z</time>
      </trkpt>
      <trkpt lat="43.36656" lon="6.13236">
        <ele>265</ele>
        <time>2013-12-14T14:03:45Z</time>
      </trkpt>
      <trkpt lat="43.36656" lon="6.13241">
        <ele>265.39999389648</ele>
        <time>2013-12-14T14:03:47Z</time>
      </trkpt>
      <trkpt lat="43.36656" lon="6.13246">
        <ele>266.20001220703</ele>
        <time>2013-12-14T14:03:49Z</time>
      </trkpt>
      <trkpt lat="43.36655" lon="6.13249">
        <ele>267.20001220703</ele>
        <time>2013-12-14T14:03:51Z</time>
      </trkpt>
      <trkpt lat="43.36655" lon="6.13254">
        <ele>267.20001220703</ele>
        <time>2013-12-14T14:03:53Z</time>
      </trkpt>
      <trkpt lat="43.36655" lon="6.13262">
        <ele>267.20001220703</ele>
        <time>2013-12-14T14:03:58Z</time>
      </trkpt>
      <trkpt lat="43.36655" lon="6.13263">
        <ele>267.20001220703</ele>
        <time>2013-12-14T14:03:59Z</time>
      </trkpt>
      <trkpt lat="43.36655" lon="6.13263">
        <ele>267.20001220703</ele>
        <time>2013-12-14T14:04:03Z</time>
      </trkpt>
      <trkpt lat="43.36655" lon="6.13263">
        <ele>267.20001220703</ele>
        <time>2013-12-14T14:04:11Z</time>
      </trkpt>
      <trkpt lat="43.36655" lon="6.13264">
        <ele>267.20001220703</ele>
        <time>2013-12-14T14:04:24Z</time>
      </trkpt>
      <trkpt lat="43.36655" lon="6.13264">
        <ele>267.20001220703</ele>
        <time>2013-12-14T14:04:31Z</time>
      </trkpt>
      <trkpt lat="43.36654" lon="6.13266">
        <ele>267.20001220703</ele>
        <time>2013-12-14T14:04:33Z</time>
      </trkpt>
      <trkpt lat="43.36652" lon="6.13276">
        <ele>267.20001220703</ele>
        <time>2013-12-14T14:04:38Z</time>
      </trkpt>
      <trkpt lat="43.36651" lon="6.13281">
        <ele>267.60000610352</ele>
        <time>2013-12-14T14:04:40Z</time>
      </trkpt>
      <trkpt lat="43.36651" lon="6.13285">
        <ele>268</ele>
        <time>2013-12-14T14:04:41Z</time>
      </trkpt>
      <trkpt lat="43.3665" lon="6.13291">
        <ele>269.20001220703</ele>
        <time>2013-12-14T14:04:43Z</time>
      </trkpt>
      <trkpt lat="43.36646" lon="6.13308">
        <ele>269.20001220703</ele>
        <time>2013-12-14T14:04:49Z</time>
      </trkpt>
      <trkpt lat="43.36644" lon="6.13321">
        <ele>269.20001220703</ele>
        <time>2013-12-14T14:04:55Z</time>
      </trkpt>
      <trkpt lat="43.3664" lon="6.13337">
        <ele>269.20001220703</ele>
        <time>2013-12-14T14:05:01Z</time>
      </trkpt>
      <trkpt lat="43.36638" lon="6.13346">
        <ele>270.39999389648</ele>
        <time>2013-12-14T14:05:04Z</time>
      </trkpt>
      <trkpt lat="43.3663" lon="6.13379">
        <ele>271.20001220703</ele>
        <time>2013-12-14T14:05:16Z</time>
      </trkpt>
      <trkpt lat="43.36625" lon="6.13399">
        <ele>271.20001220703</ele>
        <time>2013-12-14T14:05:22Z</time>
      </trkpt>
      <trkpt lat="43.36622" lon="6.13411">
        <ele>271.20001220703</ele>
        <time>2013-12-14T14:05:27Z</time>
      </trkpt>
      <trkpt lat="43.36613" lon="6.13439">
        <ele>273.20001220703</ele>
        <time>2013-12-14T14:05:36Z</time>
      </trkpt>
      <trkpt lat="43.3661" lon="6.13445">
        <ele>273.20001220703</ele>
        <time>2013-12-14T14:05:38Z</time>
      </trkpt>
      <trkpt lat="43.36608" lon="6.13458">
        <ele>273.20001220703</ele>
        <time>2013-12-14T14:05:43Z</time>
      </trkpt>
      <trkpt lat="43.36604" lon="6.13477">
        <ele>273.20001220703</ele>
        <time>2013-12-14T14:05:50Z</time>
      </trkpt>
      <trkpt lat="43.36601" lon="6.13495">
        <ele>273.20001220703</ele>
        <time>2013-12-14T14:05:56Z</time>
      </trkpt>
      <trkpt lat="43.36597" lon="6.13513">
        <ele>274.79998779297</ele>
        <time>2013-12-14T14:06:03Z</time>
      </trkpt>
      <trkpt lat="43.36591" lon="6.13541">
        <ele>275.20001220703</ele>
        <time>2013-12-14T14:06:15Z</time>
      </trkpt>
      <trkpt lat="43.36588" lon="6.13556">
        <ele>275.60000610352</ele>
        <time>2013-12-14T14:06:23Z</time>
      </trkpt>
      <trkpt lat="43.36586" lon="6.13564">
        <ele>276.79998779297</ele>
        <time>2013-12-14T14:06:26Z</time>
      </trkpt>
      <trkpt lat="43.36586" lon="6.13567">
        <ele>277.20001220703</ele>
        <time>2013-12-14T14:06:27Z</time>
      </trkpt>
      <trkpt lat="43.36579" lon="6.13588">
        <ele>277.20001220703</ele>
        <time>2013-12-14T14:06:36Z</time>
      </trkpt>
      <trkpt lat="43.36578" lon="6.13593">
        <ele>277.79998779297</ele>
        <time>2013-12-14T14:06:38Z</time>
      </trkpt>
      <trkpt lat="43.36573" lon="6.13606">
        <ele>279.39999389648</ele>
        <time>2013-12-14T14:06:42Z</time>
      </trkpt>
      <trkpt lat="43.36571" lon="6.13618">
        <ele>279.39999389648</ele>
        <time>2013-12-14T14:06:46Z</time>
      </trkpt>
      <trkpt lat="43.36566" lon="6.13637">
        <ele>279.39999389648</ele>
        <time>2013-12-14T14:06:53Z</time>
      </trkpt>
      <trkpt lat="43.36562" lon="6.1366">
        <ele>281.39999389648</ele>
        <time>2013-12-14T14:07:02Z</time>
      </trkpt>
      <trkpt lat="43.36562" lon="6.13668">
        <ele>281.39999389648</ele>
        <time>2013-12-14T14:07:05Z</time>
      </trkpt>
      <trkpt lat="43.3656" lon="6.13682">
        <ele>282</ele>
        <time>2013-12-14T14:07:11Z</time>
      </trkpt>
      <trkpt lat="43.3656" lon="6.13683">
        <ele>282.39999389648</ele>
        <time>2013-12-14T14:07:12Z</time>
      </trkpt>
      <trkpt lat="43.36559" lon="6.13686">
        <ele>282.79998779297</ele>
        <time>2013-12-14T14:07:13Z</time>
      </trkpt>
      <trkpt lat="43.36559" lon="6.13688">
        <ele>283.20001220703</ele>
        <time>2013-12-14T14:07:14Z</time>
      </trkpt>
      <trkpt lat="43.36558" lon="6.13688">
        <ele>283.60000610352</ele>
        <time>2013-12-14T14:07:15Z</time>
      </trkpt>
      <trkpt lat="43.36559" lon="6.13688">
        <ele>283.60000610352</ele>
        <time>2013-12-14T14:07:16Z</time>
      </trkpt>
      <trkpt lat="43.36559" lon="6.13688">
        <ele>283.60000610352</ele>
        <time>2013-12-14T14:07:23Z</time>
      </trkpt>
      <trkpt lat="43.36557" lon="6.13693">
        <ele>283.60000610352</ele>
        <time>2013-12-14T14:07:36Z</time>
      </trkpt>
      <trkpt lat="43.36555" lon="6.13708">
        <ele>283.60000610352</ele>
        <time>2013-12-14T14:07:42Z</time>
      </trkpt>
      <trkpt lat="43.36553" lon="6.13717">
        <ele>284</ele>
        <time>2013-12-14T14:07:46Z</time>
      </trkpt>
      <trkpt lat="43.36552" lon="6.13722">
        <ele>284.79998779297</ele>
        <time>2013-12-14T14:07:48Z</time>
      </trkpt>
      <trkpt lat="43.36551" lon="6.13727">
        <ele>285.60000610352</ele>
        <time>2013-12-14T14:07:50Z</time>
      </trkpt>
      <trkpt lat="43.36549" lon="6.13746">
        <ele>285.60000610352</ele>
        <time>2013-12-14T14:07:58Z</time>
      </trkpt>
      <trkpt lat="43.36547" lon="6.13752">
        <ele>286</ele>
        <time>2013-12-14T14:08:01Z</time>
      </trkpt>
      <trkpt lat="43.36546" lon="6.13753">
        <ele>286.39999389648</ele>
        <time>2013-12-14T14:08:02Z</time>
      </trkpt>
      <trkpt lat="43.36545" lon="6.13753">
        <ele>286.79998779297</ele>
        <time>2013-12-14T14:08:03Z</time>
      </trkpt>
      <trkpt lat="43.36543" lon="6.13754">
        <ele>287.39999389648</ele>
        <time>2013-12-14T14:08:04Z</time>
      </trkpt>
      <trkpt lat="43.36542" lon="6.13755">
        <ele>287.79998779297</ele>
        <time>2013-12-14T14:08:05Z</time>
      </trkpt>
      <trkpt lat="43.3654" lon="6.13756">
        <ele>287.79998779297</ele>
        <time>2013-12-14T14:08:09Z</time>
      </trkpt>
      <trkpt lat="43.3654" lon="6.13756">
        <ele>287.79998779297</ele>
        <time>2013-12-14T14:08:15Z</time>
      </trkpt>
      <trkpt lat="43.3654" lon="6.13756">
        <ele>287.79998779297</ele>
        <time>2013-12-14T14:08:38Z</time>
      </trkpt>
      <trkpt lat="43.3654" lon="6.13756">
        <ele>287.79998779297</ele>
        <time>2013-12-14T14:08:50Z</time>
      </trkpt>
      <trkpt lat="43.3654" lon="6.13756">
        <ele>287.79998779297</ele>
        <time>2013-12-14T14:08:55Z</time>
      </trkpt>
      <trkpt lat="43.3654" lon="6.13756">
        <ele>287.79998779297</ele>
        <time>2013-12-14T14:09:15Z</time>
      </trkpt>
      <trkpt lat="43.3654" lon="6.13756">
        <ele>287.79998779297</ele>
        <time>2013-12-14T14:09:26Z</time>
      </trkpt>
      <trkpt lat="43.36538" lon="6.13756">
        <ele>287.79998779297</ele>
        <time>2013-12-14T14:09:34Z</time>
      </trkpt>
      <trkpt lat="43.36535" lon="6.13756">
        <ele>287.79998779297</ele>
        <time>2013-12-14T14:09:36Z</time>
      </trkpt>
      <trkpt lat="43.36521" lon="6.13758">
        <ele>287.79998779297</ele>
        <time>2013-12-14T14:09:44Z</time>
      </trkpt>
      <trkpt lat="43.36518" lon="6.13758">
        <ele>288.20001220703</ele>
        <time>2013-12-14T14:09:46Z</time>
      </trkpt>
      <trkpt lat="43.36514" lon="6.13757">
        <ele>289.60000610352</ele>
        <time>2013-12-14T14:09:49Z</time>
      </trkpt>
      <trkpt lat="43.36508" lon="6.13753">
        <ele>290</ele>
        <time>2013-12-14T14:09:52Z</time>
      </trkpt>
      <trkpt lat="43.36502" lon="6.13748">
        <ele>290</ele>
        <time>2013-12-14T14:09:56Z</time>
      </trkpt>
      <trkpt lat="43.36495" lon="6.13734">
        <ele>292</ele>
        <time>2013-12-14T14:10:05Z</time>
      </trkpt>
      <trkpt lat="43.36489" lon="6.13724">
        <ele>292</ele>
        <time>2013-12-14T14:10:11Z</time>
      </trkpt>
      <trkpt lat="43.36484" lon="6.13718">
        <ele>292.79998779297</ele>
        <time>2013-12-14T14:10:15Z</time>
      </trkpt>
      <trkpt lat="43.36481" lon="6.13716">
        <ele>293.60000610352</ele>
        <time>2013-12-14T14:10:17Z</time>
      </trkpt>
      <trkpt lat="43.3647" lon="6.1371">
        <ele>294</ele>
        <time>2013-12-14T14:10:25Z</time>
      </trkpt>
      <trkpt lat="43.36461" lon="6.13697">
        <ele>294.79998779297</ele>
        <time>2013-12-14T14:10:33Z</time>
      </trkpt>
      <trkpt lat="43.3646" lon="6.13691">
        <ele>296.20001220703</ele>
        <time>2013-12-14T14:10:36Z</time>
      </trkpt>
      <trkpt lat="43.36456" lon="6.13672">
        <ele>296.20001220703</ele>
        <time>2013-12-14T14:10:45Z</time>
      </trkpt>
      <trkpt lat="43.36454" lon="6.13662">
        <ele>296.60000610352</ele>
        <time>2013-12-14T14:10:50Z</time>
      </trkpt>
      <trkpt lat="43.36454" lon="6.13657">
        <ele>297.39999389648</ele>
        <time>2013-12-14T14:10:52Z</time>
      </trkpt>
      <trkpt lat="43.36454" lon="6.13651">
        <ele>298.20001220703</ele>
        <time>2013-12-14T14:10:55Z</time>
      </trkpt>
      <trkpt lat="43.36454" lon="6.13639">
        <ele>298.20001220703</ele>
        <time>2013-12-14T14:11:01Z</time>
      </trkpt>
      <trkpt lat="43.36454" lon="6.13633">
        <ele>298.20001220703</ele>
        <time>2013-12-14T14:11:04Z</time>
      </trkpt>
      <trkpt lat="43.36454" lon="6.13628">
        <ele>298.60000610352</ele>
        <time>2013-12-14T14:11:07Z</time>
      </trkpt>
      <trkpt lat="43.36453" lon="6.13603">
        <ele>300.20001220703</ele>
        <time>2013-12-14T14:11:19Z</time>
      </trkpt>
      <trkpt lat="43.36449" lon="6.13592">
        <ele>300.20001220703</ele>
        <time>2013-12-14T14:11:25Z</time>
      </trkpt>
      <trkpt lat="43.36443" lon="6.13578">
        <ele>301</ele>
        <time>2013-12-14T14:11:33Z</time>
      </trkpt>
      <trkpt lat="43.3644" lon="6.13574">
        <ele>302.20001220703</ele>
        <time>2013-12-14T14:11:36Z</time>
      </trkpt>
      <trkpt lat="43.36433" lon="6.13567">
        <ele>302.20001220703</ele>
        <time>2013-12-14T14:11:42Z</time>
      </trkpt>
      <trkpt lat="43.36432" lon="6.13566">
        <ele>302.20001220703</ele>
        <time>2013-12-14T14:11:44Z</time>
      </trkpt>
      <trkpt lat="43.36424" lon="6.13565">
        <ele>302.20001220703</ele>
        <time>2013-12-14T14:11:50Z</time>
      </trkpt>
      <trkpt lat="43.36423" lon="6.13564">
        <ele>302.60000610352</ele>
        <time>2013-12-14T14:11:51Z</time>
      </trkpt>
      <trkpt lat="43.36417" lon="6.13559">
        <ele>304.39999389648</ele>
        <time>2013-12-14T14:11:56Z</time>
      </trkpt>
      <trkpt lat="43.36412" lon="6.13555">
        <ele>304.39999389648</ele>
        <time>2013-12-14T14:12:01Z</time>
      </trkpt>
      <trkpt lat="43.3641" lon="6.13552">
        <ele>304.39999389648</ele>
        <time>2013-12-14T14:12:03Z</time>
      </trkpt>
      <trkpt lat="43.36406" lon="6.13545">
        <ele>305.20001220703</ele>
        <time>2013-12-14T14:12:08Z</time>
      </trkpt>
      <trkpt lat="43.36405" lon="6.13542">
        <ele>306</ele>
        <time>2013-12-14T14:12:10Z</time>
      </trkpt>
      <trkpt lat="43.36404" lon="6.13541">
        <ele>306.39999389648</ele>
        <time>2013-12-14T14:12:11Z</time>
      </trkpt>
      <trkpt lat="43.36404" lon="6.13538">
        <ele>306.39999389648</ele>
        <time>2013-12-14T14:12:13Z</time>
      </trkpt>
      <trkpt lat="43.36404" lon="6.13537">
        <ele>306.39999389648</ele>
        <time>2013-12-14T14:12:19Z</time>
      </trkpt>
      <trkpt lat="43.36404" lon="6.13537">
        <ele>306.39999389648</ele>
        <time>2013-12-14T14:12:33Z</time>
      </trkpt>
      <trkpt lat="43.36404" lon="6.13537">
        <ele>306.39999389648</ele>
        <time>2013-12-14T14:12:39Z</time>
      </trkpt>
      <trkpt lat="43.36404" lon="6.13537">
        <ele>306.39999389648</ele>
        <time>2013-12-14T14:12:40Z</time>
      </trkpt>
      <trkpt lat="43.36404" lon="6.13536">
        <ele>306.39999389648</ele>
        <time>2013-12-14T14:12:48Z</time>
      </trkpt>
      <trkpt lat="43.36408" lon="6.13526">
        <ele>306.39999389648</ele>
        <time>2013-12-14T14:12:53Z</time>
      </trkpt>
      <trkpt lat="43.36414" lon="6.13515">
        <ele>306.39999389648</ele>
        <time>2013-12-14T14:12:59Z</time>
      </trkpt>
      <trkpt lat="43.36414" lon="6.1351">
        <ele>307.20001220703</ele>
        <time>2013-12-14T14:13:01Z</time>
      </trkpt>
      <trkpt lat="43.36414" lon="6.13503">
        <ele>308.60000610352</ele>
        <time>2013-12-14T14:13:04Z</time>
      </trkpt>
      <trkpt lat="43.36418" lon="6.13496">
        <ele>308.60000610352</ele>
        <time>2013-12-14T14:13:08Z</time>
      </trkpt>
      <trkpt lat="43.36423" lon="6.13483">
        <ele>309.39999389648</ele>
        <time>2013-12-14T14:13:14Z</time>
      </trkpt>
      <trkpt lat="43.36425" lon="6.13478">
        <ele>310.60000610352</ele>
        <time>2013-12-14T14:13:17Z</time>
      </trkpt>
      <trkpt lat="43.36425" lon="6.13474">
        <ele>310.60000610352</ele>
        <time>2013-12-14T14:13:20Z</time>
      </trkpt>
      <trkpt lat="43.36426" lon="6.13471">
        <ele>310.60000610352</ele>
        <time>2013-12-14T14:13:22Z</time>
      </trkpt>
      <trkpt lat="43.36427" lon="6.1346">
        <ele>310.60000610352</ele>
        <time>2013-12-14T14:13:28Z</time>
      </trkpt>
      <trkpt lat="43.36428" lon="6.13452">
        <ele>311.60000610352</ele>
        <time>2013-12-14T14:13:32Z</time>
      </trkpt>
      <trkpt lat="43.36429" lon="6.13449">
        <ele>312.39999389648</ele>
        <time>2013-12-14T14:13:34Z</time>
      </trkpt>
      <trkpt lat="43.36428" lon="6.13422">
        <ele>312.79998779297</ele>
        <time>2013-12-14T14:13:47Z</time>
      </trkpt>
      <trkpt lat="43.36428" lon="6.13409">
        <ele>312.79998779297</ele>
        <time>2013-12-14T14:13:54Z</time>
      </trkpt>
      <trkpt lat="43.36429" lon="6.13399">
        <ele>312.79998779297</ele>
        <time>2013-12-14T14:13:59Z</time>
      </trkpt>
      <trkpt lat="43.36429" lon="6.13382">
        <ele>312.79998779297</ele>
        <time>2013-12-14T14:14:06Z</time>
      </trkpt>
      <trkpt lat="43.36426" lon="6.13373">
        <ele>313.60000610352</ele>
        <time>2013-12-14T14:14:10Z</time>
      </trkpt>
      <trkpt lat="43.36422" lon="6.13367">
        <ele>314.79998779297</ele>
        <time>2013-12-14T14:14:13Z</time>
      </trkpt>
      <trkpt lat="43.3642" lon="6.13362">
        <ele>314.79998779297</ele>
        <time>2013-12-14T14:14:16Z</time>
      </trkpt>
      <trkpt lat="43.3641" lon="6.13351">
        <ele>315.20001220703</ele>
        <time>2013-12-14T14:14:24Z</time>
      </trkpt>
      <trkpt lat="43.36409" lon="6.1335">
        <ele>315.60000610352</ele>
        <time>2013-12-14T14:14:25Z</time>
      </trkpt>
      <trkpt lat="43.36407" lon="6.13349">
        <ele>316</ele>
        <time>2013-12-14T14:14:26Z</time>
      </trkpt>
      <trkpt lat="43.36406" lon="6.13349">
        <ele>316.39999389648</ele>
        <time>2013-12-14T14:14:27Z</time>
      </trkpt>
      <trkpt lat="43.36396" lon="6.13345">
        <ele>316.79998779297</ele>
        <time>2013-12-14T14:14:34Z</time>
      </trkpt>
      <trkpt lat="43.36391" lon="6.13347">
        <ele>316.79998779297</ele>
        <time>2013-12-14T14:14:36Z</time>
      </trkpt>
      <trkpt lat="43.36388" lon="6.13348">
        <ele>317.20001220703</ele>
        <time>2013-12-14T14:14:39Z</time>
      </trkpt>
      <trkpt lat="43.36386" lon="6.13348">
        <ele>317.60000610352</ele>
        <time>2013-12-14T14:14:40Z</time>
      </trkpt>
      <trkpt lat="43.36382" lon="6.13347">
        <ele>318.39999389648</ele>
        <time>2013-12-14T14:14:42Z</time>
      </trkpt>
      <trkpt lat="43.36375" lon="6.13344">
        <ele>318.79998779297</ele>
        <time>2013-12-14T14:14:48Z</time>
      </trkpt>
      <trkpt lat="43.36374" lon="6.13344">
        <ele>318.79998779297</ele>
        <time>2013-12-14T14:14:49Z</time>
      </trkpt>
      <trkpt lat="43.36369" lon="6.13344">
        <ele>319.20001220703</ele>
        <time>2013-12-14T14:14:52Z</time>
      </trkpt>
      <trkpt lat="43.36364" lon="6.13345">
        <ele>320.79998779297</ele>
        <time>2013-12-14T14:14:56Z</time>
      </trkpt>
      <trkpt lat="43.36357" lon="6.13344">
        <ele>320.79998779297</ele>
        <time>2013-12-14T14:15:02Z</time>
      </trkpt>
      <trkpt lat="43.36352" lon="6.13343">
        <ele>321.20001220703</ele>
        <time>2013-12-14T14:15:06Z</time>
      </trkpt>
      <trkpt lat="43.36348" lon="6.13344">
        <ele>322</ele>
        <time>2013-12-14T14:15:08Z</time>
      </trkpt>
      <trkpt lat="43.36346" lon="6.13343">
        <ele>322.79998779297</ele>
        <time>2013-12-14T14:15:10Z</time>
      </trkpt>
      <trkpt lat="43.36345" lon="6.13342">
        <ele>322.79998779297</ele>
        <time>2013-12-14T14:15:12Z</time>
      </trkpt>
      <trkpt lat="43.36344" lon="6.13342">
        <ele>322.79998779297</ele>
        <time>2013-12-14T14:15:14Z</time>
      </trkpt>
      <trkpt lat="43.36344" lon="6.13342">
        <ele>322.79998779297</ele>
        <time>2013-12-14T14:15:31Z</time>
      </trkpt>
      <trkpt lat="43.36344" lon="6.13342">
        <ele>322.79998779297</ele>
        <time>2013-12-14T14:15:40Z</time>
      </trkpt>
      <trkpt lat="43.36343" lon="6.13341">
        <ele>322.79998779297</ele>
        <time>2013-12-14T14:15:42Z</time>
      </trkpt>
      <trkpt lat="43.36337" lon="6.13338">
        <ele>322.79998779297</ele>
        <time>2013-12-14T14:15:46Z</time>
      </trkpt>
      <trkpt lat="43.36333" lon="6.13332">
        <ele>324.20001220703</ele>
        <time>2013-12-14T14:15:50Z</time>
      </trkpt>
      <trkpt lat="43.3633" lon="6.1333">
        <ele>325</ele>
        <time>2013-12-14T14:15:52Z</time>
      </trkpt>
      <trkpt lat="43.36324" lon="6.13318">
        <ele>325</ele>
        <time>2013-12-14T14:15:59Z</time>
      </trkpt>
      <trkpt lat="43.36314" lon="6.13306">
        <ele>325.79998779297</ele>
        <time>2013-12-14T14:16:08Z</time>
      </trkpt>
      <trkpt lat="43.36312" lon="6.13302">
        <ele>327.20001220703</ele>
        <time>2013-12-14T14:16:11Z</time>
      </trkpt>
      <trkpt lat="43.36309" lon="6.13295">
        <ele>327.20001220703</ele>
        <time>2013-12-14T14:16:17Z</time>
      </trkpt>
      <trkpt lat="43.36301" lon="6.13278">
        <ele>329.20001220703</ele>
        <time>2013-12-14T14:16:29Z</time>
      </trkpt>
      <trkpt lat="43.36298" lon="6.13271">
        <ele>329.20001220703</ele>
        <time>2013-12-14T14:16:34Z</time>
      </trkpt>
      <trkpt lat="43.36296" lon="6.13267">
        <ele>329.60000610352</ele>
        <time>2013-12-14T14:16:38Z</time>
      </trkpt>
      <trkpt lat="43.36296" lon="6.1326">
        <ele>331.39999389648</ele>
        <time>2013-12-14T14:16:42Z</time>
      </trkpt>
      <trkpt lat="43.36298" lon="6.13254">
        <ele>331.39999389648</ele>
        <time>2013-12-14T14:16:46Z</time>
      </trkpt>
      <trkpt lat="43.36302" lon="6.1325">
        <ele>331.39999389648</ele>
        <time>2013-12-14T14:16:51Z</time>
      </trkpt>
      <trkpt lat="43.36309" lon="6.13241">
        <ele>331.39999389648</ele>
        <time>2013-12-14T14:16:58Z</time>
      </trkpt>
      <trkpt lat="43.36316" lon="6.13229">
        <ele>331.39999389648</ele>
        <time>2013-12-14T14:17:05Z</time>
      </trkpt>
      <trkpt lat="43.3632" lon="6.13221">
        <ele>331.79998779297</ele>
        <time>2013-12-14T14:17:09Z</time>
      </trkpt>
      <trkpt lat="43.36321" lon="6.13218">
        <ele>332.60000610352</ele>
        <time>2013-12-14T14:17:11Z</time>
      </trkpt>
      <trkpt lat="43.36322" lon="6.13205">
        <ele>333.39999389648</ele>
        <time>2013-12-14T14:17:17Z</time>
      </trkpt>
      <trkpt lat="43.36323" lon="6.13178">
        <ele>333.39999389648</ele>
        <time>2013-12-14T14:17:30Z</time>
      </trkpt>
      <trkpt lat="43.36323" lon="6.13172">
        <ele>334.20001220703</ele>
        <time>2013-12-14T14:17:33Z</time>
      </trkpt>
      <trkpt lat="43.36322" lon="6.13147">
        <ele>335.39999389648</ele>
        <time>2013-12-14T14:17:45Z</time>
      </trkpt>
      <trkpt lat="43.36323" lon="6.13135">
        <ele>335.39999389648</ele>
        <time>2013-12-14T14:17:51Z</time>
      </trkpt>
      <trkpt lat="43.36322" lon="6.13125">
        <ele>335.79998779297</ele>
        <time>2013-12-14T14:17:56Z</time>
      </trkpt>
      <trkpt lat="43.36314" lon="6.13099">
        <ele>337.39999389648</ele>
        <time>2013-12-14T14:18:10Z</time>
      </trkpt>
      <trkpt lat="43.36311" lon="6.13094">
        <ele>337.79998779297</ele>
        <time>2013-12-14T14:18:13Z</time>
      </trkpt>
      <trkpt lat="43.36297" lon="6.13071">
        <ele>340.39999389648</ele>
        <time>2013-12-14T14:18:29Z</time>
      </trkpt>
      <trkpt lat="43.36288" lon="6.13055">
        <ele>341.60000610352</ele>
        <time>2013-12-14T14:18:40Z</time>
      </trkpt>
      <trkpt lat="43.36284" lon="6.13047">
        <ele>342</ele>
        <time>2013-12-14T14:18:45Z</time>
      </trkpt>
      <trkpt lat="43.36283" lon="6.13046">
        <ele>342.39999389648</ele>
        <time>2013-12-14T14:18:46Z</time>
      </trkpt>
      <trkpt lat="43.36275" lon="6.13035">
        <ele>343.60000610352</ele>
        <time>2013-12-14T14:18:55Z</time>
      </trkpt>
      <trkpt lat="43.36266" lon="6.13023">
        <ele>344.60000610352</ele>
        <time>2013-12-14T14:19:04Z</time>
      </trkpt>
      <trkpt lat="43.36264" lon="6.13019">
        <ele>345.79998779297</ele>
        <time>2013-12-14T14:19:07Z</time>
      </trkpt>
      <trkpt lat="43.36261" lon="6.13016">
        <ele>345.79998779297</ele>
        <time>2013-12-14T14:19:09Z</time>
      </trkpt>
      <trkpt lat="43.36258" lon="6.13014">
        <ele>345.79998779297</ele>
        <time>2013-12-14T14:19:12Z</time>
      </trkpt>
      <trkpt lat="43.36257" lon="6.13013">
        <ele>345.79998779297</ele>
        <time>2013-12-14T14:19:13Z</time>
      </trkpt>
      <trkpt lat="43.3624" lon="6.12993">
        <ele>347.79998779297</ele>
        <time>2013-12-14T14:19:29Z</time>
      </trkpt>
      <trkpt lat="43.36232" lon="6.12985">
        <ele>349.60000610352</ele>
        <time>2013-12-14T14:19:37Z</time>
      </trkpt>
      <trkpt lat="43.36228" lon="6.1298">
        <ele>350</ele>
        <time>2013-12-14T14:19:41Z</time>
      </trkpt>
      <trkpt lat="43.3622" lon="6.12972">
        <ele>350</ele>
        <time>2013-12-14T14:19:49Z</time>
      </trkpt>
      <trkpt lat="43.36212" lon="6.12962">
        <ele>352</ele>
        <time>2013-12-14T14:19:57Z</time>
      </trkpt>
      <trkpt lat="43.36209" lon="6.12958">
        <ele>352</ele>
        <time>2013-12-14T14:20:00Z</time>
      </trkpt>
      <trkpt lat="43.36206" lon="6.12956">
        <ele>352</ele>
        <time>2013-12-14T14:20:02Z</time>
      </trkpt>
      <trkpt lat="43.36197" lon="6.12949">
        <ele>354</ele>
        <time>2013-12-14T14:20:11Z</time>
      </trkpt>
      <trkpt lat="43.36191" lon="6.12946">
        <ele>354</ele>
        <time>2013-12-14T14:20:16Z</time>
      </trkpt>
      <trkpt lat="43.36184" lon="6.12943">
        <ele>356</ele>
        <time>2013-12-14T14:20:22Z</time>
      </trkpt>
      <trkpt lat="43.3618" lon="6.12941">
        <ele>356</ele>
        <time>2013-12-14T14:20:26Z</time>
      </trkpt>
      <trkpt lat="43.36176" lon="6.1294">
        <ele>356</ele>
        <time>2013-12-14T14:20:30Z</time>
      </trkpt>
      <trkpt lat="43.36171" lon="6.12939">
        <ele>356.39999389648</ele>
        <time>2013-12-14T14:20:35Z</time>
      </trkpt>
      <trkpt lat="43.36168" lon="6.12938">
        <ele>357.79998779297</ele>
        <time>2013-12-14T14:20:38Z</time>
      </trkpt>
      <trkpt lat="43.36163" lon="6.12939">
        <ele>358.20001220703</ele>
        <time>2013-12-14T14:20:42Z</time>
      </trkpt>
      <trkpt lat="43.36154" lon="6.12939">
        <ele>358.20001220703</ele>
        <time>2013-12-14T14:20:48Z</time>
      </trkpt>
      <trkpt lat="43.36148" lon="6.1294">
        <ele>358.20001220703</ele>
        <time>2013-12-14T14:20:53Z</time>
      </trkpt>
      <trkpt lat="43.36147" lon="6.1294">
        <ele>358.20001220703</ele>
        <time>2013-12-14T14:20:54Z</time>
      </trkpt>
      <trkpt lat="43.36139" lon="6.12939">
        <ele>358.20001220703</ele>
        <time>2013-12-14T14:21:00Z</time>
      </trkpt>
      <trkpt lat="43.36134" lon="6.12935">
        <ele>359.39999389648</ele>
        <time>2013-12-14T14:21:04Z</time>
      </trkpt>
      <trkpt lat="43.36133" lon="6.12934">
        <ele>359.79998779297</ele>
        <time>2013-12-14T14:21:05Z</time>
      </trkpt>
      <trkpt lat="43.36127" lon="6.12923">
        <ele>360.20001220703</ele>
        <time>2013-12-14T14:21:12Z</time>
      </trkpt>
      <trkpt lat="43.36121" lon="6.12908">
        <ele>360.20001220703</ele>
        <time>2013-12-14T14:21:21Z</time>
      </trkpt>
      <trkpt lat="43.36118" lon="6.12898">
        <ele>360.20001220703</ele>
        <time>2013-12-14T14:21:27Z</time>
      </trkpt>
      <trkpt lat="43.36118" lon="6.12894">
        <ele>361</ele>
        <time>2013-12-14T14:21:30Z</time>
      </trkpt>
      <trkpt lat="43.36118" lon="6.12889">
        <ele>362.20001220703</ele>
        <time>2013-12-14T14:21:33Z</time>
      </trkpt>
      <trkpt lat="43.36116" lon="6.12886">
        <ele>362.20001220703</ele>
        <time>2013-12-14T14:21:35Z</time>
      </trkpt>
      <trkpt lat="43.36113" lon="6.12883">
        <ele>362.20001220703</ele>
        <time>2013-12-14T14:21:38Z</time>
      </trkpt>
      <trkpt lat="43.36108" lon="6.12886">
        <ele>362.20001220703</ele>
        <time>2013-12-14T14:21:42Z</time>
      </trkpt>
      <trkpt lat="43.36107" lon="6.12889">
        <ele>362.20001220703</ele>
        <time>2013-12-14T14:21:44Z</time>
      </trkpt>
      <trkpt lat="43.36106" lon="6.12897">
        <ele>362.60000610352</ele>
        <time>2013-12-14T14:21:49Z</time>
      </trkpt>
      <trkpt lat="43.36106" lon="6.12902">
        <ele>363.79998779297</ele>
        <time>2013-12-14T14:21:52Z</time>
      </trkpt>
      <trkpt lat="43.36106" lon="6.12906">
        <ele>364.20001220703</ele>
        <time>2013-12-14T14:21:54Z</time>
      </trkpt>
      <trkpt lat="43.36107" lon="6.12913">
        <ele>364.20001220703</ele>
        <time>2013-12-14T14:21:58Z</time>
      </trkpt>
      <trkpt lat="43.36107" lon="6.12916">
        <ele>365.20001220703</ele>
        <time>2013-12-14T14:22:00Z</time>
      </trkpt>
      <trkpt lat="43.36107" lon="6.12917">
        <ele>365.60000610352</ele>
        <time>2013-12-14T14:22:01Z</time>
      </trkpt>
      <trkpt lat="43.36107" lon="6.12917">
        <ele>366</ele>
        <time>2013-12-14T14:22:02Z</time>
      </trkpt>
      <trkpt lat="43.36107" lon="6.12917">
        <ele>366.39999389648</ele>
        <time>2013-12-14T14:22:09Z</time>
      </trkpt>
      <trkpt lat="43.36107" lon="6.12917">
        <ele>366.39999389648</ele>
        <time>2013-12-14T14:22:12Z</time>
      </trkpt>
      <trkpt lat="43.36108" lon="6.12918">
        <ele>366.39999389648</ele>
        <time>2013-12-14T14:22:15Z</time>
      </trkpt>
      <trkpt lat="43.36109" lon="6.12925">
        <ele>366.39999389648</ele>
        <time>2013-12-14T14:22:20Z</time>
      </trkpt>
      <trkpt lat="43.36109" lon="6.12932">
        <ele>366.79998779297</ele>
        <time>2013-12-14T14:22:25Z</time>
      </trkpt>
      <trkpt lat="43.3611" lon="6.12934">
        <ele>367.20001220703</ele>
        <time>2013-12-14T14:22:26Z</time>
      </trkpt>
      <trkpt lat="43.3611" lon="6.12937">
        <ele>368</ele>
        <time>2013-12-14T14:22:28Z</time>
      </trkpt>
      <trkpt lat="43.36111" lon="6.1294">
        <ele>368.39999389648</ele>
        <time>2013-12-14T14:22:30Z</time>
      </trkpt>
      <trkpt lat="43.36116" lon="6.12953">
        <ele>368.79998779297</ele>
        <time>2013-12-14T14:22:40Z</time>
      </trkpt>
      <trkpt lat="43.36116" lon="6.12956">
        <ele>369.60000610352</ele>
        <time>2013-12-14T14:22:42Z</time>
      </trkpt>
      <trkpt lat="43.36118" lon="6.12959">
        <ele>370.39999389648</ele>
        <time>2013-12-14T14:22:44Z</time>
      </trkpt>
      <trkpt lat="43.36122" lon="6.12966">
        <ele>370.39999389648</ele>
        <time>2013-12-14T14:22:50Z</time>
      </trkpt>
      <trkpt lat="43.36129" lon="6.12974">
        <ele>372.60000610352</ele>
        <time>2013-12-14T14:22:58Z</time>
      </trkpt>
      <trkpt lat="43.36132" lon="6.12975">
        <ele>372.60000610352</ele>
        <time>2013-12-14T14:23:01Z</time>
      </trkpt>
      <trkpt lat="43.36135" lon="6.12978">
        <ele>373.39999389648</ele>
        <time>2013-12-14T14:23:06Z</time>
      </trkpt>
      <trkpt lat="43.36137" lon="6.12979">
        <ele>374.39999389648</ele>
        <time>2013-12-14T14:23:08Z</time>
      </trkpt>
      <trkpt lat="43.36142" lon="6.1298">
        <ele>374.79998779297</ele>
        <time>2013-12-14T14:23:12Z</time>
      </trkpt>
      <trkpt lat="43.36148" lon="6.12982">
        <ele>374.79998779297</ele>
        <time>2013-12-14T14:23:18Z</time>
      </trkpt>
      <trkpt lat="43.36151" lon="6.12983">
        <ele>375.60000610352</ele>
        <time>2013-12-14T14:23:21Z</time>
      </trkpt>
      <trkpt lat="43.36152" lon="6.12983">
        <ele>376</ele>
        <time>2013-12-14T14:23:22Z</time>
      </trkpt>
      <trkpt lat="43.36163" lon="6.1299">
        <ele>376.79998779297</ele>
        <time>2013-12-14T14:23:32Z</time>
      </trkpt>
      <trkpt lat="43.36167" lon="6.12993">
        <ele>376.79998779297</ele>
        <time>2013-12-14T14:23:36Z</time>
      </trkpt>
      <trkpt lat="43.3617" lon="6.12996">
        <ele>378.39999389648</ele>
        <time>2013-12-14T14:23:40Z</time>
      </trkpt>
      <trkpt lat="43.36174" lon="6.12999">
        <ele>378.79998779297</ele>
        <time>2013-12-14T14:23:44Z</time>
      </trkpt>
      <trkpt lat="43.3618" lon="6.13007">
        <ele>378.79998779297</ele>
        <time>2013-12-14T14:23:51Z</time>
      </trkpt>
      <trkpt lat="43.36187" lon="6.13022">
        <ele>378.79998779297</ele>
        <time>2013-12-14T14:24:02Z</time>
      </trkpt>
      <trkpt lat="43.36192" lon="6.13031">
        <ele>381</ele>
        <time>2013-12-14T14:24:07Z</time>
      </trkpt>
      <trkpt lat="43.36194" lon="6.13037">
        <ele>381</ele>
        <time>2013-12-14T14:24:11Z</time>
      </trkpt>
      <trkpt lat="43.362" lon="6.13049">
        <ele>381.39999389648</ele>
        <time>2013-12-14T14:24:18Z</time>
      </trkpt>
      <trkpt lat="43.36204" lon="6.13058">
        <ele>383</ele>
        <time>2013-12-14T14:24:22Z</time>
      </trkpt>
      <trkpt lat="43.36207" lon="6.13062">
        <ele>383</ele>
        <time>2013-12-14T14:24:24Z</time>
      </trkpt>
      <trkpt lat="43.36211" lon="6.13071">
        <ele>383</ele>
        <time>2013-12-14T14:24:28Z</time>
      </trkpt>
      <trkpt lat="43.36214" lon="6.13076">
        <ele>383.79998779297</ele>
        <time>2013-12-14T14:24:30Z</time>
      </trkpt>
      <trkpt lat="43.36216" lon="6.13083">
        <ele>385</ele>
        <time>2013-12-14T14:24:33Z</time>
      </trkpt>
      <trkpt lat="43.36218" lon="6.13094">
        <ele>385.60000610352</ele>
        <time>2013-12-14T14:24:38Z</time>
      </trkpt>
      <trkpt lat="43.3622" lon="6.131">
        <ele>387.39999389648</ele>
        <time>2013-12-14T14:24:42Z</time>
      </trkpt>
      <trkpt lat="43.36221" lon="6.1311">
        <ele>387.39999389648</ele>
        <time>2013-12-14T14:24:47Z</time>
      </trkpt>
      <trkpt lat="43.36221" lon="6.13114">
        <ele>388.60000610352</ele>
        <time>2013-12-14T14:24:50Z</time>
      </trkpt>
      <trkpt lat="43.3622" lon="6.1312">
        <ele>389.60000610352</ele>
        <time>2013-12-14T14:24:54Z</time>
      </trkpt>
      <trkpt lat="43.36221" lon="6.13127">
        <ele>390</ele>
        <time>2013-12-14T14:24:58Z</time>
      </trkpt>
      <trkpt lat="43.36221" lon="6.13129">
        <ele>390.39999389648</ele>
        <time>2013-12-14T14:24:59Z</time>
      </trkpt>
      <trkpt lat="43.36221" lon="6.13131">
        <ele>390.79998779297</ele>
        <time>2013-12-14T14:25:00Z</time>
      </trkpt>
      <trkpt lat="43.3622" lon="6.13134">
        <ele>391.60000610352</ele>
        <time>2013-12-14T14:25:02Z</time>
      </trkpt>
      <trkpt lat="43.36219" lon="6.13137">
        <ele>391.60000610352</ele>
        <time>2013-12-14T14:25:05Z</time>
      </trkpt>
      <trkpt lat="43.36219" lon="6.13138">
        <ele>391.60000610352</ele>
        <time>2013-12-14T14:25:07Z</time>
      </trkpt>
      <trkpt lat="43.36219" lon="6.13138">
        <ele>391.60000610352</ele>
        <time>2013-12-14T14:25:25Z</time>
      </trkpt>
      <trkpt lat="43.36219" lon="6.13138">
        <ele>391.60000610352</ele>
        <time>2013-12-14T14:25:36Z</time>
      </trkpt>
      <trkpt lat="43.36219" lon="6.13138">
        <ele>391.60000610352</ele>
        <time>2013-12-14T14:25:39Z</time>
      </trkpt>
      <trkpt lat="43.36219" lon="6.13138">
        <ele>391.60000610352</ele>
        <time>2013-12-14T14:25:51Z</time>
      </trkpt>
      <trkpt lat="43.36219" lon="6.13138">
        <ele>391.60000610352</ele>
        <time>2013-12-14T14:25:55Z</time>
      </trkpt>
      <trkpt lat="43.36219" lon="6.13138">
        <ele>391.60000610352</ele>
        <time>2013-12-14T14:26:04Z</time>
      </trkpt>
      <trkpt lat="43.36216" lon="6.13141">
        <ele>391.60000610352</ele>
        <time>2013-12-14T14:26:07Z</time>
      </trkpt>
      <trkpt lat="43.36213" lon="6.13147">
        <ele>392</ele>
        <time>2013-12-14T14:26:11Z</time>
      </trkpt>
      <trkpt lat="43.36211" lon="6.13151">
        <ele>393.20001220703</ele>
        <time>2013-12-14T14:26:14Z</time>
      </trkpt>
      <trkpt lat="43.3621" lon="6.13152">
        <ele>393.60000610352</ele>
        <time>2013-12-14T14:26:15Z</time>
      </trkpt>
      <trkpt lat="43.36207" lon="6.13154">
        <ele>393.60000610352</ele>
        <time>2013-12-14T14:26:17Z</time>
      </trkpt>
      <trkpt lat="43.36203" lon="6.1316">
        <ele>393.60000610352</ele>
        <time>2013-12-14T14:26:21Z</time>
      </trkpt>
      <trkpt lat="43.36201" lon="6.13162">
        <ele>394.60000610352</ele>
        <time>2013-12-14T14:26:23Z</time>
      </trkpt>
      <trkpt lat="43.36196" lon="6.13165">
        <ele>395.79998779297</ele>
        <time>2013-12-14T14:26:26Z</time>
      </trkpt>
      <trkpt lat="43.3619" lon="6.13167">
        <ele>396.20001220703</ele>
        <time>2013-12-14T14:26:31Z</time>
      </trkpt>
      <trkpt lat="43.36189" lon="6.13167">
        <ele>396.60000610352</ele>
        <time>2013-12-14T14:26:32Z</time>
      </trkpt>
      <trkpt lat="43.36185" lon="6.13167">
        <ele>397.79998779297</ele>
        <time>2013-12-14T14:26:35Z</time>
      </trkpt>
      <trkpt lat="43.36181" lon="6.13167">
        <ele>397.79998779297</ele>
        <time>2013-12-14T14:26:39Z</time>
      </trkpt>
      <trkpt lat="43.36173" lon="6.13169">
        <ele>397.79998779297</ele>
        <time>2013-12-14T14:26:46Z</time>
      </trkpt>
      <trkpt lat="43.36169" lon="6.13168">
        <ele>399.20001220703</ele>
        <time>2013-12-14T14:26:50Z</time>
      </trkpt>
      <trkpt lat="43.36147" lon="6.13165">
        <ele>401.60000610352</ele>
        <time>2013-12-14T14:27:08Z</time>
      </trkpt>
      <trkpt lat="43.36142" lon="6.13164">
        <ele>402</ele>
        <time>2013-12-14T14:27:13Z</time>
      </trkpt>
      <trkpt lat="43.36134" lon="6.13159">
        <ele>404.20001220703</ele>
        <time>2013-12-14T14:27:22Z</time>
      </trkpt>
      <trkpt lat="43.36124" lon="6.13148">
        <ele>404.60000610352</ele>
        <time>2013-12-14T14:27:35Z</time>
      </trkpt>
      <trkpt lat="43.36121" lon="6.13146">
        <ele>405.79998779297</ele>
        <time>2013-12-14T14:27:38Z</time>
      </trkpt>
      <trkpt lat="43.36118" lon="6.13143">
        <ele>406.20001220703</ele>
        <time>2013-12-14T14:27:42Z</time>
      </trkpt>
      <trkpt lat="43.36112" lon="6.13136">
        <ele>406.20001220703</ele>
        <time>2013-12-14T14:27:49Z</time>
      </trkpt>
      <trkpt lat="43.36103" lon="6.13135">
        <ele>406.20001220703</ele>
        <time>2013-12-14T14:27:58Z</time>
      </trkpt>
      <trkpt lat="43.36098" lon="6.13135">
        <ele>407.60000610352</ele>
        <time>2013-12-14T14:28:02Z</time>
      </trkpt>
      <trkpt lat="43.36092" lon="6.13137">
        <ele>408.39999389648</ele>
        <time>2013-12-14T14:28:08Z</time>
      </trkpt>
      <trkpt lat="43.36091" lon="6.13137">
        <ele>408.39999389648</ele>
        <time>2013-12-14T14:28:09Z</time>
      </trkpt>
      <trkpt lat="43.36084" lon="6.13137">
        <ele>408.39999389648</ele>
        <time>2013-12-14T14:28:15Z</time>
      </trkpt>
      <trkpt lat="43.36081" lon="6.13138">
        <ele>408.39999389648</ele>
        <time>2013-12-14T14:28:18Z</time>
      </trkpt>
      <trkpt lat="43.36074" lon="6.13139">
        <ele>410</ele>
        <time>2013-12-14T14:28:25Z</time>
      </trkpt>
      <trkpt lat="43.36065" lon="6.13136">
        <ele>410.39999389648</ele>
        <time>2013-12-14T14:28:33Z</time>
      </trkpt>
      <trkpt lat="43.36057" lon="6.13134">
        <ele>411.60000610352</ele>
        <time>2013-12-14T14:28:40Z</time>
      </trkpt>
      <trkpt lat="43.36054" lon="6.13133">
        <ele>412.39999389648</ele>
        <time>2013-12-14T14:28:42Z</time>
      </trkpt>
      <trkpt lat="43.36046" lon="6.13129">
        <ele>412.39999389648</ele>
        <time>2013-12-14T14:28:50Z</time>
      </trkpt>
      <trkpt lat="43.36042" lon="6.13127">
        <ele>414.20001220703</ele>
        <time>2013-12-14T14:28:54Z</time>
      </trkpt>
      <trkpt lat="43.36037" lon="6.13126">
        <ele>414.60000610352</ele>
        <time>2013-12-14T14:28:59Z</time>
      </trkpt>
      <trkpt lat="43.36028" lon="6.13124">
        <ele>415</ele>
        <time>2013-12-14T14:29:08Z</time>
      </trkpt>
      <trkpt lat="43.36017" lon="6.13123">
        <ele>416.60000610352</ele>
        <time>2013-12-14T14:29:18Z</time>
      </trkpt>
      <trkpt lat="43.36012" lon="6.13121">
        <ele>416.60000610352</ele>
        <time>2013-12-14T14:29:23Z</time>
      </trkpt>
      <trkpt lat="43.36008" lon="6.1312">
        <ele>417</ele>
        <time>2013-12-14T14:29:26Z</time>
      </trkpt>
      <trkpt lat="43.36007" lon="6.1312">
        <ele>417.39999389648</ele>
        <time>2013-12-14T14:29:27Z</time>
      </trkpt>
      <trkpt lat="43.36004" lon="6.1312">
        <ele>418.79998779297</ele>
        <time>2013-12-14T14:29:30Z</time>
      </trkpt>
      <trkpt lat="43.35998" lon="6.1312">
        <ele>418.79998779297</ele>
        <time>2013-12-14T14:29:35Z</time>
      </trkpt>
      <trkpt lat="43.35997" lon="6.1312">
        <ele>418.79998779297</ele>
        <time>2013-12-14T14:29:36Z</time>
      </trkpt>
      <trkpt lat="43.35993" lon="6.13126">
        <ele>418.79998779297</ele>
        <time>2013-12-14T14:29:41Z</time>
      </trkpt>
      <trkpt lat="43.35992" lon="6.13129">
        <ele>419.60000610352</ele>
        <time>2013-12-14T14:29:44Z</time>
      </trkpt>
      <trkpt lat="43.35992" lon="6.1313">
        <ele>420</ele>
        <time>2013-12-14T14:29:45Z</time>
      </trkpt>
      <trkpt lat="43.35992" lon="6.1313">
        <ele>421</ele>
        <time>2013-12-14T14:29:47Z</time>
      </trkpt>
      <trkpt lat="43.35992" lon="6.13131">
        <ele>421</ele>
        <time>2013-12-14T14:29:55Z</time>
      </trkpt>
      <trkpt lat="43.35992" lon="6.13131">
        <ele>421</ele>
        <time>2013-12-14T14:30:00Z</time>
      </trkpt>
      <trkpt lat="43.35992" lon="6.13131">
        <ele>421</ele>
        <time>2013-12-14T14:30:07Z</time>
      </trkpt>
      <trkpt lat="43.35992" lon="6.13131">
        <ele>421</ele>
        <time>2013-12-14T14:30:14Z</time>
      </trkpt>
      <trkpt lat="43.35992" lon="6.13129">
        <ele>421</ele>
        <time>2013-12-14T14:30:19Z</time>
      </trkpt>
      <trkpt lat="43.35991" lon="6.13128">
        <ele>421</ele>
        <time>2013-12-14T14:30:25Z</time>
      </trkpt>
      <trkpt lat="43.35991" lon="6.13128">
        <ele>421</ele>
        <time>2013-12-14T14:30:26Z</time>
      </trkpt>
      <trkpt lat="43.35991" lon="6.13128">
        <ele>421</ele>
        <time>2013-12-14T14:30:36Z</time>
      </trkpt>
      <trkpt lat="43.35991" lon="6.13128">
        <ele>421</ele>
        <time>2013-12-14T14:30:39Z</time>
      </trkpt>
      <trkpt lat="43.35991" lon="6.13128">
        <ele>421</ele>
        <time>2013-12-14T14:30:55Z</time>
      </trkpt>
      <trkpt lat="43.35991" lon="6.13128">
        <ele>421</ele>
        <time>2013-12-14T14:32:13Z</time>
      </trkpt>
      <trkpt lat="43.35991" lon="6.13128">
        <ele>421</ele>
        <time>2013-12-14T14:32:40Z</time>
      </trkpt>
      <trkpt lat="43.35991" lon="6.13131">
        <ele>421</ele>
        <time>2013-12-14T14:32:46Z</time>
      </trkpt>
      <trkpt lat="43.35992" lon="6.13136">
        <ele>421</ele>
        <time>2013-12-14T14:32:48Z</time>
      </trkpt>
      <trkpt lat="43.35992" lon="6.1314">
        <ele>421</ele>
        <time>2013-12-14T14:32:49Z</time>
      </trkpt>
      <trkpt lat="43.35994" lon="6.13148">
        <ele>421.39999389648</ele>
        <time>2013-12-14T14:32:52Z</time>
      </trkpt>
      <trkpt lat="43.35995" lon="6.1315">
        <ele>421.79998779297</ele>
        <time>2013-12-14T14:32:53Z</time>
      </trkpt>
      <trkpt lat="43.35996" lon="6.13152">
        <ele>422.20001220703</ele>
        <time>2013-12-14T14:32:54Z</time>
      </trkpt>
      <trkpt lat="43.35997" lon="6.13154">
        <ele>422.60000610352</ele>
        <time>2013-12-14T14:32:55Z</time>
      </trkpt>
      <trkpt lat="43.35999" lon="6.13156">
        <ele>423.20001220703</ele>
        <time>2013-12-14T14:32:56Z</time>
      </trkpt>
      <trkpt lat="43.36001" lon="6.1316">
        <ele>423.20001220703</ele>
        <time>2013-12-14T14:32:58Z</time>
      </trkpt>
      <trkpt lat="43.36002" lon="6.13163">
        <ele>423.60000610352</ele>
        <time>2013-12-14T14:33:00Z</time>
      </trkpt>
      <trkpt lat="43.36002" lon="6.13164">
        <ele>424</ele>
        <time>2013-12-14T14:33:01Z</time>
      </trkpt>
      <trkpt lat="43.36002" lon="6.13164">
        <ele>424.39999389648</ele>
        <time>2013-12-14T14:33:02Z</time>
      </trkpt>
      <trkpt lat="43.36002" lon="6.13164">
        <ele>425.39999389648</ele>
        <time>2013-12-14T14:33:11Z</time>
      </trkpt>
      <trkpt lat="43.36002" lon="6.13164">
        <ele>425.39999389648</ele>
        <time>2013-12-14T14:33:14Z</time>
      </trkpt>
      <trkpt lat="43.36002" lon="6.13164">
        <ele>425.39999389648</ele>
        <time>2013-12-14T14:33:38Z</time>
      </trkpt>
      <trkpt lat="43.36002" lon="6.13164">
        <ele>425.39999389648</ele>
        <time>2013-12-14T14:33:52Z</time>
      </trkpt>
      <trkpt lat="43.36002" lon="6.13163">
        <ele>425.39999389648</ele>
        <time>2013-12-14T14:33:57Z</time>
      </trkpt>
      <trkpt lat="43.36002" lon="6.13163">
        <ele>425.39999389648</ele>
        <time>2013-12-14T14:34:16Z</time>
      </trkpt>
      <trkpt lat="43.36002" lon="6.13164">
        <ele>425.39999389648</ele>
        <time>2013-12-14T14:36:13Z</time>
      </trkpt>
      <trkpt lat="43.36002" lon="6.13164">
        <ele>425.39999389648</ele>
        <time>2013-12-14T14:36:34Z</time>
      </trkpt>
      <trkpt lat="43.36002" lon="6.13164">
        <ele>425.39999389648</ele>
        <time>2013-12-14T14:36:38Z</time>
      </trkpt>
      <trkpt lat="43.36002" lon="6.13164">
        <ele>425.39999389648</ele>
        <time>2013-12-14T14:36:42Z</time>
      </trkpt>
      <trkpt lat="43.36002" lon="6.13165">
        <ele>425.39999389648</ele>
        <time>2013-12-14T14:36:52Z</time>
      </trkpt>
      <trkpt lat="43.36002" lon="6.13164">
        <ele>425.39999389648</ele>
        <time>2013-12-14T14:36:58Z</time>
      </trkpt>
      <trkpt lat="43.36003" lon="6.13168">
        <ele>425.39999389648</ele>
        <time>2013-12-14T14:37:04Z</time>
      </trkpt>
      <trkpt lat="43.36006" lon="6.13179">
        <ele>425.39999389648</ele>
        <time>2013-12-14T14:37:10Z</time>
      </trkpt>
      <trkpt lat="43.36007" lon="6.13183">
        <ele>425.79998779297</ele>
        <time>2013-12-14T14:37:12Z</time>
      </trkpt>
      <trkpt lat="43.36007" lon="6.13185">
        <ele>426.20001220703</ele>
        <time>2013-12-14T14:37:13Z</time>
      </trkpt>
      <trkpt lat="43.36007" lon="6.13189">
        <ele>427</ele>
        <time>2013-12-14T14:37:15Z</time>
      </trkpt>
      <trkpt lat="43.36008" lon="6.13205">
        <ele>427.60000610352</ele>
        <time>2013-12-14T14:37:23Z</time>
      </trkpt>
      <trkpt lat="43.36007" lon="6.13212">
        <ele>428</ele>
        <time>2013-12-14T14:37:26Z</time>
      </trkpt>
      <trkpt lat="43.36008" lon="6.1323">
        <ele>429.60000610352</ele>
        <time>2013-12-14T14:37:36Z</time>
      </trkpt>
      <trkpt lat="43.36008" lon="6.13239">
        <ele>431.20001220703</ele>
        <time>2013-12-14T14:37:41Z</time>
      </trkpt>
      <trkpt lat="43.36008" lon="6.13254">
        <ele>431.60000610352</ele>
        <time>2013-12-14T14:37:49Z</time>
      </trkpt>
      <trkpt lat="43.36005" lon="6.1328">
        <ele>433.60000610352</ele>
        <time>2013-12-14T14:38:04Z</time>
      </trkpt>
      <trkpt lat="43.36001" lon="6.13297">
        <ele>435.79998779297</ele>
        <time>2013-12-14T14:38:15Z</time>
      </trkpt>
      <trkpt lat="43.35999" lon="6.13313">
        <ele>435.79998779297</ele>
        <time>2013-12-14T14:38:25Z</time>
      </trkpt>
      <trkpt lat="43.35996" lon="6.13321">
        <ele>437.79998779297</ele>
        <time>2013-12-14T14:38:31Z</time>
      </trkpt>
      <trkpt lat="43.35994" lon="6.13329">
        <ele>437.79998779297</ele>
        <time>2013-12-14T14:38:36Z</time>
      </trkpt>
      <trkpt lat="43.35994" lon="6.13331">
        <ele>437.79998779297</ele>
        <time>2013-12-14T14:38:37Z</time>
      </trkpt>
      <trkpt lat="43.35993" lon="6.13347">
        <ele>440</ele>
        <time>2013-12-14T14:38:48Z</time>
      </trkpt>
      <trkpt lat="43.35992" lon="6.13367">
        <ele>440</ele>
        <time>2013-12-14T14:39:00Z</time>
      </trkpt>
      <trkpt lat="43.35991" lon="6.1338">
        <ele>441.20001220703</ele>
        <time>2013-12-14T14:39:08Z</time>
      </trkpt>
      <trkpt lat="43.35989" lon="6.13385">
        <ele>442.20001220703</ele>
        <time>2013-12-14T14:39:12Z</time>
      </trkpt>
      <trkpt lat="43.35984" lon="6.13393">
        <ele>442.20001220703</ele>
        <time>2013-12-14T14:39:18Z</time>
      </trkpt>
      <trkpt lat="43.35982" lon="6.13399">
        <ele>443</ele>
        <time>2013-12-14T14:39:22Z</time>
      </trkpt>
      <trkpt lat="43.35982" lon="6.134">
        <ele>443.39999389648</ele>
        <time>2013-12-14T14:39:23Z</time>
      </trkpt>
      <trkpt lat="43.35978" lon="6.13417">
        <ele>444.20001220703</ele>
        <time>2013-12-14T14:39:34Z</time>
      </trkpt>
      <trkpt lat="43.35978" lon="6.13427">
        <ele>445.79998779297</ele>
        <time>2013-12-14T14:39:40Z</time>
      </trkpt>
      <trkpt lat="43.35978" lon="6.13434">
        <ele>446.20001220703</ele>
        <time>2013-12-14T14:39:44Z</time>
      </trkpt>
      <trkpt lat="43.35979" lon="6.13443">
        <ele>446.20001220703</ele>
        <time>2013-12-14T14:39:49Z</time>
      </trkpt>
      <trkpt lat="43.35983" lon="6.13455">
        <ele>446.60000610352</ele>
        <time>2013-12-14T14:39:57Z</time>
      </trkpt>
      <trkpt lat="43.35985" lon="6.13461">
        <ele>448.20001220703</ele>
        <time>2013-12-14T14:40:02Z</time>
      </trkpt>
      <trkpt lat="43.35987" lon="6.13469">
        <ele>448.20001220703</ele>
        <time>2013-12-14T14:40:07Z</time>
      </trkpt>
      <trkpt lat="43.35988" lon="6.13471">
        <ele>448.20001220703</ele>
        <time>2013-12-14T14:40:09Z</time>
      </trkpt>
      <trkpt lat="43.35991" lon="6.13477">
        <ele>449.39999389648</ele>
        <time>2013-12-14T14:40:13Z</time>
      </trkpt>
      <trkpt lat="43.35991" lon="6.1348">
        <ele>450.39999389648</ele>
        <time>2013-12-14T14:40:15Z</time>
      </trkpt>
      <trkpt lat="43.35999" lon="6.13489">
        <ele>450.79998779297</ele>
        <time>2013-12-14T14:40:24Z</time>
      </trkpt>
      <trkpt lat="43.36003" lon="6.13493">
        <ele>452.39999389648</ele>
        <time>2013-12-14T14:40:29Z</time>
      </trkpt>
      <trkpt lat="43.36007" lon="6.13497">
        <ele>452.39999389648</ele>
        <time>2013-12-14T14:40:33Z</time>
      </trkpt>
      <trkpt lat="43.36007" lon="6.135">
        <ele>452.39999389648</ele>
        <time>2013-12-14T14:40:36Z</time>
      </trkpt>
      <trkpt lat="43.36007" lon="6.135">
        <ele>452.39999389648</ele>
        <time>2013-12-14T14:40:39Z</time>
      </trkpt>
      <trkpt lat="43.36007" lon="6.135">
        <ele>452.39999389648</ele>
        <time>2013-12-14T14:40:50Z</time>
      </trkpt>
      <trkpt lat="43.36007" lon="6.13501">
        <ele>452.39999389648</ele>
        <time>2013-12-14T14:40:59Z</time>
      </trkpt>
      <trkpt lat="43.36007" lon="6.13501">
        <ele>452.39999389648</ele>
        <time>2013-12-14T14:41:10Z</time>
      </trkpt>
      <trkpt lat="43.36007" lon="6.13502">
        <ele>452.79998779297</ele>
        <time>2013-12-14T14:41:14Z</time>
      </trkpt>
      <trkpt lat="43.36012" lon="6.13509">
        <ele>454.39999389648</ele>
        <time>2013-12-14T14:41:19Z</time>
      </trkpt>
      <trkpt lat="43.36013" lon="6.13511">
        <ele>454.39999389648</ele>
        <time>2013-12-14T14:41:20Z</time>
      </trkpt>
      <trkpt lat="43.36016" lon="6.13518">
        <ele>454.39999389648</ele>
        <time>2013-12-14T14:41:25Z</time>
      </trkpt>
      <trkpt lat="43.36019" lon="6.13524">
        <ele>454.79998779297</ele>
        <time>2013-12-14T14:41:29Z</time>
      </trkpt>
      <trkpt lat="43.36023" lon="6.13532">
        <ele>456.60000610352</ele>
        <time>2013-12-14T14:41:33Z</time>
      </trkpt>
      <trkpt lat="43.36024" lon="6.13536">
        <ele>456.60000610352</ele>
        <time>2013-12-14T14:41:36Z</time>
      </trkpt>
      <trkpt lat="43.36027" lon="6.13547">
        <ele>457</ele>
        <time>2013-12-14T14:41:42Z</time>
      </trkpt>
      <trkpt lat="43.36027" lon="6.1355">
        <ele>457.79998779297</ele>
        <time>2013-12-14T14:41:44Z</time>
      </trkpt>
      <trkpt lat="43.36034" lon="6.13575">
        <ele>460.20001220703</ele>
        <time>2013-12-14T14:41:59Z</time>
      </trkpt>
      <trkpt lat="43.36035" lon="6.13577">
        <ele>460.79998779297</ele>
        <time>2013-12-14T14:42:00Z</time>
      </trkpt>
      <trkpt lat="43.36041" lon="6.13592">
        <ele>460.79998779297</ele>
        <time>2013-12-14T14:42:08Z</time>
      </trkpt>
      <trkpt lat="43.36044" lon="6.13601">
        <ele>460.79998779297</ele>
        <time>2013-12-14T14:42:14Z</time>
      </trkpt>
      <trkpt lat="43.36046" lon="6.13609">
        <ele>461.20001220703</ele>
        <time>2013-12-14T14:42:19Z</time>
      </trkpt>
      <trkpt lat="43.36048" lon="6.13612">
        <ele>462</ele>
        <time>2013-12-14T14:42:21Z</time>
      </trkpt>
      <trkpt lat="43.36053" lon="6.13622">
        <ele>462.79998779297</ele>
        <time>2013-12-14T14:42:27Z</time>
      </trkpt>
      <trkpt lat="43.36058" lon="6.13629">
        <ele>462.79998779297</ele>
        <time>2013-12-14T14:42:32Z</time>
      </trkpt>
      <trkpt lat="43.3606" lon="6.13633">
        <ele>462.79998779297</ele>
        <time>2013-12-14T14:42:34Z</time>
      </trkpt>
      <trkpt lat="43.36064" lon="6.13646">
        <ele>462.79998779297</ele>
        <time>2013-12-14T14:42:40Z</time>
      </trkpt>
      <trkpt lat="43.36069" lon="6.13666">
        <ele>462.79998779297</ele>
        <time>2013-12-14T14:42:47Z</time>
      </trkpt>
      <trkpt lat="43.36071" lon="6.13685">
        <ele>462.79998779297</ele>
        <time>2013-12-14T14:42:53Z</time>
      </trkpt>
      <trkpt lat="43.36069" lon="6.13701">
        <ele>462.79998779297</ele>
        <time>2013-12-14T14:42:58Z</time>
      </trkpt>
      <trkpt lat="43.3607" lon="6.13714">
        <ele>462.79998779297</ele>
        <time>2013-12-14T14:43:02Z</time>
      </trkpt>
      <trkpt lat="43.36071" lon="6.13734">
        <ele>462.79998779297</ele>
        <time>2013-12-14T14:43:06Z</time>
      </trkpt>
      <trkpt lat="43.3607" lon="6.13739">
        <ele>462.79998779297</ele>
        <time>2013-12-14T14:43:09Z</time>
      </trkpt>
      <trkpt lat="43.36068" lon="6.13741">
        <ele>462.79998779297</ele>
        <time>2013-12-14T14:43:10Z</time>
      </trkpt>
      <trkpt lat="43.36059" lon="6.13748">
        <ele>462.79998779297</ele>
        <time>2013-12-14T14:43:15Z</time>
      </trkpt>
      <trkpt lat="43.36055" lon="6.1375">
        <ele>462.79998779297</ele>
        <time>2013-12-14T14:43:17Z</time>
      </trkpt>
      <trkpt lat="43.36052" lon="6.13753">
        <ele>462.79998779297</ele>
        <time>2013-12-14T14:43:20Z</time>
      </trkpt>
      <trkpt lat="43.36047" lon="6.13755">
        <ele>462.79998779297</ele>
        <time>2013-12-14T14:43:23Z</time>
      </trkpt>
      <trkpt lat="43.36047" lon="6.13756">
        <ele>462.79998779297</ele>
        <time>2013-12-14T14:43:25Z</time>
      </trkpt>
      <trkpt lat="43.36045" lon="6.13757">
        <ele>462.79998779297</ele>
        <time>2013-12-14T14:43:26Z</time>
      </trkpt>
      <trkpt lat="43.36045" lon="6.13758">
        <ele>462.79998779297</ele>
        <time>2013-12-14T14:43:27Z</time>
      </trkpt>
      <trkpt lat="43.36045" lon="6.13761">
        <ele>462.79998779297</ele>
        <time>2013-12-14T14:43:33Z</time>
      </trkpt>
      <trkpt lat="43.36044" lon="6.13761">
        <ele>462.79998779297</ele>
        <time>2013-12-14T14:43:40Z</time>
      </trkpt>
      <trkpt lat="43.36044" lon="6.13761">
        <ele>462.79998779297</ele>
        <time>2013-12-14T14:43:50Z</time>
      </trkpt>
      <trkpt lat="43.36044" lon="6.13762">
        <ele>462.79998779297</ele>
        <time>2013-12-14T14:43:58Z</time>
      </trkpt>
      <trkpt lat="43.36045" lon="6.13763">
        <ele>462.79998779297</ele>
        <time>2013-12-14T14:44:05Z</time>
      </trkpt>
      <trkpt lat="43.36044" lon="6.13764">
        <ele>462.79998779297</ele>
        <time>2013-12-14T14:44:09Z</time>
      </trkpt>
      <trkpt lat="43.36044" lon="6.13764">
        <ele>462.79998779297</ele>
        <time>2013-12-14T14:44:11Z</time>
      </trkpt>
      <trkpt lat="43.36042" lon="6.13768">
        <ele>462.79998779297</ele>
        <time>2013-12-14T14:44:19Z</time>
      </trkpt>
      <trkpt lat="43.3604" lon="6.13772">
        <ele>462.79998779297</ele>
        <time>2013-12-14T14:44:21Z</time>
      </trkpt>
      <trkpt lat="43.3604" lon="6.13774">
        <ele>462.79998779297</ele>
        <time>2013-12-14T14:44:23Z</time>
      </trkpt>
      <trkpt lat="43.3604" lon="6.13778">
        <ele>462.79998779297</ele>
        <time>2013-12-14T14:44:24Z</time>
      </trkpt>
      <trkpt lat="43.3604" lon="6.13779">
        <ele>462.79998779297</ele>
        <time>2013-12-14T14:44:27Z</time>
      </trkpt>
      <trkpt lat="43.36041" lon="6.13781">
        <ele>462.79998779297</ele>
        <time>2013-12-14T14:44:30Z</time>
      </trkpt>
      <trkpt lat="43.3604" lon="6.13782">
        <ele>462.79998779297</ele>
        <time>2013-12-14T14:44:33Z</time>
      </trkpt>
      <trkpt lat="43.36041" lon="6.13784">
        <ele>462.79998779297</ele>
        <time>2013-12-14T14:44:40Z</time>
      </trkpt>
      <trkpt lat="43.36041" lon="6.13784">
        <ele>462.79998779297</ele>
        <time>2013-12-14T14:44:51Z</time>
      </trkpt>
      <trkpt lat="43.36041" lon="6.13784">
        <ele>462.79998779297</ele>
        <time>2013-12-14T14:44:57Z</time>
      </trkpt>
      <trkpt lat="43.3604" lon="6.13785">
        <ele>462.79998779297</ele>
        <time>2013-12-14T14:45:00Z</time>
      </trkpt>
      <trkpt lat="43.36042" lon="6.13796">
        <ele>462.79998779297</ele>
        <time>2013-12-14T14:45:05Z</time>
      </trkpt>
      <trkpt lat="43.36046" lon="6.1381">
        <ele>462.79998779297</ele>
        <time>2013-12-14T14:45:11Z</time>
      </trkpt>
      <trkpt lat="43.36049" lon="6.13814">
        <ele>462.79998779297</ele>
        <time>2013-12-14T14:45:16Z</time>
      </trkpt>
      <trkpt lat="43.36049" lon="6.13814">
        <ele>462.79998779297</ele>
        <time>2013-12-14T14:45:23Z</time>
      </trkpt>
      <trkpt lat="43.36051" lon="6.13817">
        <ele>462.79998779297</ele>
        <time>2013-12-14T14:45:29Z</time>
      </trkpt>
      <trkpt lat="43.36056" lon="6.13822">
        <ele>462.79998779297</ele>
        <time>2013-12-14T14:45:36Z</time>
      </trkpt>
      <trkpt lat="43.36056" lon="6.13822">
        <ele>462.79998779297</ele>
        <time>2013-12-14T14:45:41Z</time>
      </trkpt>
      <trkpt lat="43.36056" lon="6.13822">
        <ele>462.79998779297</ele>
        <time>2013-12-14T14:45:42Z</time>
      </trkpt>
      <trkpt lat="43.3606" lon="6.13826">
        <ele>462.79998779297</ele>
        <time>2013-12-14T14:46:02Z</time>
      </trkpt>
      <trkpt lat="43.36061" lon="6.13828">
        <ele>462.79998779297</ele>
        <time>2013-12-14T14:46:03Z</time>
      </trkpt>
      <trkpt lat="43.36063" lon="6.13832">
        <ele>462.79998779297</ele>
        <time>2013-12-14T14:46:06Z</time>
      </trkpt>
      <trkpt lat="43.36068" lon="6.13833">
        <ele>462.79998779297</ele>
        <time>2013-12-14T14:46:09Z</time>
      </trkpt>
      <trkpt lat="43.36069" lon="6.13834">
        <ele>462.79998779297</ele>
        <time>2013-12-14T14:46:10Z</time>
      </trkpt>
      <trkpt lat="43.36071" lon="6.13837">
        <ele>462.79998779297</ele>
        <time>2013-12-14T14:46:13Z</time>
      </trkpt>
      <trkpt lat="43.36076" lon="6.13847">
        <ele>462.79998779297</ele>
        <time>2013-12-14T14:46:18Z</time>
      </trkpt>
      <trkpt lat="43.36077" lon="6.13858">
        <ele>462.79998779297</ele>
        <time>2013-12-14T14:46:24Z</time>
      </trkpt>
      <trkpt lat="43.36077" lon="6.1386">
        <ele>462.79998779297</ele>
        <time>2013-12-14T14:46:25Z</time>
      </trkpt>
      <trkpt lat="43.36079" lon="6.13865">
        <ele>462.79998779297</ele>
        <time>2013-12-14T14:46:30Z</time>
      </trkpt>
      <trkpt lat="43.36077" lon="6.1387">
        <ele>462.79998779297</ele>
        <time>2013-12-14T14:46:36Z</time>
      </trkpt>
      <trkpt lat="43.36078" lon="6.13872">
        <ele>462.79998779297</ele>
        <time>2013-12-14T14:46:40Z</time>
      </trkpt>
      <trkpt lat="43.36078" lon="6.13872">
        <ele>462.79998779297</ele>
        <time>2013-12-14T14:46:42Z</time>
      </trkpt>
      <trkpt lat="43.36078" lon="6.13878">
        <ele>462.79998779297</ele>
        <time>2013-12-14T14:46:49Z</time>
      </trkpt>
      <trkpt lat="43.36079" lon="6.13881">
        <ele>462.79998779297</ele>
        <time>2013-12-14T14:46:55Z</time>
      </trkpt>
      <trkpt lat="43.3608" lon="6.13885">
        <ele>462.79998779297</ele>
        <time>2013-12-14T14:47:00Z</time>
      </trkpt>
      <trkpt lat="43.36081" lon="6.13888">
        <ele>462.79998779297</ele>
        <time>2013-12-14T14:47:08Z</time>
      </trkpt>
      <trkpt lat="43.36081" lon="6.13888">
        <ele>462.79998779297</ele>
        <time>2013-12-14T14:47:15Z</time>
      </trkpt>
      <trkpt lat="43.36082" lon="6.13893">
        <ele>462.79998779297</ele>
        <time>2013-12-14T14:47:21Z</time>
      </trkpt>
      <trkpt lat="43.36083" lon="6.13894">
        <ele>462.79998779297</ele>
        <time>2013-12-14T14:47:28Z</time>
      </trkpt>
      <trkpt lat="43.36084" lon="6.13897">
        <ele>462.79998779297</ele>
        <time>2013-12-14T14:47:35Z</time>
      </trkpt>
      <trkpt lat="43.36083" lon="6.13908">
        <ele>462.79998779297</ele>
        <time>2013-12-14T14:47:39Z</time>
      </trkpt>
      <trkpt lat="43.36083" lon="6.13915">
        <ele>462.79998779297</ele>
        <time>2013-12-14T14:47:42Z</time>
      </trkpt>
      <trkpt lat="43.36085" lon="6.13915">
        <ele>462.39999389648</ele>
        <time>2013-12-14T14:47:43Z</time>
      </trkpt>
      <trkpt lat="43.36086" lon="6.13921">
        <ele>461.60000610352</ele>
        <time>2013-12-14T14:47:45Z</time>
      </trkpt>
      <trkpt lat="43.36087" lon="6.13922">
        <ele>461.20001220703</ele>
        <time>2013-12-14T14:47:46Z</time>
      </trkpt>
      <trkpt lat="43.3609" lon="6.13929">
        <ele>460.39999389648</ele>
        <time>2013-12-14T14:47:49Z</time>
      </trkpt>
      <trkpt lat="43.36092" lon="6.13932">
        <ele>460</ele>
        <time>2013-12-14T14:47:50Z</time>
      </trkpt>
      <trkpt lat="43.36094" lon="6.13934">
        <ele>459.60000610352</ele>
        <time>2013-12-14T14:47:51Z</time>
      </trkpt>
      <trkpt lat="43.36094" lon="6.13936">
        <ele>459</ele>
        <time>2013-12-14T14:47:52Z</time>
      </trkpt>
      <trkpt lat="43.36095" lon="6.13939">
        <ele>458.60000610352</ele>
        <time>2013-12-14T14:47:54Z</time>
      </trkpt>
      <trkpt lat="43.36102" lon="6.13945">
        <ele>458.20001220703</ele>
        <time>2013-12-14T14:47:58Z</time>
      </trkpt>
      <trkpt lat="43.36103" lon="6.13949">
        <ele>457.79998779297</ele>
        <time>2013-12-14T14:47:59Z</time>
      </trkpt>
      <trkpt lat="43.36103" lon="6.13957">
        <ele>456.79998779297</ele>
        <time>2013-12-14T14:48:01Z</time>
      </trkpt>
      <trkpt lat="43.36103" lon="6.13961">
        <ele>456.39999389648</ele>
        <time>2013-12-14T14:48:02Z</time>
      </trkpt>
      <trkpt lat="43.36103" lon="6.13965">
        <ele>456</ele>
        <time>2013-12-14T14:48:03Z</time>
      </trkpt>
      <trkpt lat="43.36103" lon="6.1397">
        <ele>455.60000610352</ele>
        <time>2013-12-14T14:48:04Z</time>
      </trkpt>
      <trkpt lat="43.36102" lon="6.13973">
        <ele>455.20001220703</ele>
        <time>2013-12-14T14:48:05Z</time>
      </trkpt>
      <trkpt lat="43.36101" lon="6.13978">
        <ele>454.79998779297</ele>
        <time>2013-12-14T14:48:06Z</time>
      </trkpt>
      <trkpt lat="43.36101" lon="6.13981">
        <ele>454.39999389648</ele>
        <time>2013-12-14T14:48:07Z</time>
      </trkpt>
      <trkpt lat="43.361" lon="6.13986">
        <ele>454.39999389648</ele>
        <time>2013-12-14T14:48:09Z</time>
      </trkpt>
      <trkpt lat="43.36103" lon="6.1399">
        <ele>454.39999389648</ele>
        <time>2013-12-14T14:48:11Z</time>
      </trkpt>
      <trkpt lat="43.36103" lon="6.13991">
        <ele>454.39999389648</ele>
        <time>2013-12-14T14:48:14Z</time>
      </trkpt>
      <trkpt lat="43.36104" lon="6.13994">
        <ele>454.39999389648</ele>
        <time>2013-12-14T14:48:20Z</time>
      </trkpt>
      <trkpt lat="43.36108" lon="6.13998">
        <ele>454.39999389648</ele>
        <time>2013-12-14T14:48:27Z</time>
      </trkpt>
      <trkpt lat="43.3611" lon="6.14002">
        <ele>454.39999389648</ele>
        <time>2013-12-14T14:48:34Z</time>
      </trkpt>
      <trkpt lat="43.36111" lon="6.14002">
        <ele>454.39999389648</ele>
        <time>2013-12-14T14:48:43Z</time>
      </trkpt>
      <trkpt lat="43.36112" lon="6.14005">
        <ele>454.39999389648</ele>
        <time>2013-12-14T14:48:49Z</time>
      </trkpt>
      <trkpt lat="43.36112" lon="6.14008">
        <ele>454.39999389648</ele>
        <time>2013-12-14T14:48:50Z</time>
      </trkpt>
      <trkpt lat="43.36113" lon="6.14019">
        <ele>454.39999389648</ele>
        <time>2013-12-14T14:48:55Z</time>
      </trkpt>
      <trkpt lat="43.36113" lon="6.14028">
        <ele>454</ele>
        <time>2013-12-14T14:48:59Z</time>
      </trkpt>
      <trkpt lat="43.36115" lon="6.14035">
        <ele>453</ele>
        <time>2013-12-14T14:49:01Z</time>
      </trkpt>
      <trkpt lat="43.36115" lon="6.14039">
        <ele>452.60000610352</ele>
        <time>2013-12-14T14:49:02Z</time>
      </trkpt>
      <trkpt lat="43.36115" lon="6.14042">
        <ele>451.60000610352</ele>
        <time>2013-12-14T14:49:03Z</time>
      </trkpt>
      <trkpt lat="43.36115" lon="6.14045">
        <ele>451</ele>
        <time>2013-12-14T14:49:04Z</time>
      </trkpt>
      <trkpt lat="43.36115" lon="6.1405">
        <ele>450.39999389648</ele>
        <time>2013-12-14T14:49:05Z</time>
      </trkpt>
      <trkpt lat="43.36115" lon="6.14056">
        <ele>450</ele>
        <time>2013-12-14T14:49:06Z</time>
      </trkpt>
      <trkpt lat="43.36115" lon="6.14061">
        <ele>449.39999389648</ele>
        <time>2013-12-14T14:49:07Z</time>
      </trkpt>
      <trkpt lat="43.36115" lon="6.14072">
        <ele>448.39999389648</ele>
        <time>2013-12-14T14:49:09Z</time>
      </trkpt>
      <trkpt lat="43.36115" lon="6.14077">
        <ele>447.79998779297</ele>
        <time>2013-12-14T14:49:10Z</time>
      </trkpt>
      <trkpt lat="43.36116" lon="6.14085">
        <ele>447.79998779297</ele>
        <time>2013-12-14T14:49:12Z</time>
      </trkpt>
      <trkpt lat="43.36118" lon="6.14092">
        <ele>447.79998779297</ele>
        <time>2013-12-14T14:49:16Z</time>
      </trkpt>
      <trkpt lat="43.36119" lon="6.14094">
        <ele>447.79998779297</ele>
        <time>2013-12-14T14:49:17Z</time>
      </trkpt>
      <trkpt lat="43.36124" lon="6.141">
        <ele>447.39999389648</ele>
        <time>2013-12-14T14:49:20Z</time>
      </trkpt>
      <trkpt lat="43.36126" lon="6.14102">
        <ele>447</ele>
        <time>2013-12-14T14:49:21Z</time>
      </trkpt>
      <trkpt lat="43.36127" lon="6.14106">
        <ele>446.60000610352</ele>
        <time>2013-12-14T14:49:22Z</time>
      </trkpt>
      <trkpt lat="43.36128" lon="6.14109">
        <ele>446.20001220703</ele>
        <time>2013-12-14T14:49:23Z</time>
      </trkpt>
      <trkpt lat="43.36132" lon="6.14122">
        <ele>445.79998779297</ele>
        <time>2013-12-14T14:49:28Z</time>
      </trkpt>
      <trkpt lat="43.36134" lon="6.14124">
        <ele>445.79998779297</ele>
        <time>2013-12-14T14:49:29Z</time>
      </trkpt>
      <trkpt lat="43.36138" lon="6.14132">
        <ele>445.79998779297</ele>
        <time>2013-12-14T14:49:32Z</time>
      </trkpt>
      <trkpt lat="43.36139" lon="6.14134">
        <ele>445.39999389648</ele>
        <time>2013-12-14T14:49:33Z</time>
      </trkpt>
      <trkpt lat="43.36144" lon="6.14151">
        <ele>443.60000610352</ele>
        <time>2013-12-14T14:49:38Z</time>
      </trkpt>
      <trkpt lat="43.36148" lon="6.14158">
        <ele>443.60000610352</ele>
        <time>2013-12-14T14:49:42Z</time>
      </trkpt>
      <trkpt lat="43.36154" lon="6.14168">
        <ele>443.60000610352</ele>
        <time>2013-12-14T14:49:47Z</time>
      </trkpt>
      <trkpt lat="43.36164" lon="6.14175">
        <ele>443.20001220703</ele>
        <time>2013-12-14T14:49:51Z</time>
      </trkpt>
      <trkpt lat="43.36166" lon="6.14177">
        <ele>442.79998779297</ele>
        <time>2013-12-14T14:49:52Z</time>
      </trkpt>
      <trkpt lat="43.36168" lon="6.14181">
        <ele>442</ele>
        <time>2013-12-14T14:49:53Z</time>
      </trkpt>
      <trkpt lat="43.3617" lon="6.14185">
        <ele>441.60000610352</ele>
        <time>2013-12-14T14:49:55Z</time>
      </trkpt>
      <trkpt lat="43.36171" lon="6.14189">
        <ele>441.60000610352</ele>
        <time>2013-12-14T14:49:57Z</time>
      </trkpt>
      <trkpt lat="43.3617" lon="6.14189">
        <ele>441.60000610352</ele>
        <time>2013-12-14T14:49:59Z</time>
      </trkpt>
      <trkpt lat="43.36168" lon="6.14189">
        <ele>441.60000610352</ele>
        <time>2013-12-14T14:50:00Z</time>
      </trkpt>
      <trkpt lat="43.36167" lon="6.1419">
        <ele>441.60000610352</ele>
        <time>2013-12-14T14:50:03Z</time>
      </trkpt>
      <trkpt lat="43.36166" lon="6.14191">
        <ele>441.60000610352</ele>
        <time>2013-12-14T14:50:08Z</time>
      </trkpt>
      <trkpt lat="43.36166" lon="6.14191">
        <ele>441.60000610352</ele>
        <time>2013-12-14T14:50:10Z</time>
      </trkpt>
      <trkpt lat="43.36164" lon="6.14192">
        <ele>441.60000610352</ele>
        <time>2013-12-14T14:50:17Z</time>
      </trkpt>
      <trkpt lat="43.36164" lon="6.14192">
        <ele>441.60000610352</ele>
        <time>2013-12-14T14:50:34Z</time>
      </trkpt>
      <trkpt lat="43.36164" lon="6.14192">
        <ele>441.60000610352</ele>
        <time>2013-12-14T14:50:50Z</time>
      </trkpt>
      <trkpt lat="43.36165" lon="6.14193">
        <ele>441.60000610352</ele>
        <time>2013-12-14T14:50:54Z</time>
      </trkpt>
      <trkpt lat="43.36165" lon="6.14193">
        <ele>441.60000610352</ele>
        <time>2013-12-14T14:51:05Z</time>
      </trkpt>
      <trkpt lat="43.36165" lon="6.14193">
        <ele>441.60000610352</ele>
        <time>2013-12-14T14:51:08Z</time>
      </trkpt>
      <trkpt lat="43.36164" lon="6.14192">
        <ele>441.60000610352</ele>
        <time>2013-12-14T14:51:17Z</time>
      </trkpt>
      <trkpt lat="43.36161" lon="6.14194">
        <ele>442</ele>
        <time>2013-12-14T14:51:19Z</time>
      </trkpt>
      <trkpt lat="43.36158" lon="6.14195">
        <ele>442.79998779297</ele>
        <time>2013-12-14T14:51:21Z</time>
      </trkpt>
      <trkpt lat="43.36157" lon="6.14195">
        <ele>443.20001220703</ele>
        <time>2013-12-14T14:51:22Z</time>
      </trkpt>
      <trkpt lat="43.36154" lon="6.14198">
        <ele>443.60000610352</ele>
        <time>2013-12-14T14:51:24Z</time>
      </trkpt>
      <trkpt lat="43.36152" lon="6.14201">
        <ele>444</ele>
        <time>2013-12-14T14:51:27Z</time>
      </trkpt>
      <trkpt lat="43.36152" lon="6.14201">
        <ele>445.79998779297</ele>
        <time>2013-12-14T14:51:31Z</time>
      </trkpt>
      <trkpt lat="43.3615" lon="6.14203">
        <ele>445.79998779297</ele>
        <time>2013-12-14T14:51:36Z</time>
      </trkpt>
      <trkpt lat="43.36149" lon="6.14208">
        <ele>445.79998779297</ele>
        <time>2013-12-14T14:51:43Z</time>
      </trkpt>
      <trkpt lat="43.36149" lon="6.14208">
        <ele>445.79998779297</ele>
        <time>2013-12-14T14:52:07Z</time>
      </trkpt>
      <trkpt lat="43.36149" lon="6.14208">
        <ele>445.79998779297</ele>
        <time>2013-12-14T14:52:15Z</time>
      </trkpt>
      <trkpt lat="43.36149" lon="6.14208">
        <ele>445.79998779297</ele>
        <time>2013-12-14T14:52:28Z</time>
      </trkpt>
      <trkpt lat="43.36149" lon="6.14208">
        <ele>445.79998779297</ele>
        <time>2013-12-14T14:52:35Z</time>
      </trkpt>
      <trkpt lat="43.36149" lon="6.1421">
        <ele>445.79998779297</ele>
        <time>2013-12-14T14:52:43Z</time>
      </trkpt>
      <trkpt lat="43.36149" lon="6.1421">
        <ele>445.79998779297</ele>
        <time>2013-12-14T14:52:51Z</time>
      </trkpt>
      <trkpt lat="43.36149" lon="6.1421">
        <ele>445.79998779297</ele>
        <time>2013-12-14T14:52:56Z</time>
      </trkpt>
      <trkpt lat="43.36147" lon="6.14213">
        <ele>445.79998779297</ele>
        <time>2013-12-14T14:53:06Z</time>
      </trkpt>
      <trkpt lat="43.36145" lon="6.14217">
        <ele>445.79998779297</ele>
        <time>2013-12-14T14:53:09Z</time>
      </trkpt>
      <trkpt lat="43.36143" lon="6.14221">
        <ele>445.79998779297</ele>
        <time>2013-12-14T14:53:11Z</time>
      </trkpt>
      <trkpt lat="43.36143" lon="6.14225">
        <ele>445.79998779297</ele>
        <time>2013-12-14T14:53:15Z</time>
      </trkpt>
      <trkpt lat="43.36142" lon="6.14241">
        <ele>445.79998779297</ele>
        <time>2013-12-14T14:53:20Z</time>
      </trkpt>
      <trkpt lat="43.3614" lon="6.1426">
        <ele>445.79998779297</ele>
        <time>2013-12-14T14:53:27Z</time>
      </trkpt>
      <trkpt lat="43.3614" lon="6.14273">
        <ele>445.79998779297</ele>
        <time>2013-12-14T14:53:32Z</time>
      </trkpt>
      <trkpt lat="43.3614" lon="6.14287">
        <ele>446.60000610352</ele>
        <time>2013-12-14T14:53:37Z</time>
      </trkpt>
      <trkpt lat="43.36141" lon="6.1429">
        <ele>447</ele>
        <time>2013-12-14T14:53:38Z</time>
      </trkpt>
      <trkpt lat="43.36144" lon="6.14304">
        <ele>448</ele>
        <time>2013-12-14T14:53:45Z</time>
      </trkpt>
      <trkpt lat="43.36145" lon="6.14309">
        <ele>448.79998779297</ele>
        <time>2013-12-14T14:53:47Z</time>
      </trkpt>
      <trkpt lat="43.36153" lon="6.14332">
        <ele>450</ele>
        <time>2013-12-14T14:53:57Z</time>
      </trkpt>
      <trkpt lat="43.36157" lon="6.14343">
        <ele>450</ele>
        <time>2013-12-14T14:54:02Z</time>
      </trkpt>
      <trkpt lat="43.36159" lon="6.1435">
        <ele>450</ele>
        <time>2013-12-14T14:54:05Z</time>
      </trkpt>
      <trkpt lat="43.3616" lon="6.14351">
        <ele>450.39999389648</ele>
        <time>2013-12-14T14:54:06Z</time>
      </trkpt>
      <trkpt lat="43.3616" lon="6.14352">
        <ele>450.79998779297</ele>
        <time>2013-12-14T14:54:07Z</time>
      </trkpt>
      <trkpt lat="43.3616" lon="6.14352">
        <ele>451.60000610352</ele>
        <time>2013-12-14T14:54:09Z</time>
      </trkpt>
      <trkpt lat="43.3616" lon="6.14354">
        <ele>452</ele>
        <time>2013-12-14T14:54:10Z</time>
      </trkpt>
      <trkpt lat="43.3616" lon="6.14354">
        <ele>452</ele>
        <time>2013-12-14T14:54:18Z</time>
      </trkpt>
      <trkpt lat="43.36161" lon="6.14355">
        <ele>452</ele>
        <time>2013-12-14T14:54:22Z</time>
      </trkpt>
      <trkpt lat="43.36161" lon="6.14361">
        <ele>452</ele>
        <time>2013-12-14T14:54:28Z</time>
      </trkpt>
      <trkpt lat="43.36167" lon="6.1437">
        <ele>452</ele>
        <time>2013-12-14T14:54:33Z</time>
      </trkpt>
      <trkpt lat="43.36172" lon="6.1438">
        <ele>452.39999389648</ele>
        <time>2013-12-14T14:54:40Z</time>
      </trkpt>
      <trkpt lat="43.36182" lon="6.14404">
        <ele>454</ele>
        <time>2013-12-14T14:54:54Z</time>
      </trkpt>
      <trkpt lat="43.36191" lon="6.14421">
        <ele>456</ele>
        <time>2013-12-14T14:55:05Z</time>
      </trkpt>
      <trkpt lat="43.36193" lon="6.14425">
        <ele>456</ele>
        <time>2013-12-14T14:55:07Z</time>
      </trkpt>
      <trkpt lat="43.36195" lon="6.14431">
        <ele>456</ele>
        <time>2013-12-14T14:55:10Z</time>
      </trkpt>
      <trkpt lat="43.36198" lon="6.14444">
        <ele>456</ele>
        <time>2013-12-14T14:55:17Z</time>
      </trkpt>
      <trkpt lat="43.362" lon="6.14462">
        <ele>457.60000610352</ele>
        <time>2013-12-14T14:55:26Z</time>
      </trkpt>
      <trkpt lat="43.36201" lon="6.14464">
        <ele>458</ele>
        <time>2013-12-14T14:55:27Z</time>
      </trkpt>
      <trkpt lat="43.36207" lon="6.14478">
        <ele>458</ele>
        <time>2013-12-14T14:55:34Z</time>
      </trkpt>
      <trkpt lat="43.36209" lon="6.14487">
        <ele>458</ele>
        <time>2013-12-14T14:55:38Z</time>
      </trkpt>
      <trkpt lat="43.3621" lon="6.14493">
        <ele>458</ele>
        <time>2013-12-14T14:55:40Z</time>
      </trkpt>
      <trkpt lat="43.36211" lon="6.14509">
        <ele>458</ele>
        <time>2013-12-14T14:55:46Z</time>
      </trkpt>
      <trkpt lat="43.36212" lon="6.14518">
        <ele>458</ele>
        <time>2013-12-14T14:55:51Z</time>
      </trkpt>
      <trkpt lat="43.36214" lon="6.14529">
        <ele>458</ele>
        <time>2013-12-14T14:55:56Z</time>
      </trkpt>
      <trkpt lat="43.36217" lon="6.14544">
        <ele>458</ele>
        <time>2013-12-14T14:56:02Z</time>
      </trkpt>
      <trkpt lat="43.3622" lon="6.14559">
        <ele>458</ele>
        <time>2013-12-14T14:56:09Z</time>
      </trkpt>
      <trkpt lat="43.36221" lon="6.14576">
        <ele>458</ele>
        <time>2013-12-14T14:56:16Z</time>
      </trkpt>
      <trkpt lat="43.36222" lon="6.14579">
        <ele>458</ele>
        <time>2013-12-14T14:56:21Z</time>
      </trkpt>
      <trkpt lat="43.36222" lon="6.14579">
        <ele>458</ele>
        <time>2013-12-14T14:56:46Z</time>
      </trkpt>
      <trkpt lat="43.36222" lon="6.14579">
        <ele>458</ele>
        <time>2013-12-14T14:57:00Z</time>
      </trkpt>
      <trkpt lat="43.36222" lon="6.14579">
        <ele>458</ele>
        <time>2013-12-14T14:57:06Z</time>
      </trkpt>
      <trkpt lat="43.36222" lon="6.14582">
        <ele>458</ele>
        <time>2013-12-14T14:57:09Z</time>
      </trkpt>
      <trkpt lat="43.36222" lon="6.14586">
        <ele>458</ele>
        <time>2013-12-14T14:57:11Z</time>
      </trkpt>
      <trkpt lat="43.36223" lon="6.1459">
        <ele>458</ele>
        <time>2013-12-14T14:57:13Z</time>
      </trkpt>
      <trkpt lat="43.36224" lon="6.14596">
        <ele>458</ele>
        <time>2013-12-14T14:57:16Z</time>
      </trkpt>
      <trkpt lat="43.36224" lon="6.146">
        <ele>458</ele>
        <time>2013-12-14T14:57:18Z</time>
      </trkpt>
      <trkpt lat="43.36224" lon="6.14602">
        <ele>459</ele>
        <time>2013-12-14T14:57:19Z</time>
      </trkpt>
      <trkpt lat="43.36224" lon="6.14605">
        <ele>459.39999389648</ele>
        <time>2013-12-14T14:57:20Z</time>
      </trkpt>
      <trkpt lat="43.36224" lon="6.14611">
        <ele>460.39999389648</ele>
        <time>2013-12-14T14:57:22Z</time>
      </trkpt>
      <trkpt lat="43.36224" lon="6.14615">
        <ele>460.39999389648</ele>
        <time>2013-12-14T14:57:24Z</time>
      </trkpt>
      <trkpt lat="43.36224" lon="6.14619">
        <ele>460.39999389648</ele>
        <time>2013-12-14T14:57:26Z</time>
      </trkpt>
      <trkpt lat="43.36223" lon="6.14624">
        <ele>462.20001220703</ele>
        <time>2013-12-14T14:57:30Z</time>
      </trkpt>
      <trkpt lat="43.36223" lon="6.14625">
        <ele>462.60000610352</ele>
        <time>2013-12-14T14:57:31Z</time>
      </trkpt>
      <trkpt lat="43.36223" lon="6.14628">
        <ele>462.60000610352</ele>
        <time>2013-12-14T14:57:33Z</time>
      </trkpt>
      <trkpt lat="43.36223" lon="6.14629">
        <ele>462.60000610352</ele>
        <time>2013-12-14T14:57:36Z</time>
      </trkpt>
      <trkpt lat="43.36223" lon="6.14629">
        <ele>462.60000610352</ele>
        <time>2013-12-14T14:57:38Z</time>
      </trkpt>
      <trkpt lat="43.36223" lon="6.1463">
        <ele>463</ele>
        <time>2013-12-14T14:57:45Z</time>
      </trkpt>
      <trkpt lat="43.36223" lon="6.1463">
        <ele>464.20001220703</ele>
        <time>2013-12-14T14:57:48Z</time>
      </trkpt>
      <trkpt lat="43.36221" lon="6.14639">
        <ele>464.79998779297</ele>
        <time>2013-12-14T14:57:57Z</time>
      </trkpt>
      <trkpt lat="43.36221" lon="6.1464">
        <ele>464.79998779297</ele>
        <time>2013-12-14T14:57:58Z</time>
      </trkpt>
      <trkpt lat="43.36222" lon="6.14646">
        <ele>466</ele>
        <time>2013-12-14T14:58:04Z</time>
      </trkpt>
      <trkpt lat="43.36221" lon="6.14653">
        <ele>466.79998779297</ele>
        <time>2013-12-14T14:58:10Z</time>
      </trkpt>
      <trkpt lat="43.36221" lon="6.14656">
        <ele>466.79998779297</ele>
        <time>2013-12-14T14:58:16Z</time>
      </trkpt>
      <trkpt lat="43.3622" lon="6.14658">
        <ele>467.20001220703</ele>
        <time>2013-12-14T14:58:20Z</time>
      </trkpt>
      <trkpt lat="43.36221" lon="6.14661">
        <ele>468.79998779297</ele>
        <time>2013-12-14T14:58:24Z</time>
      </trkpt>
      <trkpt lat="43.36221" lon="6.14662">
        <ele>468.79998779297</ele>
        <time>2013-12-14T14:58:30Z</time>
      </trkpt>
      <trkpt lat="43.36221" lon="6.14663">
        <ele>468.79998779297</ele>
        <time>2013-12-14T14:58:36Z</time>
      </trkpt>
      <trkpt lat="43.36221" lon="6.14665">
        <ele>468.79998779297</ele>
        <time>2013-12-14T14:58:43Z</time>
      </trkpt>
      <trkpt lat="43.36221" lon="6.14666">
        <ele>469.20001220703</ele>
        <time>2013-12-14T14:58:46Z</time>
      </trkpt>
      <trkpt lat="43.36221" lon="6.14666">
        <ele>469.60000610352</ele>
        <time>2013-12-14T14:58:47Z</time>
      </trkpt>
      <trkpt lat="43.36217" lon="6.14673">
        <ele>470.79998779297</ele>
        <time>2013-12-14T14:58:56Z</time>
      </trkpt>
      <trkpt lat="43.36217" lon="6.1468">
        <ele>470.79998779297</ele>
        <time>2013-12-14T14:59:02Z</time>
      </trkpt>
      <trkpt lat="43.36217" lon="6.1468">
        <ele>471.20001220703</ele>
        <time>2013-12-14T14:59:04Z</time>
      </trkpt>
      <trkpt lat="43.36216" lon="6.14681">
        <ele>472</ele>
        <time>2013-12-14T14:59:06Z</time>
      </trkpt>
      <trkpt lat="43.36216" lon="6.14681">
        <ele>473</ele>
        <time>2013-12-14T14:59:08Z</time>
      </trkpt>
      <trkpt lat="43.36215" lon="6.14682">
        <ele>473</ele>
        <time>2013-12-14T14:59:09Z</time>
      </trkpt>
      <trkpt lat="43.36215" lon="6.14685">
        <ele>473</ele>
        <time>2013-12-14T14:59:16Z</time>
      </trkpt>
      <trkpt lat="43.36214" lon="6.14687">
        <ele>473.79998779297</ele>
        <time>2013-12-14T14:59:23Z</time>
      </trkpt>
      <trkpt lat="43.36213" lon="6.14688">
        <ele>474.20001220703</ele>
        <time>2013-12-14T14:59:24Z</time>
      </trkpt>
      <trkpt lat="43.36213" lon="6.14688">
        <ele>475</ele>
        <time>2013-12-14T14:59:26Z</time>
      </trkpt>
      <trkpt lat="43.36212" lon="6.14689">
        <ele>475</ele>
        <time>2013-12-14T14:59:30Z</time>
      </trkpt>
      <trkpt lat="43.36208" lon="6.14694">
        <ele>475.39999389648</ele>
        <time>2013-12-14T14:59:37Z</time>
      </trkpt>
      <trkpt lat="43.36207" lon="6.14696">
        <ele>476.20001220703</ele>
        <time>2013-12-14T14:59:39Z</time>
      </trkpt>
      <trkpt lat="43.36205" lon="6.14698">
        <ele>477</ele>
        <time>2013-12-14T14:59:41Z</time>
      </trkpt>
      <trkpt lat="43.36204" lon="6.14698">
        <ele>477</ele>
        <time>2013-12-14T14:59:45Z</time>
      </trkpt>
      <trkpt lat="43.36203" lon="6.147">
        <ele>477</ele>
        <time>2013-12-14T14:59:51Z</time>
      </trkpt>
      <trkpt lat="43.36203" lon="6.147">
        <ele>477</ele>
        <time>2013-12-14T14:59:58Z</time>
      </trkpt>
      <trkpt lat="43.36203" lon="6.14701">
        <ele>477</ele>
        <time>2013-12-14T15:00:07Z</time>
      </trkpt>
      <trkpt lat="43.36203" lon="6.14701">
        <ele>477</ele>
        <time>2013-12-14T15:00:14Z</time>
      </trkpt>
      <trkpt lat="43.36198" lon="6.14702">
        <ele>477.39999389648</ele>
        <time>2013-12-14T15:00:25Z</time>
      </trkpt>
      <trkpt lat="43.36198" lon="6.14703">
        <ele>478.20001220703</ele>
        <time>2013-12-14T15:00:27Z</time>
      </trkpt>
      <trkpt lat="43.36198" lon="6.14704">
        <ele>478.60000610352</ele>
        <time>2013-12-14T15:00:28Z</time>
      </trkpt>
      <trkpt lat="43.36198" lon="6.14705">
        <ele>479.20001220703</ele>
        <time>2013-12-14T15:00:31Z</time>
      </trkpt>
      <trkpt lat="43.36198" lon="6.14708">
        <ele>479.20001220703</ele>
        <time>2013-12-14T15:00:37Z</time>
      </trkpt>
      <trkpt lat="43.36198" lon="6.14708">
        <ele>479.20001220703</ele>
        <time>2013-12-14T15:01:03Z</time>
      </trkpt>
      <trkpt lat="43.36198" lon="6.14708">
        <ele>479.20001220703</ele>
        <time>2013-12-14T15:01:15Z</time>
      </trkpt>
      <trkpt lat="43.36196" lon="6.1471">
        <ele>479.20001220703</ele>
        <time>2013-12-14T15:01:25Z</time>
      </trkpt>
      <trkpt lat="43.36193" lon="6.14716">
        <ele>479.60000610352</ele>
        <time>2013-12-14T15:01:29Z</time>
      </trkpt>
      <trkpt lat="43.3619" lon="6.14725">
        <ele>481.20001220703</ele>
        <time>2013-12-14T15:01:33Z</time>
      </trkpt>
      <trkpt lat="43.36189" lon="6.14727">
        <ele>481.20001220703</ele>
        <time>2013-12-14T15:01:35Z</time>
      </trkpt>
      <trkpt lat="43.36187" lon="6.14734">
        <ele>481.20001220703</ele>
        <time>2013-12-14T15:01:39Z</time>
      </trkpt>
      <trkpt lat="43.36184" lon="6.14748">
        <ele>483.20001220703</ele>
        <time>2013-12-14T15:01:46Z</time>
      </trkpt>
      <trkpt lat="43.36183" lon="6.14759">
        <ele>483.20001220703</ele>
        <time>2013-12-14T15:01:52Z</time>
      </trkpt>
      <trkpt lat="43.36181" lon="6.14767">
        <ele>483.20001220703</ele>
        <time>2013-12-14T15:01:57Z</time>
      </trkpt>
      <trkpt lat="43.36179" lon="6.14773">
        <ele>483.60000610352</ele>
        <time>2013-12-14T15:02:01Z</time>
      </trkpt>
      <trkpt lat="43.3617" lon="6.14776">
        <ele>485.39999389648</ele>
        <time>2013-12-14T15:02:08Z</time>
      </trkpt>
      <trkpt lat="43.36168" lon="6.14778">
        <ele>486.20001220703</ele>
        <time>2013-12-14T15:02:10Z</time>
      </trkpt>
      <trkpt lat="43.36167" lon="6.14779">
        <ele>486.60000610352</ele>
        <time>2013-12-14T15:02:11Z</time>
      </trkpt>
      <trkpt lat="43.36166" lon="6.14781">
        <ele>487</ele>
        <time>2013-12-14T15:02:12Z</time>
      </trkpt>
      <trkpt lat="43.36166" lon="6.14785">
        <ele>487.60000610352</ele>
        <time>2013-12-14T15:02:14Z</time>
      </trkpt>
      <trkpt lat="43.36165" lon="6.1479">
        <ele>487.60000610352</ele>
        <time>2013-12-14T15:02:20Z</time>
      </trkpt>
      <trkpt lat="43.36164" lon="6.14791">
        <ele>487.60000610352</ele>
        <time>2013-12-14T15:02:26Z</time>
      </trkpt>
      <trkpt lat="43.36166" lon="6.14798">
        <ele>487.60000610352</ele>
        <time>2013-12-14T15:02:30Z</time>
      </trkpt>
      <trkpt lat="43.36166" lon="6.14803">
        <ele>488.39999389648</ele>
        <time>2013-12-14T15:02:33Z</time>
      </trkpt>
      <trkpt lat="43.36165" lon="6.14805">
        <ele>488.79998779297</ele>
        <time>2013-12-14T15:02:34Z</time>
      </trkpt>
      <trkpt lat="43.36164" lon="6.14809">
        <ele>489.60000610352</ele>
        <time>2013-12-14T15:02:37Z</time>
      </trkpt>
      <trkpt lat="43.36162" lon="6.14816">
        <ele>489.60000610352</ele>
        <time>2013-12-14T15:02:42Z</time>
      </trkpt>
      <trkpt lat="43.3616" lon="6.14824">
        <ele>490</ele>
        <time>2013-12-14T15:02:47Z</time>
      </trkpt>
      <trkpt lat="43.36158" lon="6.14828">
        <ele>490.79998779297</ele>
        <time>2013-12-14T15:02:49Z</time>
      </trkpt>
      <trkpt lat="43.36158" lon="6.14831">
        <ele>491.79998779297</ele>
        <time>2013-12-14T15:02:51Z</time>
      </trkpt>
      <trkpt lat="43.36157" lon="6.14834">
        <ele>491.79998779297</ele>
        <time>2013-12-14T15:02:55Z</time>
      </trkpt>
      <trkpt lat="43.36157" lon="6.14834">
        <ele>491.79998779297</ele>
        <time>2013-12-14T15:03:12Z</time>
      </trkpt>
      <trkpt lat="43.36156" lon="6.14834">
        <ele>491.79998779297</ele>
        <time>2013-12-14T15:03:37Z</time>
      </trkpt>
      <trkpt lat="43.36156" lon="6.14834">
        <ele>491.79998779297</ele>
        <time>2013-12-14T15:03:41Z</time>
      </trkpt>
      <trkpt lat="43.36156" lon="6.14834">
        <ele>491.79998779297</ele>
        <time>2013-12-14T15:03:44Z</time>
      </trkpt>
      <trkpt lat="43.36154" lon="6.14833">
        <ele>491.79998779297</ele>
        <time>2013-12-14T15:03:47Z</time>
      </trkpt>
      <trkpt lat="43.36152" lon="6.14833">
        <ele>491.79998779297</ele>
        <time>2013-12-14T15:03:49Z</time>
      </trkpt>
      <trkpt lat="43.36151" lon="6.14833">
        <ele>491.79998779297</ele>
        <time>2013-12-14T15:03:52Z</time>
      </trkpt>
      <trkpt lat="43.36151" lon="6.14834">
        <ele>491.79998779297</ele>
        <time>2013-12-14T15:04:00Z</time>
      </trkpt>
      <trkpt lat="43.36151" lon="6.14834">
        <ele>491.79998779297</ele>
        <time>2013-12-14T15:04:08Z</time>
      </trkpt>
      <trkpt lat="43.3615" lon="6.14834">
        <ele>491.79998779297</ele>
        <time>2013-12-14T15:04:09Z</time>
      </trkpt>
      <trkpt lat="43.36148" lon="6.14835">
        <ele>492.60000610352</ele>
        <time>2013-12-14T15:04:11Z</time>
      </trkpt>
      <trkpt lat="43.36147" lon="6.14835">
        <ele>493.20001220703</ele>
        <time>2013-12-14T15:04:12Z</time>
      </trkpt>
      <trkpt lat="43.36144" lon="6.14837">
        <ele>494</ele>
        <time>2013-12-14T15:04:15Z</time>
      </trkpt>
      <trkpt lat="43.36142" lon="6.14839">
        <ele>494.39999389648</ele>
        <time>2013-12-14T15:04:18Z</time>
      </trkpt>
      <trkpt lat="43.36142" lon="6.14839">
        <ele>495.39999389648</ele>
        <time>2013-12-14T15:04:19Z</time>
      </trkpt>
      <trkpt lat="43.36142" lon="6.14839">
        <ele>496.39999389648</ele>
        <time>2013-12-14T15:04:21Z</time>
      </trkpt>
      <trkpt lat="43.36141" lon="6.1484">
        <ele>496.39999389648</ele>
        <time>2013-12-14T15:04:27Z</time>
      </trkpt>
      <trkpt lat="43.3614" lon="6.1484">
        <ele>496.39999389648</ele>
        <time>2013-12-14T15:04:34Z</time>
      </trkpt>
      <trkpt lat="43.36137" lon="6.14844">
        <ele>496.79998779297</ele>
        <time>2013-12-14T15:04:39Z</time>
      </trkpt>
      <trkpt lat="43.36136" lon="6.14845">
        <ele>497.20001220703</ele>
        <time>2013-12-14T15:04:40Z</time>
      </trkpt>
      <trkpt lat="43.36135" lon="6.14845">
        <ele>497.60000610352</ele>
        <time>2013-12-14T15:04:41Z</time>
      </trkpt>
      <trkpt lat="43.36131" lon="6.14846">
        <ele>499</ele>
        <time>2013-12-14T15:04:44Z</time>
      </trkpt>
      <trkpt lat="43.36129" lon="6.14846">
        <ele>499.39999389648</ele>
        <time>2013-12-14T15:04:45Z</time>
      </trkpt>
      <trkpt lat="43.36129" lon="6.14847">
        <ele>499.79998779297</ele>
        <time>2013-12-14T15:04:46Z</time>
      </trkpt>
      <trkpt lat="43.36128" lon="6.14847">
        <ele>500.39999389648</ele>
        <time>2013-12-14T15:04:47Z</time>
      </trkpt>
      <trkpt lat="43.36128" lon="6.14847">
        <ele>500.79998779297</ele>
        <time>2013-12-14T15:04:48Z</time>
      </trkpt>
      <trkpt lat="43.36128" lon="6.14846">
        <ele>500.79998779297</ele>
        <time>2013-12-14T15:04:52Z</time>
      </trkpt>
      <trkpt lat="43.36127" lon="6.14846">
        <ele>500.79998779297</ele>
        <time>2013-12-14T15:04:58Z</time>
      </trkpt>
      <trkpt lat="43.36129" lon="6.14846">
        <ele>500.79998779297</ele>
        <time>2013-12-14T15:05:01Z</time>
      </trkpt>
      <trkpt lat="43.36129" lon="6.14846">
        <ele>500.79998779297</ele>
        <time>2013-12-14T15:05:08Z</time>
      </trkpt>
      <trkpt lat="43.3613" lon="6.1485">
        <ele>500.79998779297</ele>
        <time>2013-12-14T15:05:14Z</time>
      </trkpt>
      <trkpt lat="43.3613" lon="6.1485">
        <ele>500.79998779297</ele>
        <time>2013-12-14T15:05:22Z</time>
      </trkpt>
      <trkpt lat="43.3613" lon="6.1485">
        <ele>500.79998779297</ele>
        <time>2013-12-14T15:05:33Z</time>
      </trkpt>
      <trkpt lat="43.3613" lon="6.14854">
        <ele>500.79998779297</ele>
        <time>2013-12-14T15:05:36Z</time>
      </trkpt>
      <trkpt lat="43.36131" lon="6.14866">
        <ele>500.79998779297</ele>
        <time>2013-12-14T15:05:42Z</time>
      </trkpt>
      <trkpt lat="43.3613" lon="6.14869">
        <ele>500.79998779297</ele>
        <time>2013-12-14T15:05:44Z</time>
      </trkpt>
      <trkpt lat="43.3613" lon="6.14877">
        <ele>500.79998779297</ele>
        <time>2013-12-14T15:05:48Z</time>
      </trkpt>
      <trkpt lat="43.3613" lon="6.14881">
        <ele>500.79998779297</ele>
        <time>2013-12-14T15:05:50Z</time>
      </trkpt>
      <trkpt lat="43.36133" lon="6.14893">
        <ele>500.79998779297</ele>
        <time>2013-12-14T15:05:56Z</time>
      </trkpt>
      <trkpt lat="43.36128" lon="6.14894">
        <ele>500.79998779297</ele>
        <time>2013-12-14T15:05:59Z</time>
      </trkpt>
      <trkpt lat="43.36126" lon="6.14893">
        <ele>501.60000610352</ele>
        <time>2013-12-14T15:06:01Z</time>
      </trkpt>
      <trkpt lat="43.36125" lon="6.14893">
        <ele>502</ele>
        <time>2013-12-14T15:06:02Z</time>
      </trkpt>
      <trkpt lat="43.36123" lon="6.14896">
        <ele>503</ele>
        <time>2013-12-14T15:06:04Z</time>
      </trkpt>
      <trkpt lat="43.36123" lon="6.14898">
        <ele>503</ele>
        <time>2013-12-14T15:06:06Z</time>
      </trkpt>
      <trkpt lat="43.36124" lon="6.14898">
        <ele>503</ele>
        <time>2013-12-14T15:06:07Z</time>
      </trkpt>
      <trkpt lat="43.36126" lon="6.14897">
        <ele>503</ele>
        <time>2013-12-14T15:06:11Z</time>
      </trkpt>
      <trkpt lat="43.36126" lon="6.14897">
        <ele>503</ele>
        <time>2013-12-14T15:06:35Z</time>
      </trkpt>
      <trkpt lat="43.36126" lon="6.14897">
        <ele>503</ele>
        <time>2013-12-14T15:07:05Z</time>
      </trkpt>
      <trkpt lat="43.36126" lon="6.14897">
        <ele>503</ele>
        <time>2013-12-14T15:07:23Z</time>
      </trkpt>
      <trkpt lat="43.36126" lon="6.14897">
        <ele>503</ele>
        <time>2013-12-14T15:07:27Z</time>
      </trkpt>
      <trkpt lat="43.36126" lon="6.14897">
        <ele>503</ele>
        <time>2013-12-14T15:07:41Z</time>
      </trkpt>
      <trkpt lat="43.36126" lon="6.14897">
        <ele>503</ele>
        <time>2013-12-14T15:07:52Z</time>
      </trkpt>
      <trkpt lat="43.36127" lon="6.14897">
        <ele>503</ele>
        <time>2013-12-14T15:07:55Z</time>
      </trkpt>
      <trkpt lat="43.36127" lon="6.14898">
        <ele>503</ele>
        <time>2013-12-14T15:07:56Z</time>
      </trkpt>
      <trkpt lat="43.3613" lon="6.14907">
        <ele>503</ele>
        <time>2013-12-14T15:08:00Z</time>
      </trkpt>
      <trkpt lat="43.36131" lon="6.14914">
        <ele>503</ele>
        <time>2013-12-14T15:08:03Z</time>
      </trkpt>
      <trkpt lat="43.36131" lon="6.14919">
        <ele>503</ele>
        <time>2013-12-14T15:08:05Z</time>
      </trkpt>
      <trkpt lat="43.36131" lon="6.14935">
        <ele>503</ele>
        <time>2013-12-14T15:08:11Z</time>
      </trkpt>
      <trkpt lat="43.36133" lon="6.14943">
        <ele>503</ele>
        <time>2013-12-14T15:08:15Z</time>
      </trkpt>
      <trkpt lat="43.36134" lon="6.14946">
        <ele>503</ele>
        <time>2013-12-14T15:08:16Z</time>
      </trkpt>
      <trkpt lat="43.36145" lon="6.14954">
        <ele>502</ele>
        <time>2013-12-14T15:08:21Z</time>
      </trkpt>
      <trkpt lat="43.36148" lon="6.14956">
        <ele>501.39999389648</ele>
        <time>2013-12-14T15:08:22Z</time>
      </trkpt>
      <trkpt lat="43.36152" lon="6.14959">
        <ele>500.39999389648</ele>
        <time>2013-12-14T15:08:24Z</time>
      </trkpt>
      <trkpt lat="43.36156" lon="6.1496">
        <ele>499.20001220703</ele>
        <time>2013-12-14T15:08:27Z</time>
      </trkpt>
      <trkpt lat="43.36158" lon="6.14961">
        <ele>498.39999389648</ele>
        <time>2013-12-14T15:08:29Z</time>
      </trkpt>
      <trkpt lat="43.36161" lon="6.14974">
        <ele>498.39999389648</ele>
        <time>2013-12-14T15:08:33Z</time>
      </trkpt>
      <trkpt lat="43.36164" lon="6.14993">
        <ele>498.39999389648</ele>
        <time>2013-12-14T15:08:38Z</time>
      </trkpt>
      <trkpt lat="43.36166" lon="6.15004">
        <ele>498.39999389648</ele>
        <time>2013-12-14T15:08:41Z</time>
      </trkpt>
      <trkpt lat="43.36166" lon="6.15007">
        <ele>498.39999389648</ele>
        <time>2013-12-14T15:08:43Z</time>
      </trkpt>
      <trkpt lat="43.36166" lon="6.15009">
        <ele>498.39999389648</ele>
        <time>2013-12-14T15:08:45Z</time>
      </trkpt>
      <trkpt lat="43.36166" lon="6.15009">
        <ele>498.39999389648</ele>
        <time>2013-12-14T15:08:47Z</time>
      </trkpt>
      <trkpt lat="43.36166" lon="6.15009">
        <ele>498.39999389648</ele>
        <time>2013-12-14T15:08:48Z</time>
      </trkpt>
      <trkpt lat="43.36166" lon="6.1501">
        <ele>498.39999389648</ele>
        <time>2013-12-14T15:08:52Z</time>
      </trkpt>
      <trkpt lat="43.36166" lon="6.15011">
        <ele>498.39999389648</ele>
        <time>2013-12-14T15:08:54Z</time>
      </trkpt>
      <trkpt lat="43.36166" lon="6.15013">
        <ele>498.39999389648</ele>
        <time>2013-12-14T15:09:00Z</time>
      </trkpt>
      <trkpt lat="43.36166" lon="6.15015">
        <ele>498.39999389648</ele>
        <time>2013-12-14T15:09:05Z</time>
      </trkpt>
      <trkpt lat="43.36165" lon="6.15017">
        <ele>498</ele>
        <time>2013-12-14T15:09:11Z</time>
      </trkpt>
      <trkpt lat="43.36165" lon="6.15018">
        <ele>496.79998779297</ele>
        <time>2013-12-14T15:09:14Z</time>
      </trkpt>
      <trkpt lat="43.36164" lon="6.15018">
        <ele>496.39999389648</ele>
        <time>2013-12-14T15:09:18Z</time>
      </trkpt>
      <trkpt lat="43.36164" lon="6.15018">
        <ele>496.39999389648</ele>
        <time>2013-12-14T15:09:29Z</time>
      </trkpt>
      <trkpt lat="43.36164" lon="6.15018">
        <ele>496.39999389648</ele>
        <time>2013-12-14T15:09:35Z</time>
      </trkpt>
      <trkpt lat="43.36164" lon="6.15018">
        <ele>496.39999389648</ele>
        <time>2013-12-14T15:09:38Z</time>
      </trkpt>
      <trkpt lat="43.36163" lon="6.15018">
        <ele>496.39999389648</ele>
        <time>2013-12-14T15:09:44Z</time>
      </trkpt>
      <trkpt lat="43.36163" lon="6.15018">
        <ele>496.39999389648</ele>
        <time>2013-12-14T15:09:55Z</time>
      </trkpt>
      <trkpt lat="43.36162" lon="6.15018">
        <ele>496.39999389648</ele>
        <time>2013-12-14T15:10:00Z</time>
      </trkpt>
      <trkpt lat="43.36162" lon="6.15018">
        <ele>494.39999389648</ele>
        <time>2013-12-14T15:10:15Z</time>
      </trkpt>
      <trkpt lat="43.36163" lon="6.15018">
        <ele>494.39999389648</ele>
        <time>2013-12-14T15:10:27Z</time>
      </trkpt>
      <trkpt lat="43.36161" lon="6.15018">
        <ele>494.39999389648</ele>
        <time>2013-12-14T15:10:31Z</time>
      </trkpt>
      <trkpt lat="43.36161" lon="6.15018">
        <ele>494.39999389648</ele>
        <time>2013-12-14T15:10:39Z</time>
      </trkpt>
      <trkpt lat="43.36161" lon="6.15018">
        <ele>494.39999389648</ele>
        <time>2013-12-14T15:10:41Z</time>
      </trkpt>
      <trkpt lat="43.36156" lon="6.15018">
        <ele>494.39999389648</ele>
        <time>2013-12-14T15:10:46Z</time>
      </trkpt>
      <trkpt lat="43.36155" lon="6.15019">
        <ele>494.39999389648</ele>
        <time>2013-12-14T15:10:47Z</time>
      </trkpt>
      <trkpt lat="43.36149" lon="6.15019">
        <ele>494.39999389648</ele>
        <time>2013-12-14T15:10:50Z</time>
      </trkpt>
      <trkpt lat="43.36144" lon="6.15019">
        <ele>493.39999389648</ele>
        <time>2013-12-14T15:10:52Z</time>
      </trkpt>
      <trkpt lat="43.36142" lon="6.15018">
        <ele>492.79998779297</ele>
        <time>2013-12-14T15:10:53Z</time>
      </trkpt>
      <trkpt lat="43.36139" lon="6.15017">
        <ele>491.20001220703</ele>
        <time>2013-12-14T15:10:55Z</time>
      </trkpt>
      <trkpt lat="43.36135" lon="6.15017">
        <ele>490.60000610352</ele>
        <time>2013-12-14T15:10:56Z</time>
      </trkpt>
      <trkpt lat="43.36133" lon="6.15016">
        <ele>490.20001220703</ele>
        <time>2013-12-14T15:10:57Z</time>
      </trkpt>
      <trkpt lat="43.36131" lon="6.15016">
        <ele>489.60000610352</ele>
        <time>2013-12-14T15:10:58Z</time>
      </trkpt>
      <trkpt lat="43.36129" lon="6.15015">
        <ele>489</ele>
        <time>2013-12-14T15:10:59Z</time>
      </trkpt>
      <trkpt lat="43.36126" lon="6.15016">
        <ele>488.60000610352</ele>
        <time>2013-12-14T15:11:00Z</time>
      </trkpt>
      <trkpt lat="43.36124" lon="6.15017">
        <ele>488.20001220703</ele>
        <time>2013-12-14T15:11:01Z</time>
      </trkpt>
      <trkpt lat="43.36114" lon="6.15018">
        <ele>486</ele>
        <time>2013-12-14T15:11:06Z</time>
      </trkpt>
      <trkpt lat="43.36113" lon="6.15017">
        <ele>485.60000610352</ele>
        <time>2013-12-14T15:11:07Z</time>
      </trkpt>
      <trkpt lat="43.36112" lon="6.15018">
        <ele>485</ele>
        <time>2013-12-14T15:11:08Z</time>
      </trkpt>
      <trkpt lat="43.36112" lon="6.15018">
        <ele>484.60000610352</ele>
        <time>2013-12-14T15:11:09Z</time>
      </trkpt>
      <trkpt lat="43.36112" lon="6.15018">
        <ele>483</ele>
        <time>2013-12-14T15:11:37Z</time>
      </trkpt>
      <trkpt lat="43.36112" lon="6.15018">
        <ele>483</ele>
        <time>2013-12-14T15:12:13Z</time>
      </trkpt>
      <trkpt lat="43.36113" lon="6.15019">
        <ele>483</ele>
        <time>2013-12-14T15:12:18Z</time>
      </trkpt>
      <trkpt lat="43.36114" lon="6.1502">
        <ele>483</ele>
        <time>2013-12-14T15:12:24Z</time>
      </trkpt>
      <trkpt lat="43.36116" lon="6.15025">
        <ele>483</ele>
        <time>2013-12-14T15:12:31Z</time>
      </trkpt>
      <trkpt lat="43.36118" lon="6.15028">
        <ele>483</ele>
        <time>2013-12-14T15:12:42Z</time>
      </trkpt>
      <trkpt lat="43.36118" lon="6.15029">
        <ele>483</ele>
        <time>2013-12-14T15:12:45Z</time>
      </trkpt>
      <trkpt lat="43.36119" lon="6.1503">
        <ele>483</ele>
        <time>2013-12-14T15:12:47Z</time>
      </trkpt>
      <trkpt lat="43.3612" lon="6.15032">
        <ele>482.60000610352</ele>
        <time>2013-12-14T15:12:48Z</time>
      </trkpt>
      <trkpt lat="43.36122" lon="6.15035">
        <ele>482.20001220703</ele>
        <time>2013-12-14T15:12:49Z</time>
      </trkpt>
      <trkpt lat="43.36125" lon="6.15037">
        <ele>481.79998779297</ele>
        <time>2013-12-14T15:12:50Z</time>
      </trkpt>
      <trkpt lat="43.36132" lon="6.15043">
        <ele>481</ele>
        <time>2013-12-14T15:12:52Z</time>
      </trkpt>
      <trkpt lat="43.36139" lon="6.15049">
        <ele>480.39999389648</ele>
        <time>2013-12-14T15:12:54Z</time>
      </trkpt>
      <trkpt lat="43.36147" lon="6.15053">
        <ele>479.39999389648</ele>
        <time>2013-12-14T15:12:56Z</time>
      </trkpt>
      <trkpt lat="43.3615" lon="6.15054">
        <ele>479</ele>
        <time>2013-12-14T15:12:57Z</time>
      </trkpt>
      <trkpt lat="43.36152" lon="6.15056">
        <ele>478.39999389648</ele>
        <time>2013-12-14T15:12:58Z</time>
      </trkpt>
      <trkpt lat="43.36154" lon="6.15058">
        <ele>477</ele>
        <time>2013-12-14T15:12:59Z</time>
      </trkpt>
      <trkpt lat="43.36156" lon="6.1506">
        <ele>476.39999389648</ele>
        <time>2013-12-14T15:13:00Z</time>
      </trkpt>
      <trkpt lat="43.3616" lon="6.1506">
        <ele>475.79998779297</ele>
        <time>2013-12-14T15:13:01Z</time>
      </trkpt>
      <trkpt lat="43.36168" lon="6.15059">
        <ele>474.39999389648</ele>
        <time>2013-12-14T15:13:03Z</time>
      </trkpt>
      <trkpt lat="43.36172" lon="6.15058">
        <ele>473.60000610352</ele>
        <time>2013-12-14T15:13:04Z</time>
      </trkpt>
      <trkpt lat="43.36174" lon="6.15056">
        <ele>472.79998779297</ele>
        <time>2013-12-14T15:13:05Z</time>
      </trkpt>
      <trkpt lat="43.3618" lon="6.15053">
        <ele>471.39999389648</ele>
        <time>2013-12-14T15:13:07Z</time>
      </trkpt>
      <trkpt lat="43.36186" lon="6.15058">
        <ele>470.20001220703</ele>
        <time>2013-12-14T15:13:10Z</time>
      </trkpt>
      <trkpt lat="43.36187" lon="6.1506">
        <ele>469.60000610352</ele>
        <time>2013-12-14T15:13:11Z</time>
      </trkpt>
      <trkpt lat="43.36191" lon="6.1506">
        <ele>467.60000610352</ele>
        <time>2013-12-14T15:13:14Z</time>
      </trkpt>
      <trkpt lat="43.36193" lon="6.15058">
        <ele>467</ele>
        <time>2013-12-14T15:13:15Z</time>
      </trkpt>
      <trkpt lat="43.36198" lon="6.1506">
        <ele>465.79998779297</ele>
        <time>2013-12-14T15:13:17Z</time>
      </trkpt>
      <trkpt lat="43.362" lon="6.15061">
        <ele>465.20001220703</ele>
        <time>2013-12-14T15:13:18Z</time>
      </trkpt>
      <trkpt lat="43.36203" lon="6.15063">
        <ele>464.39999389648</ele>
        <time>2013-12-14T15:13:19Z</time>
      </trkpt>
      <trkpt lat="43.36206" lon="6.15065">
        <ele>463</ele>
        <time>2013-12-14T15:13:21Z</time>
      </trkpt>
      <trkpt lat="43.36207" lon="6.15066">
        <ele>462.39999389648</ele>
        <time>2013-12-14T15:13:22Z</time>
      </trkpt>
      <trkpt lat="43.36208" lon="6.15065">
        <ele>461.60000610352</ele>
        <time>2013-12-14T15:13:23Z</time>
      </trkpt>
      <trkpt lat="43.36208" lon="6.15065">
        <ele>460.20001220703</ele>
        <time>2013-12-14T15:13:28Z</time>
      </trkpt>
      <trkpt lat="43.36208" lon="6.15067">
        <ele>460.20001220703</ele>
        <time>2013-12-14T15:13:37Z</time>
      </trkpt>
      <trkpt lat="43.36208" lon="6.15071">
        <ele>459.79998779297</ele>
        <time>2013-12-14T15:13:40Z</time>
      </trkpt>
      <trkpt lat="43.36206" lon="6.15074">
        <ele>459.39999389648</ele>
        <time>2013-12-14T15:13:41Z</time>
      </trkpt>
      <trkpt lat="43.36206" lon="6.15076">
        <ele>459</ele>
        <time>2013-12-14T15:13:42Z</time>
      </trkpt>
      <trkpt lat="43.36206" lon="6.1508">
        <ele>458.39999389648</ele>
        <time>2013-12-14T15:13:43Z</time>
      </trkpt>
      <trkpt lat="43.36205" lon="6.15082">
        <ele>458</ele>
        <time>2013-12-14T15:13:44Z</time>
      </trkpt>
      <trkpt lat="43.36204" lon="6.15084">
        <ele>457.60000610352</ele>
        <time>2013-12-14T15:13:45Z</time>
      </trkpt>
      <trkpt lat="43.36202" lon="6.15086">
        <ele>457.20001220703</ele>
        <time>2013-12-14T15:13:46Z</time>
      </trkpt>
      <trkpt lat="43.362" lon="6.15088">
        <ele>456.79998779297</ele>
        <time>2013-12-14T15:13:47Z</time>
      </trkpt>
      <trkpt lat="43.36198" lon="6.15091">
        <ele>455.79998779297</ele>
        <time>2013-12-14T15:13:48Z</time>
      </trkpt>
      <trkpt lat="43.36197" lon="6.15093">
        <ele>455.39999389648</ele>
        <time>2013-12-14T15:13:49Z</time>
      </trkpt>
      <trkpt lat="43.36196" lon="6.15096">
        <ele>454.79998779297</ele>
        <time>2013-12-14T15:13:50Z</time>
      </trkpt>
      <trkpt lat="43.36195" lon="6.15099">
        <ele>454.39999389648</ele>
        <time>2013-12-14T15:13:51Z</time>
      </trkpt>
      <trkpt lat="43.3619" lon="6.15108">
        <ele>452.79998779297</ele>
        <time>2013-12-14T15:13:54Z</time>
      </trkpt>
      <trkpt lat="43.36189" lon="6.15112">
        <ele>452.20001220703</ele>
        <time>2013-12-14T15:13:55Z</time>
      </trkpt>
      <trkpt lat="43.36189" lon="6.15114">
        <ele>451.60000610352</ele>
        <time>2013-12-14T15:13:56Z</time>
      </trkpt>
      <trkpt lat="43.36189" lon="6.15115">
        <ele>451</ele>
        <time>2013-12-14T15:13:57Z</time>
      </trkpt>
      <trkpt lat="43.36188" lon="6.15115">
        <ele>450.39999389648</ele>
        <time>2013-12-14T15:13:58Z</time>
      </trkpt>
      <trkpt lat="43.36188" lon="6.15115">
        <ele>449</ele>
        <time>2013-12-14T15:14:00Z</time>
      </trkpt>
      <trkpt lat="43.3619" lon="6.15115">
        <ele>449</ele>
        <time>2013-12-14T15:14:09Z</time>
      </trkpt>
      <trkpt lat="43.3619" lon="6.15116">
        <ele>449</ele>
        <time>2013-12-14T15:14:16Z</time>
      </trkpt>
      <trkpt lat="43.36189" lon="6.15117">
        <ele>449</ele>
        <time>2013-12-14T15:14:26Z</time>
      </trkpt>
      <trkpt lat="43.36188" lon="6.15117">
        <ele>449</ele>
        <time>2013-12-14T15:14:27Z</time>
      </trkpt>
      <trkpt lat="43.36187" lon="6.15117">
        <ele>449</ele>
        <time>2013-12-14T15:14:30Z</time>
      </trkpt>
      <trkpt lat="43.36186" lon="6.15119">
        <ele>449</ele>
        <time>2013-12-14T15:14:37Z</time>
      </trkpt>
      <trkpt lat="43.36179" lon="6.15123">
        <ele>449</ele>
        <time>2013-12-14T15:14:41Z</time>
      </trkpt>
      <trkpt lat="43.36173" lon="6.1513">
        <ele>448.60000610352</ele>
        <time>2013-12-14T15:14:45Z</time>
      </trkpt>
      <trkpt lat="43.36172" lon="6.15132">
        <ele>448.20001220703</ele>
        <time>2013-12-14T15:14:46Z</time>
      </trkpt>
      <trkpt lat="43.36171" lon="6.15136">
        <ele>447.39999389648</ele>
        <time>2013-12-14T15:14:48Z</time>
      </trkpt>
      <trkpt lat="43.36171" lon="6.15138">
        <ele>446.60000610352</ele>
        <time>2013-12-14T15:14:50Z</time>
      </trkpt>
      <trkpt lat="43.3617" lon="6.15144">
        <ele>445.60000610352</ele>
        <time>2013-12-14T15:14:52Z</time>
      </trkpt>
      <trkpt lat="43.36169" lon="6.15146">
        <ele>445.20001220703</ele>
        <time>2013-12-14T15:14:53Z</time>
      </trkpt>
      <trkpt lat="43.36168" lon="6.1515">
        <ele>444.60000610352</ele>
        <time>2013-12-14T15:14:54Z</time>
      </trkpt>
      <trkpt lat="43.36166" lon="6.15153">
        <ele>444.20001220703</ele>
        <time>2013-12-14T15:14:55Z</time>
      </trkpt>
      <trkpt lat="43.36164" lon="6.15155">
        <ele>443.60000610352</ele>
        <time>2013-12-14T15:14:56Z</time>
      </trkpt>
      <trkpt lat="43.36163" lon="6.15159">
        <ele>442.20001220703</ele>
        <time>2013-12-14T15:14:58Z</time>
      </trkpt>
      <trkpt lat="43.36162" lon="6.15161">
        <ele>441.39999389648</ele>
        <time>2013-12-14T15:14:59Z</time>
      </trkpt>
      <trkpt lat="43.36161" lon="6.15163">
        <ele>440.60000610352</ele>
        <time>2013-12-14T15:15:00Z</time>
      </trkpt>
      <trkpt lat="43.36161" lon="6.15166">
        <ele>439.79998779297</ele>
        <time>2013-12-14T15:15:01Z</time>
      </trkpt>
      <trkpt lat="43.3616" lon="6.15169">
        <ele>439</ele>
        <time>2013-12-14T15:15:02Z</time>
      </trkpt>
      <trkpt lat="43.36155" lon="6.15176">
        <ele>436.60000610352</ele>
        <time>2013-12-14T15:15:04Z</time>
      </trkpt>
      <trkpt lat="43.36153" lon="6.15179">
        <ele>435.79998779297</ele>
        <time>2013-12-14T15:15:05Z</time>
      </trkpt>
      <trkpt lat="43.36153" lon="6.1518">
        <ele>435</ele>
        <time>2013-12-14T15:15:06Z</time>
      </trkpt>
      <trkpt lat="43.36153" lon="6.15181">
        <ele>434.20001220703</ele>
        <time>2013-12-14T15:15:07Z</time>
      </trkpt>
      <trkpt lat="43.36153" lon="6.15181">
        <ele>433.39999389648</ele>
        <time>2013-12-14T15:15:08Z</time>
      </trkpt>
      <trkpt lat="43.36153" lon="6.15181">
        <ele>432.60000610352</ele>
        <time>2013-12-14T15:15:09Z</time>
      </trkpt>
      <trkpt lat="43.36153" lon="6.15181">
        <ele>432.60000610352</ele>
        <time>2013-12-14T15:15:16Z</time>
      </trkpt>
      <trkpt lat="43.36155" lon="6.15181">
        <ele>432.60000610352</ele>
        <time>2013-12-14T15:15:26Z</time>
      </trkpt>
      <trkpt lat="43.36155" lon="6.1518">
        <ele>432.60000610352</ele>
        <time>2013-12-14T15:15:27Z</time>
      </trkpt>
      <trkpt lat="43.36155" lon="6.1518">
        <ele>432.60000610352</ele>
        <time>2013-12-14T15:15:28Z</time>
      </trkpt>
      <trkpt lat="43.36158" lon="6.15178">
        <ele>432.60000610352</ele>
        <time>2013-12-14T15:15:31Z</time>
      </trkpt>
      <trkpt lat="43.3616" lon="6.15176">
        <ele>432.60000610352</ele>
        <time>2013-12-14T15:15:34Z</time>
      </trkpt>
      <trkpt lat="43.36163" lon="6.15172">
        <ele>432.60000610352</ele>
        <time>2013-12-14T15:15:36Z</time>
      </trkpt>
      <trkpt lat="43.36163" lon="6.1517">
        <ele>433</ele>
        <time>2013-12-14T15:15:37Z</time>
      </trkpt>
      <trkpt lat="43.36164" lon="6.15168">
        <ele>433.79998779297</ele>
        <time>2013-12-14T15:15:39Z</time>
      </trkpt>
      <trkpt lat="43.36164" lon="6.15167">
        <ele>434.20001220703</ele>
        <time>2013-12-14T15:15:40Z</time>
      </trkpt>
      <trkpt lat="43.36167" lon="6.15163">
        <ele>435.20001220703</ele>
        <time>2013-12-14T15:15:42Z</time>
      </trkpt>
      <trkpt lat="43.36167" lon="6.15162">
        <ele>435.60000610352</ele>
        <time>2013-12-14T15:15:43Z</time>
      </trkpt>
      <trkpt lat="43.36167" lon="6.15162">
        <ele>436.79998779297</ele>
        <time>2013-12-14T15:16:08Z</time>
      </trkpt>
      <trkpt lat="43.36167" lon="6.15162">
        <ele>436.79998779297</ele>
        <time>2013-12-14T15:16:21Z</time>
      </trkpt>
      <trkpt lat="43.36167" lon="6.15161">
        <ele>436.79998779297</ele>
        <time>2013-12-14T15:16:23Z</time>
      </trkpt>
      <trkpt lat="43.36167" lon="6.15161">
        <ele>436.79998779297</ele>
        <time>2013-12-14T15:16:36Z</time>
      </trkpt>
      <trkpt lat="43.36167" lon="6.15161">
        <ele>436.79998779297</ele>
        <time>2013-12-14T15:16:40Z</time>
      </trkpt>
      <trkpt lat="43.36168" lon="6.1516">
        <ele>436.79998779297</ele>
        <time>2013-12-14T15:16:43Z</time>
      </trkpt>
      <trkpt lat="43.36168" lon="6.1516">
        <ele>436.79998779297</ele>
        <time>2013-12-14T15:16:48Z</time>
      </trkpt>
      <trkpt lat="43.36168" lon="6.1516">
        <ele>436.79998779297</ele>
        <time>2013-12-14T15:16:55Z</time>
      </trkpt>
      <trkpt lat="43.36168" lon="6.15159">
        <ele>436.79998779297</ele>
        <time>2013-12-14T15:17:00Z</time>
      </trkpt>
      <trkpt lat="43.36168" lon="6.1516">
        <ele>436.79998779297</ele>
        <time>2013-12-14T15:17:04Z</time>
      </trkpt>
      <trkpt lat="43.36168" lon="6.1516">
        <ele>436.79998779297</ele>
        <time>2013-12-14T15:17:15Z</time>
      </trkpt>
      <trkpt lat="43.36168" lon="6.1516">
        <ele>436.79998779297</ele>
        <time>2013-12-14T15:17:34Z</time>
      </trkpt>
      <trkpt lat="43.36166" lon="6.15161">
        <ele>436.79998779297</ele>
        <time>2013-12-14T15:17:40Z</time>
      </trkpt>
      <trkpt lat="43.36166" lon="6.15161">
        <ele>436.79998779297</ele>
        <time>2013-12-14T15:17:51Z</time>
      </trkpt>
      <trkpt lat="43.36166" lon="6.1516">
        <ele>436.79998779297</ele>
        <time>2013-12-14T15:18:03Z</time>
      </trkpt>
      <trkpt lat="43.36164" lon="6.15163">
        <ele>436.79998779297</ele>
        <time>2013-12-14T15:18:11Z</time>
      </trkpt>
      <trkpt lat="43.36163" lon="6.15166">
        <ele>435.79998779297</ele>
        <time>2013-12-14T15:18:15Z</time>
      </trkpt>
      <trkpt lat="43.36163" lon="6.15166">
        <ele>434.39999389648</ele>
        <time>2013-12-14T15:18:29Z</time>
      </trkpt>
      <trkpt lat="43.36163" lon="6.15167">
        <ele>434.39999389648</ele>
        <time>2013-12-14T15:18:35Z</time>
      </trkpt>
      <trkpt lat="43.36163" lon="6.15167">
        <ele>434.39999389648</ele>
        <time>2013-12-14T15:18:44Z</time>
      </trkpt>
      <trkpt lat="43.36162" lon="6.1517">
        <ele>434.39999389648</ele>
        <time>2013-12-14T15:18:48Z</time>
      </trkpt>
      <trkpt lat="43.3616" lon="6.15174">
        <ele>434</ele>
        <time>2013-12-14T15:18:50Z</time>
      </trkpt>
      <trkpt lat="43.36157" lon="6.15179">
        <ele>432.79998779297</ele>
        <time>2013-12-14T15:18:53Z</time>
      </trkpt>
      <trkpt lat="43.36157" lon="6.15179">
        <ele>432.39999389648</ele>
        <time>2013-12-14T15:18:54Z</time>
      </trkpt>
      <trkpt lat="43.36157" lon="6.15179">
        <ele>432.39999389648</ele>
        <time>2013-12-14T15:18:55Z</time>
      </trkpt>
      <trkpt lat="43.36157" lon="6.15179">
        <ele>430.20001220703</ele>
        <time>2013-12-14T15:19:06Z</time>
      </trkpt>
      <trkpt lat="43.36156" lon="6.15179">
        <ele>430.20001220703</ele>
        <time>2013-12-14T15:19:20Z</time>
      </trkpt>
      <trkpt lat="43.36156" lon="6.1518">
        <ele>430.20001220703</ele>
        <time>2013-12-14T15:19:27Z</time>
      </trkpt>
      <trkpt lat="43.36156" lon="6.1518">
        <ele>430.20001220703</ele>
        <time>2013-12-14T15:19:34Z</time>
      </trkpt>
      <trkpt lat="43.36155" lon="6.15182">
        <ele>430.20001220703</ele>
        <time>2013-12-14T15:19:39Z</time>
      </trkpt>
      <trkpt lat="43.36148" lon="6.1519">
        <ele>430.20001220703</ele>
        <time>2013-12-14T15:19:43Z</time>
      </trkpt>
      <trkpt lat="43.36144" lon="6.15199">
        <ele>429.60000610352</ele>
        <time>2013-12-14T15:19:47Z</time>
      </trkpt>
      <trkpt lat="43.36143" lon="6.15202">
        <ele>429.20001220703</ele>
        <time>2013-12-14T15:19:48Z</time>
      </trkpt>
      <trkpt lat="43.36142" lon="6.15204">
        <ele>428.79998779297</ele>
        <time>2013-12-14T15:19:49Z</time>
      </trkpt>
      <trkpt lat="43.3614" lon="6.1521">
        <ele>427.79998779297</ele>
        <time>2013-12-14T15:19:51Z</time>
      </trkpt>
      <trkpt lat="43.36137" lon="6.15214">
        <ele>427</ele>
        <time>2013-12-14T15:19:53Z</time>
      </trkpt>
      <trkpt lat="43.36132" lon="6.15215">
        <ele>426</ele>
        <time>2013-12-14T15:19:55Z</time>
      </trkpt>
      <trkpt lat="43.36131" lon="6.15215">
        <ele>426</ele>
        <time>2013-12-14T15:19:56Z</time>
      </trkpt>
      <trkpt lat="43.36129" lon="6.15218">
        <ele>425.60000610352</ele>
        <time>2013-12-14T15:19:57Z</time>
      </trkpt>
      <trkpt lat="43.36128" lon="6.15222">
        <ele>425</ele>
        <time>2013-12-14T15:19:58Z</time>
      </trkpt>
      <trkpt lat="43.36127" lon="6.15225">
        <ele>424.60000610352</ele>
        <time>2013-12-14T15:19:59Z</time>
      </trkpt>
      <trkpt lat="43.36127" lon="6.15228">
        <ele>423.79998779297</ele>
        <time>2013-12-14T15:20:00Z</time>
      </trkpt>
      <trkpt lat="43.36127" lon="6.1523">
        <ele>423.39999389648</ele>
        <time>2013-12-14T15:20:01Z</time>
      </trkpt>
      <trkpt lat="43.36124" lon="6.15235">
        <ele>422.60000610352</ele>
        <time>2013-12-14T15:20:03Z</time>
      </trkpt>
      <trkpt lat="43.36123" lon="6.1524">
        <ele>422.20001220703</ele>
        <time>2013-12-14T15:20:04Z</time>
      </trkpt>
      <trkpt lat="43.36123" lon="6.15245">
        <ele>421.60000610352</ele>
        <time>2013-12-14T15:20:05Z</time>
      </trkpt>
      <trkpt lat="43.36123" lon="6.15248">
        <ele>421</ele>
        <time>2013-12-14T15:20:06Z</time>
      </trkpt>
      <trkpt lat="43.36123" lon="6.15249">
        <ele>420.39999389648</ele>
        <time>2013-12-14T15:20:07Z</time>
      </trkpt>
      <trkpt lat="43.36123" lon="6.15249">
        <ele>419.79998779297</ele>
        <time>2013-12-14T15:20:08Z</time>
      </trkpt>
      <trkpt lat="43.36123" lon="6.1525">
        <ele>419.20001220703</ele>
        <time>2013-12-14T15:20:09Z</time>
      </trkpt>
      <trkpt lat="43.36123" lon="6.15249">
        <ele>419.20001220703</ele>
        <time>2013-12-14T15:20:13Z</time>
      </trkpt>
      <trkpt lat="43.36123" lon="6.1525">
        <ele>419.20001220703</ele>
        <time>2013-12-14T15:20:18Z</time>
      </trkpt>
      <trkpt lat="43.36123" lon="6.1525">
        <ele>419.20001220703</ele>
        <time>2013-12-14T15:20:24Z</time>
      </trkpt>
      <trkpt lat="43.36123" lon="6.1525">
        <ele>419.20001220703</ele>
        <time>2013-12-14T15:20:29Z</time>
      </trkpt>
      <trkpt lat="43.36123" lon="6.1525">
        <ele>419.20001220703</ele>
        <time>2013-12-14T15:20:46Z</time>
      </trkpt>
      <trkpt lat="43.36123" lon="6.1525">
        <ele>419.20001220703</ele>
        <time>2013-12-14T15:20:56Z</time>
      </trkpt>
      <trkpt lat="43.36123" lon="6.15251">
        <ele>419.20001220703</ele>
        <time>2013-12-14T15:21:07Z</time>
      </trkpt>
      <trkpt lat="43.36122" lon="6.15251">
        <ele>419.20001220703</ele>
        <time>2013-12-14T15:21:13Z</time>
      </trkpt>
      <trkpt lat="43.36122" lon="6.15254">
        <ele>419.20001220703</ele>
        <time>2013-12-14T15:21:20Z</time>
      </trkpt>
      <trkpt lat="43.36123" lon="6.15257">
        <ele>419.20001220703</ele>
        <time>2013-12-14T15:21:21Z</time>
      </trkpt>
      <trkpt lat="43.36126" lon="6.15265">
        <ele>419.20001220703</ele>
        <time>2013-12-14T15:21:25Z</time>
      </trkpt>
      <trkpt lat="43.36127" lon="6.15266">
        <ele>418.79998779297</ele>
        <time>2013-12-14T15:21:26Z</time>
      </trkpt>
      <trkpt lat="43.36129" lon="6.15268">
        <ele>418.39999389648</ele>
        <time>2013-12-14T15:21:27Z</time>
      </trkpt>
      <trkpt lat="43.3613" lon="6.15271">
        <ele>418</ele>
        <time>2013-12-14T15:21:28Z</time>
      </trkpt>
      <trkpt lat="43.36131" lon="6.15276">
        <ele>417.60000610352</ele>
        <time>2013-12-14T15:21:29Z</time>
      </trkpt>
      <trkpt lat="43.36132" lon="6.1528">
        <ele>417.20001220703</ele>
        <time>2013-12-14T15:21:30Z</time>
      </trkpt>
      <trkpt lat="43.36133" lon="6.15286">
        <ele>416.60000610352</ele>
        <time>2013-12-14T15:21:31Z</time>
      </trkpt>
      <trkpt lat="43.36132" lon="6.15292">
        <ele>416.20001220703</ele>
        <time>2013-12-14T15:21:32Z</time>
      </trkpt>
      <trkpt lat="43.36132" lon="6.15304">
        <ele>415.20001220703</ele>
        <time>2013-12-14T15:21:34Z</time>
      </trkpt>
      <trkpt lat="43.36134" lon="6.15307">
        <ele>414.79998779297</ele>
        <time>2013-12-14T15:21:35Z</time>
      </trkpt>
      <trkpt lat="43.36136" lon="6.1531">
        <ele>414.20001220703</ele>
        <time>2013-12-14T15:21:36Z</time>
      </trkpt>
      <trkpt lat="43.36137" lon="6.15316">
        <ele>413.79998779297</ele>
        <time>2013-12-14T15:21:37Z</time>
      </trkpt>
      <trkpt lat="43.3614" lon="6.15321">
        <ele>413.39999389648</ele>
        <time>2013-12-14T15:21:38Z</time>
      </trkpt>
      <trkpt lat="43.36143" lon="6.15332">
        <ele>411.60000610352</ele>
        <time>2013-12-14T15:21:40Z</time>
      </trkpt>
      <trkpt lat="43.36143" lon="6.15337">
        <ele>411</ele>
        <time>2013-12-14T15:21:41Z</time>
      </trkpt>
      <trkpt lat="43.36147" lon="6.15343">
        <ele>410.39999389648</ele>
        <time>2013-12-14T15:21:43Z</time>
      </trkpt>
      <trkpt lat="43.36153" lon="6.1535">
        <ele>409.39999389648</ele>
        <time>2013-12-14T15:21:45Z</time>
      </trkpt>
      <trkpt lat="43.36158" lon="6.15362">
        <ele>407.79998779297</ele>
        <time>2013-12-14T15:21:48Z</time>
      </trkpt>
      <trkpt lat="43.3616" lon="6.15366">
        <ele>407.20001220703</ele>
        <time>2013-12-14T15:21:49Z</time>
      </trkpt>
      <trkpt lat="43.36164" lon="6.15371">
        <ele>406.20001220703</ele>
        <time>2013-12-14T15:21:51Z</time>
      </trkpt>
      <trkpt lat="43.36169" lon="6.15378">
        <ele>405.20001220703</ele>
        <time>2013-12-14T15:21:53Z</time>
      </trkpt>
      <trkpt lat="43.36178" lon="6.15389">
        <ele>403.79998779297</ele>
        <time>2013-12-14T15:21:56Z</time>
      </trkpt>
      <trkpt lat="43.3618" lon="6.15393">
        <ele>403.39999389648</ele>
        <time>2013-12-14T15:21:57Z</time>
      </trkpt>
      <trkpt lat="43.36183" lon="6.15398">
        <ele>402.79998779297</ele>
        <time>2013-12-14T15:21:58Z</time>
      </trkpt>
      <trkpt lat="43.36185" lon="6.15407">
        <ele>401.79998779297</ele>
        <time>2013-12-14T15:22:00Z</time>
      </trkpt>
      <trkpt lat="43.36186" lon="6.15412">
        <ele>401.39999389648</ele>
        <time>2013-12-14T15:22:01Z</time>
      </trkpt>
      <trkpt lat="43.3619" lon="6.15422">
        <ele>400.39999389648</ele>
        <time>2013-12-14T15:22:04Z</time>
      </trkpt>
      <trkpt lat="43.36191" lon="6.15426">
        <ele>400</ele>
        <time>2013-12-14T15:22:05Z</time>
      </trkpt>
      <trkpt lat="43.36191" lon="6.15434">
        <ele>399</ele>
        <time>2013-12-14T15:22:08Z</time>
      </trkpt>
      <trkpt lat="43.36191" lon="6.15438">
        <ele>398.60000610352</ele>
        <time>2013-12-14T15:22:09Z</time>
      </trkpt>
      <trkpt lat="43.3619" lon="6.1544">
        <ele>398</ele>
        <time>2013-12-14T15:22:10Z</time>
      </trkpt>
      <trkpt lat="43.36188" lon="6.15455">
        <ele>396.20001220703</ele>
        <time>2013-12-14T15:22:15Z</time>
      </trkpt>
      <trkpt lat="43.36188" lon="6.15458">
        <ele>395.79998779297</ele>
        <time>2013-12-14T15:22:16Z</time>
      </trkpt>
      <trkpt lat="43.36187" lon="6.15462">
        <ele>395.39999389648</ele>
        <time>2013-12-14T15:22:17Z</time>
      </trkpt>
      <trkpt lat="43.36185" lon="6.1547">
        <ele>394.60000610352</ele>
        <time>2013-12-14T15:22:19Z</time>
      </trkpt>
      <trkpt lat="43.36185" lon="6.15479">
        <ele>394.20001220703</ele>
        <time>2013-12-14T15:22:21Z</time>
      </trkpt>
      <trkpt lat="43.36185" lon="6.15483">
        <ele>393.79998779297</ele>
        <time>2013-12-14T15:22:22Z</time>
      </trkpt>
      <trkpt lat="43.36184" lon="6.15485">
        <ele>393.39999389648</ele>
        <time>2013-12-14T15:22:23Z</time>
      </trkpt>
      <trkpt lat="43.36184" lon="6.15487">
        <ele>393</ele>
        <time>2013-12-14T15:22:24Z</time>
      </trkpt>
      <trkpt lat="43.36184" lon="6.15487">
        <ele>392.60000610352</ele>
        <time>2013-12-14T15:22:25Z</time>
      </trkpt>
      <trkpt lat="43.36184" lon="6.15487">
        <ele>392.60000610352</ele>
        <time>2013-12-14T15:22:26Z</time>
      </trkpt>
      <trkpt lat="43.36184" lon="6.15487">
        <ele>392</ele>
        <time>2013-12-14T15:22:27Z</time>
      </trkpt>
      <trkpt lat="43.36184" lon="6.15487">
        <ele>390.39999389648</ele>
        <time>2013-12-14T15:22:46Z</time>
      </trkpt>
      <trkpt lat="43.36184" lon="6.15487">
        <ele>390.39999389648</ele>
        <time>2013-12-14T15:23:06Z</time>
      </trkpt>
      <trkpt lat="43.36184" lon="6.15489">
        <ele>390.39999389648</ele>
        <time>2013-12-14T15:23:12Z</time>
      </trkpt>
      <trkpt lat="43.36183" lon="6.15501">
        <ele>390.39999389648</ele>
        <time>2013-12-14T15:23:16Z</time>
      </trkpt>
      <trkpt lat="43.36182" lon="6.15507">
        <ele>390.39999389648</ele>
        <time>2013-12-14T15:23:17Z</time>
      </trkpt>
      <trkpt lat="43.3618" lon="6.15518">
        <ele>390</ele>
        <time>2013-12-14T15:23:19Z</time>
      </trkpt>
      <trkpt lat="43.36181" lon="6.15524">
        <ele>389.60000610352</ele>
        <time>2013-12-14T15:23:20Z</time>
      </trkpt>
      <trkpt lat="43.36179" lon="6.15534">
        <ele>388.60000610352</ele>
        <time>2013-12-14T15:23:22Z</time>
      </trkpt>
      <trkpt lat="43.36177" lon="6.1554">
        <ele>388.20001220703</ele>
        <time>2013-12-14T15:23:23Z</time>
      </trkpt>
      <trkpt lat="43.36176" lon="6.15545">
        <ele>388.20001220703</ele>
        <time>2013-12-14T15:23:24Z</time>
      </trkpt>
      <trkpt lat="43.36174" lon="6.1555">
        <ele>387.79998779297</ele>
        <time>2013-12-14T15:23:25Z</time>
      </trkpt>
      <trkpt lat="43.36172" lon="6.15555">
        <ele>387.39999389648</ele>
        <time>2013-12-14T15:23:26Z</time>
      </trkpt>
      <trkpt lat="43.3617" lon="6.1556">
        <ele>386.79998779297</ele>
        <time>2013-12-14T15:23:27Z</time>
      </trkpt>
      <trkpt lat="43.36168" lon="6.15576">
        <ele>385.60000610352</ele>
        <time>2013-12-14T15:23:30Z</time>
      </trkpt>
      <trkpt lat="43.36158" lon="6.15602">
        <ele>383.20001220703</ele>
        <time>2013-12-14T15:23:35Z</time>
      </trkpt>
      <trkpt lat="43.36154" lon="6.15617">
        <ele>381.60000610352</ele>
        <time>2013-12-14T15:23:38Z</time>
      </trkpt>
      <trkpt lat="43.36151" lon="6.15639">
        <ele>380.60000610352</ele>
        <time>2013-12-14T15:23:41Z</time>
      </trkpt>
      <trkpt lat="43.36152" lon="6.15649">
        <ele>379.20001220703</ele>
        <time>2013-12-14T15:23:43Z</time>
      </trkpt>
      <trkpt lat="43.36152" lon="6.1566">
        <ele>378.20001220703</ele>
        <time>2013-12-14T15:23:45Z</time>
      </trkpt>
      <trkpt lat="43.36152" lon="6.1569">
        <ele>375.39999389648</ele>
        <time>2013-12-14T15:23:50Z</time>
      </trkpt>
      <trkpt lat="43.36152" lon="6.15695">
        <ele>374.79998779297</ele>
        <time>2013-12-14T15:23:51Z</time>
      </trkpt>
      <trkpt lat="43.36155" lon="6.15706">
        <ele>373.60000610352</ele>
        <time>2013-12-14T15:23:53Z</time>
      </trkpt>
      <trkpt lat="43.3616" lon="6.15717">
        <ele>372.20001220703</ele>
        <time>2013-12-14T15:23:56Z</time>
      </trkpt>
      <trkpt lat="43.3616" lon="6.15734">
        <ele>370.79998779297</ele>
        <time>2013-12-14T15:23:59Z</time>
      </trkpt>
      <trkpt lat="43.36164" lon="6.15739">
        <ele>370.39999389648</ele>
        <time>2013-12-14T15:24:01Z</time>
      </trkpt>
      <trkpt lat="43.36169" lon="6.15748">
        <ele>369.60000610352</ele>
        <time>2013-12-14T15:24:03Z</time>
      </trkpt>
      <trkpt lat="43.36169" lon="6.15753">
        <ele>369.20001220703</ele>
        <time>2013-12-14T15:24:04Z</time>
      </trkpt>
      <trkpt lat="43.3617" lon="6.15764">
        <ele>368.20001220703</ele>
        <time>2013-12-14T15:24:06Z</time>
      </trkpt>
      <trkpt lat="43.36169" lon="6.15775">
        <ele>367</ele>
        <time>2013-12-14T15:24:08Z</time>
      </trkpt>
      <trkpt lat="43.36169" lon="6.1578">
        <ele>366.60000610352</ele>
        <time>2013-12-14T15:24:09Z</time>
      </trkpt>
      <trkpt lat="43.36171" lon="6.15784">
        <ele>366</ele>
        <time>2013-12-14T15:24:10Z</time>
      </trkpt>
      <trkpt lat="43.36175" lon="6.15794">
        <ele>365</ele>
        <time>2013-12-14T15:24:12Z</time>
      </trkpt>
      <trkpt lat="43.36179" lon="6.15798">
        <ele>364.39999389648</ele>
        <time>2013-12-14T15:24:13Z</time>
      </trkpt>
      <trkpt lat="43.36182" lon="6.15802">
        <ele>363.79998779297</ele>
        <time>2013-12-14T15:24:14Z</time>
      </trkpt>
      <trkpt lat="43.36187" lon="6.15806">
        <ele>363.20001220703</ele>
        <time>2013-12-14T15:24:15Z</time>
      </trkpt>
      <trkpt lat="43.36191" lon="6.1581">
        <ele>362.60000610352</ele>
        <time>2013-12-14T15:24:16Z</time>
      </trkpt>
      <trkpt lat="43.36195" lon="6.15816">
        <ele>362</ele>
        <time>2013-12-14T15:24:17Z</time>
      </trkpt>
      <trkpt lat="43.362" lon="6.15822">
        <ele>361.39999389648</ele>
        <time>2013-12-14T15:24:18Z</time>
      </trkpt>
      <trkpt lat="43.36204" lon="6.15829">
        <ele>360.79998779297</ele>
        <time>2013-12-14T15:24:19Z</time>
      </trkpt>
      <trkpt lat="43.36208" lon="6.15836">
        <ele>360</ele>
        <time>2013-12-14T15:24:20Z</time>
      </trkpt>
      <trkpt lat="43.36212" lon="6.15842">
        <ele>359.39999389648</ele>
        <time>2013-12-14T15:24:21Z</time>
      </trkpt>
      <trkpt lat="43.36217" lon="6.15846">
        <ele>358.60000610352</ele>
        <time>2013-12-14T15:24:22Z</time>
      </trkpt>
      <trkpt lat="43.36221" lon="6.1585">
        <ele>357.79998779297</ele>
        <time>2013-12-14T15:24:23Z</time>
      </trkpt>
      <trkpt lat="43.36224" lon="6.1585">
        <ele>357</ele>
        <time>2013-12-14T15:24:24Z</time>
      </trkpt>
      <trkpt lat="43.36227" lon="6.1585">
        <ele>356.20001220703</ele>
        <time>2013-12-14T15:24:25Z</time>
      </trkpt>
      <trkpt lat="43.3623" lon="6.1585">
        <ele>355.39999389648</ele>
        <time>2013-12-14T15:24:26Z</time>
      </trkpt>
      <trkpt lat="43.36232" lon="6.15851">
        <ele>354.60000610352</ele>
        <time>2013-12-14T15:24:27Z</time>
      </trkpt>
      <trkpt lat="43.36233" lon="6.15852">
        <ele>354.60000610352</ele>
        <time>2013-12-14T15:24:29Z</time>
      </trkpt>
      <trkpt lat="43.36233" lon="6.15852">
        <ele>354.60000610352</ele>
        <time>2013-12-14T15:24:40Z</time>
      </trkpt>
      <trkpt lat="43.36233" lon="6.15852">
        <ele>354.60000610352</ele>
        <time>2013-12-14T15:24:52Z</time>
      </trkpt>
      <trkpt lat="43.36233" lon="6.15852">
        <ele>354.60000610352</ele>
        <time>2013-12-14T15:25:10Z</time>
      </trkpt>
      <trkpt lat="43.36233" lon="6.15852">
        <ele>354.60000610352</ele>
        <time>2013-12-14T15:25:22Z</time>
      </trkpt>
      <trkpt lat="43.36237" lon="6.15844">
        <ele>354.60000610352</ele>
        <time>2013-12-14T15:25:27Z</time>
      </trkpt>
      <trkpt lat="43.36237" lon="6.15841">
        <ele>354.60000610352</ele>
        <time>2013-12-14T15:25:28Z</time>
      </trkpt>
      <trkpt lat="43.36237" lon="6.15831">
        <ele>354.60000610352</ele>
        <time>2013-12-14T15:25:31Z</time>
      </trkpt>
      <trkpt lat="43.36236" lon="6.1582">
        <ele>354.60000610352</ele>
        <time>2013-12-14T15:25:34Z</time>
      </trkpt>
      <trkpt lat="43.36237" lon="6.15812">
        <ele>354.60000610352</ele>
        <time>2013-12-14T15:25:36Z</time>
      </trkpt>
      <trkpt lat="43.3624" lon="6.15798">
        <ele>354.60000610352</ele>
        <time>2013-12-14T15:25:39Z</time>
      </trkpt>
      <trkpt lat="43.36238" lon="6.15782">
        <ele>354.60000610352</ele>
        <time>2013-12-14T15:25:42Z</time>
      </trkpt>
      <trkpt lat="43.36239" lon="6.15765">
        <ele>354.60000610352</ele>
        <time>2013-12-14T15:25:46Z</time>
      </trkpt>
      <trkpt lat="43.36239" lon="6.15741">
        <ele>354.20001220703</ele>
        <time>2013-12-14T15:25:50Z</time>
      </trkpt>
      <trkpt lat="43.36238" lon="6.15721">
        <ele>353</ele>
        <time>2013-12-14T15:25:53Z</time>
      </trkpt>
      <trkpt lat="43.36238" lon="6.15695">
        <ele>352.60000610352</ele>
        <time>2013-12-14T15:25:57Z</time>
      </trkpt>
      <trkpt lat="43.36241" lon="6.15679">
        <ele>352.60000610352</ele>
        <time>2013-12-14T15:26:00Z</time>
      </trkpt>
      <trkpt lat="43.36244" lon="6.15674">
        <ele>352.60000610352</ele>
        <time>2013-12-14T15:26:01Z</time>
      </trkpt>
      <trkpt lat="43.36262" lon="6.15657">
        <ele>352.60000610352</ele>
        <time>2013-12-14T15:26:06Z</time>
      </trkpt>
      <trkpt lat="43.36268" lon="6.15649">
        <ele>352.60000610352</ele>
        <time>2013-12-14T15:26:08Z</time>
      </trkpt>
      <trkpt lat="43.36271" lon="6.15639">
        <ele>352.60000610352</ele>
        <time>2013-12-14T15:26:10Z</time>
      </trkpt>
      <trkpt lat="43.36274" lon="6.1562">
        <ele>352.60000610352</ele>
        <time>2013-12-14T15:26:14Z</time>
      </trkpt>
      <trkpt lat="43.36275" lon="6.15596">
        <ele>352.60000610352</ele>
        <time>2013-12-14T15:26:18Z</time>
      </trkpt>
      <trkpt lat="43.36273" lon="6.15566">
        <ele>352.20001220703</ele>
        <time>2013-12-14T15:26:22Z</time>
      </trkpt>
      <trkpt lat="43.36272" lon="6.1556">
        <ele>351.79998779297</ele>
        <time>2013-12-14T15:26:23Z</time>
      </trkpt>
      <trkpt lat="43.36274" lon="6.15555">
        <ele>351.39999389648</ele>
        <time>2013-12-14T15:26:24Z</time>
      </trkpt>
      <trkpt lat="43.36275" lon="6.15551">
        <ele>350.79998779297</ele>
        <time>2013-12-14T15:26:25Z</time>
      </trkpt>
      <trkpt lat="43.36278" lon="6.15547">
        <ele>350.39999389648</ele>
        <time>2013-12-14T15:26:26Z</time>
      </trkpt>
      <trkpt lat="43.36282" lon="6.1553">
        <ele>350.39999389648</ele>
        <time>2013-12-14T15:26:29Z</time>
      </trkpt>
      <trkpt lat="43.36282" lon="6.15523">
        <ele>350.39999389648</ele>
        <time>2013-12-14T15:26:31Z</time>
      </trkpt>
      <trkpt lat="43.36283" lon="6.15519">
        <ele>350.39999389648</ele>
        <time>2013-12-14T15:26:33Z</time>
      </trkpt>
      <trkpt lat="43.36292" lon="6.15511">
        <ele>350.39999389648</ele>
        <time>2013-12-14T15:26:37Z</time>
      </trkpt>
      <trkpt lat="43.36318" lon="6.15487">
        <ele>350.39999389648</ele>
        <time>2013-12-14T15:26:47Z</time>
      </trkpt>
      <trkpt lat="43.36335" lon="6.1547">
        <ele>350.39999389648</ele>
        <time>2013-12-14T15:26:53Z</time>
      </trkpt>
      <trkpt lat="43.36353" lon="6.15458">
        <ele>350.39999389648</ele>
        <time>2013-12-14T15:26:59Z</time>
      </trkpt>
      <trkpt lat="43.36364" lon="6.15448">
        <ele>350.39999389648</ele>
        <time>2013-12-14T15:27:04Z</time>
      </trkpt>
      <trkpt lat="43.36377" lon="6.15434">
        <ele>350.39999389648</ele>
        <time>2013-12-14T15:27:10Z</time>
      </trkpt>
      <trkpt lat="43.36391" lon="6.15418">
        <ele>350.39999389648</ele>
        <time>2013-12-14T15:27:16Z</time>
      </trkpt>
      <trkpt lat="43.36398" lon="6.15405">
        <ele>350.39999389648</ele>
        <time>2013-12-14T15:27:20Z</time>
      </trkpt>
      <trkpt lat="43.36405" lon="6.15394">
        <ele>350.39999389648</ele>
        <time>2013-12-14T15:27:24Z</time>
      </trkpt>
      <trkpt lat="43.36414" lon="6.15383">
        <ele>350.39999389648</ele>
        <time>2013-12-14T15:27:29Z</time>
      </trkpt>
      <trkpt lat="43.3642" lon="6.1537">
        <ele>350.39999389648</ele>
        <time>2013-12-14T15:27:34Z</time>
      </trkpt>
      <trkpt lat="43.3643" lon="6.15355">
        <ele>350.39999389648</ele>
        <time>2013-12-14T15:27:38Z</time>
      </trkpt>
      <trkpt lat="43.36436" lon="6.15354">
        <ele>350.39999389648</ele>
        <time>2013-12-14T15:27:41Z</time>
      </trkpt>
      <trkpt lat="43.36438" lon="6.15355">
        <ele>350.39999389648</ele>
        <time>2013-12-14T15:27:42Z</time>
      </trkpt>
      <trkpt lat="43.36441" lon="6.15358">
        <ele>350.39999389648</ele>
        <time>2013-12-14T15:27:44Z</time>
      </trkpt>
      <trkpt lat="43.36444" lon="6.15363">
        <ele>350.39999389648</ele>
        <time>2013-12-14T15:27:46Z</time>
      </trkpt>
      <trkpt lat="43.36447" lon="6.1537">
        <ele>350.39999389648</ele>
        <time>2013-12-14T15:27:49Z</time>
      </trkpt>
      <trkpt lat="43.36448" lon="6.15369">
        <ele>349.60000610352</ele>
        <time>2013-12-14T15:27:50Z</time>
      </trkpt>
      <trkpt lat="43.36449" lon="6.1537">
        <ele>349.20001220703</ele>
        <time>2013-12-14T15:27:51Z</time>
      </trkpt>
      <trkpt lat="43.36449" lon="6.1537">
        <ele>348.79998779297</ele>
        <time>2013-12-14T15:27:52Z</time>
      </trkpt>
      <trkpt lat="43.36449" lon="6.1537">
        <ele>348.39999389648</ele>
        <time>2013-12-14T15:27:53Z</time>
      </trkpt>
      <trkpt lat="43.36449" lon="6.1537">
        <ele>348.39999389648</ele>
        <time>2013-12-14T15:28:02Z</time>
      </trkpt>
      <trkpt lat="43.36451" lon="6.1537">
        <ele>348.39999389648</ele>
        <time>2013-12-14T15:28:07Z</time>
      </trkpt>
      <trkpt lat="43.36455" lon="6.15366">
        <ele>348.39999389648</ele>
        <time>2013-12-14T15:28:13Z</time>
      </trkpt>
      <trkpt lat="43.3646" lon="6.15363">
        <ele>348.39999389648</ele>
        <time>2013-12-14T15:28:16Z</time>
      </trkpt>
      <trkpt lat="43.36463" lon="6.1536">
        <ele>348.39999389648</ele>
        <time>2013-12-14T15:28:18Z</time>
      </trkpt>
      <trkpt lat="43.36464" lon="6.15358">
        <ele>348.39999389648</ele>
        <time>2013-12-14T15:28:19Z</time>
      </trkpt>
      <trkpt lat="43.36468" lon="6.15352">
        <ele>348.39999389648</ele>
        <time>2013-12-14T15:28:22Z</time>
      </trkpt>
      <trkpt lat="43.36473" lon="6.15347">
        <ele>348.39999389648</ele>
        <time>2013-12-14T15:28:25Z</time>
      </trkpt>
      <trkpt lat="43.36478" lon="6.1534">
        <ele>348.39999389648</ele>
        <time>2013-12-14T15:28:31Z</time>
      </trkpt>
      <trkpt lat="43.3648" lon="6.15337">
        <ele>348.39999389648</ele>
        <time>2013-12-14T15:28:36Z</time>
      </trkpt>
      <trkpt lat="43.3648" lon="6.15334">
        <ele>348.39999389648</ele>
        <time>2013-12-14T15:28:38Z</time>
      </trkpt>
      <trkpt lat="43.36477" lon="6.1532">
        <ele>348.39999389648</ele>
        <time>2013-12-14T15:28:43Z</time>
      </trkpt>
      <trkpt lat="43.3648" lon="6.15307">
        <ele>348.39999389648</ele>
        <time>2013-12-14T15:28:46Z</time>
      </trkpt>
      <trkpt lat="43.36484" lon="6.15296">
        <ele>347.39999389648</ele>
        <time>2013-12-14T15:28:48Z</time>
      </trkpt>
      <trkpt lat="43.36486" lon="6.15291">
        <ele>347</ele>
        <time>2013-12-14T15:28:49Z</time>
      </trkpt>
      <trkpt lat="43.36493" lon="6.1527">
        <ele>346.20001220703</ele>
        <time>2013-12-14T15:28:53Z</time>
      </trkpt>
      <trkpt lat="43.36503" lon="6.15258">
        <ele>346.20001220703</ele>
        <time>2013-12-14T15:28:57Z</time>
      </trkpt>
      <trkpt lat="43.36506" lon="6.15254">
        <ele>346.20001220703</ele>
        <time>2013-12-14T15:28:58Z</time>
      </trkpt>
      <trkpt lat="43.36517" lon="6.15243">
        <ele>345.79998779297</ele>
        <time>2013-12-14T15:29:01Z</time>
      </trkpt>
      <trkpt lat="43.36538" lon="6.15224">
        <ele>344.20001220703</ele>
        <time>2013-12-14T15:29:06Z</time>
      </trkpt>
      <trkpt lat="43.36545" lon="6.15216">
        <ele>343.20001220703</ele>
        <time>2013-12-14T15:29:08Z</time>
      </trkpt>
      <trkpt lat="43.36551" lon="6.15203">
        <ele>341.79998779297</ele>
        <time>2013-12-14T15:29:11Z</time>
      </trkpt>
      <trkpt lat="43.36554" lon="6.15179">
        <ele>341.79998779297</ele>
        <time>2013-12-14T15:29:15Z</time>
      </trkpt>
      <trkpt lat="43.36554" lon="6.15165">
        <ele>341.39999389648</ele>
        <time>2013-12-14T15:29:17Z</time>
      </trkpt>
      <trkpt lat="43.36554" lon="6.15144">
        <ele>340</ele>
        <time>2013-12-14T15:29:20Z</time>
      </trkpt>
      <trkpt lat="43.36554" lon="6.15137">
        <ele>339.60000610352</ele>
        <time>2013-12-14T15:29:21Z</time>
      </trkpt>
      <trkpt lat="43.3655" lon="6.15112">
        <ele>339.60000610352</ele>
        <time>2013-12-14T15:29:25Z</time>
      </trkpt>
      <trkpt lat="43.36549" lon="6.15105">
        <ele>339.20001220703</ele>
        <time>2013-12-14T15:29:26Z</time>
      </trkpt>
      <trkpt lat="43.3655" lon="6.15092">
        <ele>338.20001220703</ele>
        <time>2013-12-14T15:29:28Z</time>
      </trkpt>
      <trkpt lat="43.3655" lon="6.15078">
        <ele>337.39999389648</ele>
        <time>2013-12-14T15:29:30Z</time>
      </trkpt>
      <trkpt lat="43.36552" lon="6.15038">
        <ele>337.39999389648</ele>
        <time>2013-12-14T15:29:36Z</time>
      </trkpt>
      <trkpt lat="43.36553" lon="6.15009">
        <ele>337.39999389648</ele>
        <time>2013-12-14T15:29:41Z</time>
      </trkpt>
      <trkpt lat="43.36551" lon="6.14983">
        <ele>337.39999389648</ele>
        <time>2013-12-14T15:29:45Z</time>
      </trkpt>
      <trkpt lat="43.36542" lon="6.14917">
        <ele>337.39999389648</ele>
        <time>2013-12-14T15:29:56Z</time>
      </trkpt>
      <trkpt lat="43.36539" lon="6.149">
        <ele>337.39999389648</ele>
        <time>2013-12-14T15:29:59Z</time>
      </trkpt>
      <trkpt lat="43.36535" lon="6.14875">
        <ele>337</ele>
        <time>2013-12-14T15:30:03Z</time>
      </trkpt>
      <trkpt lat="43.36535" lon="6.14869">
        <ele>336.60000610352</ele>
        <time>2013-12-14T15:30:04Z</time>
      </trkpt>
      <trkpt lat="43.36535" lon="6.14862">
        <ele>336.20001220703</ele>
        <time>2013-12-14T15:30:05Z</time>
      </trkpt>
      <trkpt lat="43.36533" lon="6.14856">
        <ele>335.60000610352</ele>
        <time>2013-12-14T15:30:06Z</time>
      </trkpt>
      <trkpt lat="43.36529" lon="6.14839">
        <ele>335.20001220703</ele>
        <time>2013-12-14T15:30:09Z</time>
      </trkpt>
      <trkpt lat="43.36525" lon="6.14825">
        <ele>334.79998779297</ele>
        <time>2013-12-14T15:30:11Z</time>
      </trkpt>
      <trkpt lat="43.36523" lon="6.14818">
        <ele>334.20001220703</ele>
        <time>2013-12-14T15:30:12Z</time>
      </trkpt>
      <trkpt lat="43.36519" lon="6.148">
        <ele>333.20001220703</ele>
        <time>2013-12-14T15:30:14Z</time>
      </trkpt>
      <trkpt lat="43.36518" lon="6.1479">
        <ele>332.39999389648</ele>
        <time>2013-12-14T15:30:15Z</time>
      </trkpt>
      <trkpt lat="43.36517" lon="6.14779">
        <ele>331.79998779297</ele>
        <time>2013-12-14T15:30:16Z</time>
      </trkpt>
      <trkpt lat="43.36517" lon="6.14768">
        <ele>331.20001220703</ele>
        <time>2013-12-14T15:30:17Z</time>
      </trkpt>
      <trkpt lat="43.36519" lon="6.14758">
        <ele>329.60000610352</ele>
        <time>2013-12-14T15:30:18Z</time>
      </trkpt>
      <trkpt lat="43.3652" lon="6.14747">
        <ele>329</ele>
        <time>2013-12-14T15:30:19Z</time>
      </trkpt>
      <trkpt lat="43.3652" lon="6.14737">
        <ele>328.20001220703</ele>
        <time>2013-12-14T15:30:20Z</time>
      </trkpt>
      <trkpt lat="43.36521" lon="6.14728">
        <ele>327.39999389648</ele>
        <time>2013-12-14T15:30:21Z</time>
      </trkpt>
      <trkpt lat="43.36521" lon="6.14718">
        <ele>326.60000610352</ele>
        <time>2013-12-14T15:30:22Z</time>
      </trkpt>
      <trkpt lat="43.36522" lon="6.14707">
        <ele>325.79998779297</ele>
        <time>2013-12-14T15:30:23Z</time>
      </trkpt>
      <trkpt lat="43.3652" lon="6.1468">
        <ele>323.39999389648</ele>
        <time>2013-12-14T15:30:26Z</time>
      </trkpt>
      <trkpt lat="43.3652" lon="6.14672">
        <ele>322.60000610352</ele>
        <time>2013-12-14T15:30:27Z</time>
      </trkpt>
      <trkpt lat="43.3652" lon="6.14665">
        <ele>321.60000610352</ele>
        <time>2013-12-14T15:30:28Z</time>
      </trkpt>
      <trkpt lat="43.36523" lon="6.14657">
        <ele>320.79998779297</ele>
        <time>2013-12-14T15:30:29Z</time>
      </trkpt>
      <trkpt lat="43.36523" lon="6.14646">
        <ele>320</ele>
        <time>2013-12-14T15:30:30Z</time>
      </trkpt>
      <trkpt lat="43.36524" lon="6.14628">
        <ele>318.20001220703</ele>
        <time>2013-12-14T15:30:32Z</time>
      </trkpt>
      <trkpt lat="43.36525" lon="6.14618">
        <ele>317.39999389648</ele>
        <time>2013-12-14T15:30:33Z</time>
      </trkpt>
      <trkpt lat="43.36527" lon="6.14587">
        <ele>315.20001220703</ele>
        <time>2013-12-14T15:30:36Z</time>
      </trkpt>
      <trkpt lat="43.36527" lon="6.14576">
        <ele>314.60000610352</ele>
        <time>2013-12-14T15:30:37Z</time>
      </trkpt>
      <trkpt lat="43.36528" lon="6.14564">
        <ele>313.79998779297</ele>
        <time>2013-12-14T15:30:38Z</time>
      </trkpt>
      <trkpt lat="43.36528" lon="6.14553">
        <ele>313.20001220703</ele>
        <time>2013-12-14T15:30:39Z</time>
      </trkpt>
      <trkpt lat="43.36528" lon="6.14542">
        <ele>312.79998779297</ele>
        <time>2013-12-14T15:30:40Z</time>
      </trkpt>
      <trkpt lat="43.36527" lon="6.1453">
        <ele>312.39999389648</ele>
        <time>2013-12-14T15:30:41Z</time>
      </trkpt>
      <trkpt lat="43.36526" lon="6.14519">
        <ele>311.79998779297</ele>
        <time>2013-12-14T15:30:42Z</time>
      </trkpt>
      <trkpt lat="43.36525" lon="6.14507">
        <ele>311</ele>
        <time>2013-12-14T15:30:43Z</time>
      </trkpt>
      <trkpt lat="43.36526" lon="6.14496">
        <ele>310.39999389648</ele>
        <time>2013-12-14T15:30:44Z</time>
      </trkpt>
      <trkpt lat="43.36528" lon="6.14484">
        <ele>310</ele>
        <time>2013-12-14T15:30:45Z</time>
      </trkpt>
      <trkpt lat="43.3653" lon="6.14474">
        <ele>309.39999389648</ele>
        <time>2013-12-14T15:30:46Z</time>
      </trkpt>
      <trkpt lat="43.36532" lon="6.14465">
        <ele>309</ele>
        <time>2013-12-14T15:30:47Z</time>
      </trkpt>
      <trkpt lat="43.36538" lon="6.14447">
        <ele>309</ele>
        <time>2013-12-14T15:30:49Z</time>
      </trkpt>
      <trkpt lat="43.36538" lon="6.14438">
        <ele>309</ele>
        <time>2013-12-14T15:30:50Z</time>
      </trkpt>
      <trkpt lat="43.36537" lon="6.14421">
        <ele>308.60000610352</ele>
        <time>2013-12-14T15:30:52Z</time>
      </trkpt>
      <trkpt lat="43.36536" lon="6.14413">
        <ele>308.20001220703</ele>
        <time>2013-12-14T15:30:53Z</time>
      </trkpt>
      <trkpt lat="43.36533" lon="6.14404">
        <ele>307.79998779297</ele>
        <time>2013-12-14T15:30:54Z</time>
      </trkpt>
      <trkpt lat="43.36531" lon="6.14397">
        <ele>307.20001220703</ele>
        <time>2013-12-14T15:30:55Z</time>
      </trkpt>
      <trkpt lat="43.36529" lon="6.14392">
        <ele>306.79998779297</ele>
        <time>2013-12-14T15:30:56Z</time>
      </trkpt>
      <trkpt lat="43.36524" lon="6.14383">
        <ele>306.79998779297</ele>
        <time>2013-12-14T15:30:59Z</time>
      </trkpt>
      <trkpt lat="43.36521" lon="6.1437">
        <ele>306.79998779297</ele>
        <time>2013-12-14T15:31:05Z</time>
      </trkpt>
      <trkpt lat="43.36517" lon="6.14347">
        <ele>306</ele>
        <time>2013-12-14T15:31:10Z</time>
      </trkpt>
      <trkpt lat="43.36516" lon="6.14335">
        <ele>305.20001220703</ele>
        <time>2013-12-14T15:31:12Z</time>
      </trkpt>
      <trkpt lat="43.36517" lon="6.1433">
        <ele>304.60000610352</ele>
        <time>2013-12-14T15:31:13Z</time>
      </trkpt>
      <trkpt lat="43.36518" lon="6.14314">
        <ele>304.60000610352</ele>
        <time>2013-12-14T15:31:17Z</time>
      </trkpt>
      <trkpt lat="43.3652" lon="6.14311">
        <ele>304.60000610352</ele>
        <time>2013-12-14T15:31:20Z</time>
      </trkpt>
      <trkpt lat="43.36522" lon="6.14307">
        <ele>304.60000610352</ele>
        <time>2013-12-14T15:31:22Z</time>
      </trkpt>
      <trkpt lat="43.36523" lon="6.14302">
        <ele>304.60000610352</ele>
        <time>2013-12-14T15:31:23Z</time>
      </trkpt>
      <trkpt lat="43.36525" lon="6.14294">
        <ele>304.60000610352</ele>
        <time>2013-12-14T15:31:25Z</time>
      </trkpt>
      <trkpt lat="43.3653" lon="6.14272">
        <ele>304.60000610352</ele>
        <time>2013-12-14T15:31:29Z</time>
      </trkpt>
      <trkpt lat="43.36533" lon="6.14249">
        <ele>304.60000610352</ele>
        <time>2013-12-14T15:31:33Z</time>
      </trkpt>
      <trkpt lat="43.36535" lon="6.14237">
        <ele>304.60000610352</ele>
        <time>2013-12-14T15:31:35Z</time>
      </trkpt>
      <trkpt lat="43.36536" lon="6.1423">
        <ele>304.20001220703</ele>
        <time>2013-12-14T15:31:36Z</time>
      </trkpt>
      <trkpt lat="43.36537" lon="6.14218">
        <ele>303.39999389648</ele>
        <time>2013-12-14T15:31:38Z</time>
      </trkpt>
      <trkpt lat="43.36538" lon="6.14205">
        <ele>302.60000610352</ele>
        <time>2013-12-14T15:31:40Z</time>
      </trkpt>
      <trkpt lat="43.36539" lon="6.14199">
        <ele>302.60000610352</ele>
        <time>2013-12-14T15:31:41Z</time>
      </trkpt>
      <trkpt lat="43.36539" lon="6.14187">
        <ele>302.60000610352</ele>
        <time>2013-12-14T15:31:43Z</time>
      </trkpt>
      <trkpt lat="43.36536" lon="6.1417">
        <ele>302.60000610352</ele>
        <time>2013-12-14T15:31:46Z</time>
      </trkpt>
      <trkpt lat="43.36534" lon="6.14157">
        <ele>301.39999389648</ele>
        <time>2013-12-14T15:31:49Z</time>
      </trkpt>
      <trkpt lat="43.36531" lon="6.14149">
        <ele>300.39999389648</ele>
        <time>2013-12-14T15:31:51Z</time>
      </trkpt>
      <trkpt lat="43.36526" lon="6.14117">
        <ele>300</ele>
        <time>2013-12-14T15:31:58Z</time>
      </trkpt>
      <trkpt lat="43.36526" lon="6.14109">
        <ele>299.20001220703</ele>
        <time>2013-12-14T15:32:00Z</time>
      </trkpt>
      <trkpt lat="43.36523" lon="6.14098">
        <ele>298.39999389648</ele>
        <time>2013-12-14T15:32:02Z</time>
      </trkpt>
      <trkpt lat="43.36522" lon="6.14084">
        <ele>298.39999389648</ele>
        <time>2013-12-14T15:32:05Z</time>
      </trkpt>
      <trkpt lat="43.36523" lon="6.14079">
        <ele>298</ele>
        <time>2013-12-14T15:32:06Z</time>
      </trkpt>
      <trkpt lat="43.36523" lon="6.14064">
        <ele>296.60000610352</ele>
        <time>2013-12-14T15:32:09Z</time>
      </trkpt>
      <trkpt lat="43.36523" lon="6.14051">
        <ele>295.79998779297</ele>
        <time>2013-12-14T15:32:11Z</time>
      </trkpt>
      <trkpt lat="43.36523" lon="6.14038">
        <ele>295</ele>
        <time>2013-12-14T15:32:13Z</time>
      </trkpt>
      <trkpt lat="43.36525" lon="6.14025">
        <ele>294.20001220703</ele>
        <time>2013-12-14T15:32:15Z</time>
      </trkpt>
      <trkpt lat="43.36528" lon="6.14002">
        <ele>294.20001220703</ele>
        <time>2013-12-14T15:32:19Z</time>
      </trkpt>
      <trkpt lat="43.36528" lon="6.13984">
        <ele>294.20001220703</ele>
        <time>2013-12-14T15:32:22Z</time>
      </trkpt>
      <trkpt lat="43.36528" lon="6.13978">
        <ele>294.20001220703</ele>
        <time>2013-12-14T15:32:23Z</time>
      </trkpt>
      <trkpt lat="43.36523" lon="6.13948">
        <ele>293.79998779297</ele>
        <time>2013-12-14T15:32:27Z</time>
      </trkpt>
      <trkpt lat="43.36523" lon="6.13932">
        <ele>293</ele>
        <time>2013-12-14T15:32:29Z</time>
      </trkpt>
      <trkpt lat="43.36525" lon="6.13915">
        <ele>292.20001220703</ele>
        <time>2013-12-14T15:32:31Z</time>
      </trkpt>
      <trkpt lat="43.36527" lon="6.13896">
        <ele>292.20001220703</ele>
        <time>2013-12-14T15:32:33Z</time>
      </trkpt>
      <trkpt lat="43.36531" lon="6.13865">
        <ele>290.79998779297</ele>
        <time>2013-12-14T15:32:36Z</time>
      </trkpt>
      <trkpt lat="43.36532" lon="6.13844">
        <ele>290</ele>
        <time>2013-12-14T15:32:38Z</time>
      </trkpt>
      <trkpt lat="43.36535" lon="6.13812">
        <ele>289.20001220703</ele>
        <time>2013-12-14T15:32:41Z</time>
      </trkpt>
      <trkpt lat="43.36541" lon="6.13779">
        <ele>287.60000610352</ele>
        <time>2013-12-14T15:32:44Z</time>
      </trkpt>
      <trkpt lat="43.36547" lon="6.13731">
        <ele>286</ele>
        <time>2013-12-14T15:32:48Z</time>
      </trkpt>
      <trkpt lat="43.36549" lon="6.13719">
        <ele>285.39999389648</ele>
        <time>2013-12-14T15:32:49Z</time>
      </trkpt>
      <trkpt lat="43.36553" lon="6.13693">
        <ele>284.20001220703</ele>
        <time>2013-12-14T15:32:51Z</time>
      </trkpt>
      <trkpt lat="43.36555" lon="6.1368">
        <ele>283.60000610352</ele>
        <time>2013-12-14T15:32:52Z</time>
      </trkpt>
      <trkpt lat="43.36558" lon="6.13667">
        <ele>283.20001220703</ele>
        <time>2013-12-14T15:32:53Z</time>
      </trkpt>
      <trkpt lat="43.36561" lon="6.13655">
        <ele>282.60000610352</ele>
        <time>2013-12-14T15:32:54Z</time>
      </trkpt>
      <trkpt lat="43.36563" lon="6.13641">
        <ele>282</ele>
        <time>2013-12-14T15:32:55Z</time>
      </trkpt>
      <trkpt lat="43.36565" lon="6.13628">
        <ele>281.20001220703</ele>
        <time>2013-12-14T15:32:56Z</time>
      </trkpt>
      <trkpt lat="43.36568" lon="6.13614">
        <ele>280.60000610352</ele>
        <time>2013-12-14T15:32:57Z</time>
      </trkpt>
      <trkpt lat="43.36571" lon="6.13601">
        <ele>279.79998779297</ele>
        <time>2013-12-14T15:32:58Z</time>
      </trkpt>
      <trkpt lat="43.36574" lon="6.13588">
        <ele>279</ele>
        <time>2013-12-14T15:32:59Z</time>
      </trkpt>
      <trkpt lat="43.36579" lon="6.13578">
        <ele>278.39999389648</ele>
        <time>2013-12-14T15:33:00Z</time>
      </trkpt>
      <trkpt lat="43.36583" lon="6.13566">
        <ele>277.60000610352</ele>
        <time>2013-12-14T15:33:01Z</time>
      </trkpt>
      <trkpt lat="43.36586" lon="6.13555">
        <ele>277</ele>
        <time>2013-12-14T15:33:02Z</time>
      </trkpt>
      <trkpt lat="43.36588" lon="6.13546">
        <ele>276.20001220703</ele>
        <time>2013-12-14T15:33:03Z</time>
      </trkpt>
      <trkpt lat="43.36589" lon="6.13541">
        <ele>275.79998779297</ele>
        <time>2013-12-14T15:33:04Z</time>
      </trkpt>
      <trkpt lat="43.36589" lon="6.13537">
        <ele>275.20001220703</ele>
        <time>2013-12-14T15:33:05Z</time>
      </trkpt>
      <trkpt lat="43.36588" lon="6.13534">
        <ele>274.79998779297</ele>
        <time>2013-12-14T15:33:06Z</time>
      </trkpt>
      <trkpt lat="43.36588" lon="6.13531">
        <ele>274.20001220703</ele>
        <time>2013-12-14T15:33:07Z</time>
      </trkpt>
      <trkpt lat="43.36586" lon="6.13528">
        <ele>273.79998779297</ele>
        <time>2013-12-14T15:33:08Z</time>
      </trkpt>
      <trkpt lat="43.36587" lon="6.13526">
        <ele>273.79998779297</ele>
        <time>2013-12-14T15:33:09Z</time>
      </trkpt>
      <trkpt lat="43.36589" lon="6.13518">
        <ele>273</ele>
        <time>2013-12-14T15:33:11Z</time>
      </trkpt>
      <trkpt lat="43.36589" lon="6.13513">
        <ele>272.60000610352</ele>
        <time>2013-12-14T15:33:12Z</time>
      </trkpt>
      <trkpt lat="43.36589" lon="6.13508">
        <ele>272.20001220703</ele>
        <time>2013-12-14T15:33:13Z</time>
      </trkpt>
      <trkpt lat="43.36588" lon="6.13491">
        <ele>271.79998779297</ele>
        <time>2013-12-14T15:33:16Z</time>
      </trkpt>
      <trkpt lat="43.36588" lon="6.13483">
        <ele>271.39999389648</ele>
        <time>2013-12-14T15:33:18Z</time>
      </trkpt>
      <trkpt lat="43.36588" lon="6.13477">
        <ele>270.79998779297</ele>
        <time>2013-12-14T15:33:19Z</time>
      </trkpt>
      <trkpt lat="43.36588" lon="6.13472">
        <ele>270.39999389648</ele>
        <time>2013-12-14T15:33:20Z</time>
      </trkpt>
      <trkpt lat="43.36588" lon="6.13468">
        <ele>270</ele>
        <time>2013-12-14T15:33:21Z</time>
      </trkpt>
      <trkpt lat="43.36588" lon="6.13463">
        <ele>269.60000610352</ele>
        <time>2013-12-14T15:33:22Z</time>
      </trkpt>
      <trkpt lat="43.36587" lon="6.13461">
        <ele>269.20001220703</ele>
        <time>2013-12-14T15:33:23Z</time>
      </trkpt>
      <trkpt lat="43.36586" lon="6.1346">
        <ele>268.79998779297</ele>
        <time>2013-12-14T15:33:24Z</time>
      </trkpt>
      <trkpt lat="43.36586" lon="6.13459">
        <ele>268.39999389648</ele>
        <time>2013-12-14T15:33:25Z</time>
      </trkpt>
      <trkpt lat="43.36586" lon="6.13459">
        <ele>268</ele>
        <time>2013-12-14T15:33:26Z</time>
      </trkpt>
      <trkpt lat="43.36586" lon="6.13458">
        <ele>267.39999389648</ele>
        <time>2013-12-14T15:33:27Z</time>
      </trkpt>
      <trkpt lat="43.36586" lon="6.13457">
        <ele>267.39999389648</ele>
        <time>2013-12-14T15:33:30Z</time>
      </trkpt>
      <trkpt lat="43.36585" lon="6.13453">
        <ele>267.39999389648</ele>
        <time>2013-12-14T15:33:38Z</time>
      </trkpt>
      <trkpt lat="43.36585" lon="6.13452">
        <ele>267.39999389648</ele>
        <time>2013-12-14T15:33:43Z</time>
      </trkpt>
      <trkpt lat="43.36584" lon="6.13451">
        <ele>267.39999389648</ele>
        <time>2013-12-14T15:33:44Z</time>
      </trkpt>
      <trkpt lat="43.36583" lon="6.1345">
        <ele>267.39999389648</ele>
        <time>2013-12-14T15:33:48Z</time>
      </trkpt>
      <trkpt lat="43.36583" lon="6.13448">
        <ele>267.39999389648</ele>
        <time>2013-12-14T15:33:49Z</time>
      </trkpt>
      <trkpt lat="43.36582" lon="6.13445">
        <ele>267</ele>
        <time>2013-12-14T15:33:50Z</time>
      </trkpt>
      <trkpt lat="43.36581" lon="6.13439">
        <ele>266.20001220703</ele>
        <time>2013-12-14T15:33:52Z</time>
      </trkpt>
      <trkpt lat="43.3658" lon="6.13434">
        <ele>265.79998779297</ele>
        <time>2013-12-14T15:33:53Z</time>
      </trkpt>
      <trkpt lat="43.3658" lon="6.13429">
        <ele>265.39999389648</ele>
        <time>2013-12-14T15:33:54Z</time>
      </trkpt>
      <trkpt lat="43.36578" lon="6.13423">
        <ele>265.39999389648</ele>
        <time>2013-12-14T15:33:55Z</time>
      </trkpt>
      <trkpt lat="43.36576" lon="6.13418">
        <ele>265.39999389648</ele>
        <time>2013-12-14T15:33:56Z</time>
      </trkpt>
      <trkpt lat="43.36572" lon="6.13412">
        <ele>265</ele>
        <time>2013-12-14T15:33:57Z</time>
      </trkpt>
      <trkpt lat="43.36569" lon="6.13406">
        <ele>264.60000610352</ele>
        <time>2013-12-14T15:33:58Z</time>
      </trkpt>
      <trkpt lat="43.36567" lon="6.13401">
        <ele>264.20001220703</ele>
        <time>2013-12-14T15:33:59Z</time>
      </trkpt>
      <trkpt lat="43.36564" lon="6.13395">
        <ele>263.39999389648</ele>
        <time>2013-12-14T15:34:00Z</time>
      </trkpt>
      <trkpt lat="43.36562" lon="6.13382">
        <ele>263.39999389648</ele>
        <time>2013-12-14T15:34:02Z</time>
      </trkpt>
      <trkpt lat="43.36561" lon="6.13375">
        <ele>263.39999389648</ele>
        <time>2013-12-14T15:34:03Z</time>
      </trkpt>
      <trkpt lat="43.36561" lon="6.1337">
        <ele>262.79998779297</ele>
        <time>2013-12-14T15:34:04Z</time>
      </trkpt>
      <trkpt lat="43.3656" lon="6.13365">
        <ele>262.39999389648</ele>
        <time>2013-12-14T15:34:05Z</time>
      </trkpt>
      <trkpt lat="43.36557" lon="6.13355">
        <ele>261.20001220703</ele>
        <time>2013-12-14T15:34:08Z</time>
      </trkpt>
      <trkpt lat="43.36556" lon="6.13341">
        <ele>261.20001220703</ele>
        <time>2013-12-14T15:34:11Z</time>
      </trkpt>
      <trkpt lat="43.36561" lon="6.13318">
        <ele>261.20001220703</ele>
        <time>2013-12-14T15:34:16Z</time>
      </trkpt>
      <trkpt lat="43.36561" lon="6.13298">
        <ele>261.20001220703</ele>
        <time>2013-12-14T15:34:21Z</time>
      </trkpt>
      <trkpt lat="43.36558" lon="6.13284">
        <ele>260</ele>
        <time>2013-12-14T15:34:25Z</time>
      </trkpt>
      <trkpt lat="43.3656" lon="6.13272">
        <ele>259.20001220703</ele>
        <time>2013-12-14T15:34:28Z</time>
      </trkpt>
      <trkpt lat="43.36561" lon="6.13247">
        <ele>259.20001220703</ele>
        <time>2013-12-14T15:34:33Z</time>
      </trkpt>
      <trkpt lat="43.36562" lon="6.13224">
        <ele>258.79998779297</ele>
        <time>2013-12-14T15:34:37Z</time>
      </trkpt>
      <trkpt lat="43.36562" lon="6.13219">
        <ele>258.20001220703</ele>
        <time>2013-12-14T15:34:38Z</time>
      </trkpt>
      <trkpt lat="43.36562" lon="6.13208">
        <ele>257.39999389648</ele>
        <time>2013-12-14T15:34:40Z</time>
      </trkpt>
      <trkpt lat="43.36562" lon="6.13205">
        <ele>256.79998779297</ele>
        <time>2013-12-14T15:34:41Z</time>
      </trkpt>
      <trkpt lat="43.36562" lon="6.13205">
        <ele>256.79998779297</ele>
        <time>2013-12-14T15:34:43Z</time>
      </trkpt>
      <trkpt lat="43.36562" lon="6.13195">
        <ele>256.79998779297</ele>
        <time>2013-12-14T15:34:47Z</time>
      </trkpt>
      <trkpt lat="43.36562" lon="6.13189">
        <ele>256.79998779297</ele>
        <time>2013-12-14T15:34:49Z</time>
      </trkpt>
      <trkpt lat="43.36561" lon="6.13181">
        <ele>256.39999389648</ele>
        <time>2013-12-14T15:34:52Z</time>
      </trkpt>
      <trkpt lat="43.36562" lon="6.13176">
        <ele>256</ele>
        <time>2013-12-14T15:34:53Z</time>
      </trkpt>
      <trkpt lat="43.3656" lon="6.13167">
        <ele>255</ele>
        <time>2013-12-14T15:34:55Z</time>
      </trkpt>
      <trkpt lat="43.3656" lon="6.13162">
        <ele>254.60000610352</ele>
        <time>2013-12-14T15:34:56Z</time>
      </trkpt>
      <trkpt lat="43.3656" lon="6.13141">
        <ele>254.60000610352</ele>
        <time>2013-12-14T15:35:00Z</time>
      </trkpt>
      <trkpt lat="43.36559" lon="6.13113">
        <ele>254.19999694824</ele>
        <time>2013-12-14T15:35:05Z</time>
      </trkpt>
      <trkpt lat="43.36559" lon="6.13107">
        <ele>253.80000305176</ele>
        <time>2013-12-14T15:35:06Z</time>
      </trkpt>
      <trkpt lat="43.36559" lon="6.13096">
        <ele>252.80000305176</ele>
        <time>2013-12-14T15:35:08Z</time>
      </trkpt>
      <trkpt lat="43.36561" lon="6.13091">
        <ele>252.39999389648</ele>
        <time>2013-12-14T15:35:09Z</time>
      </trkpt>
      <trkpt lat="43.36562" lon="6.13081">
        <ele>252.39999389648</ele>
        <time>2013-12-14T15:35:11Z</time>
      </trkpt>
      <trkpt lat="43.36563" lon="6.1308">
        <ele>252.39999389648</ele>
        <time>2013-12-14T15:35:14Z</time>
      </trkpt>
      <trkpt lat="43.36563" lon="6.1308">
        <ele>252.39999389648</ele>
        <time>2013-12-14T15:35:21Z</time>
      </trkpt>
      <trkpt lat="43.36564" lon="6.13077">
        <ele>252.39999389648</ele>
        <time>2013-12-14T15:35:26Z</time>
      </trkpt>
      <trkpt lat="43.36569" lon="6.13068">
        <ele>252.39999389648</ele>
        <time>2013-12-14T15:35:29Z</time>
      </trkpt>
      <trkpt lat="43.36572" lon="6.13059">
        <ele>252</ele>
        <time>2013-12-14T15:35:31Z</time>
      </trkpt>
      <trkpt lat="43.36573" lon="6.13055">
        <ele>251.60000610352</ele>
        <time>2013-12-14T15:35:32Z</time>
      </trkpt>
      <trkpt lat="43.36573" lon="6.1305">
        <ele>251.19999694824</ele>
        <time>2013-12-14T15:35:33Z</time>
      </trkpt>
      <trkpt lat="43.36573" lon="6.13044">
        <ele>250.80000305176</ele>
        <time>2013-12-14T15:35:34Z</time>
      </trkpt>
      <trkpt lat="43.36574" lon="6.13039">
        <ele>250.39999389648</ele>
        <time>2013-12-14T15:35:35Z</time>
      </trkpt>
      <trkpt lat="43.36576" lon="6.13037">
        <ele>250.39999389648</ele>
        <time>2013-12-14T15:35:36Z</time>
      </trkpt>
      <trkpt lat="43.36581" lon="6.13023">
        <ele>250.39999389648</ele>
        <time>2013-12-14T15:35:40Z</time>
      </trkpt>
      <trkpt lat="43.36589" lon="6.13008">
        <ele>249.39999389648</ele>
        <time>2013-12-14T15:35:45Z</time>
      </trkpt>
      <trkpt lat="43.36592" lon="6.13005">
        <ele>249</ele>
        <time>2013-12-14T15:35:46Z</time>
      </trkpt>
      <trkpt lat="43.36594" lon="6.13001">
        <ele>248.60000610352</ele>
        <time>2013-12-14T15:35:47Z</time>
      </trkpt>
      <trkpt lat="43.36595" lon="6.12998">
        <ele>248.19999694824</ele>
        <time>2013-12-14T15:35:48Z</time>
      </trkpt>
      <trkpt lat="43.36597" lon="6.12991">
        <ele>248.19999694824</ele>
        <time>2013-12-14T15:35:50Z</time>
      </trkpt>
      <trkpt lat="43.36597" lon="6.12982">
        <ele>248.19999694824</ele>
        <time>2013-12-14T15:35:52Z</time>
      </trkpt>
      <trkpt lat="43.36598" lon="6.12975">
        <ele>248.19999694824</ele>
        <time>2013-12-14T15:35:55Z</time>
      </trkpt>
      <trkpt lat="43.36598" lon="6.12975">
        <ele>248.19999694824</ele>
        <time>2013-12-14T15:35:56Z</time>
      </trkpt>
      <trkpt lat="43.36598" lon="6.12974">
        <ele>248.19999694824</ele>
        <time>2013-12-14T15:36:02Z</time>
      </trkpt>
      <trkpt lat="43.36598" lon="6.12974">
        <ele>248.19999694824</ele>
        <time>2013-12-14T15:36:08Z</time>
      </trkpt>
      <trkpt lat="43.36597" lon="6.12974">
        <ele>248.19999694824</ele>
        <time>2013-12-14T15:36:13Z</time>
      </trkpt>
      <trkpt lat="43.36597" lon="6.12974">
        <ele>248.19999694824</ele>
        <time>2013-12-14T15:36:26Z</time>
      </trkpt>
      <trkpt lat="43.36598" lon="6.12967">
        <ele>248.19999694824</ele>
        <time>2013-12-14T15:36:34Z</time>
      </trkpt>
      <trkpt lat="43.36602" lon="6.12952">
        <ele>248.19999694824</ele>
        <time>2013-12-14T15:36:38Z</time>
      </trkpt>
      <trkpt lat="43.36609" lon="6.12932">
        <ele>248.19999694824</ele>
        <time>2013-12-14T15:36:43Z</time>
      </trkpt>
      <trkpt lat="43.36617" lon="6.12905">
        <ele>248.19999694824</ele>
        <time>2013-12-14T15:36:49Z</time>
      </trkpt>
      <trkpt lat="43.36618" lon="6.12894">
        <ele>247.80000305176</ele>
        <time>2013-12-14T15:36:51Z</time>
      </trkpt>
      <trkpt lat="43.36618" lon="6.1289">
        <ele>247.39999389648</ele>
        <time>2013-12-14T15:36:52Z</time>
      </trkpt>
      <trkpt lat="43.36619" lon="6.12885">
        <ele>246.60000610352</ele>
        <time>2013-12-14T15:36:53Z</time>
      </trkpt>
      <trkpt lat="43.36619" lon="6.12874">
        <ele>246.19999694824</ele>
        <time>2013-12-14T15:36:55Z</time>
      </trkpt>
      <trkpt lat="43.36625" lon="6.12856">
        <ele>246.19999694824</ele>
        <time>2013-12-14T15:36:59Z</time>
      </trkpt>
      <trkpt lat="43.36634" lon="6.12845">
        <ele>245.80000305176</ele>
        <time>2013-12-14T15:37:03Z</time>
      </trkpt>
      <trkpt lat="43.36642" lon="6.1284">
        <ele>244.39999389648</ele>
        <time>2013-12-14T15:37:06Z</time>
      </trkpt>
      <trkpt lat="43.36645" lon="6.12839">
        <ele>243.80000305176</ele>
        <time>2013-12-14T15:37:07Z</time>
      </trkpt>
      <trkpt lat="43.36655" lon="6.12825">
        <ele>243.80000305176</ele>
        <time>2013-12-14T15:37:12Z</time>
      </trkpt>
      <trkpt lat="43.36659" lon="6.12815">
        <ele>243.39999389648</ele>
        <time>2013-12-14T15:37:15Z</time>
      </trkpt>
      <trkpt lat="43.36659" lon="6.12812">
        <ele>243</ele>
        <time>2013-12-14T15:37:16Z</time>
      </trkpt>
      <trkpt lat="43.36662" lon="6.12806">
        <ele>241.80000305176</ele>
        <time>2013-12-14T15:37:18Z</time>
      </trkpt>
      <trkpt lat="43.36664" lon="6.12803">
        <ele>241.80000305176</ele>
        <time>2013-12-14T15:37:19Z</time>
      </trkpt>
      <trkpt lat="43.36666" lon="6.12802">
        <ele>241.80000305176</ele>
        <time>2013-12-14T15:37:20Z</time>
      </trkpt>
      <trkpt lat="43.36667" lon="6.12801">
        <ele>241.80000305176</ele>
        <time>2013-12-14T15:37:22Z</time>
      </trkpt>
      <trkpt lat="43.36668" lon="6.12801">
        <ele>241.80000305176</ele>
        <time>2013-12-14T15:37:25Z</time>
      </trkpt>
      <trkpt lat="43.36668" lon="6.12801">
        <ele>241.80000305176</ele>
        <time>2013-12-14T15:37:31Z</time>
      </trkpt>
      <trkpt lat="43.36668" lon="6.12801">
        <ele>241.80000305176</ele>
        <time>2013-12-14T15:37:38Z</time>
      </trkpt>
      <trkpt lat="43.36669" lon="6.12799">
        <ele>241.80000305176</ele>
        <time>2013-12-14T15:37:40Z</time>
      </trkpt>
      <trkpt lat="43.3667" lon="6.12796">
        <ele>241.80000305176</ele>
        <time>2013-12-14T15:37:41Z</time>
      </trkpt>
      <trkpt lat="43.36675" lon="6.12783">
        <ele>241.80000305176</ele>
        <time>2013-12-14T15:37:45Z</time>
      </trkpt>
      <trkpt lat="43.36678" lon="6.12775">
        <ele>241.80000305176</ele>
        <time>2013-12-14T15:37:47Z</time>
      </trkpt>
      <trkpt lat="43.36683" lon="6.12763">
        <ele>241.80000305176</ele>
        <time>2013-12-14T15:37:50Z</time>
      </trkpt>
      <trkpt lat="43.36688" lon="6.12749">
        <ele>241.39999389648</ele>
        <time>2013-12-14T15:37:53Z</time>
      </trkpt>
      <trkpt lat="43.36689" lon="6.12738">
        <ele>240.60000610352</ele>
        <time>2013-12-14T15:37:55Z</time>
      </trkpt>
      <trkpt lat="43.36689" lon="6.12729">
        <ele>239.80000305176</ele>
        <time>2013-12-14T15:37:57Z</time>
      </trkpt>
      <trkpt lat="43.36693" lon="6.12722">
        <ele>239.80000305176</ele>
        <time>2013-12-14T15:37:59Z</time>
      </trkpt>
      <trkpt lat="43.36702" lon="6.12694">
        <ele>239.80000305176</ele>
        <time>2013-12-14T15:38:05Z</time>
      </trkpt>
      <trkpt lat="43.36709" lon="6.12679">
        <ele>239.80000305176</ele>
        <time>2013-12-14T15:38:09Z</time>
      </trkpt>
      <trkpt lat="43.36711" lon="6.12662">
        <ele>239.39999389648</ele>
        <time>2013-12-14T15:38:12Z</time>
      </trkpt>
      <trkpt lat="43.36712" lon="6.12657">
        <ele>239</ele>
        <time>2013-12-14T15:38:13Z</time>
      </trkpt>
      <trkpt lat="43.36712" lon="6.12647">
        <ele>238.19999694824</ele>
        <time>2013-12-14T15:38:15Z</time>
      </trkpt>
      <trkpt lat="43.36711" lon="6.12642">
        <ele>237.80000305176</ele>
        <time>2013-12-14T15:38:16Z</time>
      </trkpt>
      <trkpt lat="43.36715" lon="6.12622">
        <ele>237.80000305176</ele>
        <time>2013-12-14T15:38:20Z</time>
      </trkpt>
      <trkpt lat="43.36719" lon="6.12612">
        <ele>237.80000305176</ele>
        <time>2013-12-14T15:38:22Z</time>
      </trkpt>
      <trkpt lat="43.36727" lon="6.12603">
        <ele>237.80000305176</ele>
        <time>2013-12-14T15:38:24Z</time>
      </trkpt>
      <trkpt lat="43.36736" lon="6.12583">
        <ele>237.19999694824</ele>
        <time>2013-12-14T15:38:28Z</time>
      </trkpt>
      <trkpt lat="43.36741" lon="6.12574">
        <ele>236.39999389648</ele>
        <time>2013-12-14T15:38:30Z</time>
      </trkpt>
      <trkpt lat="43.36748" lon="6.12568">
        <ele>235.39999389648</ele>
        <time>2013-12-14T15:38:32Z</time>
      </trkpt>
      <trkpt lat="43.3676" lon="6.12555">
        <ele>235.39999389648</ele>
        <time>2013-12-14T15:38:35Z</time>
      </trkpt>
      <trkpt lat="43.36768" lon="6.12548">
        <ele>235.39999389648</ele>
        <time>2013-12-14T15:38:37Z</time>
      </trkpt>
      <trkpt lat="43.36771" lon="6.12545">
        <ele>235.39999389648</ele>
        <time>2013-12-14T15:38:38Z</time>
      </trkpt>
      <trkpt lat="43.36782" lon="6.12534">
        <ele>235.39999389648</ele>
        <time>2013-12-14T15:38:41Z</time>
      </trkpt>
      <trkpt lat="43.36789" lon="6.12519">
        <ele>235.39999389648</ele>
        <time>2013-12-14T15:38:44Z</time>
      </trkpt>
      <trkpt lat="43.36792" lon="6.12516">
        <ele>235.39999389648</ele>
        <time>2013-12-14T15:38:47Z</time>
      </trkpt>
      <trkpt lat="43.36792" lon="6.12516">
        <ele>235.39999389648</ele>
        <time>2013-12-14T15:38:50Z</time>
      </trkpt>
      <trkpt lat="43.36793" lon="6.12517">
        <ele>235.39999389648</ele>
        <time>2013-12-14T15:38:52Z</time>
      </trkpt>
      <trkpt lat="43.36803" lon="6.12517">
        <ele>235.39999389648</ele>
        <time>2013-12-14T15:38:57Z</time>
      </trkpt>
      <trkpt lat="43.36819" lon="6.12519">
        <ele>235.39999389648</ele>
        <time>2013-12-14T15:39:03Z</time>
      </trkpt>
      <trkpt lat="43.36839" lon="6.12528">
        <ele>235.39999389648</ele>
        <time>2013-12-14T15:39:09Z</time>
      </trkpt>
      <trkpt lat="43.36853" lon="6.12526">
        <ele>235.39999389648</ele>
        <time>2013-12-14T15:39:14Z</time>
      </trkpt>
      <trkpt lat="43.36864" lon="6.12528">
        <ele>235</ele>
        <time>2013-12-14T15:39:18Z</time>
      </trkpt>
      <trkpt lat="43.36868" lon="6.12529">
        <ele>234.39999389648</ele>
        <time>2013-12-14T15:39:19Z</time>
      </trkpt>
      <trkpt lat="43.3687" lon="6.12528">
        <ele>234</ele>
        <time>2013-12-14T15:39:20Z</time>
      </trkpt>
      <trkpt lat="43.36871" lon="6.12525">
        <ele>233.60000610352</ele>
        <time>2013-12-14T15:39:21Z</time>
      </trkpt>
      <trkpt lat="43.3687" lon="6.12522">
        <ele>233.19999694824</ele>
        <time>2013-12-14T15:39:22Z</time>
      </trkpt>
      <trkpt lat="43.36867" lon="6.12505">
        <ele>233.19999694824</ele>
        <time>2013-12-14T15:39:26Z</time>
      </trkpt>
      <trkpt lat="43.36871" lon="6.12483">
        <ele>233.19999694824</ele>
        <time>2013-12-14T15:39:31Z</time>
      </trkpt>
      <trkpt lat="43.36876" lon="6.12458">
        <ele>233.19999694824</ele>
        <time>2013-12-14T15:39:35Z</time>
      </trkpt>
      <trkpt lat="43.36874" lon="6.12445">
        <ele>232.19999694824</ele>
        <time>2013-12-14T15:39:37Z</time>
      </trkpt>
      <trkpt lat="43.36872" lon="6.12434">
        <ele>231.39999389648</ele>
        <time>2013-12-14T15:39:39Z</time>
      </trkpt>
      <trkpt lat="43.36871" lon="6.12427">
        <ele>230.80000305176</ele>
        <time>2013-12-14T15:39:41Z</time>
      </trkpt>
      <trkpt lat="43.36868" lon="6.12406">
        <ele>230.80000305176</ele>
        <time>2013-12-14T15:39:45Z</time>
      </trkpt>
      <trkpt lat="43.36866" lon="6.12393">
        <ele>230.80000305176</ele>
        <time>2013-12-14T15:39:47Z</time>
      </trkpt>
      <trkpt lat="43.36866" lon="6.12382">
        <ele>230.80000305176</ele>
        <time>2013-12-14T15:39:49Z</time>
      </trkpt>
      <trkpt lat="43.36863" lon="6.1237">
        <ele>230</ele>
        <time>2013-12-14T15:39:51Z</time>
      </trkpt>
      <trkpt lat="43.36864" lon="6.12355">
        <ele>229.19999694824</ele>
        <time>2013-12-14T15:39:53Z</time>
      </trkpt>
      <trkpt lat="43.36866" lon="6.12349">
        <ele>228.80000305176</ele>
        <time>2013-12-14T15:39:54Z</time>
      </trkpt>
      <trkpt lat="43.36871" lon="6.12337">
        <ele>228.80000305176</ele>
        <time>2013-12-14T15:39:56Z</time>
      </trkpt>
      <trkpt lat="43.36879" lon="6.12325">
        <ele>228.80000305176</ele>
        <time>2013-12-14T15:39:58Z</time>
      </trkpt>
      <trkpt lat="43.36886" lon="6.12314">
        <ele>228.39999389648</ele>
        <time>2013-12-14T15:40:00Z</time>
      </trkpt>
      <trkpt lat="43.36889" lon="6.12309">
        <ele>227.80000305176</ele>
        <time>2013-12-14T15:40:01Z</time>
      </trkpt>
      <trkpt lat="43.36893" lon="6.12303">
        <ele>227.39999389648</ele>
        <time>2013-12-14T15:40:02Z</time>
      </trkpt>
      <trkpt lat="43.36912" lon="6.12275">
        <ele>226.60000610352</ele>
        <time>2013-12-14T15:40:07Z</time>
      </trkpt>
      <trkpt lat="43.36932" lon="6.12252">
        <ele>226.60000610352</ele>
        <time>2013-12-14T15:40:12Z</time>
      </trkpt>
      <trkpt lat="43.36949" lon="6.12212">
        <ele>225.80000305176</ele>
        <time>2013-12-14T15:40:18Z</time>
      </trkpt>
      <trkpt lat="43.36954" lon="6.12199">
        <ele>225</ele>
        <time>2013-12-14T15:40:20Z</time>
      </trkpt>
      <trkpt lat="43.36961" lon="6.12187">
        <ele>224.60000610352</ele>
        <time>2013-12-14T15:40:22Z</time>
      </trkpt>
      <trkpt lat="43.36982" lon="6.12141">
        <ele>224.60000610352</ele>
        <time>2013-12-14T15:40:30Z</time>
      </trkpt>
      <trkpt lat="43.36992" lon="6.1212">
        <ele>224</ele>
        <time>2013-12-14T15:40:34Z</time>
      </trkpt>
      <trkpt lat="43.36998" lon="6.12114">
        <ele>222.80000305176</ele>
        <time>2013-12-14T15:40:36Z</time>
      </trkpt>
      <trkpt lat="43.37001" lon="6.1211">
        <ele>222.39999389648</ele>
        <time>2013-12-14T15:40:37Z</time>
      </trkpt>
      <trkpt lat="43.37007" lon="6.12095">
        <ele>222.39999389648</ele>
        <time>2013-12-14T15:40:40Z</time>
      </trkpt>
      <trkpt lat="43.37008" lon="6.12083">
        <ele>222.39999389648</ele>
        <time>2013-12-14T15:40:42Z</time>
      </trkpt>
      <trkpt lat="43.37009" lon="6.12057">
        <ele>222.39999389648</ele>
        <time>2013-12-14T15:40:46Z</time>
      </trkpt>
      <trkpt lat="43.37013" lon="6.12023">
        <ele>222.39999389648</ele>
        <time>2013-12-14T15:40:51Z</time>
      </trkpt>
      <trkpt lat="43.37018" lon="6.11995">
        <ele>222.39999389648</ele>
        <time>2013-12-14T15:40:55Z</time>
      </trkpt>
      <trkpt lat="43.37022" lon="6.11976">
        <ele>222.39999389648</ele>
        <time>2013-12-14T15:40:58Z</time>
      </trkpt>
      <trkpt lat="43.37029" lon="6.11939">
        <ele>220.39999389648</ele>
        <time>2013-12-14T15:41:04Z</time>
      </trkpt>
      <trkpt lat="43.37033" lon="6.11914">
        <ele>220.39999389648</ele>
        <time>2013-12-14T15:41:08Z</time>
      </trkpt>
      <trkpt lat="43.37033" lon="6.11901">
        <ele>220.39999389648</ele>
        <time>2013-12-14T15:41:10Z</time>
      </trkpt>
      <trkpt lat="43.37033" lon="6.11889">
        <ele>220.39999389648</ele>
        <time>2013-12-14T15:41:12Z</time>
      </trkpt>
      <trkpt lat="43.37033" lon="6.11876">
        <ele>220.39999389648</ele>
        <time>2013-12-14T15:41:14Z</time>
      </trkpt>
      <trkpt lat="43.37035" lon="6.11854">
        <ele>219</ele>
        <time>2013-12-14T15:41:17Z</time>
      </trkpt>
      <trkpt lat="43.37035" lon="6.11846">
        <ele>218.60000610352</ele>
        <time>2013-12-14T15:41:18Z</time>
      </trkpt>
      <trkpt lat="43.37037" lon="6.11839">
        <ele>218.19999694824</ele>
        <time>2013-12-14T15:41:19Z</time>
      </trkpt>
      <trkpt lat="43.37041" lon="6.11816">
        <ele>218.19999694824</ele>
        <time>2013-12-14T15:41:22Z</time>
      </trkpt>
      <trkpt lat="43.37048" lon="6.11791">
        <ele>217.39999389648</ele>
        <time>2013-12-14T15:41:25Z</time>
      </trkpt>
      <trkpt lat="43.37049" lon="6.11783">
        <ele>217</ele>
        <time>2013-12-14T15:41:26Z</time>
      </trkpt>
      <trkpt lat="43.37057" lon="6.1173">
        <ele>216.19999694824</ele>
        <time>2013-12-14T15:41:32Z</time>
      </trkpt>
      <trkpt lat="43.37064" lon="6.11694">
        <ele>215.80000305176</ele>
        <time>2013-12-14T15:41:36Z</time>
      </trkpt>
      <trkpt lat="43.37066" lon="6.11674">
        <ele>214.80000305176</ele>
        <time>2013-12-14T15:41:38Z</time>
      </trkpt>
      <trkpt lat="43.37068" lon="6.11653">
        <ele>214</ele>
        <time>2013-12-14T15:41:40Z</time>
      </trkpt>
      <trkpt lat="43.3707" lon="6.11614">
        <ele>214</ele>
        <time>2013-12-14T15:41:44Z</time>
      </trkpt>
      <trkpt lat="43.37066" lon="6.11559">
        <ele>212</ele>
        <time>2013-12-14T15:41:50Z</time>
      </trkpt>
      <trkpt lat="43.37063" lon="6.11525">
        <ele>212</ele>
        <time>2013-12-14T15:41:54Z</time>
      </trkpt>
      <trkpt lat="43.37063" lon="6.11506">
        <ele>212</ele>
        <time>2013-12-14T15:41:56Z</time>
      </trkpt>
      <trkpt lat="43.37064" lon="6.11497">
        <ele>212</ele>
        <time>2013-12-14T15:41:57Z</time>
      </trkpt>
      <trkpt lat="43.37067" lon="6.1146">
        <ele>211.60000610352</ele>
        <time>2013-12-14T15:42:01Z</time>
      </trkpt>
      <trkpt lat="43.37071" lon="6.11442">
        <ele>210.80000305176</ele>
        <time>2013-12-14T15:42:03Z</time>
      </trkpt>
      <trkpt lat="43.37076" lon="6.11424">
        <ele>210</ele>
        <time>2013-12-14T15:42:05Z</time>
      </trkpt>
      <trkpt lat="43.37079" lon="6.11415">
        <ele>210</ele>
        <time>2013-12-14T15:42:06Z</time>
      </trkpt>
      <trkpt lat="43.3709" lon="6.11399">
        <ele>210</ele>
        <time>2013-12-14T15:42:08Z</time>
      </trkpt>
      <trkpt lat="43.37114" lon="6.11348">
        <ele>210</ele>
        <time>2013-12-14T15:42:14Z</time>
      </trkpt>
      <trkpt lat="43.37133" lon="6.11281">
        <ele>209.60000610352</ele>
        <time>2013-12-14T15:42:22Z</time>
      </trkpt>
      <trkpt lat="43.37137" lon="6.11264">
        <ele>208.80000305176</ele>
        <time>2013-12-14T15:42:24Z</time>
      </trkpt>
      <trkpt lat="43.37139" lon="6.11255">
        <ele>208.39999389648</ele>
        <time>2013-12-14T15:42:25Z</time>
      </trkpt>
      <trkpt lat="43.37141" lon="6.11247">
        <ele>208</ele>
        <time>2013-12-14T15:42:26Z</time>
      </trkpt>
      <trkpt lat="43.37148" lon="6.11231">
        <ele>208</ele>
        <time>2013-12-14T15:42:28Z</time>
      </trkpt>
      <trkpt lat="43.3717" lon="6.11185">
        <ele>208</ele>
        <time>2013-12-14T15:42:34Z</time>
      </trkpt>
      <trkpt lat="43.37179" lon="6.11079">
        <ele>208</ele>
        <time>2013-12-14T15:42:46Z</time>
      </trkpt>
      <trkpt lat="43.37181" lon="6.11052">
        <ele>207.60000610352</ele>
        <time>2013-12-14T15:42:49Z</time>
      </trkpt>
      <trkpt lat="43.37184" lon="6.11026">
        <ele>206.19999694824</ele>
        <time>2013-12-14T15:42:52Z</time>
      </trkpt>
      <trkpt lat="43.37194" lon="6.10941">
        <ele>205.80000305176</ele>
        <time>2013-12-14T15:43:01Z</time>
      </trkpt>
      <trkpt lat="43.37194" lon="6.1092">
        <ele>205.39999389648</ele>
        <time>2013-12-14T15:43:03Z</time>
      </trkpt>
      <trkpt lat="43.37193" lon="6.10909">
        <ele>204.60000610352</ele>
        <time>2013-12-14T15:43:04Z</time>
      </trkpt>
      <trkpt lat="43.37193" lon="6.10888">
        <ele>203.60000610352</ele>
        <time>2013-12-14T15:43:06Z</time>
      </trkpt>
      <trkpt lat="43.37193" lon="6.10869">
        <ele>203.60000610352</ele>
        <time>2013-12-14T15:43:08Z</time>
      </trkpt>
      <trkpt lat="43.37194" lon="6.10851">
        <ele>203.60000610352</ele>
        <time>2013-12-14T15:43:10Z</time>
      </trkpt>
      <trkpt lat="43.37198" lon="6.10828">
        <ele>203.60000610352</ele>
        <time>2013-12-14T15:43:13Z</time>
      </trkpt>
      <trkpt lat="43.37209" lon="6.10784">
        <ele>203.60000610352</ele>
        <time>2013-12-14T15:43:20Z</time>
      </trkpt>
      <trkpt lat="43.37216" lon="6.1076">
        <ele>204</ele>
        <time>2013-12-14T15:43:24Z</time>
      </trkpt>
      <trkpt lat="43.37218" lon="6.1075">
        <ele>204.80000305176</ele>
        <time>2013-12-14T15:43:26Z</time>
      </trkpt>
      <trkpt lat="43.3722" lon="6.10744">
        <ele>205.39999389648</ele>
        <time>2013-12-14T15:43:27Z</time>
      </trkpt>
      <trkpt lat="43.37221" lon="6.10739">
        <ele>205.80000305176</ele>
        <time>2013-12-14T15:43:28Z</time>
      </trkpt>
      <trkpt lat="43.37228" lon="6.10711">
        <ele>205.80000305176</ele>
        <time>2013-12-14T15:43:33Z</time>
      </trkpt>
      <trkpt lat="43.37231" lon="6.10701">
        <ele>205.80000305176</ele>
        <time>2013-12-14T15:43:35Z</time>
      </trkpt>
      <trkpt lat="43.37241" lon="6.10681">
        <ele>206.60000610352</ele>
        <time>2013-12-14T15:43:39Z</time>
      </trkpt>
      <trkpt lat="43.37256" lon="6.10651">
        <ele>207.80000305176</ele>
        <time>2013-12-14T15:43:45Z</time>
      </trkpt>
      <trkpt lat="43.3727" lon="6.10623">
        <ele>207.80000305176</ele>
        <time>2013-12-14T15:43:51Z</time>
      </trkpt>
      <trkpt lat="43.37282" lon="6.10595">
        <ele>207.80000305176</ele>
        <time>2013-12-14T15:43:57Z</time>
      </trkpt>
      <trkpt lat="43.37285" lon="6.10579">
        <ele>208.60000610352</ele>
        <time>2013-12-14T15:44:00Z</time>
      </trkpt>
      <trkpt lat="43.37286" lon="6.10567">
        <ele>209.60000610352</ele>
        <time>2013-12-14T15:44:02Z</time>
      </trkpt>
      <trkpt lat="43.37286" lon="6.10509">
        <ele>210</ele>
        <time>2013-12-14T15:44:13Z</time>
      </trkpt>
      <trkpt lat="43.37286" lon="6.10494">
        <ele>210</ele>
        <time>2013-12-14T15:44:16Z</time>
      </trkpt>
      <trkpt lat="43.37284" lon="6.10472">
        <ele>210</ele>
        <time>2013-12-14T15:44:20Z</time>
      </trkpt>
      <trkpt lat="43.37281" lon="6.10445">
        <ele>211.19999694824</ele>
        <time>2013-12-14T15:44:25Z</time>
      </trkpt>
      <trkpt lat="43.37281" lon="6.10424">
        <ele>212</ele>
        <time>2013-12-14T15:44:29Z</time>
      </trkpt>
      <trkpt lat="43.3728" lon="6.10395">
        <ele>212</ele>
        <time>2013-12-14T15:44:34Z</time>
      </trkpt>
      <trkpt lat="43.37279" lon="6.10367">
        <ele>212</ele>
        <time>2013-12-14T15:44:39Z</time>
      </trkpt>
      <trkpt lat="43.37281" lon="6.10334">
        <ele>212</ele>
        <time>2013-12-14T15:44:45Z</time>
      </trkpt>
      <trkpt lat="43.37281" lon="6.10313">
        <ele>212.39999389648</ele>
        <time>2013-12-14T15:44:49Z</time>
      </trkpt>
      <trkpt lat="43.37281" lon="6.10303">
        <ele>213.19999694824</ele>
        <time>2013-12-14T15:44:51Z</time>
      </trkpt>
      <trkpt lat="43.37279" lon="6.10294">
        <ele>214.19999694824</ele>
        <time>2013-12-14T15:44:53Z</time>
      </trkpt>
      <trkpt lat="43.37273" lon="6.10276">
        <ele>214.19999694824</ele>
        <time>2013-12-14T15:44:57Z</time>
      </trkpt>
      <trkpt lat="43.37263" lon="6.10247">
        <ele>214.19999694824</ele>
        <time>2013-12-14T15:45:04Z</time>
      </trkpt>
      <trkpt lat="43.37255" lon="6.10217">
        <ele>214.19999694824</ele>
        <time>2013-12-14T15:45:10Z</time>
      </trkpt>
      <trkpt lat="43.37252" lon="6.10187">
        <ele>214.19999694824</ele>
        <time>2013-12-14T15:45:15Z</time>
      </trkpt>
      <trkpt lat="43.37255" lon="6.10145">
        <ele>214.19999694824</ele>
        <time>2013-12-14T15:45:21Z</time>
      </trkpt>
      <trkpt lat="43.37266" lon="6.1011">
        <ele>214.19999694824</ele>
        <time>2013-12-14T15:45:26Z</time>
      </trkpt>
      <trkpt lat="43.37269" lon="6.10102">
        <ele>214.19999694824</ele>
        <time>2013-12-14T15:45:27Z</time>
      </trkpt>
      <trkpt lat="43.37275" lon="6.10088">
        <ele>214.19999694824</ele>
        <time>2013-12-14T15:45:29Z</time>
      </trkpt>
      <trkpt lat="43.37283" lon="6.10073">
        <ele>214.19999694824</ele>
        <time>2013-12-14T15:45:31Z</time>
      </trkpt>
      <trkpt lat="43.3729" lon="6.10059">
        <ele>214.19999694824</ele>
        <time>2013-12-14T15:45:33Z</time>
      </trkpt>
      <trkpt lat="43.37302" lon="6.10042">
        <ele>214.19999694824</ele>
        <time>2013-12-14T15:45:36Z</time>
      </trkpt>
      <trkpt lat="43.37305" lon="6.10038">
        <ele>213.80000305176</ele>
        <time>2013-12-14T15:45:37Z</time>
      </trkpt>
      <trkpt lat="43.37308" lon="6.10036">
        <ele>213.19999694824</ele>
        <time>2013-12-14T15:45:38Z</time>
      </trkpt>
      <trkpt lat="43.37337" lon="6.10031">
        <ele>212</ele>
        <time>2013-12-14T15:45:46Z</time>
      </trkpt>
      <trkpt lat="43.37344" lon="6.10029">
        <ele>212</ele>
        <time>2013-12-14T15:45:49Z</time>
      </trkpt>
      <trkpt lat="43.37346" lon="6.1003">
        <ele>212</ele>
        <time>2013-12-14T15:45:52Z</time>
      </trkpt>
      <trkpt lat="43.37349" lon="6.10029">
        <ele>212</ele>
        <time>2013-12-14T15:45:54Z</time>
      </trkpt>
      <trkpt lat="43.37354" lon="6.10028">
        <ele>212</ele>
        <time>2013-12-14T15:45:56Z</time>
      </trkpt>
      <trkpt lat="43.3736" lon="6.10026">
        <ele>212</ele>
        <time>2013-12-14T15:45:58Z</time>
      </trkpt>
      <trkpt lat="43.3737" lon="6.10017">
        <ele>212</ele>
        <time>2013-12-14T15:46:02Z</time>
      </trkpt>
      <trkpt lat="43.37391" lon="6.1">
        <ele>212</ele>
        <time>2013-12-14T15:46:09Z</time>
      </trkpt>
      <trkpt lat="43.37404" lon="6.09993">
        <ele>212</ele>
        <time>2013-12-14T15:46:13Z</time>
      </trkpt>
      <trkpt lat="43.37418" lon="6.09986">
        <ele>212</ele>
        <time>2013-12-14T15:46:17Z</time>
      </trkpt>
      <trkpt lat="43.37421" lon="6.09985">
        <ele>212</ele>
        <time>2013-12-14T15:46:18Z</time>
      </trkpt>
      <trkpt lat="43.37429" lon="6.09985">
        <ele>212</ele>
        <time>2013-12-14T15:46:20Z</time>
      </trkpt>
      <trkpt lat="43.37442" lon="6.09989">
        <ele>212</ele>
        <time>2013-12-14T15:46:23Z</time>
      </trkpt>
      <trkpt lat="43.37446" lon="6.09991">
        <ele>212</ele>
        <time>2013-12-14T15:46:24Z</time>
      </trkpt>
      <trkpt lat="43.37456" lon="6.09998">
        <ele>212</ele>
        <time>2013-12-14T15:46:27Z</time>
      </trkpt>
      <trkpt lat="43.37477" lon="6.10011">
        <ele>212</ele>
        <time>2013-12-14T15:46:33Z</time>
      </trkpt>
      <trkpt lat="43.3749" lon="6.10011">
        <ele>212</ele>
        <time>2013-12-14T15:46:36Z</time>
      </trkpt>
      <trkpt lat="43.37517" lon="6.10002">
        <ele>212</ele>
        <time>2013-12-14T15:46:41Z</time>
      </trkpt>
      <trkpt lat="43.37542" lon="6.09994">
        <ele>211.60000610352</ele>
        <time>2013-12-14T15:46:46Z</time>
      </trkpt>
      <trkpt lat="43.3755" lon="6.09991">
        <ele>210.19999694824</ele>
        <time>2013-12-14T15:46:48Z</time>
      </trkpt>
      <trkpt lat="43.37564" lon="6.09986">
        <ele>209.80000305176</ele>
        <time>2013-12-14T15:46:51Z</time>
      </trkpt>
      <trkpt lat="43.37576" lon="6.09984">
        <ele>209.39999389648</ele>
        <time>2013-12-14T15:46:53Z</time>
      </trkpt>
      <trkpt lat="43.37604" lon="6.09975">
        <ele>207.39999389648</ele>
        <time>2013-12-14T15:46:58Z</time>
      </trkpt>
      <trkpt lat="43.37616" lon="6.09972">
        <ele>206.60000610352</ele>
        <time>2013-12-14T15:47:00Z</time>
      </trkpt>
      <trkpt lat="43.37643" lon="6.09964">
        <ele>204.80000305176</ele>
        <time>2013-12-14T15:47:05Z</time>
      </trkpt>
      <trkpt lat="43.37654" lon="6.0996">
        <ele>204</ele>
        <time>2013-12-14T15:47:07Z</time>
      </trkpt>
      <trkpt lat="43.3766" lon="6.09959">
        <ele>203.60000610352</ele>
        <time>2013-12-14T15:47:08Z</time>
      </trkpt>
      <trkpt lat="43.37671" lon="6.09954">
        <ele>202.60000610352</ele>
        <time>2013-12-14T15:47:10Z</time>
      </trkpt>
      <trkpt lat="43.37677" lon="6.09951">
        <ele>202</ele>
        <time>2013-12-14T15:47:11Z</time>
      </trkpt>
      <trkpt lat="43.37691" lon="6.09937">
        <ele>200.19999694824</ele>
        <time>2013-12-14T15:47:14Z</time>
      </trkpt>
      <trkpt lat="43.37696" lon="6.09931">
        <ele>199.80000305176</ele>
        <time>2013-12-14T15:47:15Z</time>
      </trkpt>
      <trkpt lat="43.377" lon="6.09924">
        <ele>199.39999389648</ele>
        <time>2013-12-14T15:47:16Z</time>
      </trkpt>
      <trkpt lat="43.37708" lon="6.09911">
        <ele>198.19999694824</ele>
        <time>2013-12-14T15:47:18Z</time>
      </trkpt>
      <trkpt lat="43.37714" lon="6.09893">
        <ele>196.60000610352</ele>
        <time>2013-12-14T15:47:21Z</time>
      </trkpt>
      <trkpt lat="43.37722" lon="6.09865">
        <ele>195</ele>
        <time>2013-12-14T15:47:25Z</time>
      </trkpt>
      <trkpt lat="43.37724" lon="6.09858">
        <ele>194.60000610352</ele>
        <time>2013-12-14T15:47:26Z</time>
      </trkpt>
      <trkpt lat="43.37729" lon="6.09842">
        <ele>194</ele>
        <time>2013-12-14T15:47:28Z</time>
      </trkpt>
      <trkpt lat="43.37735" lon="6.09826">
        <ele>193</ele>
        <time>2013-12-14T15:47:30Z</time>
      </trkpt>
      <trkpt lat="43.37738" lon="6.09811">
        <ele>192</ele>
        <time>2013-12-14T15:47:32Z</time>
      </trkpt>
      <trkpt lat="43.37739" lon="6.09802">
        <ele>191.60000610352</ele>
        <time>2013-12-14T15:47:33Z</time>
      </trkpt>
      <trkpt lat="43.37741" lon="6.09794">
        <ele>191.19999694824</ele>
        <time>2013-12-14T15:47:34Z</time>
      </trkpt>
      <trkpt lat="43.37743" lon="6.09786">
        <ele>190.80000305176</ele>
        <time>2013-12-14T15:47:35Z</time>
      </trkpt>
      <trkpt lat="43.37744" lon="6.09777">
        <ele>190.19999694824</ele>
        <time>2013-12-14T15:47:36Z</time>
      </trkpt>
      <trkpt lat="43.37745" lon="6.09769">
        <ele>189.39999389648</ele>
        <time>2013-12-14T15:47:37Z</time>
      </trkpt>
      <trkpt lat="43.37745" lon="6.09759">
        <ele>189</ele>
        <time>2013-12-14T15:47:38Z</time>
      </trkpt>
      <trkpt lat="43.37746" lon="6.09742">
        <ele>188.19999694824</ele>
        <time>2013-12-14T15:47:40Z</time>
      </trkpt>
      <trkpt lat="43.37748" lon="6.09725">
        <ele>187.80000305176</ele>
        <time>2013-12-14T15:47:42Z</time>
      </trkpt>
      <trkpt lat="43.37748" lon="6.09717">
        <ele>187.39999389648</ele>
        <time>2013-12-14T15:47:43Z</time>
      </trkpt>
      <trkpt lat="43.37748" lon="6.09709">
        <ele>186.80000305176</ele>
        <time>2013-12-14T15:47:44Z</time>
      </trkpt>
      <trkpt lat="43.3775" lon="6.09705">
        <ele>186.39999389648</ele>
        <time>2013-12-14T15:47:45Z</time>
      </trkpt>
      <trkpt lat="43.37753" lon="6.09703">
        <ele>186</ele>
        <time>2013-12-14T15:47:46Z</time>
      </trkpt>
      <trkpt lat="43.37755" lon="6.09702">
        <ele>185.60000610352</ele>
        <time>2013-12-14T15:47:47Z</time>
      </trkpt>
      <trkpt lat="43.37757" lon="6.09703">
        <ele>185.60000610352</ele>
        <time>2013-12-14T15:47:48Z</time>
      </trkpt>
      <trkpt lat="43.3776" lon="6.09706">
        <ele>185</ele>
        <time>2013-12-14T15:47:49Z</time>
      </trkpt>
      <trkpt lat="43.37762" lon="6.0971">
        <ele>184.60000610352</ele>
        <time>2013-12-14T15:47:50Z</time>
      </trkpt>
      <trkpt lat="43.37766" lon="6.09717">
        <ele>183.60000610352</ele>
        <time>2013-12-14T15:47:52Z</time>
      </trkpt>
      <trkpt lat="43.37768" lon="6.0972">
        <ele>183.19999694824</ele>
        <time>2013-12-14T15:47:53Z</time>
      </trkpt>
      <trkpt lat="43.37774" lon="6.09728">
        <ele>183.19999694824</ele>
        <time>2013-12-14T15:47:56Z</time>
      </trkpt>
      <trkpt lat="43.37777" lon="6.09733">
        <ele>182.80000305176</ele>
        <time>2013-12-14T15:47:58Z</time>
      </trkpt>
      <trkpt lat="43.37779" lon="6.09734">
        <ele>182.39999389648</ele>
        <time>2013-12-14T15:47:59Z</time>
      </trkpt>
      <trkpt lat="43.37782" lon="6.09735">
        <ele>182</ele>
        <time>2013-12-14T15:48:00Z</time>
      </trkpt>
      <trkpt lat="43.37795" lon="6.09733">
        <ele>180.80000305176</ele>
        <time>2013-12-14T15:48:04Z</time>
      </trkpt>
      <trkpt lat="43.37798" lon="6.09733">
        <ele>180.19999694824</ele>
        <time>2013-12-14T15:48:05Z</time>
      </trkpt>
      <trkpt lat="43.37799" lon="6.09732">
        <ele>179.80000305176</ele>
        <time>2013-12-14T15:48:06Z</time>
      </trkpt>
      <trkpt lat="43.37801" lon="6.09732">
        <ele>179.39999389648</ele>
        <time>2013-12-14T15:48:07Z</time>
      </trkpt>
      <trkpt lat="43.37801" lon="6.09732">
        <ele>179</ele>
        <time>2013-12-14T15:48:08Z</time>
      </trkpt>
      <trkpt lat="43.37801" lon="6.09732">
        <ele>179</ele>
        <time>2013-12-14T15:48:09Z</time>
      </trkpt>
      <trkpt lat="43.37801" lon="6.09732">
        <ele>179</ele>
        <time>2013-12-14T15:48:31Z</time>
      </trkpt>
      <trkpt lat="43.37802" lon="6.09732">
        <ele>179</ele>
        <time>2013-12-14T15:48:51Z</time>
      </trkpt>
      <trkpt lat="43.37802" lon="6.09732">
        <ele>179</ele>
        <time>2013-12-14T15:48:59Z</time>
      </trkpt>
      <trkpt lat="43.37812" lon="6.09732">
        <ele>179</ele>
        <time>2013-12-14T15:49:03Z</time>
      </trkpt>
      <trkpt lat="43.37838" lon="6.09732">
        <ele>179</ele>
        <time>2013-12-14T15:49:08Z</time>
      </trkpt>
      <trkpt lat="43.37843" lon="6.09733">
        <ele>178.60000610352</ele>
        <time>2013-12-14T15:49:09Z</time>
      </trkpt>
      <trkpt lat="43.37849" lon="6.09734">
        <ele>178.19999694824</ele>
        <time>2013-12-14T15:49:10Z</time>
      </trkpt>
      <trkpt lat="43.37855" lon="6.09735">
        <ele>177.80000305176</ele>
        <time>2013-12-14T15:49:11Z</time>
      </trkpt>
      <trkpt lat="43.37861" lon="6.09737">
        <ele>177.39999389648</ele>
        <time>2013-12-14T15:49:12Z</time>
      </trkpt>
      <trkpt lat="43.37867" lon="6.0974">
        <ele>176.80000305176</ele>
        <time>2013-12-14T15:49:13Z</time>
      </trkpt>
      <trkpt lat="43.37899" lon="6.09752">
        <ele>176.80000305176</ele>
        <time>2013-12-14T15:49:18Z</time>
      </trkpt>
      <trkpt lat="43.37924" lon="6.09762">
        <ele>176.80000305176</ele>
        <time>2013-12-14T15:49:22Z</time>
      </trkpt>
      <trkpt lat="43.3796" lon="6.09775">
        <ele>176.80000305176</ele>
        <time>2013-12-14T15:49:28Z</time>
      </trkpt>
      <trkpt lat="43.37992" lon="6.09787">
        <ele>176.80000305176</ele>
        <time>2013-12-14T15:49:34Z</time>
      </trkpt>
      <trkpt lat="43.38008" lon="6.09793">
        <ele>176.80000305176</ele>
        <time>2013-12-14T15:49:37Z</time>
      </trkpt>
      <trkpt lat="43.38029" lon="6.098">
        <ele>176.80000305176</ele>
        <time>2013-12-14T15:49:41Z</time>
      </trkpt>
      <trkpt lat="43.38058" lon="6.09808">
        <ele>176.80000305176</ele>
        <time>2013-12-14T15:49:47Z</time>
      </trkpt>
      <trkpt lat="43.38063" lon="6.09809">
        <ele>176.80000305176</ele>
        <time>2013-12-14T15:49:48Z</time>
      </trkpt>
      <trkpt lat="43.38094" lon="6.09806">
        <ele>176.80000305176</ele>
        <time>2013-12-14T15:49:54Z</time>
      </trkpt>
      <trkpt lat="43.38137" lon="6.09796">
        <ele>176.80000305176</ele>
        <time>2013-12-14T15:50:02Z</time>
      </trkpt>
      <trkpt lat="43.38183" lon="6.09782">
        <ele>176.80000305176</ele>
        <time>2013-12-14T15:50:10Z</time>
      </trkpt>
      <trkpt lat="43.38234" lon="6.09758">
        <ele>176.80000305176</ele>
        <time>2013-12-14T15:50:19Z</time>
      </trkpt>
      <trkpt lat="43.38278" lon="6.09739">
        <ele>176.80000305176</ele>
        <time>2013-12-14T15:50:27Z</time>
      </trkpt>
      <trkpt lat="43.38297" lon="6.09731">
        <ele>176.80000305176</ele>
        <time>2013-12-14T15:50:31Z</time>
      </trkpt>
      <trkpt lat="43.38309" lon="6.09727">
        <ele>176.80000305176</ele>
        <time>2013-12-14T15:50:34Z</time>
      </trkpt>
      <trkpt lat="43.38343" lon="6.09719">
        <ele>176.80000305176</ele>
        <time>2013-12-14T15:50:41Z</time>
      </trkpt>
      <trkpt lat="43.38375" lon="6.09712">
        <ele>176.80000305176</ele>
        <time>2013-12-14T15:50:48Z</time>
      </trkpt>
      <trkpt lat="43.38406" lon="6.09706">
        <ele>176.80000305176</ele>
        <time>2013-12-14T15:50:55Z</time>
      </trkpt>
      <trkpt lat="43.38437" lon="6.09702">
        <ele>176.80000305176</ele>
        <time>2013-12-14T15:51:03Z</time>
      </trkpt>
      <trkpt lat="43.38454" lon="6.09702">
        <ele>176.80000305176</ele>
        <time>2013-12-14T15:51:08Z</time>
      </trkpt>
      <trkpt lat="43.38456" lon="6.09702">
        <ele>176.80000305176</ele>
        <time>2013-12-14T15:51:09Z</time>
      </trkpt>
      <trkpt lat="43.38461" lon="6.09701">
        <ele>176.80000305176</ele>
        <time>2013-12-14T15:51:13Z</time>
      </trkpt>
      <trkpt lat="43.38462" lon="6.09701">
        <ele>176.80000305176</ele>
        <time>2013-12-14T15:51:18Z</time>
      </trkpt>
      <trkpt lat="43.38462" lon="6.09701">
        <ele>176.80000305176</ele>
        <time>2013-12-14T15:51:25Z</time>
      </trkpt>
      <trkpt lat="43.38462" lon="6.09701">
        <ele>176.80000305176</ele>
        <time>2013-12-14T15:51:29Z</time>
      </trkpt>
      <trkpt lat="43.38464" lon="6.097">
        <ele>176.80000305176</ele>
        <time>2013-12-14T15:51:30Z</time>
      </trkpt>
      <trkpt lat="43.38474" lon="6.09698">
        <ele>176.80000305176</ele>
        <time>2013-12-14T15:51:34Z</time>
      </trkpt>
      <trkpt lat="43.38479" lon="6.09698">
        <ele>176.80000305176</ele>
        <time>2013-12-14T15:51:36Z</time>
      </trkpt>
      <trkpt lat="43.38491" lon="6.09695">
        <ele>176.80000305176</ele>
        <time>2013-12-14T15:51:40Z</time>
      </trkpt>
      <trkpt lat="43.38511" lon="6.09691">
        <ele>177.39999389648</ele>
        <time>2013-12-14T15:51:46Z</time>
      </trkpt>
      <trkpt lat="43.38514" lon="6.0969">
        <ele>177.80000305176</ele>
        <time>2013-12-14T15:51:47Z</time>
      </trkpt>
      <trkpt lat="43.38517" lon="6.09689">
        <ele>178.19999694824</ele>
        <time>2013-12-14T15:51:48Z</time>
      </trkpt>
      <trkpt lat="43.3852" lon="6.09689">
        <ele>178.60000610352</ele>
        <time>2013-12-14T15:51:49Z</time>
      </trkpt>
      <trkpt lat="43.38535" lon="6.09688">
        <ele>179</ele>
        <time>2013-12-14T15:51:53Z</time>
      </trkpt>
      <trkpt lat="43.38544" lon="6.09687">
        <ele>179</ele>
        <time>2013-12-14T15:51:56Z</time>
      </trkpt>
      <trkpt lat="43.3856" lon="6.09684">
        <ele>181.19999694824</ele>
        <time>2013-12-14T15:52:01Z</time>
      </trkpt>
      <trkpt lat="43.38581" lon="6.09685">
        <ele>181.19999694824</ele>
        <time>2013-12-14T15:52:08Z</time>
      </trkpt>
      <trkpt lat="43.38588" lon="6.09689">
        <ele>182.80000305176</ele>
        <time>2013-12-14T15:52:11Z</time>
      </trkpt>
      <trkpt lat="43.38591" lon="6.09696">
        <ele>183.19999694824</ele>
        <time>2013-12-14T15:52:13Z</time>
      </trkpt>
      <trkpt lat="43.38589" lon="6.09706">
        <ele>183.60000610352</ele>
        <time>2013-12-14T15:52:16Z</time>
      </trkpt>
      <trkpt lat="43.38588" lon="6.09716">
        <ele>184.80000305176</ele>
        <time>2013-12-14T15:52:19Z</time>
      </trkpt>
      <trkpt lat="43.38581" lon="6.0974">
        <ele>185.19999694824</ele>
        <time>2013-12-14T15:52:26Z</time>
      </trkpt>
      <trkpt lat="43.3858" lon="6.09747">
        <ele>185.60000610352</ele>
        <time>2013-12-14T15:52:28Z</time>
      </trkpt>
      <trkpt lat="43.38578" lon="6.09761">
        <ele>187.39999389648</ele>
        <time>2013-12-14T15:52:32Z</time>
      </trkpt>
      <trkpt lat="43.3857" lon="6.09814">
        <ele>189.39999389648</ele>
        <time>2013-12-14T15:52:48Z</time>
      </trkpt>
      <trkpt lat="43.38568" lon="6.09829">
        <ele>189.39999389648</ele>
        <time>2013-12-14T15:52:53Z</time>
      </trkpt>
      <trkpt lat="43.38566" lon="6.0986">
        <ele>189.39999389648</ele>
        <time>2013-12-14T15:53:02Z</time>
      </trkpt>
      <trkpt lat="43.38567" lon="6.0988">
        <ele>190.19999694824</ele>
        <time>2013-12-14T15:53:08Z</time>
      </trkpt>
      <trkpt lat="43.38566" lon="6.09889">
        <ele>191.39999389648</ele>
        <time>2013-12-14T15:53:11Z</time>
      </trkpt>
      <trkpt lat="43.38567" lon="6.09909">
        <ele>191.39999389648</ele>
        <time>2013-12-14T15:53:17Z</time>
      </trkpt>
      <trkpt lat="43.38568" lon="6.09938">
        <ele>191.39999389648</ele>
        <time>2013-12-14T15:53:25Z</time>
      </trkpt>
      <trkpt lat="43.38568" lon="6.09946">
        <ele>191.80000305176</ele>
        <time>2013-12-14T15:53:27Z</time>
      </trkpt>
      <trkpt lat="43.38568" lon="6.0995">
        <ele>192.19999694824</ele>
        <time>2013-12-14T15:53:28Z</time>
      </trkpt>
      <trkpt lat="43.38562" lon="6.09988">
        <ele>193.39999389648</ele>
        <time>2013-12-14T15:53:40Z</time>
      </trkpt>
      <trkpt lat="43.38556" lon="6.10009">
        <ele>193.80000305176</ele>
        <time>2013-12-14T15:53:47Z</time>
      </trkpt>
      <trkpt lat="43.38549" lon="6.10033">
        <ele>195.39999389648</ele>
        <time>2013-12-14T15:53:55Z</time>
      </trkpt>
      <trkpt lat="43.38545" lon="6.10057">
        <ele>195.39999389648</ele>
        <time>2013-12-14T15:54:02Z</time>
      </trkpt>
      <trkpt lat="43.38543" lon="6.10094">
        <ele>197.60000610352</ele>
        <time>2013-12-14T15:54:13Z</time>
      </trkpt>
      <trkpt lat="43.38543" lon="6.10119">
        <ele>197.60000610352</ele>
        <time>2013-12-14T15:54:20Z</time>
      </trkpt>
      <trkpt lat="43.38546" lon="6.10149">
        <ele>197.60000610352</ele>
        <time>2013-12-14T15:54:28Z</time>
      </trkpt>
      <trkpt lat="43.38548" lon="6.10157">
        <ele>198</ele>
        <time>2013-12-14T15:54:30Z</time>
      </trkpt>
      <trkpt lat="43.38549" lon="6.10169">
        <ele>199.19999694824</ele>
        <time>2013-12-14T15:54:33Z</time>
      </trkpt>
      <trkpt lat="43.3855" lon="6.10173">
        <ele>199.60000610352</ele>
        <time>2013-12-14T15:54:34Z</time>
      </trkpt>
      <trkpt lat="43.38552" lon="6.10183">
        <ele>199.60000610352</ele>
        <time>2013-12-14T15:54:37Z</time>
      </trkpt>
      <trkpt lat="43.38564" lon="6.10211">
        <ele>199.60000610352</ele>
        <time>2013-12-14T15:54:46Z</time>
      </trkpt>
      <trkpt lat="43.38578" lon="6.10228">
        <ele>199.60000610352</ele>
        <time>2013-12-14T15:54:53Z</time>
      </trkpt>
      <trkpt lat="43.38584" lon="6.10232">
        <ele>201</ele>
        <time>2013-12-14T15:54:56Z</time>
      </trkpt>
      <trkpt lat="43.38589" lon="6.10234">
        <ele>201.80000305176</ele>
        <time>2013-12-14T15:54:58Z</time>
      </trkpt>
      <trkpt lat="43.38597" lon="6.10237">
        <ele>201.80000305176</ele>
        <time>2013-12-14T15:55:01Z</time>
      </trkpt>
      <trkpt lat="43.38619" lon="6.10237">
        <ele>201.80000305176</ele>
        <time>2013-12-14T15:55:09Z</time>
      </trkpt>
      <trkpt lat="43.38639" lon="6.10232">
        <ele>201.80000305176</ele>
        <time>2013-12-14T15:55:15Z</time>
      </trkpt>
      <trkpt lat="43.38643" lon="6.1023">
        <ele>202.19999694824</ele>
        <time>2013-12-14T15:55:16Z</time>
      </trkpt>
      <trkpt lat="43.3865" lon="6.10228">
        <ele>203</ele>
        <time>2013-12-14T15:55:18Z</time>
      </trkpt>
      <trkpt lat="43.38657" lon="6.10225">
        <ele>203.80000305176</ele>
        <time>2013-12-14T15:55:20Z</time>
      </trkpt>
      <trkpt lat="43.3866" lon="6.10223">
        <ele>203.80000305176</ele>
        <time>2013-12-14T15:55:21Z</time>
      </trkpt>
      <trkpt lat="43.38678" lon="6.10217">
        <ele>203.80000305176</ele>
        <time>2013-12-14T15:55:26Z</time>
      </trkpt>
      <trkpt lat="43.38684" lon="6.10215">
        <ele>203.80000305176</ele>
        <time>2013-12-14T15:55:28Z</time>
      </trkpt>
      <trkpt lat="43.38728" lon="6.102">
        <ele>205.80000305176</ele>
        <time>2013-12-14T15:55:41Z</time>
      </trkpt>
      <trkpt lat="43.38744" lon="6.10194">
        <ele>208</ele>
        <time>2013-12-14T15:55:46Z</time>
      </trkpt>
      <trkpt lat="43.38777" lon="6.10182">
        <ele>210.19999694824</ele>
        <time>2013-12-14T15:55:57Z</time>
      </trkpt>
      <trkpt lat="43.38792" lon="6.10176">
        <ele>210.19999694824</ele>
        <time>2013-12-14T15:56:03Z</time>
      </trkpt>
      <trkpt lat="43.388" lon="6.10174">
        <ele>210.60000610352</ele>
        <time>2013-12-14T15:56:06Z</time>
      </trkpt>
      <trkpt lat="43.38802" lon="6.10173">
        <ele>211</ele>
        <time>2013-12-14T15:56:07Z</time>
      </trkpt>
      <trkpt lat="43.38807" lon="6.10171">
        <ele>212</ele>
        <time>2013-12-14T15:56:09Z</time>
      </trkpt>
      <trkpt lat="43.38809" lon="6.10171">
        <ele>212.39999389648</ele>
        <time>2013-12-14T15:56:10Z</time>
      </trkpt>
      <trkpt lat="43.38814" lon="6.10169">
        <ele>212.39999389648</ele>
        <time>2013-12-14T15:56:13Z</time>
      </trkpt>
      <trkpt lat="43.38817" lon="6.10168">
        <ele>212.39999389648</ele>
        <time>2013-12-14T15:56:15Z</time>
      </trkpt>
      <trkpt lat="43.38818" lon="6.10168">
        <ele>212.39999389648</ele>
        <time>2013-12-14T15:56:19Z</time>
      </trkpt>
      <trkpt lat="43.38818" lon="6.10168">
        <ele>212.39999389648</ele>
        <time>2013-12-14T15:56:21Z</time>
      </trkpt>
      <trkpt lat="43.3882" lon="6.10166">
        <ele>212.39999389648</ele>
        <time>2013-12-14T15:56:29Z</time>
      </trkpt>
      <trkpt lat="43.3882" lon="6.10166">
        <ele>212.39999389648</ele>
        <time>2013-12-14T15:56:36Z</time>
      </trkpt>
      <trkpt lat="43.3882" lon="6.10166">
        <ele>212.39999389648</ele>
        <time>2013-12-14T15:56:40Z</time>
      </trkpt>
      <trkpt lat="43.3882" lon="6.10166">
        <ele>212.39999389648</ele>
        <time>2013-12-14T15:56:45Z</time>
      </trkpt>
      <trkpt lat="43.38821" lon="6.10165">
        <ele>212.39999389648</ele>
        <time>2013-12-14T15:56:51Z</time>
      </trkpt>
      <trkpt lat="43.38821" lon="6.10165">
        <ele>212.39999389648</ele>
        <time>2013-12-14T15:57:00Z</time>
      </trkpt>
      <trkpt lat="43.38821" lon="6.10165">
        <ele>212.39999389648</ele>
        <time>2013-12-14T15:57:01Z</time>
      </trkpt>
      <trkpt lat="43.38823" lon="6.10159">
        <ele>212.39999389648</ele>
        <time>2013-12-14T15:57:04Z</time>
      </trkpt>
      <trkpt lat="43.38823" lon="6.10148">
        <ele>212.39999389648</ele>
        <time>2013-12-14T15:57:07Z</time>
      </trkpt>
      <trkpt lat="43.38824" lon="6.10144">
        <ele>212.39999389648</ele>
        <time>2013-12-14T15:57:08Z</time>
      </trkpt>
      <trkpt lat="43.38827" lon="6.10135">
        <ele>212.80000305176</ele>
        <time>2013-12-14T15:57:11Z</time>
      </trkpt>
      <trkpt lat="43.38828" lon="6.10132">
        <ele>213.19999694824</ele>
        <time>2013-12-14T15:57:12Z</time>
      </trkpt>
      <trkpt lat="43.38829" lon="6.10128">
        <ele>213.80000305176</ele>
        <time>2013-12-14T15:57:13Z</time>
      </trkpt>
      <trkpt lat="43.38831" lon="6.10124">
        <ele>214.19999694824</ele>
        <time>2013-12-14T15:57:14Z</time>
      </trkpt>
      <trkpt lat="43.38832" lon="6.1012">
        <ele>214.60000610352</ele>
        <time>2013-12-14T15:57:15Z</time>
      </trkpt>
      <trkpt lat="43.38838" lon="6.10099">
        <ele>214.60000610352</ele>
        <time>2013-12-14T15:57:21Z</time>
      </trkpt>
      <trkpt lat="43.38842" lon="6.10079">
        <ele>214.60000610352</ele>
        <time>2013-12-14T15:57:27Z</time>
      </trkpt>
      <trkpt lat="43.38845" lon="6.1007">
        <ele>215</ele>
        <time>2013-12-14T15:57:30Z</time>
      </trkpt>
      <trkpt lat="43.38847" lon="6.10061">
        <ele>216.39999389648</ele>
        <time>2013-12-14T15:57:33Z</time>
      </trkpt>
      <trkpt lat="43.38848" lon="6.10056">
        <ele>216.80000305176</ele>
        <time>2013-12-14T15:57:35Z</time>
      </trkpt>
      <trkpt lat="43.38849" lon="6.1005">
        <ele>216.80000305176</ele>
        <time>2013-12-14T15:57:40Z</time>
      </trkpt>
      <trkpt lat="43.38849" lon="6.1005">
        <ele>216.80000305176</ele>
        <time>2013-12-14T15:58:02Z</time>
      </trkpt>
      <trkpt lat="43.38849" lon="6.1005">
        <ele>216.80000305176</ele>
        <time>2013-12-14T15:58:14Z</time>
      </trkpt>
      <trkpt lat="43.38849" lon="6.10049">
        <ele>216.80000305176</ele>
        <time>2013-12-14T15:58:20Z</time>
      </trkpt>
      <trkpt lat="43.3885" lon="6.10048">
        <ele>216.80000305176</ele>
        <time>2013-12-14T15:58:21Z</time>
      </trkpt>
      <trkpt lat="43.38851" lon="6.10045">
        <ele>216.80000305176</ele>
        <time>2013-12-14T15:58:23Z</time>
      </trkpt>
      <trkpt lat="43.38853" lon="6.10039">
        <ele>217.19999694824</ele>
        <time>2013-12-14T15:58:26Z</time>
      </trkpt>
      <trkpt lat="43.38855" lon="6.10033">
        <ele>218.39999389648</ele>
        <time>2013-12-14T15:58:29Z</time>
      </trkpt>
      <trkpt lat="43.38855" lon="6.10031">
        <ele>218.80000305176</ele>
        <time>2013-12-14T15:58:30Z</time>
      </trkpt>
      <trkpt lat="43.38858" lon="6.10023">
        <ele>218.80000305176</ele>
        <time>2013-12-14T15:58:34Z</time>
      </trkpt>
      <trkpt lat="43.38863" lon="6.10003">
        <ele>221</ele>
        <time>2013-12-14T15:58:44Z</time>
      </trkpt>
      <trkpt lat="43.38863" lon="6.10002">
        <ele>221</ele>
        <time>2013-12-14T15:58:45Z</time>
      </trkpt>
      <trkpt lat="43.38865" lon="6.09982">
        <ele>221</ele>
        <time>2013-12-14T15:58:54Z</time>
      </trkpt>
      <trkpt lat="43.38866" lon="6.09973">
        <ele>221.39999389648</ele>
        <time>2013-12-14T15:58:58Z</time>
      </trkpt>
      <trkpt lat="43.38867" lon="6.09959">
        <ele>223</ele>
        <time>2013-12-14T15:59:04Z</time>
      </trkpt>
      <trkpt lat="43.38867" lon="6.0995">
        <ele>223</ele>
        <time>2013-12-14T15:59:08Z</time>
      </trkpt>
      <trkpt lat="43.38871" lon="6.09934">
        <ele>224.19999694824</ele>
        <time>2013-12-14T15:59:16Z</time>
      </trkpt>
      <trkpt lat="43.38874" lon="6.09927">
        <ele>225.19999694824</ele>
        <time>2013-12-14T15:59:21Z</time>
      </trkpt>
      <trkpt lat="43.38876" lon="6.09921">
        <ele>225.19999694824</ele>
        <time>2013-12-14T15:59:24Z</time>
      </trkpt>
      <trkpt lat="43.38881" lon="6.09896">
        <ele>227.19999694824</ele>
        <time>2013-12-14T15:59:37Z</time>
      </trkpt>
      <trkpt lat="43.38883" lon="6.09883">
        <ele>227.60000610352</ele>
        <time>2013-12-14T15:59:44Z</time>
      </trkpt>
      <trkpt lat="43.38884" lon="6.09877">
        <ele>228.80000305176</ele>
        <time>2013-12-14T15:59:47Z</time>
      </trkpt>
      <trkpt lat="43.38886" lon="6.09864">
        <ele>229.19999694824</ele>
        <time>2013-12-14T15:59:53Z</time>
      </trkpt>
      <trkpt lat="43.38888" lon="6.09856">
        <ele>231.39999389648</ele>
        <time>2013-12-14T15:59:58Z</time>
      </trkpt>
      <trkpt lat="43.38889" lon="6.09851">
        <ele>231.39999389648</ele>
        <time>2013-12-14T16:00:01Z</time>
      </trkpt>
      <trkpt lat="43.38889" lon="6.09844">
        <ele>233</ele>
        <time>2013-12-14T16:00:06Z</time>
      </trkpt>
      <trkpt lat="43.3889" lon="6.09839">
        <ele>233.39999389648</ele>
        <time>2013-12-14T16:00:09Z</time>
      </trkpt>
      <trkpt lat="43.3889" lon="6.09832">
        <ele>234</ele>
        <time>2013-12-14T16:00:14Z</time>
      </trkpt>
      <trkpt lat="43.3889" lon="6.09831">
        <ele>234.39999389648</ele>
        <time>2013-12-14T16:00:15Z</time>
      </trkpt>
      <trkpt lat="43.38892" lon="6.09824">
        <ele>235.60000610352</ele>
        <time>2013-12-14T16:00:19Z</time>
      </trkpt>
      <trkpt lat="43.38893" lon="6.0982">
        <ele>235.60000610352</ele>
        <time>2013-12-14T16:00:21Z</time>
      </trkpt>
      <trkpt lat="43.38894" lon="6.09807">
        <ele>237.60000610352</ele>
        <time>2013-12-14T16:00:31Z</time>
      </trkpt>
      <trkpt lat="43.38896" lon="6.09794">
        <ele>237.60000610352</ele>
        <time>2013-12-14T16:00:40Z</time>
      </trkpt>
      <trkpt lat="43.38898" lon="6.09786">
        <ele>239.80000305176</ele>
        <time>2013-12-14T16:00:47Z</time>
      </trkpt>
      <trkpt lat="43.389" lon="6.09778">
        <ele>239.80000305176</ele>
        <time>2013-12-14T16:00:53Z</time>
      </trkpt>
      <trkpt lat="43.389" lon="6.09772">
        <ele>239.80000305176</ele>
        <time>2013-12-14T16:00:57Z</time>
      </trkpt>
      <trkpt lat="43.38901" lon="6.09769">
        <ele>239.80000305176</ele>
        <time>2013-12-14T16:00:59Z</time>
      </trkpt>
      <trkpt lat="43.38902" lon="6.09758">
        <ele>241.39999389648</ele>
        <time>2013-12-14T16:01:05Z</time>
      </trkpt>
      <trkpt lat="43.38903" lon="6.09753">
        <ele>241.80000305176</ele>
        <time>2013-12-14T16:01:09Z</time>
      </trkpt>
      <trkpt lat="43.38904" lon="6.09743">
        <ele>241.80000305176</ele>
        <time>2013-12-14T16:01:16Z</time>
      </trkpt>
      <trkpt lat="43.38904" lon="6.09736">
        <ele>241.80000305176</ele>
        <time>2013-12-14T16:01:21Z</time>
      </trkpt>
      <trkpt lat="43.38903" lon="6.09724">
        <ele>241.80000305176</ele>
        <time>2013-12-14T16:01:28Z</time>
      </trkpt>
      <trkpt lat="43.38901" lon="6.09716">
        <ele>241.80000305176</ele>
        <time>2013-12-14T16:01:33Z</time>
      </trkpt>
      <trkpt lat="43.38901" lon="6.09713">
        <ele>242.60000610352</ele>
        <time>2013-12-14T16:01:35Z</time>
      </trkpt>
      <trkpt lat="43.389" lon="6.09699">
        <ele>243.80000305176</ele>
        <time>2013-12-14T16:01:42Z</time>
      </trkpt>
      <trkpt lat="43.389" lon="6.09693">
        <ele>243.80000305176</ele>
        <time>2013-12-14T16:01:46Z</time>
      </trkpt>
      <trkpt lat="43.389" lon="6.09683">
        <ele>243.80000305176</ele>
        <time>2013-12-14T16:01:51Z</time>
      </trkpt>
      <trkpt lat="43.389" lon="6.09675">
        <ele>243.80000305176</ele>
        <time>2013-12-14T16:01:56Z</time>
      </trkpt>
      <trkpt lat="43.389" lon="6.09665">
        <ele>245.39999389648</ele>
        <time>2013-12-14T16:02:01Z</time>
      </trkpt>
      <trkpt lat="43.389" lon="6.09654">
        <ele>245.80000305176</ele>
        <time>2013-12-14T16:02:08Z</time>
      </trkpt>
      <trkpt lat="43.38899" lon="6.09646">
        <ele>245.80000305176</ele>
        <time>2013-12-14T16:02:12Z</time>
      </trkpt>
      <trkpt lat="43.38898" lon="6.09642">
        <ele>245.80000305176</ele>
        <time>2013-12-14T16:02:14Z</time>
      </trkpt>
      <trkpt lat="43.38897" lon="6.09633">
        <ele>245.80000305176</ele>
        <time>2013-12-14T16:02:19Z</time>
      </trkpt>
      <trkpt lat="43.38893" lon="6.09625">
        <ele>247.60000610352</ele>
        <time>2013-12-14T16:02:26Z</time>
      </trkpt>
      <trkpt lat="43.3889" lon="6.09622">
        <ele>248</ele>
        <time>2013-12-14T16:02:29Z</time>
      </trkpt>
      <trkpt lat="43.38886" lon="6.09617">
        <ele>248</ele>
        <time>2013-12-14T16:02:34Z</time>
      </trkpt>
      <trkpt lat="43.38885" lon="6.09613">
        <ele>248</ele>
        <time>2013-12-14T16:02:36Z</time>
      </trkpt>
      <trkpt lat="43.38883" lon="6.09608">
        <ele>248</ele>
        <time>2013-12-14T16:02:39Z</time>
      </trkpt>
      <trkpt lat="43.38881" lon="6.09598">
        <ele>248</ele>
        <time>2013-12-14T16:02:46Z</time>
      </trkpt>
      <trkpt lat="43.38879" lon="6.09588">
        <ele>248</ele>
        <time>2013-12-14T16:02:52Z</time>
      </trkpt>
      <trkpt lat="43.38879" lon="6.09586">
        <ele>248</ele>
        <time>2013-12-14T16:02:53Z</time>
      </trkpt>
      <trkpt lat="43.38879" lon="6.09584">
        <ele>248</ele>
        <time>2013-12-14T16:02:54Z</time>
      </trkpt>
      <trkpt lat="43.38878" lon="6.09571">
        <ele>248</ele>
        <time>2013-12-14T16:03:02Z</time>
      </trkpt>
      <trkpt lat="43.38878" lon="6.09563">
        <ele>248</ele>
        <time>2013-12-14T16:03:08Z</time>
      </trkpt>
      <trkpt lat="43.38878" lon="6.09563">
        <ele>248</ele>
        <time>2013-12-14T16:03:15Z</time>
      </trkpt>
      <trkpt lat="43.38878" lon="6.09562">
        <ele>248</ele>
        <time>2013-12-14T16:03:17Z</time>
      </trkpt>
      <trkpt lat="43.38878" lon="6.09558">
        <ele>248</ele>
        <time>2013-12-14T16:03:19Z</time>
      </trkpt>
      <trkpt lat="43.38877" lon="6.09556">
        <ele>248</ele>
        <time>2013-12-14T16:03:20Z</time>
      </trkpt>
      <trkpt lat="43.38877" lon="6.09546">
        <ele>248.39999389648</ele>
        <time>2013-12-14T16:03:24Z</time>
      </trkpt>
      <trkpt lat="43.38876" lon="6.09539">
        <ele>249.19999694824</ele>
        <time>2013-12-14T16:03:26Z</time>
      </trkpt>
      <trkpt lat="43.38876" lon="6.09536">
        <ele>249.60000610352</ele>
        <time>2013-12-14T16:03:27Z</time>
      </trkpt>
      <trkpt lat="43.38876" lon="6.09532">
        <ele>250</ele>
        <time>2013-12-14T16:03:28Z</time>
      </trkpt>
      <trkpt lat="43.38874" lon="6.09507">
        <ele>250</ele>
        <time>2013-12-14T16:03:35Z</time>
      </trkpt>
      <trkpt lat="43.38872" lon="6.09484">
        <ele>250</ele>
        <time>2013-12-14T16:03:42Z</time>
      </trkpt>
      <trkpt lat="43.38871" lon="6.09464">
        <ele>250</ele>
        <time>2013-12-14T16:03:47Z</time>
      </trkpt>
      <trkpt lat="43.38872" lon="6.09455">
        <ele>250</ele>
        <time>2013-12-14T16:03:50Z</time>
      </trkpt>
      <trkpt lat="43.38872" lon="6.09452">
        <ele>250</ele>
        <time>2013-12-14T16:03:51Z</time>
      </trkpt>
      <trkpt lat="43.38876" lon="6.09441">
        <ele>250</ele>
        <time>2013-12-14T16:03:55Z</time>
      </trkpt>
      <trkpt lat="43.38878" lon="6.09437">
        <ele>250</ele>
        <time>2013-12-14T16:03:57Z</time>
      </trkpt>
      <trkpt lat="43.38886" lon="6.09424">
        <ele>250</ele>
        <time>2013-12-14T16:04:05Z</time>
      </trkpt>
      <trkpt lat="43.38887" lon="6.09423">
        <ele>250</ele>
        <time>2013-12-14T16:04:06Z</time>
      </trkpt>
      <trkpt lat="43.38889" lon="6.09422">
        <ele>250</ele>
        <time>2013-12-14T16:04:07Z</time>
      </trkpt>
      <trkpt lat="43.38891" lon="6.09413">
        <ele>250</ele>
        <time>2013-12-14T16:04:11Z</time>
      </trkpt>
      <trkpt lat="43.38892" lon="6.09411">
        <ele>249.60000610352</ele>
        <time>2013-12-14T16:04:13Z</time>
      </trkpt>
      <trkpt lat="43.38892" lon="6.09411">
        <ele>249.19999694824</ele>
        <time>2013-12-14T16:04:14Z</time>
      </trkpt>
      <trkpt lat="43.38892" lon="6.09411">
        <ele>248</ele>
        <time>2013-12-14T16:04:25Z</time>
      </trkpt>
      <trkpt lat="43.38892" lon="6.09411">
        <ele>248</ele>
        <time>2013-12-14T16:04:34Z</time>
      </trkpt>
      <trkpt lat="43.38892" lon="6.09409">
        <ele>248</ele>
        <time>2013-12-14T16:04:37Z</time>
      </trkpt>
      <trkpt lat="43.38899" lon="6.094">
        <ele>248</ele>
        <time>2013-12-14T16:04:41Z</time>
      </trkpt>
      <trkpt lat="43.38906" lon="6.09389">
        <ele>247.60000610352</ele>
        <time>2013-12-14T16:04:45Z</time>
      </trkpt>
      <trkpt lat="43.38909" lon="6.09385">
        <ele>247.19999694824</ele>
        <time>2013-12-14T16:04:46Z</time>
      </trkpt>
      <trkpt lat="43.38913" lon="6.09382">
        <ele>246.80000305176</ele>
        <time>2013-12-14T16:04:47Z</time>
      </trkpt>
      <trkpt lat="43.38917" lon="6.09379">
        <ele>246.19999694824</ele>
        <time>2013-12-14T16:04:48Z</time>
      </trkpt>
      <trkpt lat="43.38921" lon="6.09375">
        <ele>245.80000305176</ele>
        <time>2013-12-14T16:04:49Z</time>
      </trkpt>
      <trkpt lat="43.38932" lon="6.09363">
        <ele>245</ele>
        <time>2013-12-14T16:04:52Z</time>
      </trkpt>
      <trkpt lat="43.38935" lon="6.09359">
        <ele>244.60000610352</ele>
        <time>2013-12-14T16:04:53Z</time>
      </trkpt>
      <trkpt lat="43.38938" lon="6.09356">
        <ele>244.19999694824</ele>
        <time>2013-12-14T16:04:54Z</time>
      </trkpt>
      <trkpt lat="43.3894" lon="6.09353">
        <ele>243.80000305176</ele>
        <time>2013-12-14T16:04:55Z</time>
      </trkpt>
      <trkpt lat="43.38943" lon="6.0935">
        <ele>243.80000305176</ele>
        <time>2013-12-14T16:04:56Z</time>
      </trkpt>
      <trkpt lat="43.38954" lon="6.09334">
        <ele>243.80000305176</ele>
        <time>2013-12-14T16:05:00Z</time>
      </trkpt>
      <trkpt lat="43.38956" lon="6.09329">
        <ele>243.80000305176</ele>
        <time>2013-12-14T16:05:01Z</time>
      </trkpt>
      <trkpt lat="43.38968" lon="6.09305">
        <ele>243.80000305176</ele>
        <time>2013-12-14T16:05:07Z</time>
      </trkpt>
      <trkpt lat="43.38969" lon="6.093">
        <ele>243.39999389648</ele>
        <time>2013-12-14T16:05:08Z</time>
      </trkpt>
      <trkpt lat="43.38976" lon="6.09291">
        <ele>242.60000610352</ele>
        <time>2013-12-14T16:05:10Z</time>
      </trkpt>
      <trkpt lat="43.3898" lon="6.09279">
        <ele>241.80000305176</ele>
        <time>2013-12-14T16:05:12Z</time>
      </trkpt>
      <trkpt lat="43.38985" lon="6.09264">
        <ele>241.39999389648</ele>
        <time>2013-12-14T16:05:14Z</time>
      </trkpt>
      <trkpt lat="43.38988" lon="6.09257">
        <ele>241</ele>
        <time>2013-12-14T16:05:15Z</time>
      </trkpt>
      <trkpt lat="43.3899" lon="6.09249">
        <ele>240.60000610352</ele>
        <time>2013-12-14T16:05:16Z</time>
      </trkpt>
      <trkpt lat="43.38993" lon="6.09241">
        <ele>240.19999694824</ele>
        <time>2013-12-14T16:05:17Z</time>
      </trkpt>
      <trkpt lat="43.38995" lon="6.09234">
        <ele>239.80000305176</ele>
        <time>2013-12-14T16:05:18Z</time>
      </trkpt>
      <trkpt lat="43.39002" lon="6.09209">
        <ele>239.80000305176</ele>
        <time>2013-12-14T16:05:21Z</time>
      </trkpt>
      <trkpt lat="43.39007" lon="6.09188">
        <ele>239.80000305176</ele>
        <time>2013-12-14T16:05:24Z</time>
      </trkpt>
      <trkpt lat="43.39008" lon="6.09182">
        <ele>239.80000305176</ele>
        <time>2013-12-14T16:05:25Z</time>
      </trkpt>
      <trkpt lat="43.39014" lon="6.09158">
        <ele>239.80000305176</ele>
        <time>2013-12-14T16:05:29Z</time>
      </trkpt>
      <trkpt lat="43.39018" lon="6.0915">
        <ele>239.80000305176</ele>
        <time>2013-12-14T16:05:34Z</time>
      </trkpt>
      <trkpt lat="43.39019" lon="6.09145">
        <ele>239.80000305176</ele>
        <time>2013-12-14T16:05:37Z</time>
      </trkpt>
      <trkpt lat="43.39019" lon="6.09138">
        <ele>239.80000305176</ele>
        <time>2013-12-14T16:05:40Z</time>
      </trkpt>
      <trkpt lat="43.39021" lon="6.09134">
        <ele>239.80000305176</ele>
        <time>2013-12-14T16:05:41Z</time>
      </trkpt>
      <trkpt lat="43.39024" lon="6.09122">
        <ele>239.39999389648</ele>
        <time>2013-12-14T16:05:44Z</time>
      </trkpt>
      <trkpt lat="43.39025" lon="6.09118">
        <ele>238.80000305176</ele>
        <time>2013-12-14T16:05:45Z</time>
      </trkpt>
      <trkpt lat="43.3903" lon="6.09108">
        <ele>237.60000610352</ele>
        <time>2013-12-14T16:05:47Z</time>
      </trkpt>
      <trkpt lat="43.39035" lon="6.09093">
        <ele>237.60000610352</ele>
        <time>2013-12-14T16:05:50Z</time>
      </trkpt>
      <trkpt lat="43.39046" lon="6.09066">
        <ele>237.60000610352</ele>
        <time>2013-12-14T16:05:55Z</time>
      </trkpt>
      <trkpt lat="43.3905" lon="6.09055">
        <ele>237.60000610352</ele>
        <time>2013-12-14T16:05:57Z</time>
      </trkpt>
      <trkpt lat="43.39063" lon="6.09029">
        <ele>237.19999694824</ele>
        <time>2013-12-14T16:06:02Z</time>
      </trkpt>
      <trkpt lat="43.39065" lon="6.09023">
        <ele>236.80000305176</ele>
        <time>2013-12-14T16:06:03Z</time>
      </trkpt>
      <trkpt lat="43.39072" lon="6.09008">
        <ele>235.60000610352</ele>
        <time>2013-12-14T16:06:06Z</time>
      </trkpt>
      <trkpt lat="43.39085" lon="6.08974">
        <ele>235.60000610352</ele>
        <time>2013-12-14T16:06:13Z</time>
      </trkpt>
      <trkpt lat="43.39093" lon="6.08945">
        <ele>235.60000610352</ele>
        <time>2013-12-14T16:06:19Z</time>
      </trkpt>
      <trkpt lat="43.39104" lon="6.08888">
        <ele>235.60000610352</ele>
        <time>2013-12-14T16:06:30Z</time>
      </trkpt>
      <trkpt lat="43.3911" lon="6.08873">
        <ele>235.19999694824</ele>
        <time>2013-12-14T16:06:33Z</time>
      </trkpt>
      <trkpt lat="43.39112" lon="6.08859">
        <ele>233.39999389648</ele>
        <time>2013-12-14T16:06:36Z</time>
      </trkpt>
      <trkpt lat="43.39115" lon="6.08841">
        <ele>233.39999389648</ele>
        <time>2013-12-14T16:06:39Z</time>
      </trkpt>
      <trkpt lat="43.39117" lon="6.08835">
        <ele>233.39999389648</ele>
        <time>2013-12-14T16:06:40Z</time>
      </trkpt>
      <trkpt lat="43.39122" lon="6.0881">
        <ele>233.39999389648</ele>
        <time>2013-12-14T16:06:44Z</time>
      </trkpt>
      <trkpt lat="43.39128" lon="6.08785">
        <ele>233.39999389648</ele>
        <time>2013-12-14T16:06:49Z</time>
      </trkpt>
      <trkpt lat="43.39137" lon="6.08759">
        <ele>233</ele>
        <time>2013-12-14T16:06:54Z</time>
      </trkpt>
      <trkpt lat="43.39137" lon="6.08756">
        <ele>232.60000610352</ele>
        <time>2013-12-14T16:06:55Z</time>
      </trkpt>
      <trkpt lat="43.39138" lon="6.08752">
        <ele>231.80000305176</ele>
        <time>2013-12-14T16:06:57Z</time>
      </trkpt>
      <trkpt lat="43.39138" lon="6.0875">
        <ele>231.39999389648</ele>
        <time>2013-12-14T16:06:58Z</time>
      </trkpt>
      <trkpt lat="43.39138" lon="6.08749">
        <ele>231.39999389648</ele>
        <time>2013-12-14T16:06:59Z</time>
      </trkpt>
      <trkpt lat="43.39139" lon="6.08743">
        <ele>231.39999389648</ele>
        <time>2013-12-14T16:07:04Z</time>
      </trkpt>
      <trkpt lat="43.39145" lon="6.08723">
        <ele>231.39999389648</ele>
        <time>2013-12-14T16:07:11Z</time>
      </trkpt>
      <trkpt lat="43.3915" lon="6.08689">
        <ele>231.39999389648</ele>
        <time>2013-12-14T16:07:17Z</time>
      </trkpt>
      <trkpt lat="43.39154" lon="6.08667">
        <ele>231.39999389648</ele>
        <time>2013-12-14T16:07:21Z</time>
      </trkpt>
      <trkpt lat="43.39156" lon="6.08644">
        <ele>231.39999389648</ele>
        <time>2013-12-14T16:07:25Z</time>
      </trkpt>
      <trkpt lat="43.39161" lon="6.0863">
        <ele>231.39999389648</ele>
        <time>2013-12-14T16:07:28Z</time>
      </trkpt>
      <trkpt lat="43.39164" lon="6.08619">
        <ele>231.39999389648</ele>
        <time>2013-12-14T16:07:30Z</time>
      </trkpt>
      <trkpt lat="43.39169" lon="6.0859">
        <ele>231.39999389648</ele>
        <time>2013-12-14T16:07:36Z</time>
      </trkpt>
      <trkpt lat="43.39174" lon="6.08567">
        <ele>231.39999389648</ele>
        <time>2013-12-14T16:07:41Z</time>
      </trkpt>
      <trkpt lat="43.39187" lon="6.08516">
        <ele>231.39999389648</ele>
        <time>2013-12-14T16:07:54Z</time>
      </trkpt>
      <trkpt lat="43.39193" lon="6.08501">
        <ele>231.39999389648</ele>
        <time>2013-12-14T16:07:59Z</time>
      </trkpt>
      <trkpt lat="43.39197" lon="6.0849">
        <ele>231.39999389648</ele>
        <time>2013-12-14T16:08:03Z</time>
      </trkpt>
      <trkpt lat="43.39203" lon="6.08442">
        <ele>231.39999389648</ele>
        <time>2013-12-14T16:08:12Z</time>
      </trkpt>
      <trkpt lat="43.39203" lon="6.08438">
        <ele>231.39999389648</ele>
        <time>2013-12-14T16:08:13Z</time>
      </trkpt>
      <trkpt lat="43.39203" lon="6.08424">
        <ele>231</ele>
        <time>2013-12-14T16:08:16Z</time>
      </trkpt>
      <trkpt lat="43.3921" lon="6.08408">
        <ele>229.39999389648</ele>
        <time>2013-12-14T16:08:19Z</time>
      </trkpt>
      <trkpt lat="43.39212" lon="6.08404">
        <ele>228.80000305176</ele>
        <time>2013-12-14T16:08:20Z</time>
      </trkpt>
      <trkpt lat="43.39213" lon="6.08399">
        <ele>228.39999389648</ele>
        <time>2013-12-14T16:08:21Z</time>
      </trkpt>
      <trkpt lat="43.39212" lon="6.08387">
        <ele>227.19999694824</ele>
        <time>2013-12-14T16:08:23Z</time>
      </trkpt>
      <trkpt lat="43.39213" lon="6.0838">
        <ele>226.80000305176</ele>
        <time>2013-12-14T16:08:24Z</time>
      </trkpt>
      <trkpt lat="43.39216" lon="6.08367">
        <ele>226.19999694824</ele>
        <time>2013-12-14T16:08:26Z</time>
      </trkpt>
      <trkpt lat="43.3922" lon="6.08345">
        <ele>225</ele>
        <time>2013-12-14T16:08:29Z</time>
      </trkpt>
      <trkpt lat="43.39221" lon="6.08333">
        <ele>224.19999694824</ele>
        <time>2013-12-14T16:08:31Z</time>
      </trkpt>
      <trkpt lat="43.39222" lon="6.08329">
        <ele>223.60000610352</ele>
        <time>2013-12-14T16:08:32Z</time>
      </trkpt>
      <trkpt lat="43.39223" lon="6.08322">
        <ele>222.80000305176</ele>
        <time>2013-12-14T16:08:34Z</time>
      </trkpt>
      <trkpt lat="43.39228" lon="6.08317">
        <ele>221.80000305176</ele>
        <time>2013-12-14T16:08:36Z</time>
      </trkpt>
      <trkpt lat="43.3923" lon="6.08315">
        <ele>221.39999389648</ele>
        <time>2013-12-14T16:08:37Z</time>
      </trkpt>
      <trkpt lat="43.39231" lon="6.08311">
        <ele>220.39999389648</ele>
        <time>2013-12-14T16:08:38Z</time>
      </trkpt>
      <trkpt lat="43.39234" lon="6.08303">
        <ele>220</ele>
        <time>2013-12-14T16:08:40Z</time>
      </trkpt>
      <trkpt lat="43.39236" lon="6.08298">
        <ele>219.60000610352</ele>
        <time>2013-12-14T16:08:41Z</time>
      </trkpt>
      <trkpt lat="43.3924" lon="6.08289">
        <ele>218.60000610352</ele>
        <time>2013-12-14T16:08:43Z</time>
      </trkpt>
      <trkpt lat="43.39243" lon="6.08281">
        <ele>217.80000305176</ele>
        <time>2013-12-14T16:08:45Z</time>
      </trkpt>
      <trkpt lat="43.39249" lon="6.08274">
        <ele>216.80000305176</ele>
        <time>2013-12-14T16:08:47Z</time>
      </trkpt>
      <trkpt lat="43.39252" lon="6.08271">
        <ele>216.19999694824</ele>
        <time>2013-12-14T16:08:48Z</time>
      </trkpt>
      <trkpt lat="43.39256" lon="6.08267">
        <ele>216.19999694824</ele>
        <time>2013-12-14T16:08:49Z</time>
      </trkpt>
      <trkpt lat="43.39264" lon="6.08253">
        <ele>215.19999694824</ele>
        <time>2013-12-14T16:08:52Z</time>
      </trkpt>
      <trkpt lat="43.39265" lon="6.08243">
        <ele>214.39999389648</ele>
        <time>2013-12-14T16:08:54Z</time>
      </trkpt>
      <trkpt lat="43.39266" lon="6.08238">
        <ele>213.80000305176</ele>
        <time>2013-12-14T16:08:55Z</time>
      </trkpt>
      <trkpt lat="43.39268" lon="6.08227">
        <ele>213.39999389648</ele>
        <time>2013-12-14T16:08:57Z</time>
      </trkpt>
      <trkpt lat="43.3927" lon="6.08215">
        <ele>212.60000610352</ele>
        <time>2013-12-14T16:08:59Z</time>
      </trkpt>
      <trkpt lat="43.39273" lon="6.08193">
        <ele>211.19999694824</ele>
        <time>2013-12-14T16:09:03Z</time>
      </trkpt>
      <trkpt lat="43.39275" lon="6.08184">
        <ele>210.39999389648</ele>
        <time>2013-12-14T16:09:05Z</time>
      </trkpt>
      <trkpt lat="43.39275" lon="6.08179">
        <ele>210</ele>
        <time>2013-12-14T16:09:06Z</time>
      </trkpt>
      <trkpt lat="43.39277" lon="6.08173">
        <ele>209</ele>
        <time>2013-12-14T16:09:08Z</time>
      </trkpt>
      <trkpt lat="43.39278" lon="6.08169">
        <ele>208.60000610352</ele>
        <time>2013-12-14T16:09:09Z</time>
      </trkpt>
      <trkpt lat="43.3928" lon="6.08164">
        <ele>208.19999694824</ele>
        <time>2013-12-14T16:09:10Z</time>
      </trkpt>
      <trkpt lat="43.39283" lon="6.08155">
        <ele>207.39999389648</ele>
        <time>2013-12-14T16:09:12Z</time>
      </trkpt>
      <trkpt lat="43.39283" lon="6.08144">
        <ele>207.39999389648</ele>
        <time>2013-12-14T16:09:15Z</time>
      </trkpt>
      <trkpt lat="43.39288" lon="6.08129">
        <ele>206</ele>
        <time>2013-12-14T16:09:18Z</time>
      </trkpt>
      <trkpt lat="43.39292" lon="6.0812">
        <ele>205</ele>
        <time>2013-12-14T16:09:20Z</time>
      </trkpt>
      <trkpt lat="43.39294" lon="6.08116">
        <ele>205</ele>
        <time>2013-12-14T16:09:21Z</time>
      </trkpt>
      <trkpt lat="43.39304" lon="6.08099">
        <ele>205</ele>
        <time>2013-12-14T16:09:25Z</time>
      </trkpt>
      <trkpt lat="43.39306" lon="6.08094">
        <ele>204.60000610352</ele>
        <time>2013-12-14T16:09:26Z</time>
      </trkpt>
      <trkpt lat="43.39309" lon="6.08091">
        <ele>203.80000305176</ele>
        <time>2013-12-14T16:09:27Z</time>
      </trkpt>
      <trkpt lat="43.39315" lon="6.08083">
        <ele>202.80000305176</ele>
        <time>2013-12-14T16:09:29Z</time>
      </trkpt>
      <trkpt lat="43.39319" lon="6.08078">
        <ele>202.80000305176</ele>
        <time>2013-12-14T16:09:30Z</time>
      </trkpt>
      <trkpt lat="43.39327" lon="6.08063">
        <ele>202.80000305176</ele>
        <time>2013-12-14T16:09:33Z</time>
      </trkpt>
      <trkpt lat="43.39333" lon="6.08053">
        <ele>202.80000305176</ele>
        <time>2013-12-14T16:09:35Z</time>
      </trkpt>
      <trkpt lat="43.39338" lon="6.08045">
        <ele>202</ele>
        <time>2013-12-14T16:09:37Z</time>
      </trkpt>
      <trkpt lat="43.39342" lon="6.08041">
        <ele>201.19999694824</ele>
        <time>2013-12-14T16:09:39Z</time>
      </trkpt>
      <trkpt lat="43.39346" lon="6.08039">
        <ele>200.80000305176</ele>
        <time>2013-12-14T16:09:40Z</time>
      </trkpt>
      <trkpt lat="43.39361" lon="6.08021">
        <ele>200.39999389648</ele>
        <time>2013-12-14T16:09:44Z</time>
      </trkpt>
      <trkpt lat="43.39368" lon="6.08011">
        <ele>199.39999389648</ele>
        <time>2013-12-14T16:09:46Z</time>
      </trkpt>
      <trkpt lat="43.39375" lon="6.08003">
        <ele>198.60000610352</ele>
        <time>2013-12-14T16:09:48Z</time>
      </trkpt>
      <trkpt lat="43.39379" lon="6.08">
        <ele>198.19999694824</ele>
        <time>2013-12-14T16:09:49Z</time>
      </trkpt>
      <trkpt lat="43.39383" lon="6.07996">
        <ele>197.80000305176</ele>
        <time>2013-12-14T16:09:50Z</time>
      </trkpt>
      <trkpt lat="43.39387" lon="6.07993">
        <ele>197.39999389648</ele>
        <time>2013-12-14T16:09:51Z</time>
      </trkpt>
      <trkpt lat="43.39391" lon="6.0799">
        <ele>197</ele>
        <time>2013-12-14T16:09:52Z</time>
      </trkpt>
      <trkpt lat="43.39399" lon="6.07988">
        <ele>196.39999389648</ele>
        <time>2013-12-14T16:09:54Z</time>
      </trkpt>
      <trkpt lat="43.39413" lon="6.07982">
        <ele>196</ele>
        <time>2013-12-14T16:09:57Z</time>
      </trkpt>
      <trkpt lat="43.39423" lon="6.07981">
        <ele>195.19999694824</ele>
        <time>2013-12-14T16:09:59Z</time>
      </trkpt>
      <trkpt lat="43.39434" lon="6.07978">
        <ele>194.39999389648</ele>
        <time>2013-12-14T16:10:02Z</time>
      </trkpt>
      <trkpt lat="43.39437" lon="6.07975">
        <ele>194.39999389648</ele>
        <time>2013-12-14T16:10:03Z</time>
      </trkpt>
      <trkpt lat="43.39445" lon="6.07969">
        <ele>193.60000610352</ele>
        <time>2013-12-14T16:10:05Z</time>
      </trkpt>
      <trkpt lat="43.3945" lon="6.07966">
        <ele>193.19999694824</ele>
        <time>2013-12-14T16:10:06Z</time>
      </trkpt>
      <trkpt lat="43.39459" lon="6.07962">
        <ele>192.39999389648</ele>
        <time>2013-12-14T16:10:08Z</time>
      </trkpt>
      <trkpt lat="43.39468" lon="6.07958">
        <ele>192.39999389648</ele>
        <time>2013-12-14T16:10:10Z</time>
      </trkpt>
      <trkpt lat="43.39472" lon="6.07957">
        <ele>192.39999389648</ele>
        <time>2013-12-14T16:10:11Z</time>
      </trkpt>
      <trkpt lat="43.39477" lon="6.07957">
        <ele>192</ele>
        <time>2013-12-14T16:10:12Z</time>
      </trkpt>
      <trkpt lat="43.39482" lon="6.07958">
        <ele>191.39999389648</ele>
        <time>2013-12-14T16:10:13Z</time>
      </trkpt>
      <trkpt lat="43.39487" lon="6.0796">
        <ele>191</ele>
        <time>2013-12-14T16:10:14Z</time>
      </trkpt>
      <trkpt lat="43.39496" lon="6.07962">
        <ele>190.19999694824</ele>
        <time>2013-12-14T16:10:16Z</time>
      </trkpt>
      <trkpt lat="43.39504" lon="6.07959">
        <ele>190.19999694824</ele>
        <time>2013-12-14T16:10:18Z</time>
      </trkpt>
      <trkpt lat="43.39509" lon="6.07957">
        <ele>190.19999694824</ele>
        <time>2013-12-14T16:10:19Z</time>
      </trkpt>
      <trkpt lat="43.39515" lon="6.07956">
        <ele>189.80000305176</ele>
        <time>2013-12-14T16:10:20Z</time>
      </trkpt>
      <trkpt lat="43.3952" lon="6.07954">
        <ele>189.19999694824</ele>
        <time>2013-12-14T16:10:21Z</time>
      </trkpt>
      <trkpt lat="43.39532" lon="6.07947">
        <ele>188.39999389648</ele>
        <time>2013-12-14T16:10:23Z</time>
      </trkpt>
      <trkpt lat="43.3954" lon="6.07943">
        <ele>188</ele>
        <time>2013-12-14T16:10:24Z</time>
      </trkpt>
      <trkpt lat="43.39547" lon="6.0794">
        <ele>187.60000610352</ele>
        <time>2013-12-14T16:10:25Z</time>
      </trkpt>
      <trkpt lat="43.39565" lon="6.07934">
        <ele>186</ele>
        <time>2013-12-14T16:10:28Z</time>
      </trkpt>
      <trkpt lat="43.3957" lon="6.07932">
        <ele>185.39999389648</ele>
        <time>2013-12-14T16:10:29Z</time>
      </trkpt>
      <trkpt lat="43.39573" lon="6.07928">
        <ele>184.80000305176</ele>
        <time>2013-12-14T16:10:30Z</time>
      </trkpt>
      <trkpt lat="43.39577" lon="6.07917">
        <ele>183.39999389648</ele>
        <time>2013-12-14T16:10:32Z</time>
      </trkpt>
      <trkpt lat="43.39582" lon="6.07907">
        <ele>182.19999694824</ele>
        <time>2013-12-14T16:10:34Z</time>
      </trkpt>
      <trkpt lat="43.3959" lon="6.07907">
        <ele>181</ele>
        <time>2013-12-14T16:10:36Z</time>
      </trkpt>
      <trkpt lat="43.39603" lon="6.07905">
        <ele>180.19999694824</ele>
        <time>2013-12-14T16:10:38Z</time>
      </trkpt>
      <trkpt lat="43.39611" lon="6.07903">
        <ele>179.80000305176</ele>
        <time>2013-12-14T16:10:39Z</time>
      </trkpt>
      <trkpt lat="43.39618" lon="6.07899">
        <ele>179.19999694824</ele>
        <time>2013-12-14T16:10:40Z</time>
      </trkpt>
      <trkpt lat="43.39626" lon="6.07897">
        <ele>178.60000610352</ele>
        <time>2013-12-14T16:10:41Z</time>
      </trkpt>
      <trkpt lat="43.39634" lon="6.07895">
        <ele>177.39999389648</ele>
        <time>2013-12-14T16:10:42Z</time>
      </trkpt>
      <trkpt lat="43.39641" lon="6.07893">
        <ele>176.80000305176</ele>
        <time>2013-12-14T16:10:43Z</time>
      </trkpt>
      <trkpt lat="43.39655" lon="6.07891">
        <ele>176.19999694824</ele>
        <time>2013-12-14T16:10:45Z</time>
      </trkpt>
      <trkpt lat="43.3967" lon="6.07893">
        <ele>175.80000305176</ele>
        <time>2013-12-14T16:10:47Z</time>
      </trkpt>
      <trkpt lat="43.39676" lon="6.07895">
        <ele>175.39999389648</ele>
        <time>2013-12-14T16:10:48Z</time>
      </trkpt>
      <trkpt lat="43.39684" lon="6.07898">
        <ele>175</ele>
        <time>2013-12-14T16:10:49Z</time>
      </trkpt>
      <trkpt lat="43.3969" lon="6.07903">
        <ele>174.39999389648</ele>
        <time>2013-12-14T16:10:50Z</time>
      </trkpt>
      <trkpt lat="43.39716" lon="6.07936">
        <ele>172.80000305176</ele>
        <time>2013-12-14T16:10:54Z</time>
      </trkpt>
      <trkpt lat="43.39724" lon="6.07945">
        <ele>172</ele>
        <time>2013-12-14T16:10:55Z</time>
      </trkpt>
      <trkpt lat="43.39738" lon="6.07959">
        <ele>170.60000610352</ele>
        <time>2013-12-14T16:10:57Z</time>
      </trkpt>
      <trkpt lat="43.39746" lon="6.07965">
        <ele>169.80000305176</ele>
        <time>2013-12-14T16:10:58Z</time>
      </trkpt>
      <trkpt lat="43.39754" lon="6.0797">
        <ele>169.19999694824</ele>
        <time>2013-12-14T16:10:59Z</time>
      </trkpt>
      <trkpt lat="43.39762" lon="6.07975">
        <ele>168.60000610352</ele>
        <time>2013-12-14T16:11:00Z</time>
      </trkpt>
      <trkpt lat="43.3977" lon="6.0798">
        <ele>167.80000305176</ele>
        <time>2013-12-14T16:11:01Z</time>
      </trkpt>
      <trkpt lat="43.39779" lon="6.07984">
        <ele>167.19999694824</ele>
        <time>2013-12-14T16:11:02Z</time>
      </trkpt>
      <trkpt lat="43.39788" lon="6.07988">
        <ele>166.80000305176</ele>
        <time>2013-12-14T16:11:03Z</time>
      </trkpt>
      <trkpt lat="43.39797" lon="6.07992">
        <ele>166.19999694824</ele>
        <time>2013-12-14T16:11:04Z</time>
      </trkpt>
      <trkpt lat="43.39806" lon="6.07995">
        <ele>165.60000610352</ele>
        <time>2013-12-14T16:11:05Z</time>
      </trkpt>
      <trkpt lat="43.39815" lon="6.07999">
        <ele>165</ele>
        <time>2013-12-14T16:11:06Z</time>
      </trkpt>
      <trkpt lat="43.39823" lon="6.08004">
        <ele>164</ele>
        <time>2013-12-14T16:11:07Z</time>
      </trkpt>
      <trkpt lat="43.39831" lon="6.08008">
        <ele>163.39999389648</ele>
        <time>2013-12-14T16:11:08Z</time>
      </trkpt>
      <trkpt lat="43.39838" lon="6.08014">
        <ele>163</ele>
        <time>2013-12-14T16:11:09Z</time>
      </trkpt>
      <trkpt lat="43.39845" lon="6.08019">
        <ele>162.60000610352</ele>
        <time>2013-12-14T16:11:10Z</time>
      </trkpt>
      <trkpt lat="43.39852" lon="6.08024">
        <ele>162.19999694824</ele>
        <time>2013-12-14T16:11:11Z</time>
      </trkpt>
      <trkpt lat="43.39864" lon="6.08032">
        <ele>162.19999694824</ele>
        <time>2013-12-14T16:11:13Z</time>
      </trkpt>
      <trkpt lat="43.39873" lon="6.08037">
        <ele>162.19999694824</ele>
        <time>2013-12-14T16:11:15Z</time>
      </trkpt>
      <trkpt lat="43.39877" lon="6.08038">
        <ele>162.19999694824</ele>
        <time>2013-12-14T16:11:16Z</time>
      </trkpt>
      <trkpt lat="43.39889" lon="6.0804">
        <ele>162.19999694824</ele>
        <time>2013-12-14T16:11:19Z</time>
      </trkpt>
      <trkpt lat="43.39895" lon="6.08037">
        <ele>162.19999694824</ele>
        <time>2013-12-14T16:11:21Z</time>
      </trkpt>
      <trkpt lat="43.39901" lon="6.0803">
        <ele>162.19999694824</ele>
        <time>2013-12-14T16:11:23Z</time>
      </trkpt>
      <trkpt lat="43.39907" lon="6.08022">
        <ele>162.19999694824</ele>
        <time>2013-12-14T16:11:25Z</time>
      </trkpt>
      <trkpt lat="43.39919" lon="6.08009">
        <ele>162.60000610352</ele>
        <time>2013-12-14T16:11:29Z</time>
      </trkpt>
      <trkpt lat="43.39921" lon="6.08006">
        <ele>163</ele>
        <time>2013-12-14T16:11:30Z</time>
      </trkpt>
      <trkpt lat="43.39928" lon="6.08001">
        <ele>164.19999694824</ele>
        <time>2013-12-14T16:11:32Z</time>
      </trkpt>
      <trkpt lat="43.39944" lon="6.07992">
        <ele>164.19999694824</ele>
        <time>2013-12-14T16:11:36Z</time>
      </trkpt>
      <trkpt lat="43.39957" lon="6.07985">
        <ele>164.19999694824</ele>
        <time>2013-12-14T16:11:39Z</time>
      </trkpt>
      <trkpt lat="43.39968" lon="6.07978">
        <ele>164.19999694824</ele>
        <time>2013-12-14T16:11:42Z</time>
      </trkpt>
      <trkpt lat="43.39978" lon="6.07958">
        <ele>164.19999694824</ele>
        <time>2013-12-14T16:11:46Z</time>
      </trkpt>
      <trkpt lat="43.39981" lon="6.07951">
        <ele>163.80000305176</ele>
        <time>2013-12-14T16:11:47Z</time>
      </trkpt>
      <trkpt lat="43.39983" lon="6.07943">
        <ele>163.39999389648</ele>
        <time>2013-12-14T16:11:48Z</time>
      </trkpt>
      <trkpt lat="43.39986" lon="6.07934">
        <ele>162.80000305176</ele>
        <time>2013-12-14T16:11:49Z</time>
      </trkpt>
      <trkpt lat="43.39991" lon="6.07915">
        <ele>162</ele>
        <time>2013-12-14T16:11:51Z</time>
      </trkpt>
      <trkpt lat="43.39995" lon="6.07897">
        <ele>161</ele>
        <time>2013-12-14T16:11:53Z</time>
      </trkpt>
      <trkpt lat="43.39997" lon="6.07888">
        <ele>160.39999389648</ele>
        <time>2013-12-14T16:11:54Z</time>
      </trkpt>
      <trkpt lat="43.39999" lon="6.07878">
        <ele>160</ele>
        <time>2013-12-14T16:11:55Z</time>
      </trkpt>
      <trkpt lat="43.40001" lon="6.0787">
        <ele>160</ele>
        <time>2013-12-14T16:11:56Z</time>
      </trkpt>
      <trkpt lat="43.40006" lon="6.07847">
        <ele>159.60000610352</ele>
        <time>2013-12-14T16:11:59Z</time>
      </trkpt>
      <trkpt lat="43.40012" lon="6.07827">
        <ele>158.19999694824</ele>
        <time>2013-12-14T16:12:02Z</time>
      </trkpt>
      <trkpt lat="43.40016" lon="6.07814">
        <ele>157.80000305176</ele>
        <time>2013-12-14T16:12:04Z</time>
      </trkpt>
      <trkpt lat="43.40031" lon="6.07765">
        <ele>157.80000305176</ele>
        <time>2013-12-14T16:12:11Z</time>
      </trkpt>
      <trkpt lat="43.40052" lon="6.07721">
        <ele>157.80000305176</ele>
        <time>2013-12-14T16:12:18Z</time>
      </trkpt>
      <trkpt lat="43.40069" lon="6.07697">
        <ele>157.80000305176</ele>
        <time>2013-12-14T16:12:23Z</time>
      </trkpt>
      <trkpt lat="43.40079" lon="6.07679">
        <ele>157.39999389648</ele>
        <time>2013-12-14T16:12:26Z</time>
      </trkpt>
      <trkpt lat="43.40086" lon="6.07665">
        <ele>156.60000610352</ele>
        <time>2013-12-14T16:12:28Z</time>
      </trkpt>
      <trkpt lat="43.4009" lon="6.07646">
        <ele>155.80000305176</ele>
        <time>2013-12-14T16:12:30Z</time>
      </trkpt>
      <trkpt lat="43.40091" lon="6.07636">
        <ele>155.19999694824</ele>
        <time>2013-12-14T16:12:31Z</time>
      </trkpt>
      <trkpt lat="43.40091" lon="6.07625">
        <ele>154.80000305176</ele>
        <time>2013-12-14T16:12:32Z</time>
      </trkpt>
      <trkpt lat="43.40092" lon="6.07605">
        <ele>153.80000305176</ele>
        <time>2013-12-14T16:12:34Z</time>
      </trkpt>
      <trkpt lat="43.40094" lon="6.07597">
        <ele>153.19999694824</ele>
        <time>2013-12-14T16:12:35Z</time>
      </trkpt>
      <trkpt lat="43.40096" lon="6.07588">
        <ele>152.60000610352</ele>
        <time>2013-12-14T16:12:36Z</time>
      </trkpt>
      <trkpt lat="43.40099" lon="6.0758">
        <ele>152</ele>
        <time>2013-12-14T16:12:37Z</time>
      </trkpt>
      <trkpt lat="43.40102" lon="6.07573">
        <ele>151.39999389648</ele>
        <time>2013-12-14T16:12:38Z</time>
      </trkpt>
      <trkpt lat="43.40115" lon="6.07554">
        <ele>150.80000305176</ele>
        <time>2013-12-14T16:12:41Z</time>
      </trkpt>
      <trkpt lat="43.40119" lon="6.07547">
        <ele>150.80000305176</ele>
        <time>2013-12-14T16:12:42Z</time>
      </trkpt>
      <trkpt lat="43.40122" lon="6.0754">
        <ele>150.80000305176</ele>
        <time>2013-12-14T16:12:43Z</time>
      </trkpt>
      <trkpt lat="43.40131" lon="6.0752">
        <ele>150.39999389648</ele>
        <time>2013-12-14T16:12:46Z</time>
      </trkpt>
      <trkpt lat="43.40137" lon="6.07506">
        <ele>149.39999389648</ele>
        <time>2013-12-14T16:12:48Z</time>
      </trkpt>
      <trkpt lat="43.40142" lon="6.0749">
        <ele>148.60000610352</ele>
        <time>2013-12-14T16:12:50Z</time>
      </trkpt>
      <trkpt lat="43.40145" lon="6.0747">
        <ele>148.19999694824</ele>
        <time>2013-12-14T16:12:52Z</time>
      </trkpt>
      <trkpt lat="43.40146" lon="6.0745">
        <ele>147.19999694824</ele>
        <time>2013-12-14T16:12:54Z</time>
      </trkpt>
      <trkpt lat="43.40146" lon="6.0744">
        <ele>146.80000305176</ele>
        <time>2013-12-14T16:12:55Z</time>
      </trkpt>
      <trkpt lat="43.40145" lon="6.07431">
        <ele>146.39999389648</ele>
        <time>2013-12-14T16:12:56Z</time>
      </trkpt>
      <trkpt lat="43.40144" lon="6.07421">
        <ele>146.39999389648</ele>
        <time>2013-12-14T16:12:57Z</time>
      </trkpt>
      <trkpt lat="43.40142" lon="6.07412">
        <ele>146.39999389648</ele>
        <time>2013-12-14T16:12:58Z</time>
      </trkpt>
      <trkpt lat="43.40138" lon="6.07394">
        <ele>146</ele>
        <time>2013-12-14T16:13:00Z</time>
      </trkpt>
      <trkpt lat="43.40138" lon="6.07378">
        <ele>145.19999694824</ele>
        <time>2013-12-14T16:13:02Z</time>
      </trkpt>
      <trkpt lat="43.4014" lon="6.07362">
        <ele>144.39999389648</ele>
        <time>2013-12-14T16:13:04Z</time>
      </trkpt>
      <trkpt lat="43.40145" lon="6.07323">
        <ele>144.39999389648</ele>
        <time>2013-12-14T16:13:09Z</time>
      </trkpt>
      <trkpt lat="43.40146" lon="6.07307">
        <ele>144.39999389648</ele>
        <time>2013-12-14T16:13:11Z</time>
      </trkpt>
      <trkpt lat="43.40146" lon="6.07274">
        <ele>144.39999389648</ele>
        <time>2013-12-14T16:13:15Z</time>
      </trkpt>
      <trkpt lat="43.40141" lon="6.07224">
        <ele>144.39999389648</ele>
        <time>2013-12-14T16:13:22Z</time>
      </trkpt>
      <trkpt lat="43.40137" lon="6.07201">
        <ele>142.80000305176</ele>
        <time>2013-12-14T16:13:26Z</time>
      </trkpt>
      <trkpt lat="43.40136" lon="6.07195">
        <ele>142.19999694824</ele>
        <time>2013-12-14T16:13:27Z</time>
      </trkpt>
      <trkpt lat="43.40136" lon="6.07191">
        <ele>142.19999694824</ele>
        <time>2013-12-14T16:13:28Z</time>
      </trkpt>
      <trkpt lat="43.40133" lon="6.07167">
        <ele>142.19999694824</ele>
        <time>2013-12-14T16:13:33Z</time>
      </trkpt>
      <trkpt lat="43.40131" lon="6.07147">
        <ele>142.19999694824</ele>
        <time>2013-12-14T16:13:37Z</time>
      </trkpt>
      <trkpt lat="43.40128" lon="6.07129">
        <ele>142.19999694824</ele>
        <time>2013-12-14T16:13:40Z</time>
      </trkpt>
      <trkpt lat="43.40126" lon="6.07118">
        <ele>142.19999694824</ele>
        <time>2013-12-14T16:13:42Z</time>
      </trkpt>
      <trkpt lat="43.40122" lon="6.07097">
        <ele>142.19999694824</ele>
        <time>2013-12-14T16:13:45Z</time>
      </trkpt>
      <trkpt lat="43.40121" lon="6.07078">
        <ele>142.19999694824</ele>
        <time>2013-12-14T16:13:48Z</time>
      </trkpt>
      <trkpt lat="43.4012" lon="6.07066">
        <ele>142.19999694824</ele>
        <time>2013-12-14T16:13:50Z</time>
      </trkpt>
      <trkpt lat="43.40119" lon="6.07032">
        <ele>142.19999694824</ele>
        <time>2013-12-14T16:13:55Z</time>
      </trkpt>
      <trkpt lat="43.40119" lon="6.06999">
        <ele>142.19999694824</ele>
        <time>2013-12-14T16:14:00Z</time>
      </trkpt>
      <trkpt lat="43.40119" lon="6.06986">
        <ele>142.19999694824</ele>
        <time>2013-12-14T16:14:02Z</time>
      </trkpt>
      <trkpt lat="43.40112" lon="6.06946">
        <ele>142.19999694824</ele>
        <time>2013-12-14T16:14:09Z</time>
      </trkpt>
      <trkpt lat="43.40107" lon="6.06912">
        <ele>142.19999694824</ele>
        <time>2013-12-14T16:14:15Z</time>
      </trkpt>
      <trkpt lat="43.40108" lon="6.06897">
        <ele>143.60000610352</ele>
        <time>2013-12-14T16:14:18Z</time>
      </trkpt>
      <trkpt lat="43.40108" lon="6.06886">
        <ele>144.39999389648</ele>
        <time>2013-12-14T16:14:20Z</time>
      </trkpt>
      <trkpt lat="43.4011" lon="6.06881">
        <ele>144.39999389648</ele>
        <time>2013-12-14T16:14:21Z</time>
      </trkpt>
      <trkpt lat="43.40121" lon="6.06852">
        <ele>144.39999389648</ele>
        <time>2013-12-14T16:14:27Z</time>
      </trkpt>
      <trkpt lat="43.40141" lon="6.06795">
        <ele>143.60000610352</ele>
        <time>2013-12-14T16:14:35Z</time>
      </trkpt>
      <trkpt lat="43.40146" lon="6.06779">
        <ele>142.80000305176</ele>
        <time>2013-12-14T16:14:37Z</time>
      </trkpt>
      <trkpt lat="43.40149" lon="6.06772">
        <ele>142.19999694824</ele>
        <time>2013-12-14T16:14:38Z</time>
      </trkpt>
      <trkpt lat="43.40155" lon="6.06756">
        <ele>142.19999694824</ele>
        <time>2013-12-14T16:14:40Z</time>
      </trkpt>
      <trkpt lat="43.40162" lon="6.0674">
        <ele>141.80000305176</ele>
        <time>2013-12-14T16:14:42Z</time>
      </trkpt>
      <trkpt lat="43.40165" lon="6.06732">
        <ele>141</ele>
        <time>2013-12-14T16:14:43Z</time>
      </trkpt>
      <trkpt lat="43.4017" lon="6.06724">
        <ele>140.60000610352</ele>
        <time>2013-12-14T16:14:44Z</time>
      </trkpt>
      <trkpt lat="43.40177" lon="6.06708">
        <ele>140.19999694824</ele>
        <time>2013-12-14T16:14:46Z</time>
      </trkpt>
      <trkpt lat="43.40184" lon="6.06692">
        <ele>139.80000305176</ele>
        <time>2013-12-14T16:14:48Z</time>
      </trkpt>
      <trkpt lat="43.40186" lon="6.06686">
        <ele>139.39999389648</ele>
        <time>2013-12-14T16:14:49Z</time>
      </trkpt>
      <trkpt lat="43.40189" lon="6.0668">
        <ele>139</ele>
        <time>2013-12-14T16:14:50Z</time>
      </trkpt>
      <trkpt lat="43.40202" lon="6.06653">
        <ele>138.19999694824</ele>
        <time>2013-12-14T16:14:55Z</time>
      </trkpt>
      <trkpt lat="43.40203" lon="6.06648">
        <ele>138.19999694824</ele>
        <time>2013-12-14T16:14:56Z</time>
      </trkpt>
      <trkpt lat="43.40207" lon="6.06638">
        <ele>138.19999694824</ele>
        <time>2013-12-14T16:14:58Z</time>
      </trkpt>
      <trkpt lat="43.40215" lon="6.06624">
        <ele>138.19999694824</ele>
        <time>2013-12-14T16:15:01Z</time>
      </trkpt>
      <trkpt lat="43.40229" lon="6.0661">
        <ele>138.19999694824</ele>
        <time>2013-12-14T16:15:05Z</time>
      </trkpt>
      <trkpt lat="43.40234" lon="6.066">
        <ele>138.19999694824</ele>
        <time>2013-12-14T16:15:07Z</time>
      </trkpt>
      <trkpt lat="43.40247" lon="6.06573">
        <ele>138.19999694824</ele>
        <time>2013-12-14T16:15:13Z</time>
      </trkpt>
      <trkpt lat="43.40254" lon="6.06567">
        <ele>138.19999694824</ele>
        <time>2013-12-14T16:15:15Z</time>
      </trkpt>
      <trkpt lat="43.40263" lon="6.06563">
        <ele>138.19999694824</ele>
        <time>2013-12-14T16:15:17Z</time>
      </trkpt>
      <trkpt lat="43.40279" lon="6.06557">
        <ele>138.19999694824</ele>
        <time>2013-12-14T16:15:21Z</time>
      </trkpt>
      <trkpt lat="43.40311" lon="6.06548">
        <ele>138.19999694824</ele>
        <time>2013-12-14T16:15:30Z</time>
      </trkpt>
      <trkpt lat="43.40337" lon="6.06529">
        <ele>138.19999694824</ele>
        <time>2013-12-14T16:15:38Z</time>
      </trkpt>
      <trkpt lat="43.40353" lon="6.06517">
        <ele>138.19999694824</ele>
        <time>2013-12-14T16:15:43Z</time>
      </trkpt>
      <trkpt lat="43.40368" lon="6.06508">
        <ele>138.19999694824</ele>
        <time>2013-12-14T16:15:48Z</time>
      </trkpt>
      <trkpt lat="43.40381" lon="6.06498">
        <ele>138.19999694824</ele>
        <time>2013-12-14T16:15:53Z</time>
      </trkpt>
      <trkpt lat="43.40385" lon="6.06494">
        <ele>138.19999694824</ele>
        <time>2013-12-14T16:15:55Z</time>
      </trkpt>
      <trkpt lat="43.40391" lon="6.0649">
        <ele>138.19999694824</ele>
        <time>2013-12-14T16:15:58Z</time>
      </trkpt>
      <trkpt lat="43.40393" lon="6.06491">
        <ele>138.19999694824</ele>
        <time>2013-12-14T16:15:59Z</time>
      </trkpt>
      <trkpt lat="43.40395" lon="6.06492">
        <ele>138.19999694824</ele>
        <time>2013-12-14T16:16:00Z</time>
      </trkpt>
      <trkpt lat="43.40398" lon="6.06494">
        <ele>138.19999694824</ele>
        <time>2013-12-14T16:16:04Z</time>
      </trkpt>
      <trkpt lat="43.40398" lon="6.06494">
        <ele>138.19999694824</ele>
        <time>2013-12-14T16:16:06Z</time>
      </trkpt>
      <trkpt lat="43.40398" lon="6.06494">
        <ele>138.39999389648</ele>
        <time>2013-12-14T16:16:20Z</time>
      </trkpt>
      <trkpt lat="43.40398" lon="6.06494">
        <ele>138.39999389648</ele>
        <time>2013-12-14T16:16:37Z</time>
      </trkpt>
      <trkpt lat="43.40398" lon="6.06494">
        <ele>137.80000305176</ele>
        <time>2013-12-14T16:16:47Z</time>
      </trkpt>
    </trkseg>
  </trk>
</gpx>